<<back to data home page
Ready for Rain this Winter season?? Stay in touch!! - DONATE ANY AMOUNT BY CLICKING THIS LINK!!!


    Month/Day/Year       Maximum   Minimum    Rel    Dew       Rainfall  Seasonal  Soil     Soil      Baro       Wind    Wind        Peak    Peak Speed Evap     Leaf     Net
    and                  Air Temp  Air Temp   Hum    Point     Inches    Rainfall  Temp     Moisture  Pressure   Speed   Direction   Speed   Direction   Pan     Wetness  Radiation
    Local Time           Deg F     Deg F      %      Deg F               Inches    Deg F    dS/m      mbar       MPH     comp  deg   MPH     comp  deg  Inches   mV       W_m2
----------------------------------------------------------------------------------------------------------------------------------------------------------------------------------
   03/22/2019 03:50      44.2      43.8       93     42.0      0.00     18.96      59.2     0.48      1020.9     0.3      SE   140   1.6      SE   141   9.53    341      -22.7
   03/22/2019 03:40      44.2      43.0       93     41.7      0.00     18.96      59.2     0.48      1021.0     1.3      SE   141   2.2      SE   141   9.53    335      -20.5
   03/22/2019 03:30      43.3      42.5       92     40.7      0.00     18.96      59.2     0.48      1021.2     0.8      SE   146   2.1     SSE   151   9.53    329      -23.7
   03/22/2019 03:20      43.8      42.7       92     41.0      0.00     18.96      59.2     0.48      1021.4     0.4     SSE   168   1.7       S   184   9.53    324      -27.5
   03/22/2019 03:10      44.2      43.4       91     41.4      0.00     18.96      59.3     0.48      1021.4     0.7       S   171   2.0     SSE   146   9.53    318      -29.9
   03/22/2019 03:00      44.9      44.1       91     42.2      0.00     18.96      59.3     0.48      1021.4     0.4     SSE   163   1.1     SSE   164   9.53    314      -31.1
   03/22/2019 02:50      44.8      44.2       91     42.1      0.00     18.96      59.4     0.48      1021.4     0.9       S   187   2.1       S   190   9.54    307      -32.2
   03/22/2019 02:40      45.8      44.2       90     42.3      0.00     18.96      59.4     0.48      1021.4     1.3       S   189   1.7     SSW   203   9.54    303      -30.4
   03/22/2019 02:30      45.7      45.4       91     42.9      0.00     18.96      59.4     0.48      1021.4     0.4       S   184   1.1     SSW   193   9.54    300      -35.0
   03/22/2019 02:20      46.0      45.4       90     42.9      0.00     18.96      59.4     0.48      1021.4     0.1     SSE   158   0.8      SE   142   9.54    297      -34.2
   03/22/2019 02:10      46.0      45.5       90     42.9      0.00     18.96      59.4     0.48      1021.5     0.6       S   189   1.4       S   179   9.54    294      -41.4
   03/22/2019 02:00      46.2      45.4       89     42.6      0.00     18.96      59.4     0.48      1021.6     0.0       N     8   1.6       N     6   9.54    290      -39.0
   03/22/2019 01:50      47.0      45.9       88     43.0      0.00     18.96      59.4     0.48      1021.5     0.6     SSE   164   1.6       S   179   9.54    288      -51.0
   03/22/2019 01:40      47.5      46.7       87     43.3      0.00     18.96      59.5     0.48      1021.4     0.6     SSW   192   1.3       S   172   9.54    283      -58.9
   03/22/2019 01:30      48.3      47.2       86     43.6      0.00     18.96      59.5     0.48      1021.4     0.7     SSE   157   1.4     SSE   158   9.54    279      -64.7
   03/22/2019 01:20      48.6      47.8       85     43.8      0.00     18.96      59.5     0.48      1021.3     0.9     SSW   202   3.0     WSW   251   9.54    275      -67.8
   03/22/2019 01:10      48.6      48.1       86     44.2      0.00     18.96      59.6     0.48      1021.3     1.5     SSW   211   3.5      SW   229   9.54    271      -65.0
   03/22/2019 01:00      48.4      47.8       86     44.0      0.00     18.96      59.6     0.48      1021.3     1.4      SW   222   4.1     WSW   251   9.54    271      -59.5
   03/22/2019 00:50      48.1      47.8       86     44.0      0.00     18.96      59.6     0.48      1021.2     2.3      SW   228   4.8      SW   224   9.54    271      -67.8
   03/22/2019 00:40      48.1      47.6       86     43.9      0.00     18.96      59.6     0.48      1021.2     2.2      SW   219   6.0     SSW   208   9.54    271      -69.5
   03/22/2019 00:30      48.0      47.5       86     43.8      0.00     18.96      59.6     0.48      1021.1     2.2      SW   218   4.4      SW   234   9.54    271      -70.6
   03/22/2019 00:20      48.1      47.5       86     43.6      0.00     18.96      59.7     0.48      1021.1     2.6     SSW   212   4.8     SSW   197   9.54    271      -71.3
   03/22/2019 00:10      48.0      47.5       85     43.6      0.00     18.96      59.7     0.48      1021.1     3.1      SW   216   6.1       S   190   9.54    271      -71.2
   03/22/2019 00:00      48.1      47.6       85     43.4      0.00     18.96      59.7     0.48      1021.1     2.8     SSW   211   4.8       S   184   9.54    271      -71.0
   03/21/2019 23:50      48.2      47.8       84     43.4      0.00     18.96      59.7     0.48      1021.0     2.7      SW   228   4.8     WSW   248   9.54    271      -71.5
   03/21/2019 23:40      48.6      48.0       84     43.5      0.00     18.96      59.7     0.48      1021.0     3.6     WSW   239   6.1      SW   214   9.54    271      -71.7
   03/21/2019 23:30      48.6      48.2       83     43.3      0.00     18.96      59.7     0.48      1021.0     3.3     WSW   240   5.0     WSW   243   9.54    271      -71.6
   03/21/2019 23:20      48.6      48.0       83     43.3      0.00     18.96      59.8     0.48      1020.8     3.7     WSW   241   6.9     WSW   257   9.54    271      -71.4
   03/21/2019 23:10      48.6      48.0       82     43.0      0.00     18.96      59.8     0.48      1020.8     1.8      SW   220   3.8      SW   232   9.54    271      -71.4
   03/21/2019 23:00      48.7      48.2       82     42.9      0.00     18.96      59.8     0.48      1020.7     1.4      SW   218   3.1      SW   220   9.54    271      -71.2
   03/21/2019 22:50      49.0      48.4       81     43.0      0.00     18.96      59.8     0.48      1020.7     1.3     SSW   204   4.0      SW   223   9.54    271      -71.5
   03/21/2019 22:40      49.1      48.7       80     43.0      0.00     18.96      59.8     0.48      1020.7     1.6     SSW   213   3.0       S   190   9.54    270      -71.5
   03/21/2019 22:30      49.1      48.7       80     43.0      0.00     18.96      59.8     0.48      1020.8     2.3     SSW   202   3.9      SW   218   9.54    271      -70.7
   03/21/2019 22:20      49.5      48.7       79     43.0      0.00     18.96      59.8     0.48      1020.8     2.3     SSW   203   3.6       S   189   9.55    270      -70.6
   03/21/2019 22:10      50.0      49.2       78     43.1      0.00     18.96      59.8     0.48      1020.8     2.4     SSW   198   3.5     SSW   201   9.55    270      -71.0
   03/21/2019 22:00      50.1      49.6       78     43.2      0.00     18.96      59.8     0.48      1020.7     1.8     SSW   213   3.5     SSW   204   9.55    270      -71.7
   03/21/2019 21:50      50.5      49.8       77     43.1      0.00     18.96      59.9     0.48      1020.7     1.6     SSW   204   2.8     WSW   244   9.55    270      -72.3
   03/21/2019 21:40      50.5      50.0       77     43.2      0.00     18.96      59.9     0.48      1020.7     1.8      SW   216   3.9      SW   225   9.55    270      -73.0
   03/21/2019 21:30      50.7      50.3       76     43.2      0.00     18.96      59.9     0.48      1020.6     2.9     WSW   238   4.7       W   273   9.55    270      -73.2
   03/21/2019 21:20      50.6      50.2       76     43.2      0.00     18.96      59.9     0.48      1020.5     3.2     WSW   239   4.7     WSW   250   9.55    270      -73.4
   03/21/2019 21:10      50.6      50.1       76     43.0      0.00     18.96      59.9     0.48      1020.5     2.3      SW   222   5.2      SW   216   9.55    270      -73.4
   03/21/2019 21:00      51.0      50.4       75     42.9      0.00     18.96      59.9     0.48      1020.5     2.5      SW   219   5.8      SW   226   9.55    269      -73.6
   03/21/2019 20:50      51.3      50.6       73     42.6      0.00     18.96      59.9     0.48      1020.5     1.7      SW   216   3.2      SW   236   9.55    269      -73.8
   03/21/2019 20:40      51.8      51.0       72     42.7      0.00     18.96      59.9     0.48      1020.4     2.4      SW   234   4.3     WSW   248   9.55    269      -74.4
   03/21/2019 20:30      51.9      51.2       72     42.6      0.00     18.96      59.8     0.48      1020.3     2.4     WSW   241   3.7       W   269   9.56    269      -74.8
   03/21/2019 20:20      52.3      51.4       70     42.4      0.00     18.96      59.8     0.48      1020.3     1.9      SW   227   4.0      SW   230   9.56    269      -76.1
   03/21/2019 20:10      52.4      51.8       69     42.4      0.00     18.96      59.8     0.48      1020.2     2.9      SW   225   4.6     WSW   245   9.56    269      -74.7
   03/21/2019 20:00      52.5      51.9       69     42.4      0.00     18.96      59.8     0.48      1020.0     3.1      SW   233   6.3       W   265   9.56    269      -70.2
   03/21/2019 19:50      52.9      52.2       68     42.1      0.00     18.96      59.8     0.48      1020.0     3.2      SW   223   5.7     WSW   237   9.56    268      -62.6
   03/21/2019 19:40      53.3      52.5       67     42.0      0.00     18.96      59.8     0.48      1020.0     2.5      SW   228   4.3      SW   226   9.56    268      -65.7
   03/21/2019 19:30      53.6      53.0       66     42.0      0.00     18.96      59.8     0.48      1019.8     3.0      SW   236   4.6      SW   227   9.56    268      -71.6
   03/21/2019 19:20      53.9      53.2       65     42.0      0.00     18.96      59.7     0.48      1019.6     3.4     WSW   253   6.2       W   269   9.56    268      -72.6
   03/21/2019 19:10      54.4      53.6       64     42.1      0.00     18.96      59.7     0.48      1019.7     4.6     WSW   249   8.9     WSW   251   9.56    268      -58.9
   03/21/2019 19:00      54.4      53.7       64     42.0      0.00     18.96      59.7     0.48      1019.6     5.3     WSW   256  10.4     WSW   242   9.56    268      -59.6
   03/21/2019 18:50      54.8      54.0       62     41.6      0.00     18.96      59.7     0.48      1019.6     4.9     WSW   244   9.6       W   259   9.57    268      -58.2
   03/21/2019 18:40      55.0      54.4       61     41.6      0.00     18.96      59.6     0.48      1019.6     5.2     WSW   244   8.5     WSW   246   9.57    268      -51.3
   03/21/2019 18:30      56.0      54.8       60     41.5      0.00     18.96      59.6     0.48      1019.5     4.7     WSW   245   9.1      SW   236   9.57    268      -33.8
   03/21/2019 18:20      56.9      55.6       57     41.0      0.00     18.96      59.6     0.48      1019.4     6.1     WSW   252  11.7       W   273   9.57    268       -4.5
   03/21/2019 18:10      57.4      56.6       54     40.4      0.00     18.96      59.6     0.48      1019.4     5.2       W   264  10.4      SW   236   9.57    268       20.9
   03/21/2019 18:00      57.5      56.9       54     40.6      0.00     18.96      59.5     0.48      1019.3     5.7     WSW   259  11.2      SW   236   9.58    268       55.9
   03/21/2019 17:50      57.7      57.4       53     40.3      0.00     18.96      59.5     0.48      1019.1     6.3       W   271  12.0     WNW   288   9.58    267      136.9
   03/21/2019 17:40      58.0      57.3       54     40.9      0.00     18.96      59.5     0.48      1019.0     7.1     WSW   252  11.8       W   259   9.58    268      207.7
   03/21/2019 17:30      57.9      56.1       58     42.6      0.00     18.96      59.4     0.48      1019.0     6.5     WSW   245  12.8       W   267   9.58    267      220.8
   03/21/2019 17:20      57.7      56.1       61     43.8      0.00     18.96      59.4     0.48      1019.0     6.2      SW   218  11.5      SW   232   9.59    268       75.3
   03/21/2019 17:10      57.9      57.4       62     44.8      0.00     18.96      59.4     0.48      1019.0     5.1     SSW   201   9.5      SW   231   9.59    268      220.4
   03/21/2019 17:00      57.6      56.7       62     44.5      0.00     18.96      59.4     0.48      1019.0     5.1     SSW   210   9.7       W   269   9.59    268      227.6
   03/21/2019 16:50      57.6      56.4       65     45.0      0.00     18.96      59.3     0.48      1019.0     5.0     SSW   207   9.6       S   184   9.59    268      240.7
   03/21/2019 16:40      56.8      56.1       64     44.5      0.00     18.96      59.3     0.48      1019.0     6.1     SSW   202   9.0       S   187   9.59    268      157.6
   03/21/2019 16:30      57.5      56.5       63     44.7      0.00     18.96      59.3     0.48      1018.9     6.2      SW   216  11.0      SW   217   9.59    268       90.9
   03/21/2019 16:20      59.0      57.2       63     45.6      0.00     18.96      59.2     0.48      1018.9     4.3       S   191   9.2     SSW   200   9.59    268      127.4
   03/21/2019 16:10      60.3      58.8       62     46.0      0.00     18.96      59.1     0.48      1018.7     5.0     SSW   203  10.9     SSW   202   9.59    267      386.9
   03/21/2019 16:00      60.3      58.8       61     46.0      0.00     18.96      59.1     0.48      1018.6     4.6       S   173   9.0     SSE   168   9.60    268      457.2
   03/21/2019 15:50      58.9      57.5       61     44.8      0.00     18.96      59.1     0.48      1018.7     3.5     SSE   160   7.6       S   173   9.59    268      366.4
   03/21/2019 15:40      58.7      57.6       60     44.4      0.00     18.96      59.1     0.48      1018.7     3.8       S   170   9.0      SE   133   9.60    268      141.6
   03/21/2019 15:30      58.9      57.6       60     44.5      0.01     18.96      59.0     0.48      1018.7     4.7     SSW   196   9.5      SW   215   9.60    268      454.6
   03/21/2019 15:20      59.0      57.8       61     45.0      0.00     18.95      59.0     0.48      1018.8     4.9       S   176   9.3       S   172   9.60    268      243.0
   03/21/2019 15:10      58.9      58.2       59     44.2      0.00     18.95      59.0     0.48      1018.8     4.1       S   188   8.0     SSW   200   9.60    267      472.9
   03/21/2019 15:00      58.6      57.2       62     45.0      0.00     18.95      58.9     0.48      1018.9     5.0       S   175  10.9     SSW   193   9.60    268      347.2
   03/21/2019 14:50      59.2      57.3       62     45.1      0.00     18.95      58.9     0.48      1019.0     5.1       S   169   9.0       S   183   9.60    268      405.6
   03/21/2019 14:40      59.2      57.6       61     44.9      0.00     18.95      58.9     0.48      1019.1     4.4     SSE   154   8.9       S   182   9.60    267      581.2
   03/21/2019 14:30      58.9      57.6       62     45.2      0.00     18.95      58.9     0.48      1019.2     5.1     SSE   161   9.1      SE   136   9.60    267      533.6
   03/21/2019 14:20      59.4      58.3       63     46.3      0.00     18.95      58.8     0.48      1019.3     3.8       S   181   7.0     SSW   212   9.60    268      542.7
   03/21/2019 14:10      58.7      57.3       66     46.5      0.00     18.95      58.8     0.48      1019.3     4.8       S   179   9.0     SSW   205   9.60    268      671.5
   03/21/2019 14:00      58.5      57.1       62     44.7      0.00     18.95      58.8     0.48      1019.4     4.2     SSW   195   9.0       S   186   9.60    268      489.1
   03/21/2019 13:50      58.2      57.2       62     44.8      0.00     18.95      58.8     0.48      1019.5     3.6     SSE   158   7.5     SSE   161   9.60    268      669.0
   03/21/2019 13:40      57.6      57.0       63     44.6      0.00     18.95      58.8     0.48      1019.6     4.3       S   177   7.5      SW   233   9.60    268      589.6
   03/21/2019 13:30      57.9      57.0       62     44.4      0.00     18.95      58.8     0.48      1019.8     2.8     SSW   194   7.9      SW   222   9.60    279      632.8
   03/21/2019 13:20      57.9      56.0       64     44.9      0.00     18.95      58.8     0.48      1020.0     2.7       S   186   6.2      SE   138   9.61    294      743.1
   03/21/2019 13:10      56.3      55.0       68     45.0      0.00     18.95      58.7     0.48      1020.1     3.5     SSE   158   7.6       S   186   9.61    304      785.1
   03/21/2019 13:00      55.4      54.2       71     45.6      0.00     18.95      58.7     0.48      1020.4     4.6       S   170   7.6       S   183   9.61    312      734.8
   03/21/2019 12:50      55.0      54.3       70     45.1      0.00     18.95      58.7     0.48      1020.5     4.2     SSW   206   7.6      SE   146   9.61    320      456.8
   03/21/2019 12:40      54.9      54.5       70     45.0      0.00     18.95      58.7     0.48      1020.5     2.7     WSW   252   5.2       W   264   9.60    328      303.1
   03/21/2019 12:30      55.4      54.6       70     45.2      0.00     18.95      58.7     0.48      1020.4     1.9       W   270   4.1     SSW   209   9.60    340      185.7
   03/21/2019 12:20      56.4      55.3       64     43.9      0.01     18.95      58.7     0.48      1020.4     1.6       W   278   5.3      NW   319   9.60    393      161.0
   03/21/2019 12:10      56.3      55.6       63     43.6      0.00     18.94      58.7     0.48      1020.4     1.7       W   273   4.3     WSW   256   9.59    272      410.0
   03/21/2019 12:00      56.4      55.6       66     44.7      0.00     18.94      58.8     0.48      1020.7     1.4      SW   225   3.7     WSW   251   9.59    268      350.4
   03/21/2019 11:50      56.0      55.5       67     44.9      0.00     18.94      58.8     0.48      1020.7     1.7       N   354   4.1      NW   324   9.59    272      428.9
   03/21/2019 11:40      56.6      55.4       68     45.5      0.00     18.94      58.8     0.48      1020.8     1.4     WNW   284   4.1     WNW   297   9.59    285      612.1
   03/21/2019 11:30      55.4      53.5       70     45.0      0.00     18.94      58.8     0.48      1020.9     1.4       W   265   3.7     WSW   246   9.58    296      662.6
   03/21/2019 11:20      53.9      52.3       73     44.8      0.00     18.94      58.8     0.48      1021.0     1.7      SW   218   3.6       S   173   9.59    304      521.7
   03/21/2019 11:10      52.6      51.9       75     44.5      0.00     18.94      58.8     0.48      1021.1     1.6     SSW   202   3.0       S   186   9.59    312      299.6
   03/21/2019 11:00      52.4      51.7       79     45.9      0.00     18.94      58.8     0.48      1021.2     2.0      SW   232   3.5     SSW   201   9.59    314      224.8
   03/21/2019 10:50      52.0      51.5       81     46.0      0.01     18.94      58.8     0.48      1021.1     1.8       W   264   3.7     WSW   252   9.58    323      226.5
   03/21/2019 10:40      52.4      51.7       79     45.6      0.01     18.93      58.8     0.48      1021.0     1.7     WNW   301   3.6       W   278   9.57    445       99.8
   03/21/2019 10:30      53.0      52.2       76     45.4      0.02     18.92      58.8     0.48      1021.0     1.5       W   270   3.7       W   263   9.56    385       86.3
   03/21/2019 10:20      53.2      52.6       73     44.4      0.00     18.90      58.9     0.48      1020.8     1.1     NNW   337   2.8     NNE    14   9.55    367       96.1
   03/21/2019 10:10      53.2      52.7       75     45.3      0.00     18.90      58.9     0.48      1020.7     1.2      NW   308   2.8     WNW   291   9.54    274      135.4
   03/21/2019 10:00      53.0      52.5       76     45.3      0.00     18.90      58.9     0.48      1020.6     1.1       N     2   2.8     NNW   343   9.54    270      150.6
   03/21/2019 09:50      52.9      52.3       77     45.7      0.00     18.90      58.9     0.48      1020.6     1.0     NNE    13   2.4       N   353   9.54    280      137.4
   03/21/2019 09:40      52.9      52.3       77     45.5      0.00     18.90      59.0     0.48      1020.6     1.3      NW   323   2.8      NW   320   9.54    291      130.0
   03/21/2019 09:30      53.3      52.7       75     45.1      0.00     18.90      59.0     0.48      1020.6     1.3       N   355   3.5     NNE    13   9.54    283      137.5
   03/21/2019 09:20      54.5      53.0       73     45.4      0.00     18.90      59.0     0.48      1020.5     1.3       N   353   3.7     NNE    30   9.54    292      186.7
   03/21/2019 09:10      54.3      52.7       74     45.5      0.00     18.90      59.0     0.48      1020.3     0.3      SW   214   1.2      SW   218   9.54    301      208.4
   03/21/2019 09:00      52.7      50.8       79     45.2      0.00     18.90      59.1     0.48      1020.2     0.3     WSW   242   1.7       W   264   9.54    293      242.1
   03/21/2019 08:50      51.0      50.3       81     45.0      0.00     18.90      59.1     0.48      1020.1     1.4       S   186   2.9     SSW   202   9.54    299       91.4
   03/21/2019 08:40      50.4      49.6       83     45.0      0.00     18.90      59.1     0.48      1020.0     1.5     SSW   202   3.1       S   169   9.54    298       62.6
   03/21/2019 08:30      49.9      49.0       86     45.3      0.00     18.90      59.2     0.48      1019.9     1.6       S   171   3.4       S   177   9.54    301       77.2
   03/21/2019 08:20      49.1      48.3       87     44.9      0.00     18.90      59.2     0.48      1019.9     0.8     ESE   112   1.9      SE   136   9.54    304       61.2
   03/21/2019 08:10      48.5      47.8       88     44.6      0.00     18.90      59.3     0.48      1020.0     1.2      SE   146   3.1       S   190   9.54    313       22.0
   03/21/2019 08:00      48.0      47.6       89     44.6      0.00     18.90      59.2     0.48      1019.9     1.7     SSW   204   3.6     SSW   208   9.54    345       13.7
   03/21/2019 07:50      48.0      47.3       89     44.5      0.00     18.90      59.3     0.48      1019.6     1.2     ENE    70   2.6      NE    54   9.54    361        6.3
   03/21/2019 07:40      47.6      47.1       89     44.4      0.01     18.90      59.3     0.48      1019.7     1.0       E    98   2.3     ESE   106   9.54    380        4.2
   03/21/2019 07:30      47.2      46.8       89     44.0      0.00     18.89      59.4     0.48      1020.1     0.8     ENE    75   2.2      NE    55   9.54    375        1.0
   03/21/2019 07:20      47.0      46.3       90     43.7      0.00     18.89      59.4     0.48      1020.2     0.9     SSW   210   2.1     WSW   255   9.54    342        0.2
   03/21/2019 07:10      46.5      45.8       91     43.5      0.00     18.89      59.4     0.48      1020.1     0.7       S   187   1.8     SSW   200   9.54    343       -3.4
   03/21/2019 07:00      46.1      45.7       91     43.5      0.00     18.89      59.4     0.48      1020.1     0.4     WSW   246   1.6     SSW   207   9.54    346       -5.9
   03/21/2019 06:50      45.9      45.4       91     43.2      0.00     18.89      59.5     0.48      1020.1     0.3      SE   133   1.2     SSE   148   9.54    346       -7.7
   03/21/2019 06:40      45.8      45.1       92     43.2      0.00     18.89      59.5     0.48      1020.1     0.2     ESE   114   1.3      SE   142   9.54    348       -4.9
   03/21/2019 06:30      45.2      44.7       92     42.8      0.00     18.89      59.5     0.48      1020.0     0.4       S   188   1.9     SSW   198   9.54    350       -4.2
   03/21/2019 06:20      44.9      43.4       92     41.9      0.00     18.89      59.5     0.48      1019.8     1.3       S   185   2.1     SSW   207   9.54    352      -11.6
   03/21/2019 06:10      44.4      43.4       91     41.4      0.00     18.89      59.6     0.48      1019.6     0.3     SSE   167   0.7       S   170   9.54    350      -15.1
   03/21/2019 06:00      44.9      44.2       91     42.1      0.00     18.89      59.6     0.48      1019.6     0.5     SSE   153   1.3      SE   136   9.54    348      -21.9
   03/21/2019 05:50      45.6      44.5       90     42.5      0.00     18.89      59.6     0.48      1019.5     1.0       S   174   1.9      SW   229   9.54    342      -22.4
   03/21/2019 05:40      46.0      45.1       90     42.6      0.00     18.89      59.6     0.48      1019.5     0.1       S   180   0.9      SW   229   9.54    339      -23.1
   03/21/2019 05:30      46.2      45.8       91     43.4      0.00     18.89      59.7     0.48      1019.4     0.5       S   182   1.3     SSW   202   9.54    335      -20.8
   03/21/2019 05:20      46.5      45.9       91     43.5      0.00     18.89      59.7     0.48      1019.4     0.0     SSW   204   0.8     SSW   207   9.54    331      -20.4
   03/21/2019 05:10      46.4      45.8       91     43.5      0.00     18.89      59.8     0.48      1019.4     0.2     SSE   151   0.7     SSE   150   9.54    330      -12.7
   03/21/2019 05:00      46.1      45.6       91     43.2      0.00     18.89      59.8     0.48      1019.4     0.5       S   173   1.5       S   182   9.54    330       -7.9
   03/21/2019 04:50      46.1      45.4       91     43.1      0.00     18.89      59.8     0.48      1019.3     1.5      SW   222   3.0      SW   233   9.54    330      -13.3
   03/21/2019 04:40      46.2      45.5       91     43.0      0.00     18.89      59.9     0.48      1019.2     0.3     ESE   120   1.7      SE   141   9.54    330      -14.8
   03/21/2019 04:30      46.1      45.5       91     43.3      0.00     18.89      59.9     0.48      1019.1     1.1     SSW   197   1.6       S   185   9.54    328      -14.3
   03/21/2019 04:20      45.7      45.3       90     42.8      0.00     18.89      59.9     0.48      1019.2     0.5     SSE   158   1.3     SSE   164   9.54    326       -8.2
   03/21/2019 04:10      45.9      45.4       90     42.8      0.00     18.89      60.0     0.48      1019.1     0.3     ESE   112   2.1      SE   137   9.54    327      -16.4
   03/21/2019 04:00      46.2      45.6       90     43.0      0.00     18.89      60.0     0.48      1019.1     0.9      SE   146   2.7      SE   144   9.54    324      -15.4
   03/21/2019 03:50      46.3      45.8       90     43.4      0.00     18.89      60.0     0.48      1019.1     0.7     SSE   166   1.8     SSW   204   9.54    322      -22.7
   03/21/2019 03:40      46.4      45.3       92     43.7      0.00     18.89      60.0     0.48      1019.2     1.1     SSW   204   2.6      SW   227   9.54    319      -23.7
   03/21/2019 03:30      45.5      44.5       92     42.7      0.00     18.89      60.0     0.48      1019.2     1.4       S   176   2.7       S   191   9.54    316      -25.9
   03/21/2019 03:20      45.1      44.0       92     42.3      0.00     18.89      60.0     0.48      1019.1     1.2     SSW   209   1.7      SW   228   9.54    310      -27.7
   03/21/2019 03:10      44.7      44.1       91     41.7      0.00     18.89      60.1     0.48      1019.1     0.3       S   171   0.9     SSE   169   9.54    305      -33.7
   03/21/2019 03:00      45.8      44.4       90     42.3      0.00     18.89      60.1     0.48      1019.1     0.3     SSE   158   1.1      SE   144   9.54    302      -38.1
   03/21/2019 02:50      45.7      45.3       90     42.6      0.00     18.89      60.1     0.48      1019.1     0.0       S   186   0.4       S   186   9.54    298      -43.0
   03/21/2019 02:40      46.2      45.4       89     42.6      0.00     18.89      60.1     0.48      1019.0     0.0     SSE   160   0.7     SSE   156   9.54    295      -51.2
   03/21/2019 02:30      47.3      45.8       87     42.7      0.00     18.89      60.2     0.48      1018.9     1.1      SE   144   2.1      SE   141   9.54    290      -56.3
   03/21/2019 02:20      47.5      46.9       87     43.5      0.00     18.89      60.2     0.48      1018.9     0.3     SSW   201   1.8      SW   224   9.54    285      -60.1
   03/21/2019 02:10      47.9      47.0       86     43.2      0.00     18.89      60.2     0.48      1018.9     0.5       S   187   1.4     SSW   212   9.54    282      -67.1
   03/21/2019 02:00      48.7      47.6       84     43.5      0.00     18.89      60.2     0.48      1019.0     0.4      SE   139   1.7      SE   142   9.54    278      -71.0
   03/21/2019 01:50      49.4      48.3       82     43.7      0.00     18.89      60.2     0.48      1019.0     1.2     SSE   169   2.6       S   183   9.54    272      -72.2
   03/21/2019 01:40      49.5      49.1       82     44.0      0.00     18.89      60.3     0.48      1018.9     2.1     SSW   211   4.1     SSW   212   9.54    270      -72.8
   03/21/2019 01:30      49.5      49.0       82     44.0      0.00     18.89      60.3     0.48      1018.9     3.5     SSW   209   5.7       S   187   9.54    270      -71.8
   03/21/2019 01:20      49.7      49.2       82     44.1      0.00     18.89      60.3     0.48      1018.9     2.6     SSW   195   3.5     SSW   211   9.54    270      -72.2
   03/21/2019 01:10      50.1      49.4       81     44.1      0.00     18.89      60.3     0.48      1018.9     2.7     SSW   198   4.4      SW   219   9.54    270      -73.2
   03/21/2019 01:00      50.3      49.7       80     44.1      0.00     18.89      60.4     0.48      1019.0     2.9     SSW   213   6.0     SSW   205   9.55    270      -73.2
   03/21/2019 00:50      50.6      49.9       80     44.2      0.00     18.89      60.4     0.48      1019.0     3.5     SSW   209   6.2      SW   218   9.55    270      -72.8
   03/21/2019 00:40      51.0      50.4       80     44.5      0.00     18.89      60.4     0.48      1018.9     3.0     SSW   194   5.0       S   188   9.55    270      -72.4
   03/21/2019 00:30      51.0      50.6       79     44.5      0.00     18.89      60.5     0.48      1018.9     2.8       S   189   4.6       S   187   9.55    270      -72.8
   03/21/2019 00:20      51.9      50.9       78     44.6      0.00     18.89      60.4     0.48      1018.9     2.9     SSW   195   4.1     SSW   199   9.55    270      -72.1
   03/21/2019 00:10      52.0      51.5       78     45.0      0.00     18.89      60.5     0.48      1018.9     3.0     SSW   201   5.6     SSW   196   9.55    270      -59.1
   03/21/2019 00:00      52.0      51.6       78     45.0      0.00     18.89      60.5     0.48      1018.9     2.7     SSW   207   4.9     SSW   198   9.55    270      -37.7
   03/20/2019 23:50      52.2      51.7       77     45.0      0.00     18.89      60.5     0.48      1019.0     2.7      SW   231   5.7     WSW   241   9.55    270      -44.2
   03/20/2019 23:40      52.5      52.0       78     45.4      0.00     18.89      60.5     0.48      1019.0     3.1      SW   219   4.9     WSW   254   9.55    270      -40.9
   03/20/2019 23:30      52.5      52.1       77     45.4      0.00     18.89      60.6     0.48      1018.9     3.3     SSW   201   5.8       S   185   9.55    270      -16.5
   03/20/2019 23:20      52.5      52.1       78     45.6      0.00     18.89      60.6     0.48      1018.9     2.8     SSW   205   6.0       S   191   9.55    269      -17.4
   03/20/2019 23:10      52.5      52.2       78     45.6      0.00     18.89      60.6     0.48      1018.8     2.0     SSW   214   3.9     WNW   302   9.55    270      -23.8
   03/20/2019 23:00      52.5      52.2       78     45.7      0.00     18.89      60.6     0.48      1018.8     1.9      SW   228   4.4       W   260   9.55    270      -17.5
   03/20/2019 22:50      52.5      52.1       78     45.7      0.00     18.89      60.6     0.49      1018.8     2.5     SSW   207   4.9      SW   232   9.55    270      -14.0
   03/20/2019 22:40      52.5      51.9       79     45.7      0.00     18.89      60.6     0.49      1018.8     2.3      SW   215   4.3     SSW   214   9.55    270      -10.2
   03/20/2019 22:30      52.2      51.7       79     45.7      0.00     18.89      60.7     0.49      1018.7     2.4     SSW   201   4.5      SW   224   9.55    270      -18.0
   03/20/2019 22:20      52.0      51.6       79     45.6      0.00     18.89      60.7     0.49      1018.6     2.2      SW   219   4.7      SW   224   9.55    270      -22.3
   03/20/2019 22:10      51.9      51.3       79     45.4      0.00     18.89      60.7     0.49      1018.6     2.8     SSW   209   4.5      SW   219   9.55    270      -48.4
   03/20/2019 22:00      51.8      51.4       79     45.3      0.00     18.89      60.8     0.49      1018.6     2.8     SSW   212   6.4      SW   214   9.55    270      -54.1
   03/20/2019 21:50      51.6      51.1       80     45.3      0.00     18.89      60.8     0.49      1018.6     3.1      SW   220   7.0      SW   223   9.55    270      -64.6
   03/20/2019 21:40      51.9      51.2       80     45.4      0.00     18.89      60.8     0.49      1018.5     1.7     SSW   203   3.3      SW   224   9.55    270      -70.6
   03/20/2019 21:30      52.1      51.6       79     45.3      0.00     18.89      60.8     0.49      1018.5     1.9     SSW   209   3.5     WSW   239   9.55    270      -72.8
   03/20/2019 21:20      52.2      51.9       78     45.3      0.00     18.89      60.8     0.49      1018.5     3.2      SW   233   6.5     WSW   258   9.55    270      -73.7
   03/20/2019 21:10      52.0      51.8       78     45.3      0.00     18.89      60.8     0.49      1018.3     2.4      SW   229   4.9     WSW   256   9.55    270      -73.7
   03/20/2019 21:00      52.1      51.7       78     45.4      0.00     18.89      60.8     0.49      1018.1     2.5     SSW   205   4.7       S   189   9.56    270      -74.1
   03/20/2019 20:50      52.4      51.9       78     45.3      0.00     18.89      60.8     0.49      1018.0     3.1     SSW   205   5.0     SSW   210   9.56    270      -74.2
   03/20/2019 20:40      52.7      52.0       77     45.1      0.00     18.89      60.8     0.49      1017.9     1.8     SSW   197   3.9      SW   228   9.56    270      -74.4
   03/20/2019 20:30      52.9      52.2       76     45.1      0.00     18.89      60.9     0.49      1017.9     2.7     SSW   199   4.1       S   187   9.56    269      -72.6
   03/20/2019 20:20      53.2      52.6       75     45.0      0.00     18.89      60.9     0.49      1017.8     1.8     SSW   192   3.6     SSW   201   9.56    269      -64.3
   03/20/2019 20:10      53.5      52.9       74     44.9      0.00     18.89      60.9     0.49      1017.8     2.1     SSW   204   5.1      SW   224   9.56    269      -60.1
   03/20/2019 20:00      53.6      53.2       73     44.8      0.00     18.89      60.9     0.49      1017.7     3.0      SW   229   5.5      SW   225   9.56    269      -68.1
   03/20/2019 19:50      54.0      53.3       71     44.5      0.00     18.89      60.9     0.49      1017.5     2.4      SW   221   5.1     WSW   243   9.56    269      -73.3
   03/20/2019 19:40      54.3      53.9       69     44.3      0.00     18.89      60.9     0.49      1017.5     2.4      SW   232   3.8      SW   225   9.56    269      -72.5
   03/20/2019 19:30      54.5      53.9       69     44.1      0.00     18.89      60.9     0.49      1017.3     2.4      SW   228   5.1      SW   231   9.56    269      -74.2
   03/20/2019 19:20      55.1      54.3       67     43.8      0.00     18.89      60.9     0.49      1017.1     2.3      SW   226   4.5      SW   233   9.56    269      -75.0
   03/20/2019 19:10      55.5      54.8       65     43.5      0.00     18.89      61.0     0.49      1017.0     3.1     WSW   242   6.3     WSW   240   9.56    268      -73.0
   03/20/2019 19:00      56.4      55.4       63     43.2      0.00     18.89      60.9     0.49      1017.1     3.1     WSW   240   5.2     WSW   248   9.56    268      -69.1
   03/20/2019 18:50      57.4      56.0       62     43.5      0.00     18.89      61.0     0.49      1017.1     2.8     WSW   241   5.8       W   263   9.56    268      -64.5
   03/20/2019 18:40      58.0      57.0       59     43.4      0.00     18.89      61.0     0.49      1017.1     2.8     WNW   287   6.4     WNW   302   9.57    268      -53.2
   03/20/2019 18:30      58.7      57.7       57     43.2      0.00     18.89      61.0     0.49      1017.1     3.6       W   279   8.0     WNW   289   9.57    268      -23.6
   03/20/2019 18:20      58.7      58.3       57     43.5      0.00     18.89      61.0     0.49      1017.0     3.3       W   281   6.3     WNW   291   9.57    268        4.3
   03/20/2019 18:10      58.5      57.5       66     46.7      0.00     18.89      61.0     0.49      1017.0     2.3     WNW   290   5.6       W   259   9.57    268       33.0
   03/20/2019 18:00      57.8      57.4       72     48.7      0.00     18.89      61.0     0.49      1017.0     1.4     SSE   165   2.7     NNE    30   9.57    268       91.2
   03/20/2019 17:50      57.5      56.9       74     48.8      0.00     18.89      61.0     0.49      1017.1     1.6      NE    55   3.4       N     0   9.57    269      153.3
   03/20/2019 17:40      57.2      56.1       76     49.4      0.00     18.89      61.0     0.49      1017.1     2.0      NE    38   3.7     NNE    28   9.57    270      181.4
   03/20/2019 17:30      57.2      56.3       76     49.0      0.00     18.89      61.1     0.49      1017.1     2.4      NE    49   4.4     ENE    58   9.57    277      160.9
   03/20/2019 17:20      57.3      56.2       79     50.0      0.00     18.89      61.1     0.49      1017.1     1.7     ENE    59   3.1     ENE    64   9.57    285      226.7
   03/20/2019 17:10      56.6      56.0       79     49.9      0.00     18.89      61.1     0.49      1017.1     2.1      NE    53   4.4     NNE    32   9.57    294      145.1
   03/20/2019 17:00      56.8      56.0       80     50.0      0.00     18.89      61.1     0.49      1017.0     1.9      NE    48   3.9      NE    45   9.57    298      112.4
   03/20/2019 16:50      57.0      56.4       80     50.5      0.00     18.89      61.1     0.49      1017.1     2.6      NE    34   4.2      NE    38   9.57    302      214.8
   03/20/2019 16:40      56.8      56.3       80     50.4      0.00     18.89      61.1     0.49      1017.0     1.4      NE    48   2.4      NE    53   9.57    308      213.3
   03/20/2019 16:30      56.8      55.7       82     50.8      0.00     18.89      61.1     0.49      1017.0     0.9     ENE    68   3.3     ENE    75   9.57    313      209.4
   03/20/2019 16:20      55.9      54.4       84     50.5      0.00     18.89      61.0     0.49      1017.0     1.2      NE    42   2.7     ENE    63   9.57    316      282.6
   03/20/2019 16:10      54.6      53.1       88     50.3      0.00     18.89      61.0     0.49      1016.9     1.4      NE    48   3.3       W   260   9.57    320      335.3
   03/20/2019 16:00      53.3      51.0       88     48.5      0.00     18.89      61.0     0.49      1016.9     0.6       W   276   2.1      SE   124   9.57    332      240.3
   03/20/2019 15:50      51.1      50.3       85     46.2      0.02     18.89      61.0     0.49      1016.9     1.6      SE   143   3.0     ENE    71   9.56    440       92.6
   03/20/2019 15:40      53.2      50.6       80     46.0      0.16     18.87      61.0     0.49      1016.9     1.9     ENE    60   3.6      NE    38   9.56    364       30.5
   03/20/2019 15:30      53.3      52.6       79     46.4      0.00     18.71      60.9     0.48      1016.9     1.8       E    96   4.8     ENE    76   9.70    364       42.7
   03/20/2019 15:20      53.3      52.5       80     46.8      0.00     18.71      60.9     0.48      1016.9     1.5      NE    48   3.9       N     5   9.70    329      104.2
   03/20/2019 15:10      52.9      51.8       80     46.3      0.00     18.71      60.9     0.48      1016.9     1.7     NNE    29   4.9      NE    51   9.70    312      141.8
   03/20/2019 15:00      55.9      52.2       76     46.2      0.05     18.71      60.9     0.48      1017.0     3.6     NNE    29   6.4      NE    36   9.70    327       33.0
   03/20/2019 14:50      59.2      55.9       68     47.5      0.03     18.66      60.8     0.48      1016.8     3.2      NW   306   9.3     WSW   249   9.73    420       10.0
   03/20/2019 14:40      60.3      58.8       66     48.3      0.00     18.63      60.8     0.48      1016.3     2.3       N   350   4.7      NW   326   9.72    317       87.7
   03/20/2019 14:30      60.6      59.7       61     46.6      0.00     18.63      60.8     0.48      1016.4     2.5      NW   310   5.2       W   267   9.72    346      248.9
   03/20/2019 14:20      60.6      59.5       58     45.2      0.00     18.63      60.8     0.48      1016.5     2.6     WNW   303   6.6     WSW   249   9.72    274      161.1
   03/20/2019 14:10      61.1      59.8       55     44.3      0.00     18.63      60.8     0.47      1016.5     3.3       W   270   7.4     WSW   248   9.72    266      378.5
   03/20/2019 14:00      61.4      60.2       52     43.0      0.00     18.63      60.7     0.47      1016.6     6.3       W   261   9.9     WSW   257   9.72    266      687.5
   03/20/2019 13:50      60.8      59.1       57     44.5      0.00     18.63      60.7     0.48      1016.6     6.3     WSW   257   9.9       W   263   9.72    266      679.0
   03/20/2019 13:40      61.3      59.0       57     44.5      0.00     18.63      60.7     0.48      1016.7     5.5       W   259   9.7      SW   224   9.72    267      210.2
   03/20/2019 13:30      61.8      60.8       56     45.3      0.00     18.63      60.7     0.48      1016.6     1.8     WSW   253   5.1      SW   236   9.73    267       48.6
   03/20/2019 13:20      63.1      61.6       55     45.9      0.00     18.63      60.7     0.47      1016.6     1.9      NW   321   6.5     WSW   236   9.73    267       45.4
   03/20/2019 13:10      64.4      63.0       53     46.4      0.00     18.63      60.6     0.47      1016.7     1.3      NE    39   3.0     SSW   198   9.73    266      390.2
   03/20/2019 13:00      63.4      61.1       55     45.6      0.00     18.63      60.6     0.47      1016.7     1.1     ENE    74   3.0     NNW   342   9.73    266      436.2
   03/20/2019 12:50      61.3      60.8       56     45.3      0.00     18.63      60.6     0.48      1016.9     2.5       E    95   4.6     ENE    59   9.73    267      236.5
   03/20/2019 12:40      61.3      60.8       54     44.0      0.00     18.63      60.6     0.48      1017.1     1.4     ENE    56   4.1     ENE    64   9.73    267      133.2
   03/20/2019 12:30      61.2      60.8       54     44.1      0.00     18.63      60.6     0.48      1017.2     1.9      NE    51   3.8     ENE    64   9.73    267       81.1
   03/20/2019 12:20      61.5      60.9       54     44.4      0.00     18.63      60.6     0.48      1017.3     1.4     ENE    69   3.2       E    80   9.73    267       79.9
   03/20/2019 12:10      61.4      60.6       52     43.3      0.00     18.63      60.6     0.48      1017.4     0.6      SE   129   2.0     WSW   255   9.73    282       71.1
   03/20/2019 12:00      62.4      60.8       50     42.8      0.00     18.63      60.6     0.47      1017.5     1.5     SSW   200   4.2     SSW   192   9.73    267       97.8
   03/20/2019 11:50      63.8      61.9       48     42.9      0.00     18.63      60.6     0.47      1017.6     2.3     NNE    23   4.4      NE    45   9.73    266      173.6
   03/20/2019 11:40      63.9      61.8       49     43.3      0.00     18.63      60.6     0.47      1017.7     2.2      NE    36   5.3      NE    49   9.73    266      598.2
   03/20/2019 11:30      63.3      61.2       53     44.7      0.00     18.63      60.6     0.47      1017.8     2.6     SSE   155   7.0      SE   136   9.73    266      458.8
   03/20/2019 11:20      62.7      61.3       54     44.8      0.00     18.63      60.6     0.47      1017.8     2.7      SE   137   5.5     SSE   151   9.74    266      629.9
   03/20/2019 11:10      62.0      60.4       56     45.4      0.00     18.63      60.7     0.48      1018.0     2.4      SE   127   6.3      SE   138   9.74    266      656.2
   03/20/2019 11:00      60.7      59.6       62     46.9      0.00     18.63      60.7     0.48      1018.1     2.3     SSE   152   6.6     SSE   149   9.74    267      587.5
   03/20/2019 10:50      60.1      58.3       66     48.0      0.00     18.63      60.6     0.48      1018.2     3.0       S   177   6.6     SSE   149   9.74    267      620.0
   03/20/2019 10:40      58.3      57.5       68     47.1      0.00     18.63      60.7     0.48      1018.2     2.7     SSE   158   5.7       S   178   9.74    268      347.6
   03/20/2019 10:30      58.3      57.4       66     46.6      0.00     18.63      60.7     0.48      1018.2     2.0     SSE   158   4.1     SSW   195   9.74    268      128.3
   03/20/2019 10:20      58.3      57.8       67     47.0      0.00     18.63      60.7     0.48      1018.2     0.7     ESE   106   1.9       E    82   9.74    268      123.2
   03/20/2019 10:10      59.1      58.1       65     46.9      0.00     18.63      60.8     0.48      1018.0     1.7     ESE   109   4.4     ENE    74   9.74    268      182.3
   03/20/2019 10:00      59.0      58.3       67     47.7      0.00     18.63      60.8     0.48      1017.9     1.5     SSE   147   4.3       S   183   9.74    268      338.4
   03/20/2019 09:50      58.8      57.5       69     48.2      0.00     18.63      60.8     0.48      1017.9     1.1     ESE   119   4.1      SE   131   9.74    268      264.4
   03/20/2019 09:40      58.5      56.9       71     48.2      0.00     18.63      60.8     0.48      1017.8     1.6      SE   146   4.5      SE   146   9.74    271      214.1
   03/20/2019 09:30      59.0      57.9       70     48.8      0.00     18.63      60.8     0.47      1017.7     0.7     SSE   151   3.1     SSW   192   9.74    281      221.4
   03/20/2019 09:20      58.3      56.3       73     48.4      0.00     18.63      60.8     0.48      1017.8     1.1      SE   125   3.3      SE   131   9.74    289      308.8
   03/20/2019 09:10      56.6      56.0       74     48.2      0.00     18.63      60.8     0.48      1017.8     1.1      SE   137   3.1     SSE   155   9.74    298      157.5
   03/20/2019 09:00      56.3      55.7       75     48.4      0.00     18.63      60.9     0.48      1017.9     1.6      SE   141   3.0       S   189   9.74    303      133.9
   03/20/2019 08:50      56.0      55.5       77     48.4      0.00     18.63      60.8     0.48      1017.9     1.3       S   181   2.7       S   175   9.74    307      132.3
   03/20/2019 08:40      57.6      55.7       75     48.5      0.00     18.63      60.9     0.48      1017.9     1.9       S   191   3.8       S   183   9.75    311      102.9
   03/20/2019 08:30      57.9      57.3       75     49.6      0.00     18.63      60.9     0.48      1017.8     0.3      NW   317   1.3      NW   309   9.75    313      121.1
   03/20/2019 08:20      57.8      56.2       82     51.2      0.00     18.63      60.9     0.48      1017.5     0.3       S   178   1.2      SW   225   9.75    315      195.3
   03/20/2019 08:10      56.7      54.6       89     52.4      0.00     18.63      60.9     0.48      1017.3     0.0       S   173   0.0       S   173   9.75    317      127.6
   03/20/2019 08:00      54.7      52.6       92     51.1      0.00     18.63      61.0     0.48      1017.3     0.3     SSE   148   1.4      SE   138   9.74    323       98.3
   03/20/2019 07:50      52.7      51.9       92     49.9      0.00     18.63      60.9     0.48      1017.3     0.5     SSE   161   1.2      SE   143   9.44    329       51.2
   03/20/2019 07:40      52.4      51.7       91     49.5      0.00     18.63      61.0     0.48      1017.2     1.9     SSW   196   2.6     SSW   212   9.44    329       30.3
   03/20/2019 07:30      52.5      52.0       91     49.6      0.00     18.63      61.0     0.48      1017.0     0.8       S   185   2.0     SSW   192   9.44    329       18.2
   03/20/2019 07:20      52.5      52.0       90     49.5      0.00     18.63      61.0     0.48      1017.0     0.0       N     0   0.0      SE   125   9.44    326        4.8
   03/20/2019 07:10      52.4      52.0       90     49.5      0.00     18.63      61.0     0.48      1017.0     1.1      SW   219   2.5      SW   233   9.44    323       -2.4
   03/20/2019 07:00      52.6      52.0       90     49.5      0.00     18.63      61.0     0.48      1017.0     0.6       S   187   1.6       S   182   9.44    322       -5.1
   03/20/2019 06:50      53.2      52.4       90     49.9      0.00     18.63      61.0     0.48      1016.9     0.3       S   178   1.1       S   184   9.44    321       -6.2
   03/20/2019 06:40      53.5      52.8       90     50.3      0.00     18.63      61.0     0.48      1016.9     0.5       S   178   1.5       S   184   9.44    319       -6.0
   03/20/2019 06:30      53.6      52.9       91     50.6      0.00     18.63      61.1     0.48      1016.8     0.7       W   281   2.8       W   264   9.44    319       -6.4
   03/20/2019 06:20      53.2      52.6       91     50.3      0.00     18.63      61.1     0.48      1016.7     1.8      SW   222   2.6      SW   231   9.44    320       -5.7
   03/20/2019 06:10      53.5      52.9       91     50.5      0.00     18.63      61.0     0.48      1016.5     0.9     SSE   154   1.6       S   180   9.44    325       -5.8
   03/20/2019 06:00      53.5      53.0       90     50.5      0.00     18.63      61.1     0.48      1016.4     0.5       E    98   1.6      SE   137   9.44    326       -6.5
   03/20/2019 05:50      53.5      53.0       90     50.2      0.00     18.63      61.1     0.48      1016.4     0.0       N     0   0.0     SSE   168   9.44    324       -6.2
   03/20/2019 05:40      53.7      53.2       89     50.3      0.00     18.63      61.2     0.48      1016.3     0.0       N     0   0.0     SSE   168   9.44    324       -6.2
   03/20/2019 05:30      53.7      53.3       89     50.3      0.00     18.63      61.1     0.48      1016.4     0.0       N     0   0.0     ESE   122   9.44    325       -6.1
   03/20/2019 05:20      53.8      53.4       88     50.0      0.00     18.63      61.1     0.48      1016.4     0.0       N     0   0.0       S   171   9.44    326       -6.2
   03/20/2019 05:10      54.0      53.4       88     49.9      0.00     18.63      61.2     0.48      1016.4     0.4       S   189   1.4     SSW   193   9.44    332       -6.5
   03/20/2019 05:00      54.0      53.5       88     50.1      0.00     18.63      61.2     0.48      1016.4     0.7     SSW   209   2.1       E   100   9.44    345       -6.3
   03/20/2019 04:50      53.9      53.5       88     50.1      0.01     18.63      61.2     0.48      1016.4     2.1       W   263   3.3     WSW   254   9.44    368       -6.4
   03/20/2019 04:40      54.2      53.5       86     49.8      0.01     18.62      61.2     0.48      1016.3     1.1      SW   220   2.7     SSW   201   9.43    344       -6.4
   03/20/2019 04:30      54.2      53.9       85     49.7      0.00     18.61      61.2     0.48      1016.2     1.0     WSW   248   1.8       W   261   9.43    396       -7.9
   03/20/2019 04:20      54.6      54.0       84     49.3      0.01     18.61      61.2     0.48      1016.2     1.7     WSW   241   2.6      SW   228   9.42    350       -9.0
   03/20/2019 04:10      54.9      54.3       81     48.8      0.00     18.60      61.2     0.48      1016.2     0.9      SW   218   2.8     SSW   204   9.42    377       -9.7
   03/20/2019 04:00      55.4      54.7       79     48.5      0.00     18.60      61.3     0.48      1016.2     0.6      SE   126   1.8     ESE   116   9.41    344      -14.1
   03/20/2019 03:50      55.3      54.9       77     48.1      0.00     18.60      61.3     0.48      1016.3     1.4     ESE   109   3.5      SE   128   9.41    294      -15.1
   03/20/2019 03:40      55.2      54.8       78     48.1      0.00     18.60      61.3     0.48      1016.4     0.9      SE   131   2.8      SE   141   9.41    270      -15.4
   03/20/2019 03:30      55.2      54.8       77     48.0      0.00     18.60      61.3     0.48      1016.5     1.7     ESE   120   3.9     SSE   147   9.41    270      -14.9
   03/20/2019 03:20      55.0      54.6       78     48.0      0.00     18.60      61.3     0.48      1016.6     1.1      SE   141   3.0     SSE   168   9.41    269      -15.5
   03/20/2019 03:10      54.9      54.5       78     48.0      0.00     18.60      61.4     0.48      1016.6     1.5     SSE   163   3.0      SE   139   9.41    270      -16.9
   03/20/2019 03:00      54.9      54.4       79     48.1      0.00     18.60      61.3     0.48      1016.8     2.1       S   169   4.2       S   179   9.41    269      -18.1
   03/20/2019 02:50      54.9      54.5       79     48.1      0.00     18.60      61.4     0.48      1016.8     2.3       S   173   5.1     ESE   124   9.41    270      -18.2
   03/20/2019 02:40      55.1      54.5       78     48.1      0.00     18.60      61.4     0.48      1016.8     2.3     SSE   159   5.0     SSE   146   9.41    270      -18.2
   03/20/2019 02:30      55.0      54.5       78     48.0      0.00     18.60      61.4     0.48      1016.7     2.1      SE   146   4.0       S   183   9.41    269      -19.4
   03/20/2019 02:20      54.9      54.5       78     47.9      0.00     18.60      61.4     0.48      1016.7     1.0     SSE   150   2.9      SE   142   9.41    269      -19.9
   03/20/2019 02:10      55.1      54.7       77     47.8      0.00     18.60      61.4     0.48      1016.7     1.4     SSE   150   3.0      SE   125   9.42    269      -21.5
   03/20/2019 02:00      55.1      54.6       77     47.8      0.00     18.60      61.4     0.48      1016.6     1.8      SE   124   3.5     ESE   113   9.42    269      -20.1
   03/20/2019 01:50      54.9      54.5       78     47.9      0.00     18.60      61.5     0.48      1016.6     1.8      SE   125   4.5       E    92   9.42    269      -20.9
   03/20/2019 01:40      54.9      54.5       78     48.0      0.00     18.60      61.5     0.48      1016.5     1.7      SE   144   4.1     SSW   202   9.42    269      -23.5
   03/20/2019 01:30      54.9      54.6       78     48.1      0.00     18.60      61.5     0.48      1016.5     2.1     ESE   116   4.3      SE   131   9.42    269      -23.0
   03/20/2019 01:20      54.9      54.5       79     48.3      0.00     18.60      61.5     0.48      1016.4     2.8     ESE   106   5.6       E    99   9.42    269      -22.6
   03/20/2019 01:10      54.9      54.5       79     48.5      0.00     18.60      61.5     0.48      1016.2     1.6       E    94   4.4       E    96   9.42    270      -38.6
   03/20/2019 01:00      55.2      54.7       79     48.5      0.00     18.60      61.5     0.48      1016.1     2.3       E    82   6.5     ENE    64   9.42    270      -64.8
   03/20/2019 00:50      55.3      54.9       78     48.5      0.00     18.60      61.5     0.48      1016.0     1.8     ENE    71   5.0       E    83   9.42    270      -49.2
   03/20/2019 00:40      55.2      54.6       79     48.5      0.00     18.60      61.5     0.48      1016.1     1.8     ENE    77   4.5      SE   138   9.42    270      -37.5
   03/20/2019 00:30      54.9      54.6       80     48.5      0.00     18.60      61.5     0.48      1016.2     1.2      SE   132   3.4     ESE   123   9.42    270      -27.0
   03/20/2019 00:20      54.9      54.5       79     48.4      0.00     18.60      61.5     0.48      1016.1     0.9     ESE   110   2.7       E    98   9.42    270      -41.9
   03/20/2019 00:10      55.2      54.7       79     48.5      0.00     18.60      61.5     0.48      1016.1     1.1       E    94   2.5     SSE   155   9.42    270      -62.3
   03/20/2019 00:00      55.2      54.7       79     48.6      0.00     18.60      61.5     0.48      1016.3     1.1     ESE   110   3.0      SE   130   9.42    269      -30.8
   03/19/2019 23:50      54.9      54.6       79     48.5      0.00     18.60      61.5     0.48      1016.3     1.0     ESE   117   3.4      SE   125   9.42    270      -22.0
   03/19/2019 23:40      55.0      54.6       79     48.5      0.00     18.60      61.5     0.48      1016.3     0.7      SE   131   2.0      SE   134   9.42    270      -25.0
   03/19/2019 23:30      55.2      54.7       79     48.3      0.00     18.60      61.5     0.48      1016.3     0.9      SE   135   2.3     ESE   112   9.42    269      -28.6
   03/19/2019 23:20      55.2      54.8       78     48.3      0.00     18.60      61.6     0.48      1016.1     1.5       E    91   3.5     ENE    78   9.42    269      -34.6
   03/19/2019 23:10      55.2      54.9       78     48.4      0.00     18.60      61.6     0.48      1016.0     0.9     ESE   101   2.9      SE   134   9.42    269      -32.5
   03/19/2019 23:00      55.4      55.0       78     48.5      0.00     18.60      61.5     0.48      1016.1     1.4     ESE   107   4.3      SE   128   9.42    269      -25.5
   03/19/2019 22:50      55.5      55.0       79     48.9      0.00     18.60      61.5     0.48      1016.1     1.0     ENE    68   2.8      NE    48   9.42    269      -36.1
   03/19/2019 22:40      55.4      55.0       80     49.0      0.00     18.60      61.6     0.48      1015.9     0.8     WSW   243   2.6     SSW   206   9.42    269      -30.5
   03/19/2019 22:30      55.3      55.0       80     49.0      0.00     18.60      61.6     0.48      1016.1     0.9     SSW   194   3.1       S   170   9.42    269      -19.1
   03/19/2019 22:20      55.6      55.0       79     48.9      0.00     18.60      61.6     0.48      1015.9     0.8       S   182   2.1     SSW   192   9.42    269      -35.9
   03/19/2019 22:10      55.8      55.3       79     49.0      0.00     18.60      61.6     0.48      1016.0     1.4     ESE   116   3.2      SE   130   9.42    270      -32.3
   03/19/2019 22:00      55.6      55.3       79     49.0      0.00     18.60      61.6     0.48      1016.1     1.0     ESE   116   3.5      SE   129   9.42    269      -18.6
   03/19/2019 21:50      55.7      55.0       79     49.1      0.00     18.60      61.6     0.48      1015.9     1.0       E    90   2.8       E    92   9.43    269      -18.8
   03/19/2019 21:40      55.4      54.9       81     49.3      0.00     18.60      61.6     0.48      1015.8     1.5      SE   144   3.4       S   183   9.43    269      -29.3
   03/19/2019 21:30      55.4      55.0       81     49.4      0.00     18.60      61.6     0.48      1016.0     2.2     SSE   153   5.3     SSE   146   9.43    269      -28.6
   03/19/2019 21:20      55.5      55.0       81     49.5      0.00     18.60      61.6     0.48      1016.2     3.1       S   170   5.8      SE   129   9.43    269      -20.5
   03/19/2019 21:10      55.8      55.3       80     49.5      0.00     18.60      61.6     0.48      1016.2     3.7     SSE   167   8.0       S   179   9.43    269      -17.1
   03/19/2019 21:00      55.9      55.5       79     49.4      0.00     18.60      61.5     0.48      1016.1     4.4     SSE   151  11.4     ESE   119   9.43    269      -14.1
   03/19/2019 20:50      55.8      55.4       80     49.5      0.00     18.60      61.5     0.48      1015.8     4.1     SSE   162   6.5     SSE   167   9.43    269      -15.3
   03/19/2019 20:40      56.3      55.6       79     49.5      0.00     18.60      61.5     0.48      1015.8     3.3       S   175   6.3       S   187   9.43    269      -13.8
   03/19/2019 20:30      56.2      55.6       79     49.5      0.00     18.60      61.5     0.48      1015.8     4.1       S   173   7.5     SSW   193   9.43    269      -12.6
   03/19/2019 20:20      56.4      55.6       79     49.5      0.00     18.60      61.5     0.48      1015.1     3.6       S   180   6.0     SSW   208   9.43    269      -31.7
   03/19/2019 20:10      56.7      56.1       78     49.5      0.00     18.60      61.5     0.48      1015.1     3.1       S   174   7.3       S   185   9.43    268      -28.7
   03/19/2019 20:00      56.9      56.4       77     49.5      0.00     18.60      61.5     0.48      1015.2     3.8     SSE   165   6.6     SSE   159   9.43    268      -29.3
   03/19/2019 19:50      57.1      56.4       77     49.6      0.00     18.60      61.4     0.48      1014.8     2.9       S   179   6.3     SSE   154   9.44    268      -32.8
   03/19/2019 19:40      57.4      56.7       77     49.7      0.00     18.60      61.4     0.48      1014.7     1.8      SE   133   3.8      SE   128   9.44    268      -36.4
   03/19/2019 19:30      57.4      57.0       76     49.7      0.00     18.60      61.4     0.48      1014.5     0.7       E   100   2.6     ENE    77   9.44    268      -36.2
   03/19/2019 19:20      57.3      56.5       77     49.7      0.00     18.60      61.4     0.48      1014.5     1.4       E    80   3.4     SSE   148   9.44    268      -35.7
   03/19/2019 19:10      56.8      56.4       78     49.7      0.00     18.60      61.3     0.48      1014.3     1.0      SE   137   3.4      SE   137   9.44    268      -35.0
   03/19/2019 19:00      56.6      56.2       78     49.7      0.00     18.60      61.3     0.48      1014.1     1.5       S   173   3.3     ESE   121   9.44    268      -35.3
   03/19/2019 18:50      56.8      56.1       78     49.6      0.00     18.60      61.3     0.48      1014.5     2.4     SSW   193   4.1       S   179   9.44    268      -32.8
   03/19/2019 18:40      56.9      56.4       77     49.5      0.00     18.60      61.3     0.48      1014.5     1.7     SSE   166   3.7       S   182   9.44    268      -36.1
   03/19/2019 18:30      56.9      56.5       77     49.4      0.00     18.60      61.2     0.48      1014.3     1.8     ESE   120   3.5       S   191   9.44    268      -35.0
   03/19/2019 18:20      57.1      56.6       76     49.2      0.00     18.60      61.2     0.48      1014.2     2.0      SE   143   6.0      SE   125   9.45    268      -30.2
   03/19/2019 18:10      57.2      56.9       75     49.3      0.00     18.60      61.1     0.48      1013.9     1.8      SE   125   3.7     SSE   148   9.45    268      -25.3
   03/19/2019 18:00      57.1      56.5       76     49.3      0.00     18.60      61.1     0.48      1013.8     2.5     ESE   115   5.5       S   174   9.45    268      -17.1
   03/19/2019 17:50      56.8      56.4       78     49.9      0.00     18.60      61.1     0.48      1014.0     3.8     SSE   154   8.3     SSE   168   9.45    268       -9.0
   03/19/2019 17:40      58.2      56.6       76     49.9      0.00     18.60      61.0     0.48      1014.2     4.3       S   180   8.7      SE   140   9.45    268       19.6
   03/19/2019 17:30      59.6      57.9       72     49.8      0.00     18.60      61.0     0.48      1014.1     5.1     SSE   168  10.1       S   169   9.45    267       18.3
   03/19/2019 17:20      61.9      59.3       69     50.4      0.00     18.60      61.0     0.48      1013.9     5.6       S   176  10.3       S   181   9.46    267       32.9
   03/19/2019 17:10      62.6      61.6       66     50.8      0.00     18.60      60.9     0.48      1013.6     4.1     SSE   168   9.7     SSW   193   9.46    266       65.6
   03/19/2019 17:00      64.0      62.2       65     50.9      0.00     18.60      60.8     0.48      1013.5     3.6       S   171   6.5     SSW   205   9.46    266       48.6
   03/19/2019 16:50      65.2      63.6       58     49.1      0.00     18.60      60.8     0.48      1013.5     3.8       S   173   8.7       S   181   9.46    266       74.1
   03/19/2019 16:40      65.2      64.7       54     48.0      0.00     18.60      60.8     0.48      1013.5     3.1      SE   137   7.0     ESE   115   9.46    266      132.1
   03/19/2019 16:30      65.9      65.1       51     47.0      0.00     18.60      60.7     0.48      1013.6     3.4      SE   125   6.9      SE   145   9.46    266      135.3
   03/19/2019 16:20      67.2      65.4       51     47.4      0.00     18.60      60.7     0.48      1013.7     3.1     ESE   118   8.5      SE   135   9.47    266      306.5
   03/19/2019 16:10      65.4      64.3       55     48.1      0.00     18.60      60.6     0.48      1013.6     3.8      SE   127   7.5     SSE   148   9.47    266      294.2
   03/19/2019 16:00      65.3      63.9       54     47.8      0.00     18.60      60.6     0.48      1013.4     3.9       E    91   8.2     ENE    76   9.47    266      256.1
   03/19/2019 15:50      64.6      63.5       57     48.6      0.00     18.60      60.5     0.48      1013.5     3.4      SE   130   7.0      SE   142   9.47    266      141.4
   03/19/2019 15:40      64.9      64.2       55     47.8      0.00     18.60      60.5     0.48      1013.2     2.9       E    90   6.2     ENE    66   9.47    266       88.2
   03/19/2019 15:30      65.9      64.4       50     46.3      0.00     18.60      60.4     0.48      1013.4     3.8     ENE    70   9.0       E    84   9.48    266       99.2
   03/19/2019 15:20      66.1      65.5       49     46.4      0.00     18.60      60.4     0.48      1013.5     3.4     ENE    69   6.1      NE    38   9.48    266      138.9
   03/19/2019 15:10      67.1      65.7       50     47.1      0.00     18.60      60.3     0.48      1013.6     4.6      NE    46   8.1     ENE    64   9.48    265      182.8
   03/19/2019 15:00      68.1      67.0       44     44.9      0.00     18.60      60.3     0.48      1013.6     3.4     ENE    68   5.9      NE    45   9.48    265      244.5
   03/19/2019 14:50      68.0      66.6       38     40.5      0.00     18.60      60.2     0.48      1013.8     3.3       E    86   8.5       E    96   9.48    264      252.5
   03/19/2019 14:40      67.5      66.3       37     39.8      0.00     18.60      60.2     0.48      1013.9     3.8     ESE   115   7.9     ESE   113   9.48    264      221.6
   03/19/2019 14:30      67.5      66.4       37     39.5      0.00     18.60      60.1     0.48      1014.0     4.8     ESE   118   8.9      SE   140   9.48    264      265.4
   03/19/2019 14:20      68.9      67.2       38     41.4      0.00     18.60      60.1     0.48      1013.9     4.8       E   101   8.3      NE    55   9.49    264      328.8
   03/19/2019 14:10      68.7      67.5       41     43.5      0.00     18.60      60.1     0.48      1014.0     3.4       E    86   6.8      SE   131   9.49    264      326.9
   03/19/2019 14:00      68.4      67.5       44     45.4      0.00     18.60      60.0     0.48      1014.2     3.8     SSE   167   6.7       S   177   9.49    265      324.5
   03/19/2019 13:50      68.2      67.3       45     45.5      0.00     18.60      60.0     0.48      1014.3     4.1     SSE   148   7.0      SE   129   9.49    265      315.0
   03/19/2019 13:40      69.3      67.8       43     45.1      0.00     18.60      59.9     0.48      1014.3     4.1     SSW   196   8.0      SE   129   9.49    265      301.7
   03/19/2019 13:30      70.5      69.1       40     44.2      0.00     18.60      59.9     0.47      1014.3     3.1      SE   143   5.9     SSE   153   9.49    264      391.0
   03/19/2019 13:20      71.6      70.1       39     44.9      0.00     18.60      59.9     0.47      1014.4     2.8     SSE   160   6.5     ESE   118   9.49    264      406.0
   03/19/2019 13:10      72.9      71.5       36     44.2      0.00     18.60      59.9     0.47      1014.5     2.5       S   178   7.6     ESE   116   9.50    264      441.3
   03/19/2019 13:00      72.4      71.1       37     44.1      0.00     18.60      59.8     0.47      1014.6     1.8      NW   323   5.1      NE    50   9.50    264      537.9
   03/19/2019 12:50      73.8      72.3       36     44.3      0.00     18.60      59.8     0.47      1014.7     1.8      SE   131   4.2       E    81   9.50    263      544.3
   03/19/2019 12:40      72.8      72.0       33     42.0      0.00     18.60      59.8     0.47      1014.7     2.6     ENE    67   5.7     ENE    70   9.50    264      498.3
   03/19/2019 12:30      72.1      70.9       34     41.5      0.00     18.60      59.8     0.48      1014.8     2.7     ESE   113   8.3      SE   125   9.50    264      508.9
   03/19/2019 12:20      71.3      70.5       39     45.0      0.00     18.60      59.8     0.48      1014.8     3.4      SE   137   7.5      SE   130   9.50    265      460.3
   03/19/2019 12:10      71.2      70.3       44     47.7      0.00     18.60      59.8     0.47      1014.8     3.2       E    82   6.2       E    97   9.50    265      371.6
   03/19/2019 12:00      70.4      69.7       45     47.8      0.00     18.60      59.8     0.48      1014.8     3.2      NE    37   6.2     NNE    28   9.51    265      332.6
   03/19/2019 11:50      70.7      69.1       44     46.9      0.00     18.60      59.8     0.48      1014.9     2.9      NE    51   5.5     ENE    66   9.51    264      452.6
   03/19/2019 11:40      69.6      68.7       44     46.1      0.00     18.60      59.8     0.48      1014.9     3.5      NE    50   6.6      NE    41   9.51    265      397.0
   03/19/2019 11:30      69.2      68.1       43     45.5      0.00     18.60      59.8     0.48      1015.0     2.9     ENE    62   5.5      NE    56   9.51    266      333.4
   03/19/2019 11:20      70.6      68.4       41     44.5      0.00     18.60      59.8     0.48      1015.1     3.9      NE    45   6.6      NE    49   9.51    265      383.9
   03/19/2019 11:10      70.4      68.2       42     45.3      0.00     18.60      59.8     0.48      1015.1     2.4     ESE   103   6.4      NE    44   9.51    264      484.4
   03/19/2019 11:00      69.8      68.2       43     45.5      0.00     18.60      59.9     0.48      1015.2     1.6     ENE    72   3.3     ESE   112   9.51    264      388.0
   03/19/2019 10:50      68.4      67.6       44     45.3      0.00     18.60      59.8     0.48      1015.2     2.1     ESE   110   4.3      SE   138   9.51    266      347.0
   03/19/2019 10:40      68.2      66.8       45     45.3      0.00     18.60      59.9     0.48      1015.3     1.6     NNE    33   4.3      NE    46   9.51    264      384.6
   03/19/2019 10:30      67.0      65.5       46     44.7      0.00     18.60      59.9     0.48      1015.3     1.3      NE    42   2.8     NNE    21   9.51    266      370.2
   03/19/2019 10:20      65.7      64.8       47     44.5      0.00     18.60      59.9     0.48      1015.4     1.3       E    79   3.5     ESE   104   9.51    266      228.1
   03/19/2019 10:10      65.2      63.9       48     44.3      0.00     18.60      59.9     0.48      1015.3     1.2     ENE    62   2.5     ESE   101   9.51    266      219.9
   03/19/2019 10:00      64.6      63.9       49     44.6      0.00     18.60      60.0     0.48      1015.4     0.9     ENE    60   2.3      NE    48   9.51    266      151.1
   03/19/2019 09:50      64.5      63.1       51     44.9      0.00     18.60      60.0     0.48      1015.4     0.9     NNE    24   3.1     NNE    30   9.51    266      263.7
   03/19/2019 09:40      63.5      61.5       53     45.0      0.00     18.60      60.1     0.48      1015.4     1.1     ENE    71   3.0     ENE    62   9.51    266      290.7
   03/19/2019 09:30      62.0      61.1       56     45.5      0.00     18.60      60.1     0.48      1015.4     0.8       E    81   2.4      SE   146   9.51    267      162.4
   03/19/2019 09:20      61.2      59.9       58     45.5      0.00     18.60      60.1     0.48      1015.3     0.7     ENE    64   1.6     ENE    62   9.51    267      150.0
   03/19/2019 09:10      60.7      60.0       59     46.1      0.00     18.60      60.1     0.48      1015.4     1.1      NE    49   2.1      NE    53   9.51    268      134.2
   03/19/2019 09:00      60.7      58.6       61     46.4      0.00     18.60      60.2     0.48      1015.5     0.3       N    11   2.3     ENE    61   9.51    268      189.1
   03/19/2019 08:50      58.7      57.5       65     46.2      0.00     18.60      60.2     0.48      1015.5     0.8      SW   235   1.5      SW   223   9.51    269      161.2
   03/19/2019 08:40      57.6      56.1       66     45.4      0.00     18.60      60.2     0.48      1015.4     0.2     SSW   200   0.8       S   169   9.51    269      116.5
   03/19/2019 08:30      56.8      56.0       66     45.4      0.00     18.60      60.3     0.48      1015.4     0.6      SE   126   1.9     ESE   121   9.51    269       71.3
   03/19/2019 08:20      56.7      56.3       66     45.4      0.00     18.60      60.3     0.48      1015.3     0.3      NE    50   1.5      NE    47   9.51    269       55.5
   03/19/2019 08:10      56.5      54.6       69     45.7      0.00     18.60      60.3     0.48      1015.3     0.3     NNE    25   1.3      NE    47   9.51    270       66.9
   03/19/2019 08:00      54.7      53.4       73     45.6      0.00     18.60      60.3     0.48      1015.2     0.0       N     0   0.0       E   101   9.51    270       50.6
   03/19/2019 07:50      53.5      51.3       78     45.7      0.00     18.60      60.3     0.48      1015.0     0.0       N     0   0.0     SSE   151   9.51    271       33.9
   03/19/2019 07:40      51.4      50.3       81     45.0      0.00     18.60      60.3     0.48      1015.0     0.2       S   189   0.8       S   173   9.51    273       24.4
   03/19/2019 07:30      50.4      49.5       82     44.7      0.00     18.60      60.4     0.48      1014.9     0.3      SW   235   1.2      SW   231   9.51    276       -0.6
   03/19/2019 07:20      49.8      49.3       82     44.4      0.00     18.60      60.4     0.48      1014.9     0.0      SW   231   0.7       E    91   9.51    277      -13.5
   03/19/2019 07:10      49.7      48.7       84     44.6      0.00     18.60      60.4     0.48      1014.8     1.1       S   180   2.5     WSW   237   9.51    280      -17.6
   03/19/2019 07:00      49.1      48.3       84     44.0      0.00     18.60      60.5     0.48      1014.8     0.2     SSE   160   1.1     SSW   193   9.51    283      -21.9
   03/19/2019 06:50      49.2      48.7       84     44.2      0.00     18.60      60.5     0.48      1014.8     0.3     SSE   159   0.8     SSE   158   9.51    283      -24.1
   03/19/2019 06:40      49.1      48.8       84     44.2      0.00     18.60      60.6     0.48      1014.8     0.0      SE   128   0.8      SE   129   9.51    285      -23.5
   03/19/2019 06:30      49.1      48.6       84     44.0      0.00     18.60      60.6     0.48      1014.8     0.6     SSE   154   1.7     SSW   211   9.51    287      -22.2
   03/19/2019 06:20      48.8      48.2       84     43.8      0.00     18.60      60.6     0.48      1014.6     0.8       S   190   1.7     SSW   211   9.51    288      -23.8
   03/19/2019 06:10      48.5      47.9       84     43.4      0.00     18.60      60.6     0.48      1014.5     0.2     SSE   157   0.9     SSE   155   9.51    290      -24.1
   03/19/2019 06:00      48.5      48.1       83     43.4      0.00     18.60      60.7     0.48      1014.5     0.1      SE   130   0.6      SE   130   9.51    291      -22.5
   03/19/2019 05:50      48.3      47.9       84     43.5      0.00     18.60      60.7     0.48      1014.5     0.2       S   187   0.8       S   188   9.51    292      -20.9
   03/19/2019 05:40      48.2      47.8       84     43.5      0.00     18.60      60.7     0.48      1014.5     0.0       N     0   0.0       S   188   9.52    292      -23.7
   03/19/2019 05:30      48.2      47.7       85     43.7      0.00     18.60      60.8     0.48      1014.4     0.6       S   188   1.1       S   188   9.52    293      -28.9
   03/19/2019 05:20      48.0      47.4       86     43.6      0.00     18.60      60.8     0.48      1014.4     0.0     SSE   158   0.7     SSE   149   9.52    292      -33.7
   03/19/2019 05:10      47.7      47.4       86     43.6      0.00     18.60      60.8     0.48      1014.4     0.6     SSE   158   1.2      SE   144   9.52    292      -36.0
   03/19/2019 05:00      47.6      46.8       86     43.0      0.00     18.60      60.9     0.48      1014.4     0.5     SSE   157   1.1     SSE   149   9.52    290      -39.1
   03/19/2019 04:50      48.1      47.0       84     43.0      0.00     18.60      60.9     0.48      1014.6     0.6     SSE   162   1.4      SE   144   9.52    288      -40.6
   03/19/2019 04:40      48.1      47.6       83     42.9      0.00     18.60      60.9     0.48      1014.6     1.1     SSE   166   2.0      SW   216   9.52    286      -43.1
   03/19/2019 04:30      48.5      47.8       83     43.1      0.00     18.60      60.9     0.48      1014.7     0.9       S   178   1.6       S   189   9.52    285      -43.5
   03/19/2019 04:20      48.5      47.8       84     43.6      0.00     18.60      60.9     0.48      1014.7     0.4      SW   215   0.9      SW   227   9.52    283      -43.3
   03/19/2019 04:10      48.3      47.8       85     43.6      0.00     18.60      61.0     0.48      1014.8     0.0       S   189   0.6       S   189   9.52    283      -45.7
   03/19/2019 04:00      49.1      48.0       84     43.7      0.00     18.60      61.0     0.48      1014.9     0.0     SSE   160   0.5     SSE   158   9.52    281      -48.5
   03/19/2019 03:50      49.1      48.7       84     44.2      0.00     18.60      61.0     0.48      1015.0     0.2      SE   146   0.8      SE   142   9.52    278      -50.4
   03/19/2019 03:40      49.1      48.6       84     44.0      0.00     18.60      61.0     0.48      1015.1     0.4     SSE   162   0.9       S   175   9.52    275      -53.1
   03/19/2019 03:30      49.5      48.8       83     44.0      0.00     18.60      61.1     0.48      1015.2     0.6     SSE   163   1.0     SSE   159   9.52    272      -55.4
   03/19/2019 03:20      49.4      48.4       83     44.0      0.00     18.60      61.1     0.48      1015.3     0.7       S   176   1.9     SSW   207   9.52    271      -56.9
   03/19/2019 03:10      50.0      48.5       81     43.4      0.00     18.60      61.1     0.48      1015.3     0.7     SSE   154   1.4      SE   135   9.52    268      -58.6
   03/19/2019 03:00      50.0      49.5       81     44.1      0.00     18.60      61.1     0.48      1015.4     1.1     SSW   193   1.8     SSW   199   9.52    267      -54.3
   03/19/2019 02:50      50.4      49.6       80     44.2      0.00     18.60      61.2     0.48      1015.3     0.0       S   182   0.7       S   182   9.52    270      -55.6
   03/19/2019 02:40      50.5      50.1       81     44.6      0.00     18.60      61.2     0.48      1015.3     0.0     SSE   157   0.7     SSE   160   9.52    266      -55.4
   03/19/2019 02:30      50.6      49.8       81     44.4      0.00     18.60      61.2     0.48      1015.3     0.2       S   169   0.9     SSE   160   9.52    264      -57.4
   03/19/2019 02:20      50.6      50.0       80     44.4      0.00     18.60      61.2     0.48      1015.4     0.4     SSE   154   1.1     SSE   151   9.52    265      -58.8
   03/19/2019 02:10      50.8      49.8       79     43.8      0.00     18.60      61.2     0.48      1015.4     0.9     SSE   153   1.4      SE   146   9.52    267      -60.2
   03/19/2019 02:00      51.0      50.5       77     43.8      0.00     18.60      61.3     0.48      1015.4     0.7     SSE   163   1.2     SSE   163   9.53    268      -60.3
   03/19/2019 01:50      51.1      50.6       77     43.9      0.00     18.60      61.2     0.48      1015.4     0.8     SSE   162   1.5      SE   143   9.53    270      -60.4
   03/19/2019 01:40      51.3      50.5       77     43.8      0.00     18.60      61.3     0.48      1015.4     0.8     SSE   158   1.4      SE   142   9.53    270      -61.0
   03/19/2019 01:30      51.6      51.1       75     43.8      0.00     18.60      61.3     0.48      1015.4     0.6     SSE   164   1.1       S   183   9.53    270      -61.0
   03/19/2019 01:20      51.6      51.1       79     44.9      0.00     18.60      61.3     0.48      1015.3     0.6       S   176   1.2       S   174   9.53    270      -61.0
   03/19/2019 01:10      51.7      51.1       79     44.8      0.00     18.60      61.3     0.48      1015.3     0.4     SSE   157   1.1     SSE   147   9.53    266      -61.4
   03/19/2019 01:00      52.4      51.5       77     44.9      0.00     18.60      61.4     0.48      1015.4     0.5     SSE   164   1.0       S   172   9.53    269      -62.0
   03/19/2019 00:50      52.6      52.1       76     45.0      0.00     18.60      61.4     0.48      1015.5     0.5     SSE   161   1.2      SE   145   9.53    269      -61.9
   03/19/2019 00:40      52.4      51.7       76     44.9      0.00     18.60      61.3     0.48      1015.6     0.5     SSE   156   1.0     SSE   150   9.53    270      -62.8
   03/19/2019 00:30      52.4      51.8       75     44.4      0.00     18.60      61.4     0.48      1015.7     0.7     SSE   164   1.2       S   171   9.53    270      -63.2
   03/19/2019 00:20      53.5      52.2       73     44.3      0.00     18.60      61.4     0.48      1015.9     1.0     SSE   156   1.8      SE   144   9.53    270      -63.3
   03/19/2019 00:10      53.2      52.9       73     44.4      0.00     18.60      61.4     0.48      1015.9     0.5     SSE   167   1.4       S   174   9.53    270      -62.7
   03/19/2019 00:00      53.8      53.0       74     45.1      0.00     18.60      61.4     0.48      1015.9     0.5     SSE   161   1.3     SSE   162   9.53    269      -63.9
   03/18/2019 23:50      54.0      53.3       73     45.2      0.00     18.60      61.4     0.48      1015.9     0.8     SSE   165   1.8       S   182   9.54    269      -64.9
   03/18/2019 23:40      54.4      53.6       72     45.3      0.00     18.60      61.4     0.48      1015.9     0.5     SSE   165   1.4       S   179   9.54    269      -65.2
   03/18/2019 23:30      54.5      53.9       72     45.4      0.00     18.60      61.4     0.48      1016.0     0.5     SSE   166   1.2     SSE   147   9.54    269      -65.6
   03/18/2019 23:20      55.1      54.1       72     45.6      0.00     18.60      61.4     0.48      1016.1     0.6     SSE   167   1.3     SSE   167   9.54    269      -66.3
   03/18/2019 23:10      55.7      54.6       69     45.0      0.00     18.60      61.4     0.48      1016.1     0.7       S   171   2.0       S   175   9.54    269      -65.7
   03/18/2019 23:00      55.8      55.2       69     45.5      0.00     18.60      61.4     0.48      1016.2     0.7       S   185   1.5       S   190   9.54    268      -65.4
   03/18/2019 22:50      57.3      55.5       66     45.1      0.00     18.60      61.4     0.48      1016.1     0.5     SSE   162   1.2       S   181   9.54    268      -65.4
   03/18/2019 22:40      57.5      56.9       64     45.1      0.00     18.60      61.4     0.48      1016.1     0.8       S   178   1.6       S   174   9.54    268      -64.1
   03/18/2019 22:30      57.9      56.6       66     45.8      0.00     18.60      61.4     0.48      1016.1     0.6       S   176   1.1       S   169   9.54    268      -65.2
   03/18/2019 22:20      58.5      57.6       63     45.7      0.00     18.60      61.4     0.48      1016.0     0.4     SSE   167   1.1     SSE   168   9.55    268      -65.6
   03/18/2019 22:10      58.5      57.8       63     45.5      0.00     18.60      61.4     0.48      1015.9     1.1     SSW   192   1.7     SSW   207   9.55    268      -65.2
   03/18/2019 22:00      58.8      57.9       62     45.4      0.00     18.60      61.4     0.48      1015.8     0.4       S   191   1.6     WSW   240   9.55    268      -66.1
   03/18/2019 21:50      58.7      58.0       63     45.7      0.00     18.60      61.4     0.48      1015.8     0.3       S   169   1.4       S   173   9.55    268      -66.5
   03/18/2019 21:40      59.2      58.2       61     45.4      0.00     18.60      61.3     0.48      1015.6     0.7       S   178   1.7     SSW   195   9.55    268      -66.2
   03/18/2019 21:30      59.4      58.4       61     45.4      0.00     18.60      61.3     0.48      1015.5     0.7     SSW   193   1.6      SW   217   9.55    268      -66.6
   03/18/2019 21:20      60.1      59.1       60     45.8      0.00     18.60      61.3     0.48      1015.4     0.5       S   175   1.2       S   182   9.55    268      -66.9
   03/18/2019 21:10      60.6      59.4       59     45.5      0.00     18.60      61.3     0.48      1015.3     0.6     SSE   168   2.0     SSW   194   9.56    267      -67.9
   03/18/2019 21:00      62.0      60.3       56     45.1      0.00     18.60      61.3     0.48      1015.2     1.4       S   184   2.3     SSW   192   9.56    267      -67.5
   03/18/2019 20:50      62.8      61.8       53     45.0      0.00     18.60      61.3     0.48      1015.1     0.8       S   174   1.6       S   187   9.56    267      -68.1
   03/18/2019 20:40      63.0      62.5       52     44.9      0.00     18.60      61.2     0.48      1015.0     0.4       S   185   1.4       S   180   9.56    267      -69.3
   03/18/2019 20:30      64.1      62.6       52     45.1      0.00     18.60      61.2     0.48      1014.8     0.3       S   176   1.4      SE   129   9.56    266      -71.7
   03/18/2019 20:20      64.6      64.0       49     44.9      0.00     18.60      61.2     0.48      1014.6     0.4       E    87   1.8       S   188   9.56    266      -72.3
   03/18/2019 20:10      64.3      63.4       51     45.1      0.00     18.60      61.1     0.48      1014.6     0.3      SW   225   1.7      SW   216   9.57    266      -71.0
   03/18/2019 20:00      64.4      63.5       51     45.6      0.00     18.60      61.1     0.48      1014.5     0.0       N     0   0.0      SE   132   9.57    266      -72.6
   03/18/2019 19:50      66.5      64.2       49     45.5      0.00     18.60      61.1     0.48      1014.3     0.8       S   173   2.1       S   177   9.57    266      -72.9
   03/18/2019 19:40      68.0      66.3       43     43.6      0.00     18.60      61.0     0.48      1014.3     1.1       S   177   2.3       S   172   9.57    266      -74.4
   03/18/2019 19:30      69.3      67.6       40     43.4      0.00     18.60      61.0     0.48      1014.3     1.5     SSW   199   2.4     SSW   204   9.58    266      -76.5
   03/18/2019 19:20      69.8      69.0       40     44.0      0.00     18.60      61.0     0.48      1014.2     1.9      SW   227   2.8       W   259   9.58    266      -77.9
   03/18/2019 19:10      71.5      69.7       39     44.1      0.00     18.60      60.9     0.48      1014.0     2.2      SW   226   3.1     SSW   207   9.58    265      -79.0
   03/18/2019 19:00      72.6      71.3       36     43.6      0.00     18.60      60.9     0.48      1013.9     1.4       W   272   3.3       W   274   9.58    264      -81.4
   03/18/2019 18:50      72.9      72.1       36     43.6      0.00     18.60      60.8     0.48      1013.9     2.1       W   270   3.8       W   281   9.59    264      -76.8
   03/18/2019 18:40      74.7      72.7       34     43.6      0.00     18.60      60.8     0.48      1013.9     1.8       W   261   3.7     WSW   241   9.59    264      -71.5
   03/18/2019 18:30      75.5      74.3       32     43.1      0.00     18.60      60.7     0.48      1013.9     2.5      NW   312   5.7      NW   310   9.59    264      -49.0
   03/18/2019 18:20      76.1      75.1       31     43.3      0.00     18.60      60.7     0.48      1013.9     3.0     WNW   300   6.2      NW   309   9.59    264      -26.9
   03/18/2019 18:10      76.2      75.4       31     43.0      0.00     18.60      60.6     0.48      1013.7     3.2      NW   306   7.8     WNW   302   9.60    263       -3.0
   03/18/2019 18:00      76.8      75.6       31     43.7      0.00     18.60      60.6     0.48      1013.6     3.0       W   273   6.3       W   260   9.60    263       24.2
   03/18/2019 17:50      76.8      76.0       33     45.1      0.00     18.60      60.5     0.48      1013.5     3.0       W   272   4.9       W   260   9.60    263       51.4
   03/18/2019 17:40      76.4      75.9       33     44.9      0.00     18.60      60.5     0.48      1013.5     4.5     WSW   241   7.1      SW   231   9.60    263       79.6
   03/18/2019 17:30      76.7      75.8       33     45.5      0.00     18.60      60.4     0.48      1013.5     3.8      SW   235   7.3     WSW   251   9.60    263      104.4
   03/18/2019 17:20      77.8      76.5       31     43.8      0.00     18.60      60.4     0.48      1013.5     4.1      SW   233   8.3     WSW   248   9.61    263      128.0
   03/18/2019 17:10      78.1      77.3       23     37.4      0.00     18.60      60.3     0.48      1013.5     3.2     SSW   205   7.3     SSW   213   9.61    263      154.7
   03/18/2019 17:00      78.2      77.7       24     38.7      0.00     18.60      60.2     0.48      1013.5     3.0       S   188   6.1     SSW   205   9.61    263      183.7
   03/18/2019 16:50      78.1      77.6       24     38.4      0.00     18.60      60.2     0.48      1013.6     3.8       S   180   7.2       S   179   9.62    263      211.2
   03/18/2019 16:40      78.5      77.4       24     37.9      0.00     18.60      60.1     0.48      1013.7     3.9     SSW   203   6.9     SSW   208   9.62    263      236.4
   03/18/2019 16:30      78.5      77.7       24     38.6      0.00     18.60      60.0     0.48      1013.7     3.3      SW   216   6.3       S   180   9.62    263      244.9
   03/18/2019 16:20      78.7      77.7       24     38.2      0.00     18.60      60.0     0.48      1013.8     3.8     SSW   197   7.2     SSW   203   9.62    263      269.3
   03/18/2019 16:10      78.6      77.8       23     37.2      0.00     18.60      59.9     0.48      1013.8     4.7     SSW   196   8.3      SW   227   9.63    263      292.9
   03/18/2019 16:00      79.2      78.3       23     37.6      0.00     18.60      59.9     0.48      1013.9     4.7     SSW   210   7.9     SSW   195   9.63    263      315.5
   03/18/2019 15:50      78.9      78.3       24     38.9      0.00     18.60      59.8     0.48      1013.9     4.8       S   185  10.3      SW   220   9.64    263      338.8
   03/18/2019 15:40      78.8      78.4       24     39.0      0.00     18.60      59.7     0.48      1013.8     4.5       S   185   8.7     SSW   204   9.64    263      368.7
   03/18/2019 15:30      79.5      78.4       24     38.7      0.00     18.60      59.6     0.48      1013.9     5.1     SSW   201   9.0      SW   219   9.64    263      389.4
   03/18/2019 15:20      79.5      78.7       23     38.2      0.00     18.60      59.6     0.48      1014.0     4.6       S   171  10.3       S   187   9.65    263      405.8
   03/18/2019 15:10      79.6      78.4       23     38.6      0.00     18.60      59.5     0.48      1014.0     4.9     SSW   200   9.3     SSW   193   9.65    263      422.1
   03/18/2019 15:00      79.5      78.4       23     38.2      0.00     18.60      59.5     0.48      1014.2     3.6     SSW   194   7.9     SSW   197   9.65    263      437.4
   03/18/2019 14:50      79.3      78.5       24     38.7      0.00     18.60      59.4     0.48      1014.2     5.1     SSW   196  10.3       S   183   9.66    263      452.3
   03/18/2019 14:40      79.6      78.5       23     38.4      0.00     18.60      59.3     0.48      1014.3     5.7     SSW   199   9.8     SSW   206   9.66    262      465.7
   03/18/2019 14:30      79.6      78.8       23     38.4      0.00     18.60      59.3     0.48      1014.3     4.6       S   189   8.4      SE   128   9.66    263      477.4
   03/18/2019 14:20      79.6      78.4       23     37.9      0.00     18.60      59.2     0.48      1014.4     4.2       S   171   8.1      SE   144   9.66    263      486.1
   03/18/2019 14:10      79.1      78.4       23     38.2      0.00     18.60      59.2     0.48      1014.5     4.9     SSW   201   8.4     SSW   197   9.67    263      496.4
   03/18/2019 14:00      79.2      78.4       23     38.2      0.00     18.60      59.1     0.48      1014.6     4.8       S   186   9.8     SSW   197   9.66    263      502.8
   03/18/2019 13:50      79.0      78.0       24     39.1      0.00     18.60      59.1     0.48      1014.7     4.1     SSW   205   8.7     SSW   195   9.67    263      507.6
   03/18/2019 13:40      79.8      78.2       26     41.0      0.00     18.60      59.0     0.48      1014.8     4.6     SSW   207   8.8       W   261   9.67    263      511.4
   03/18/2019 13:30      80.9      79.1       25     41.6      0.00     18.60      59.0     0.48      1014.9     3.2      SW   225   6.8     WSW   241   9.67    263      514.8
   03/18/2019 13:20      82.4      79.6       24     40.7      0.00     18.60      59.0     0.48      1015.1     3.2     ESE   123  10.4      SE   144   9.67    263      510.1
   03/18/2019 13:10      82.4      80.7       23     39.9      0.00     18.60      58.9     0.47      1015.2     1.5     NNE    30   3.7     NNE    32   9.67    262      507.9
   03/18/2019 13:00      81.2      79.9       24     41.0      0.00     18.60      58.9     0.47      1015.3     1.8     WNW   300   5.3      NW   312   9.67    263      511.9
   03/18/2019 12:50      80.7      79.5       24     40.4      0.00     18.60      59.0     0.47      1015.4     2.8     NNE    21   6.5       W   266   9.67    263      513.5
   03/18/2019 12:40      80.6      78.8       25     40.4      0.00     18.60      58.9     0.47      1015.5     1.9       N     0   4.6     NNE    27   9.67    263      516.0
   03/18/2019 12:30      79.3      77.4       25     39.4      0.00     18.60      58.9     0.48      1015.7     2.0      NE    48   4.6     ESE   103   9.67    263      514.7
   03/18/2019 12:20      78.0      77.0       26     39.8      0.00     18.60      58.9     0.48      1015.7     1.8     ENE    68   4.1     NNE    28   9.67    263      514.1
   03/18/2019 12:10      78.1      76.3       27     40.1      0.00     18.60      58.9     0.48      1015.9     3.1       E    91   5.9      SE   131   9.67    263      510.9
   03/18/2019 12:00      78.5      76.8       26     40.5      0.00     18.60      58.9     0.48      1015.9     1.8     ENE    71   5.4      NE    56   9.67    262      503.6
   03/18/2019 11:50      76.9      75.7       27     39.8      0.00     18.60      58.9     0.48      1016.0     2.4      NE    49   4.9     ENE    57   9.68    263      494.5
   03/18/2019 11:40      76.2      75.6       27     39.1      0.00     18.60      58.9     0.48      1016.1     2.1     ENE    77   4.6      NE    46   9.68    263      485.5
   03/18/2019 11:30      75.7      75.2       26     38.1      0.00     18.60      58.9     0.48      1016.2     2.0     NNE    20   3.9       N     9   9.68    263      475.4
   03/18/2019 11:20      75.5      73.9       28     39.1      0.00     18.60      59.0     0.48      1016.3     1.4       E    92   3.8       E    79   9.68    263      465.1
   03/18/2019 11:10      74.8      73.9       28     38.8      0.00     18.60      59.0     0.48      1016.4     2.2       E    83   4.3       E   100   9.68    263      451.2
   03/18/2019 11:00      74.3      72.6       29     39.4      0.00     18.60      59.0     0.48      1016.5     1.2     NNE    33   4.0      NE    53   9.68    263      437.4
   03/18/2019 10:50      72.9      71.3       31     40.0      0.00     18.60      59.0     0.48      1016.5     2.0     NNE    31   3.5       E    90   9.68    263      422.8
   03/18/2019 10:40      72.1      71.1       34     41.4      0.00     18.60      59.0     0.48      1016.5     2.0     NNE    13   3.8       N     3   9.68    263      405.9
   03/18/2019 10:30      72.0      69.5       36     42.0      0.00     18.60      59.0     0.48      1016.5     0.8       N   356   2.2      NE    36   9.68    263      389.8
   03/18/2019 10:20      69.7      68.4       37     41.7      0.00     18.60      59.1     0.48      1016.6     1.2       N    11   2.5      NE    40   9.68    263      371.8
   03/18/2019 10:10      68.7      67.4       39     42.4      0.00     18.60      59.1     0.48      1016.7     1.1       N   355   2.5     NNW   345   9.68    264      353.8
   03/18/2019 10:00      68.0      66.9       42     43.4      0.00     18.60      59.1     0.48      1016.6     1.2     NNE    18   2.9       N   354   9.68    264      337.0
   03/18/2019 09:50      67.4      66.8       43     44.0      0.00     18.60      59.1     0.48      1016.5     1.2     NNE    12   2.8     NNW   348   9.68    264      317.0
   03/18/2019 09:40      67.0      65.7       45     44.4      0.00     18.60      59.2     0.48      1016.5     0.6     NNE    14   1.7       N     8   9.68    264      296.4
   03/18/2019 09:30      66.0      64.6       47     44.5      0.00     18.60      59.2     0.48      1016.5     0.5     NNE    24   1.5       N   354   9.68    265      276.2
   03/18/2019 09:20      64.9      64.2       49     44.9      0.00     18.60      59.3     0.48      1016.4     0.6       N     4   2.2       N   350   9.68    266      255.7
   03/18/2019 09:10      64.3      62.5       51     45.1      0.00     18.60      59.3     0.48      1016.4     0.1     WSW   245   0.6     WNW   297   9.68    266      231.4
   03/18/2019 09:00      63.1      62.0       53     45.3      0.00     18.60      59.3     0.48      1016.4     0.4     SSW   194   1.1       S   183   9.68    268      207.9
   03/18/2019 08:50      62.2      61.1       55     45.4      0.00     18.60      59.4     0.48      1016.4     0.5     ENE    58   1.7     ESE   114   9.68    268      184.7
   03/18/2019 08:40      61.5      60.4       57     45.8      0.00     18.60      59.4     0.48      1016.3     0.8     ENE    76   2.1     ESE   109   9.68    269      157.9
   03/18/2019 08:30      60.6      58.9       59     45.5      0.00     18.60      59.4     0.48      1016.2     0.2     NNE    25   1.4      NE    37   9.68    269      127.5
   03/18/2019 08:20      58.9      55.6       63     45.1      0.00     18.60      59.5     0.48      1016.2     0.0       E    99   0.6       E    95   9.37    270       97.4
   03/18/2019 08:10      55.8      52.8       71     44.8      0.00     18.60      59.5     0.48      1016.1     0.0       N     0   0.0      SE   142   9.24    271       75.1
   03/18/2019 08:00      52.8      51.3       75     44.3      0.00     18.60      59.5     0.48      1016.0     0.0      SE   142   0.7      SE   142   9.24    277       -1.4
   03/18/2019 07:50      51.5      49.6       78     43.9      0.00     18.60      59.6     0.48      1016.0     0.1      SE   144   0.5     SSE   148   9.24    279        0.6
   03/18/2019 07:40      49.8      48.2       81     43.3      0.00     18.60      59.5     0.48      1016.0     0.4     SSE   156   0.8     SSE   150   9.24    280       -8.0
   03/18/2019 07:30      48.5      47.7       82     42.8      0.00     18.60      59.6     0.48      1016.0     0.3     SSE   161   0.9     SSE   152   9.24    280      -25.8
   03/18/2019 07:20      48.1      47.8       82     42.7      0.00     18.60      59.6     0.48      1016.0     0.0     SSE   157   0.6     SSE   152   9.24    280      -31.1
   03/18/2019 07:10      48.0      47.6       82     42.5      0.00     18.60      59.6     0.48      1015.9     0.2     SSE   166   0.6       S   173   9.24    279      -38.0
   03/18/2019 07:00      48.1      47.6       81     42.2      0.00     18.60      59.6     0.48      1015.8     0.4     SSW   194   1.0       S   180   9.24    278      -42.1
   03/18/2019 06:50      48.1      47.6       82     42.5      0.00     18.60      59.7     0.48      1015.7     0.3     SSW   192   0.9     SSW   192   9.24    277      -42.9
   03/18/2019 06:40      48.5      47.8       81     42.6      0.00     18.60      59.7     0.48      1015.6     0.0       N     0   0.0       S   190   9.24    278      -44.1
   03/18/2019 06:30      48.5      47.9       82     43.0      0.00     18.60      59.7     0.48      1015.6     0.2       S   191   1.2       S   191   9.24    277      -44.3
   03/18/2019 06:20      48.5      47.9       83     43.1      0.00     18.60      59.7     0.48      1015.6     0.4      SE   146   1.0       S   190   9.24    276      -44.9
   03/18/2019 06:10      48.5      48.1       83     43.3      0.00     18.60      59.8     0.48      1015.5     0.5     SSE   163   1.2       S   174   9.24    274      -46.7
   03/18/2019 06:00      48.5      47.8       82     42.9      0.00     18.60      59.8     0.48      1015.5     0.3     SSE   162   0.9     SSE   164   9.24    273      -49.3
   03/18/2019 05:50      48.8      48.3       83     43.4      0.00     18.60      59.8     0.48      1015.5     0.0      SE   145   1.0      SE   145   9.24    271      -49.8
   03/18/2019 05:40      48.7      48.2       82     43.2      0.00     18.60      59.8     0.48      1015.5     0.6     SSE   156   1.4     SSE   153   9.24    267      -52.5
   03/18/2019 05:30      49.1      48.3       80     42.9      0.00     18.60      59.9     0.48      1015.5     0.7     SSE   160   1.3     SSE   146   9.24    266      -54.0
   03/18/2019 05:20      49.1      48.7       79     42.7      0.00     18.60      59.9     0.48      1015.4     0.5     SSE   169   1.2     SSE   165   9.25    266      -54.7
   03/18/2019 05:10      49.1      48.6       78     42.4      0.00     18.60      59.9     0.48      1015.4     0.1     SSE   162   0.8     SSE   166   9.25    269      -55.5
   03/18/2019 05:00      49.5      48.6       77     42.0      0.00     18.60      59.9     0.48      1015.4     0.6       S   174   1.4       S   176   9.25    270      -55.4
   03/18/2019 04:50      49.5      49.2       76     42.1      0.00     18.60      60.0     0.48      1015.4     0.4       S   178   0.8       S   182   9.25    270      -55.6
   03/18/2019 04:40      49.6      49.0       77     42.4      0.00     18.60      60.0     0.48      1015.4     0.2     SSE   163   1.0       S   182   9.25    270      -55.5
   03/18/2019 04:30      49.5      48.9       78     42.4      0.00     18.60      60.0     0.48      1015.4     0.0       N     0   0.0       S   179   9.25    270      -55.9
   03/18/2019 04:20      49.5      49.0       77     42.4      0.00     18.60      60.1     0.48      1015.3     0.0       N     0   0.0      SE   143   9.25    269      -56.3
   03/18/2019 04:10      50.0      49.3       76     42.4      0.00     18.60      60.0     0.48      1015.4     0.0     SSE   149   1.2     SSE   154   9.25    269      -56.6
   03/18/2019 04:00      50.6      49.8       75     42.4      0.00     18.60      60.1     0.48      1015.5     0.7     SSE   162   1.1     SSE   162   9.25    269      -56.3
   03/18/2019 03:50      51.0      50.3       74     42.5      0.00     18.60      60.0     0.48      1015.6     0.4     SSE   156   1.2     SSE   163   9.25    269      -56.5
   03/18/2019 03:40      51.0      50.6       72     42.2      0.00     18.60      60.1     0.48      1015.7     0.6     SSE   158   1.2     SSE   157   9.25    269      -56.7
   03/18/2019 03:30      50.9      50.5       71     41.8      0.00     18.60      60.1     0.48      1015.8     0.4     SSE   159   1.2     SSE   162   9.25    269      -56.9
   03/18/2019 03:20      50.6      50.0       72     41.6      0.00     18.60      60.1     0.48      1015.9     0.0     SSE   148   1.1      SE   146   9.25    268      -57.6
   03/18/2019 03:10      51.0      50.1       71     41.4      0.00     18.60      60.1     0.48      1015.9     0.9     SSE   156   1.6     SSE   158   9.25    268      -57.7
   03/18/2019 03:00      51.3      50.5       70     41.5      0.00     18.60      60.2     0.48      1016.1     0.3     SSE   160   0.9     SSE   157   9.25    268      -57.5
   03/18/2019 02:50      51.9      51.0       70     41.9      0.00     18.60      60.2     0.48      1016.2     0.9     SSE   157   1.7      SE   141   9.25    268      -57.4
   03/18/2019 02:40      51.8      50.3       73     42.4      0.00     18.60      60.2     0.48      1016.3     0.8     SSE   155   1.4     SSE   157   9.25    268      -58.2
   03/18/2019 02:30      52.0      50.5       71     42.1      0.00     18.60      60.3     0.48      1016.4     0.7     SSE   160   1.4     SSE   167   9.25    268      -58.7
   03/18/2019 02:20      52.2      51.7       69     42.0      0.00     18.60      60.3     0.48      1016.3     1.3     SSE   151   2.0      SE   146   9.25    268      -59.4
   03/18/2019 02:10      52.8      51.7       67     41.6      0.00     18.60      60.3     0.48      1016.4     1.1     SSE   154   1.7      SE   144   9.25    268      -58.8
   03/18/2019 02:00      53.2      52.4       65     41.2      0.00     18.60      60.3     0.48      1016.4     1.0     SSE   153   1.6     SSE   151   9.25    268      -59.2
   03/18/2019 01:50      53.9      52.9       63     40.8      0.00     18.60      60.3     0.48      1016.4     0.8     SSE   158   1.3     SSE   150   9.25    268      -59.0
   03/18/2019 01:40      54.0      53.4       61     40.7      0.00     18.60      60.3     0.48      1016.5     0.8       S   170   1.2       S   174   9.25    267      -59.5
   03/18/2019 01:30      55.5      53.6       60     40.5      0.00     18.60      60.3     0.48      1016.5     1.0     SSE   159   1.8     SSW   195   9.26    267      -59.8
   03/18/2019 01:20      55.9      55.4       55     39.6      0.00     18.60      60.3     0.48      1016.6     1.6      SW   225   2.3      SW   232   9.26    267      -58.1
   03/18/2019 01:10      55.7      54.7       54     39.0      0.00     18.60      60.3     0.48      1016.5     0.5     SSE   162   1.2     SSE   157   9.26    267      -59.0
   03/18/2019 01:00      56.7      55.2       51     38.3      0.00     18.60      60.3     0.48      1016.6     0.7       S   187   1.8     WSW   241   9.26    267      -59.1
   03/18/2019 00:50      56.4      55.4       50     37.3      0.00     18.60      60.4     0.49      1016.5     0.4     WSW   245   1.5     WSW   251   9.26    266      -59.2
   03/18/2019 00:40      55.6      55.1       52     37.9      0.00     18.60      60.3     0.48      1016.4     0.1       S   170   1.0       S   170   9.26    266      -60.9
   03/18/2019 00:30      55.7      55.4       50     37.3      0.00     18.60      60.3     0.49      1016.4     0.4     SSE   159   1.1     SSE   164   9.26    266      -60.1
   03/18/2019 00:20      56.2      55.5       50     37.7      0.00     18.60      60.4     0.48      1016.4     0.5     SSE   165   1.2     SSE   163   9.26    266      -60.3
   03/18/2019 00:10      56.5      56.0       48     37.0      0.00     18.60      60.4     0.49      1016.4     0.7     SSE   155   1.6     SSE   168   9.26    266      -60.0
   03/18/2019 00:00      56.3      54.7       50     37.2      0.00     18.60      60.4     0.49      1016.3     0.6     SSE   166   1.7     SSE   151   9.26    266      -59.7
   03/17/2019 23:50      56.8      54.9       52     38.1      0.00     18.60      60.4     0.49      1016.2     0.8     SSE   158   2.2     SSE   151   9.26    266      -60.7
   03/17/2019 23:40      58.0      56.6       45     36.5      0.00     18.60      60.4     0.49      1016.1     1.2       S   178   2.4     SSW   210   9.26    266      -59.2
   03/17/2019 23:30      57.9      57.4       44     35.8      0.00     18.60      60.4     0.49      1016.1     0.6     SSW   193   1.5     SSW   192   9.27    266      -59.8
   03/17/2019 23:20      58.1      57.3       43     35.5      0.00     18.60      60.4     0.49      1016.0     0.4       S   187   2.1     SSW   200   9.27    266      -60.9
   03/17/2019 23:10      58.4      57.8       43     35.9      0.00     18.60      60.4     0.49      1015.9     0.4     SSE   166   1.1       S   172   9.27    266      -60.1
   03/17/2019 23:00      58.3      57.7       44     36.0      0.00     18.60      60.4     0.49      1015.9     0.4       S   191   1.2     SSW   198   9.27    266      -61.0
   03/17/2019 22:50      58.7      57.9       44     36.4      0.00     18.60      60.4     0.49      1016.0     0.1     ESE   119   0.7      SE   140   9.27    266      -60.9
   03/17/2019 22:40      60.5      58.5       43     36.5      0.00     18.60      60.3     0.49      1016.0     0.5     SSE   148   1.3      SE   141   9.27    266      -62.0
   03/17/2019 22:30      60.5      60.2       38     34.8      0.00     18.60      60.3     0.49      1015.9     0.6     SSE   165   1.0     SSE   152   9.27    266      -61.9
   03/17/2019 22:20      61.3      60.1       39     35.7      0.00     18.60      60.3     0.49      1015.8     0.1       E    81   1.1       S   170   9.27    265      -64.5
   03/17/2019 22:10      61.3      60.6       39     35.5      0.00     18.60      60.3     0.49      1015.8     1.3     SSE   153   2.7     SSE   153   9.27    265      -64.7
   03/17/2019 22:00      63.6      61.0       36     35.4      0.00     18.60      60.3     0.49      1015.7     1.3     SSE   164   2.1       S   185   9.27    265      -65.6
   03/17/2019 21:50      64.8      63.3       33     34.1      0.00     18.60      60.3     0.49      1015.6     1.4       S   174   3.1      SE   142   9.28    265      -66.8
   03/17/2019 21:40      64.5      63.3       32     33.8      0.00     18.60      60.3     0.49      1015.7     2.1       S   190   3.6       S   189   9.28    264      -67.0
   03/17/2019 21:30      65.1      63.3       32     34.2      0.00     18.60      60.2     0.49      1015.7     2.3     SSW   195   4.1     SSW   193   9.28    264      -67.2
   03/17/2019 21:20      64.9      63.7       32     33.5      0.00     18.60      60.2     0.49      1015.6     1.9     SSW   196   3.4      SW   216   9.28    264      -67.0
   03/17/2019 21:10      63.7      62.4       35     34.7      0.00     18.60      60.2     0.49      1015.6     1.2       S   175   2.9     SSE   168   9.28    265      -67.3
   03/17/2019 21:00      63.3      61.8       38     36.5      0.00     18.60      60.1     0.49      1015.6     1.6     SSE   158   4.4     SSW   203   9.28    265      -67.6
   03/17/2019 20:50      65.4      63.3       35     36.0      0.00     18.60      60.1     0.49      1015.5     2.1       S   178   4.3       S   181   9.29    264      -68.2
   03/17/2019 20:40      65.5      64.8       31     33.8      0.00     18.60      60.1     0.49      1015.5     2.7     SSW   191   3.7     SSW   195   9.29    264      -67.6
   03/17/2019 20:30      67.1      65.1       31     34.0      0.00     18.60      60.0     0.49      1015.5     0.6       S   190   2.2     SSW   206   9.29    265      -69.6
   03/17/2019 20:20      68.4      66.7       28     33.3      0.00     18.60      60.0     0.48      1015.5     0.3     SSW   206   1.2     WSW   241   9.29    264      -71.0
   03/17/2019 20:10      69.0      68.0       27     33.4      0.00     18.60      60.0     0.48      1015.4     1.5      SW   235   2.9     WSW   253   9.29    264      -73.9
   03/17/2019 20:00      69.6      68.5       26     32.9      0.00     18.60      59.9     0.49      1015.4     1.6      SW   217   3.4      SW   235   9.30    264      -75.5
   03/17/2019 19:50      70.1      69.2       25     32.6      0.00     18.60      59.9     0.48      1015.3     1.8     SSW   209   4.3      SW   215   9.30    264      -79.6
   03/17/2019 19:40      70.3      69.7       25     32.4      0.00     18.60      59.9     0.48      1015.1     3.2      SW   228   6.4       W   270   9.30    263      -81.6
   03/17/2019 19:30      72.2      69.9       26     34.2      0.00     18.60      59.8     0.48      1015.1     2.5     SSW   213   3.7       W   275   9.31    263      -82.4
   03/17/2019 19:20      73.1      72.0       23     32.9      0.00     18.60      59.8     0.48      1015.1     2.5       W   271   5.6     WSW   237   9.31    263      -87.0
   03/17/2019 19:10      73.7      72.8       24     34.0      0.00     18.60      59.7     0.48      1015.0     2.5     WNW   300   5.1      NW   323   9.31    263      -86.0
   03/17/2019 19:00      73.6      73.3       25     35.9      0.00     18.60      59.7     0.48      1014.9     2.5       W   277   4.8     WNW   285   9.31    263      -79.5
   03/17/2019 18:50      75.1      73.4       26     36.9      0.00     18.60      59.6     0.48      1014.9     2.5     WSW   247   4.4       W   262   9.32    263      -75.3
   03/17/2019 18:40      76.4      74.9       25     36.8      0.00     18.60      59.6     0.48      1014.8     2.4     WSW   250   4.3     WSW   239   9.32    263      -68.2
   03/17/2019 18:30      76.8      76.0       23     36.2      0.00     18.60      59.5     0.48      1014.7     3.7     WSW   255   6.8       W   264   9.32    263      -48.4
   03/17/2019 18:20      77.3      76.5       23     35.8      0.00     18.60      59.5     0.48      1014.6     4.1       W   263   8.3       W   260   9.33    263      -27.9
   03/17/2019 18:10      77.3      76.6       23     36.2      0.00     18.60      59.4     0.48      1014.5     5.5     WSW   255   9.4     WSW   250   9.33    263       -3.7
   03/17/2019 18:00      77.9      77.0       22     35.9      0.00     18.60      59.3     0.48      1014.5     5.9     WSW   244   9.8     WSW   255   9.33    263       21.8
   03/17/2019 17:50      78.2      77.4       23     37.2      0.00     18.60      59.3     0.48      1014.4     5.0     WSW   237   8.8     WSW   239   9.33    262       49.6
   03/17/2019 17:40      78.7      77.8       23     36.8      0.00     18.60      59.2     0.48      1014.4     6.3     WSW   242  11.2     WSW   246   9.34    262       77.3
   03/17/2019 17:30      79.5      78.7       21     36.1      0.00     18.60      59.1     0.48      1014.3     4.9     WSW   243   9.8      SW   226   9.34    262      103.0
   03/17/2019 17:20      80.4      79.3       19     34.5      0.00     18.60      59.1     0.48      1014.3     4.5      SW   232   8.0     SSW   209   9.35    262      128.4
   03/17/2019 17:10      80.1      79.6       20     35.2      0.00     18.60      59.1     0.48      1014.3     3.4      SW   224   5.3      SW   228   9.35    263      153.9
   03/17/2019 17:00      80.0      79.3       21     36.4      0.00     18.60      59.0     0.48      1014.4     3.1     SSW   205   7.0     WSW   237   9.35    262      178.2
   03/17/2019 16:50      80.7      79.6       20     35.5      0.00     18.60      59.0     0.48      1014.4     4.6      SW   226   9.5     SSW   212   9.35    262      204.9
   03/17/2019 16:40      80.5      79.5       19     33.9      0.00     18.60      58.9     0.48      1014.4     2.8      SW   231   7.7     WNW   288   9.36    262      229.3
   03/17/2019 16:30      80.0      79.5       21     36.3      0.00     18.60      58.8     0.48      1014.5     3.8     SSW   211   8.4      SW   230   9.36    262      235.9
   03/17/2019 16:20      80.0      79.1       21     35.7      0.00     18.60      58.7     0.48      1014.5     4.5       S   178   9.0       S   190   9.37    263      263.0
   03/17/2019 16:10      81.2      79.6       21     36.2      0.00     18.60      58.6     0.48      1014.6     4.5     SSW   202   9.2     SSW   210   9.37    263      286.3
   03/17/2019 16:00      81.1      79.4       20     35.7      0.00     18.60      58.6     0.48      1014.6     3.9      SW   224  10.7      SW   233   9.37    262      306.3
   03/17/2019 15:50      81.8      80.3       21     37.3      0.00     18.60      58.5     0.48      1014.7     4.0     SSW   202   9.4     WSW   242   9.37    262      325.1
   03/17/2019 15:40      82.2      81.2       19     35.2      0.00     18.60      58.4     0.48      1014.7     2.5      SW   218   6.7     WSW   237   9.38    262      352.4
   03/17/2019 15:30      82.9      80.8       18     34.6      0.00     18.60      58.4     0.48      1014.8     3.5     WSW   241   8.0      SW   223   9.38    262      371.0
   03/17/2019 15:20      83.9      81.4       17     33.4      0.00     18.60      58.3     0.48      1014.9     2.3     SSW   209   4.5       S   182   9.38    261      386.7
   03/17/2019 15:10      83.9      83.3       15     31.4      0.00     18.60      58.2     0.48      1014.9     1.5     WNW   292   3.8     NNW   330   9.38    261      400.2
   03/17/2019 15:00      84.0      82.4       14     29.9      0.00     18.60      58.1     0.48      1014.9     1.5       N     0   4.1      NW   309   9.38    261      415.3
   03/17/2019 14:50      82.6      81.3       16     31.4      0.00     18.60      58.1     0.48      1015.1     2.3     ESE   117   5.7      SE   136   9.39    261      434.9
   03/17/2019 14:40      82.9      81.9       14     29.0      0.00     18.60      58.0     0.48      1015.2     2.9       E    82   5.6      SE   129   9.39    261      446.0
   03/17/2019 14:30      83.2      81.7       14     29.0      0.00     18.60      57.9     0.48      1015.3     3.6     NNE    29   6.9      NE    47   9.39    261      457.4
   03/17/2019 14:20      83.9      82.3       14     28.8      0.00     18.60      57.9     0.48      1015.4     2.6     ENE    60   6.0     ENE    62   9.39    261      471.0
   03/17/2019 14:10      84.0      82.9       14     28.8      0.00     18.60      57.8     0.48      1015.5     1.4       N     8   3.1      NE    39   9.39    261      479.6
   03/17/2019 14:00      83.6      82.0       14     29.5      0.00     18.60      57.8     0.48      1015.7     2.2     NNE    25   6.4      NE    35   9.39    261      490.6
   03/17/2019 13:50      82.9      81.7       14     28.8      0.00     18.60      57.7     0.48      1015.9     3.9      NE    45   6.8      NE    56   9.40    261      496.5
   03/17/2019 13:40      82.8      81.5       15     29.8      0.00     18.60      57.7     0.48      1016.1     2.3      NE    52   5.6       E    86   9.40    261      502.0
   03/17/2019 13:30      82.9      81.8       15     29.5      0.00     18.60      57.6     0.48      1016.3     1.6       E    90   4.3      NE    53   9.40    261      510.4
   03/17/2019 13:20      82.0      80.8       17     32.4      0.00     18.60      57.6     0.48      1016.5     1.5     WNW   289   5.6       W   276   9.40    261      515.0
   03/17/2019 13:10      81.1      80.4       15     29.5      0.00     18.60      57.6     0.48      1016.6     2.5     NNW   340   5.3      NE    37   9.40    261      517.1
   03/17/2019 13:00      81.8      80.7       15     29.9      0.00     18.60      57.6     0.48      1016.7     2.7      NW   311   4.9     WNW   290   9.40    261      519.0
   03/17/2019 12:50      81.7      79.8       18     33.3      0.00     18.60      57.6     0.48      1016.8     1.8     WSW   255   6.2     WNW   283   9.40    261      520.2
   03/17/2019 12:40      80.6      79.3       15     28.8      0.00     18.60      57.5     0.48      1016.9     1.9     NNE    18   3.7       N     6   9.40    261      517.9
   03/17/2019 12:30      81.1      79.6       15     29.2      0.00     18.60      57.5     0.48      1017.0     2.0      NE    48   5.5     WNW   286   9.40    261      513.0
   03/17/2019 12:20      80.4      79.3       15     28.3      0.00     18.60      57.5     0.48      1017.0     1.6     NNE    15   3.9       N    11   9.40    261      510.6
   03/17/2019 12:10      79.6      78.6       15     28.0      0.00     18.60      57.5     0.48      1017.1     2.6      NE    43   5.4      NE    53   9.40    261      506.0
   03/17/2019 12:00      79.5      78.5       16     28.9      0.00     18.60      57.5     0.48      1017.1     2.3       N    10   5.9     NNW   335   9.40    261      499.7
   03/17/2019 11:50      79.7      78.2       15     28.0      0.00     18.60      57.6     0.48      1017.2     2.4     NNE    12   4.6     NNW   346   9.40    261      490.8
   03/17/2019 11:40      79.5      78.4       18     32.0      0.00     18.60      57.6     0.48      1017.3     1.0     SSW   211   2.7     SSE   155   9.40    261      482.6
   03/17/2019 11:30      79.0      77.5       18     31.6      0.00     18.60      57.6     0.48      1017.4     1.1      NW   322   3.4     NNE    26   9.40    261      473.0
   03/17/2019 11:20      78.1      76.4       18     30.5      0.00     18.60      57.6     0.48      1017.5     0.9       N   356   3.4       N     7   9.40    261      461.5
   03/17/2019 11:10      76.6      75.7       20     32.1      0.00     18.60      57.6     0.48      1017.6     1.7       W   279   3.7     WSW   253   9.40    261      450.4
   03/17/2019 11:00      75.9      74.5       21     31.9      0.00     18.60      57.6     0.48      1017.7     1.7      NW   313   3.7      NW   319   9.40    262      436.7
   03/17/2019 10:50      75.4      74.3       20     31.2      0.00     18.60      57.7     0.48      1017.8     1.9     NNW   330   4.6     NNW   342   9.40    261      422.8
   03/17/2019 10:40      75.3      73.3       22     32.9      0.00     18.60      57.7     0.48      1017.9     0.9       W   275   2.6     WSW   248   9.40    261      406.9
   03/17/2019 10:30      74.2      72.8       24     34.7      0.00     18.60      57.7     0.48      1018.0     1.8     SSW   196   3.5     WSW   256   9.41    262      390.8
   03/17/2019 10:20      74.1      72.9       21     31.1      0.00     18.60      57.7     0.48      1018.0     0.8     NNW   339   3.6     NNW   328   9.41    261      371.5
   03/17/2019 10:10      73.5      72.2       21     31.2      0.00     18.60      57.7     0.48      1018.0     0.8      NW   310   2.5     WNW   285   9.41    261      353.5
   03/17/2019 10:00      72.5      71.9       22     31.6      0.00     18.60      57.8     0.48      1018.1     1.2       W   268   3.5      NW   316   9.41    262      335.6
   03/17/2019 09:50      72.2      70.1       24     32.4      0.00     18.60      57.8     0.48      1018.0     0.9      SW   236   2.4     SSW   207   9.41    262      316.0
   03/17/2019 09:40      70.2      69.2       26     32.8      0.00     18.60      57.9     0.48      1017.9     2.0     SSW   212   3.5     SSW   201   9.41    263      297.2
   03/17/2019 09:30      69.6      68.4       25     31.8      0.00     18.60      57.9     0.48      1017.8     1.7      SW   231   3.8     WSW   237   9.41    264      277.7
   03/17/2019 09:20      68.4      66.3       33     37.1      0.00     18.60      57.9     0.48      1017.8     0.6     NNE    34   1.3     NNE    21   9.41    264      258.5
   03/17/2019 09:10      66.4      64.3       37     38.3      0.00     18.60      58.0     0.48      1017.8     0.2     NNE    14   1.0       N     6   9.41    264      234.9
   03/17/2019 09:00      64.3      62.4       36     36.0      0.00     18.60      58.0     0.48      1017.8     0.5     NNE    29   1.1     NNE    33   9.41    266      211.7
   03/17/2019 08:50      62.6      61.9       37     35.6      0.00     18.60      58.0     0.48      1017.8     0.5     NNE    17   1.0     NNE    25   9.41    266      188.8
   03/17/2019 08:40      62.1      59.7       40     36.3      0.00     18.60      58.1     0.48      1017.7     0.2     NNE    30   1.0       N     7   9.41    267      162.5
   03/17/2019 08:30      60.2      57.4       42     36.3      0.00     18.60      58.1     0.48      1017.7     0.0       N     6   1.1       N     6   9.41    267      133.3
   03/17/2019 08:20      57.5      53.4       47     35.6      0.00     18.60      58.1     0.48      1017.6     0.0       N     0   0.0      SE   142   9.41    267      103.2
   03/17/2019 08:10      53.5      51.1       52     35.0      0.00     18.60      58.2     0.48      1017.6     0.1      SE   142   1.0      SE   142   9.41    268       59.3
   03/17/2019 08:00      51.1      49.3       55     34.4      0.00     18.60      58.2     0.48      1017.6     0.0       N     0   0.0      SE   142   9.41    268      -24.6
   03/17/2019 07:50      49.4      47.6       56     33.5      0.00     18.60      58.2     0.48      1017.5     0.0      SE   142   0.9      SE   141   9.41    268      -14.6
   03/17/2019 07:40      47.7      46.4       58     33.0      0.00     18.60      58.2     0.48      1017.4     0.3      SE   141   1.2      SE   139   9.41    268      -34.4
   03/17/2019 07:30      46.5      45.3       60     32.6      0.00     18.60      58.3     0.48      1017.3     0.0     SSW   192   0.7       S   190   9.41    268      -43.8
   03/17/2019 07:20      45.8      45.2       60     32.5      0.00     18.60      58.3     0.48      1017.3     0.3     SSE   155   2.5     SSW   193   9.41    267      -48.5
   03/17/2019 07:10      46.2      45.0       60     32.4      0.00     18.60      58.4     0.48      1017.2     1.1       S   177   2.4       S   188   9.41    268      -52.7
   03/17/2019 07:00      46.5      45.5       58     32.1      0.00     18.60      58.4     0.48      1017.2     0.9       S   171   2.3     SSW   196   9.41    268      -56.5
   03/17/2019 06:50      46.5      46.1       57     32.1      0.00     18.60      58.4     0.48      1017.2     0.3     SSE   149   1.1      SE   144   9.41    268      -57.1
   03/17/2019 06:40      47.0      46.2       57     32.3      0.00     18.60      58.4     0.48      1017.2     0.6     SSW   203   1.9     SSW   199   9.41    267      -57.4
   03/17/2019 06:30      47.2      46.7       56     32.2      0.00     18.60      58.4     0.48      1017.2     0.2       S   183   1.6     NNE    12   9.41    268      -56.7
   03/17/2019 06:20      47.7      47.0       55     32.0      0.00     18.60      58.4     0.48      1017.1     0.0     SSE   159   0.7     SSE   160   9.41    267      -56.1
   03/17/2019 06:10      47.5      46.7       56     32.1      0.00     18.60      58.4     0.48      1017.1     0.9     SSE   153   1.6     SSE   160   9.41    267      -55.3
   03/17/2019 06:00      47.6      47.1       55     32.1      0.00     18.60      58.5     0.48      1017.1     0.2     SSE   152   0.9     SSE   154   9.41    267      -55.7
   03/17/2019 05:50      47.5      46.9       56     32.4      0.00     18.60      58.5     0.48      1017.1     0.3     SSW   194   1.1       S   170   9.41    267      -56.1
   03/17/2019 05:40      47.5      47.0       56     32.3      0.00     18.60      58.5     0.48      1016.9     0.2       S   170   1.5       S   170   9.41    267      -56.7
   03/17/2019 05:30      47.1      46.5       57     32.6      0.00     18.60      58.6     0.48      1016.8     0.2       S   173   1.5       S   170   9.41    268      -55.8
   03/17/2019 05:20      47.2      46.6       58     32.9      0.00     18.60      58.6     0.48      1016.8     0.2       S   180   1.3       S   182   9.42    267      -56.9
   03/17/2019 05:10      47.2      46.5       59     33.2      0.00     18.60      58.6     0.48      1016.7     0.2     SSE   150   1.4     SSE   153   9.42    267      -56.5
   03/17/2019 05:00      47.5      46.9       57     32.6      0.00     18.60      58.6     0.48      1016.6     0.3     SSE   152   1.2     SSE   166   9.42    267      -56.8
   03/17/2019 04:50      47.7      47.4       55     32.2      0.00     18.60      58.7     0.48      1016.5     0.5     SSE   168   1.3       S   188   9.42    267      -57.5
   03/17/2019 04:40      47.8      47.4       55     32.4      0.00     18.60      58.7     0.48      1016.5     0.6       S   171   1.7       S   186   9.42    267      -57.5
   03/17/2019 04:30      48.1      47.4       55     32.1      0.00     18.60      58.7     0.48      1016.6     0.3     SSE   163   1.2     SSE   166   9.42    267      -57.7
   03/17/2019 04:20      48.5      47.8       53     31.8      0.00     18.60      58.7     0.48      1016.6     0.2     SSE   163   1.2     SSE   166   9.42    267      -57.0
   03/17/2019 04:10      48.3      47.8       53     31.6      0.00     18.60      58.8     0.48      1016.5     0.0       S   170   1.1       S   170   9.42    267      -56.9
   03/17/2019 04:00      48.1      47.6       53     31.8      0.00     18.60      58.8     0.48      1016.5     0.0     SSW   198   0.7     SSW   196   9.42    267      -57.1
   03/17/2019 03:50      48.2      47.6       55     32.5      0.00     18.60      58.8     0.48      1016.6     0.0       S   184   0.6       S   182   9.42    267      -57.1
   03/17/2019 03:40      48.7      47.8       55     32.7      0.00     18.60      58.8     0.48      1016.6     0.4     SSE   163   1.1     SSE   147   9.42    267      -57.5
   03/17/2019 03:30      48.7      48.3       53     32.0      0.00     18.60      58.8     0.48      1016.7     0.7       S   172   1.3     SSW   200   9.42    267      -57.3
   03/17/2019 03:20      49.0      48.3       54     32.7      0.00     18.60      58.8     0.49      1016.8     0.4     SSE   163   1.1     SSE   162   9.42    267      -58.5
   03/17/2019 03:10      49.1      48.1       53     32.2      0.00     18.60      58.9     0.49      1016.9     0.3     SSW   199   1.1     SSW   198   9.42    267      -57.8
   03/17/2019 03:00      48.6      48.0       56     33.1      0.00     18.60      58.9     0.48      1017.0     0.2     SSE   151   1.1       S   176   9.42    267      -58.2
   03/17/2019 02:50      49.4      48.3       54     32.6      0.00     18.60      58.9     0.49      1017.1     0.7     SSE   157   1.4     SSE   148   9.42    267      -58.6
   03/17/2019 02:40      49.3      48.6       53     32.6      0.00     18.60      58.9     0.48      1017.2     0.4       S   177   1.2       S   172   9.42    267      -59.2
   03/17/2019 02:30      49.2      48.7       54     33.0      0.00     18.60      58.9     0.49      1017.3     0.1       S   181   1.1       S   185   9.42    267      -59.0
   03/17/2019 02:20      50.2      49.0       52     32.8      0.00     18.60      59.0     0.49      1017.3     0.7     SSE   163   1.4     SSW   202   9.42    267      -59.2
   03/17/2019 02:10      50.0      49.5       51     32.6      0.00     18.60      59.0     0.49      1017.3     0.6     SSW   198   1.8       S   188   9.42    267      -58.7
   03/17/2019 02:00      50.6      49.8       50     32.3      0.00     18.60      59.0     0.49      1017.4     0.6     SSE   151   1.2     SSE   165   9.42    267      -59.0
   03/17/2019 01:50      50.8      50.1       50     32.2      0.00     18.60      59.0     0.49      1017.4     0.1       S   189   1.0       S   179   9.42    266      -59.1
   03/17/2019 01:40      51.1      50.4       48     32.0      0.00     18.60      59.0     0.49      1017.5     0.1     SSE   158   0.6      SE   135   9.43    266      -59.3
   03/17/2019 01:30      51.3      50.8       47     31.3      0.00     18.60      59.0     0.49      1017.5     0.4       S   181   0.9     SSE   149   9.43    266      -59.0
   03/17/2019 01:20      52.0      51.0       47     32.1      0.00     18.60      59.0     0.49      1017.5     0.1      SE   137   0.9      SE   136   9.43    266      -60.2
   03/17/2019 01:10      51.9      51.6       46     31.6      0.00     18.60      59.0     0.49      1017.5     0.4       S   175   1.0     SSE   163   9.43    266      -60.1
   03/17/2019 01:00      52.0      51.4       46     31.7      0.00     18.60      59.1     0.49      1017.6     0.8       S   189   1.8       S   188   9.43    266      -60.6
   03/17/2019 00:50      52.0      51.6       46     31.8      0.00     18.60      59.0     0.49      1017.6     0.0       N     0   0.0       S   175   9.43    266      -61.3
   03/17/2019 00:40      52.5      51.6       47     32.4      0.00     18.60      59.1     0.49      1017.6     0.1       S   169   1.1       S   175   9.43    266      -61.9
   03/17/2019 00:30      53.8      52.2       46     32.6      0.00     18.60      59.1     0.49      1017.6     0.3     SSE   148   1.2      SE   143   9.43    266      -61.7
   03/17/2019 00:20      54.2      53.6       42     31.3      0.00     18.60      59.1     0.49      1017.7     0.8     SSE   157   1.3     SSE   158   9.43    266      -60.6
   03/17/2019 00:10      54.3      53.6       42     31.2      0.00     18.60      59.1     0.49      1017.7     0.4       S   178   0.9     SSE   154   9.43    266      -61.5
   03/17/2019 00:00      54.2      53.2       42     31.3      0.00     18.60      59.1     0.49      1017.6     0.6     SSE   162   1.3     SSE   163   9.43    266      -62.0
   03/16/2019 23:50      54.3      53.0       46     32.9      0.00     18.60      59.1     0.49      1017.6     0.7     SSE   162   1.3     SSE   157   9.43    266      -63.1
   03/16/2019 23:40      54.6      53.7       43     32.2      0.00     18.60      59.0     0.49      1017.5     1.1     SSE   160   2.3     SSE   151   9.44    266      -63.1
   03/16/2019 23:30      54.6      53.6       45     32.9      0.00     18.60      59.1     0.49      1017.5     1.0     SSE   159   1.9      SE   144   9.44    266      -63.5
   03/16/2019 23:20      54.8      54.3       42     32.2      0.00     18.60      59.1     0.49      1017.5     0.9     SSE   156   1.7     SSE   148   9.44    266      -64.1
   03/16/2019 23:10      54.9      54.5       43     32.7      0.00     18.60      59.1     0.49      1017.4     1.1     SSE   160   1.7     SSE   156   9.44    266      -64.8
   03/16/2019 23:00      55.7      54.5       43     33.0      0.00     18.60      59.1     0.49      1017.3     1.2     SSE   155   2.3     SSE   146   9.44    266      -65.6
   03/16/2019 22:50      55.9      55.1       42     32.7      0.00     18.60      59.1     0.49      1017.3     1.6     SSE   153   2.5      SE   144   9.44    266      -65.8
   03/16/2019 22:40      57.1      55.7       39     32.2      0.00     18.60      59.1     0.49      1017.4     1.8     SSE   153   3.0      SE   145   9.44    266      -66.6
   03/16/2019 22:30      57.6      56.7       38     31.7      0.00     18.60      59.0     0.49      1017.3     1.4     SSE   163   2.3      SE   135   9.44    266      -66.3
   03/16/2019 22:20      57.6      57.0       37     31.2      0.00     18.60      59.0     0.49      1017.3     1.4     SSE   157   2.6       S   181   9.44    265      -66.5
   03/16/2019 22:10      57.6      57.0       37     31.4      0.00     18.60      59.0     0.49      1017.2     1.1     SSE   159   2.6       S   178   9.45    265      -66.3
   03/16/2019 22:00      58.0      57.1       37     31.3      0.00     18.60      59.0     0.49      1017.2     1.2     SSE   155   1.8      SE   142   9.45    266      -66.4
   03/16/2019 21:50      57.9      56.9       36     30.7      0.00     18.60      59.0     0.49      1017.0     0.8       S   176   1.4     SSW   197   9.45    265      -67.2
   03/16/2019 21:40      58.1      56.6       38     32.0      0.00     18.60      59.0     0.49      1016.9     0.7     SSE   167   1.7       S   186   9.45    265      -69.1
   03/16/2019 21:30      59.4      58.0       35     31.3      0.00     18.60      59.0     0.49      1016.9     1.2       S   172   2.5       S   177   9.45    265      -69.9
   03/16/2019 21:20      59.4      57.5       34     30.1      0.00     18.60      58.9     0.49      1016.8     0.9     SSE   164   1.9       S   175   9.45    264      -70.3
   03/16/2019 21:10      59.2      57.6       36     31.5      0.00     18.60      58.9     0.49      1016.8     1.5     SSE   162   2.7      SE   142   9.45    265      -69.7
   03/16/2019 21:00      59.3      58.5       35     31.2      0.00     18.60      58.9     0.49      1016.8     1.5     SSE   156   2.4      SE   145   9.45    264      -72.2
   03/16/2019 20:50      61.1      59.1       34     31.3      0.00     18.60      58.8     0.49      1016.7     1.7     SSE   150   2.6      SE   140   9.46    264      -72.5
   03/16/2019 20:40      61.6      60.5       30     29.4      0.00     18.60      58.8     0.49      1016.5     1.2     SSE   163   2.2     SSE   149   9.46    264      -71.8
   03/16/2019 20:30      61.9      61.1       29     29.0      0.00     18.60      58.8     0.49      1016.4     0.6       S   173   1.5     SSE   154   9.46    264      -72.3
   03/16/2019 20:20      63.8      61.7       27     28.4      0.00     18.60      58.7     0.49      1016.4     1.0     SSE   159   2.0     SSE   160   9.46    264      -73.9
   03/16/2019 20:10      66.8      63.7       24     27.2      0.00     18.60      58.7     0.49      1016.3     1.1       S   175   2.3       S   185   9.46    264      -74.8
   03/16/2019 20:00      68.6      66.5       21     25.3      0.00     18.60      58.7     0.49      1016.2     1.0       S   174   1.6       S   189   9.47    264      -77.0
   03/16/2019 19:50      71.1      68.5       19     25.0      0.00     18.60      58.6     0.48      1016.2     0.1     SSE   147   0.9     SSE   154   9.47    262      -83.7
   03/16/2019 19:40      71.8      70.8       17     23.5      0.00     18.60      58.6     0.48      1016.0     1.2       N   352   2.0     NNE    32   9.47    262      -89.2
   03/16/2019 19:30      72.8      71.6       16     23.3      0.00     18.60      58.5     0.48      1015.9     1.5     NNE    16   3.8       N     6   9.47    262      -92.5
   03/16/2019 19:20      73.3      72.5       15     22.4      0.00     18.60      58.5     0.48      1015.8     2.5     NNE    17   6.1     WNW   294   9.47    262      -95.0
   03/16/2019 19:10      73.8      72.9       15     22.6      0.00     18.60      58.5     0.48      1015.6     3.0     NNE    19   5.3       N     5   9.48    262      -94.3
   03/16/2019 19:00      74.1      73.5       15     23.0      0.00     18.60      58.4     0.48      1015.6     2.7     NNE    20   6.6      NE    41   9.48    261      -91.9
   03/16/2019 18:50      74.8      73.9       15     23.0      0.00     18.60      58.4     0.48      1015.6     2.5     NNE    24   4.3       N   355   9.48    262      -89.4
   03/16/2019 18:40      75.6      74.6       14     22.7      0.00     18.60      58.3     0.48      1015.5     4.2     NNE    15   6.4      NE    38   9.49    261      -78.2
   03/16/2019 18:30      76.1      75.2       14     22.6      0.00     18.60      58.3     0.48      1015.3     4.8     NNE    15  10.8      NE    38   9.49    262      -59.4
   03/16/2019 18:20      76.4      75.7       14     23.5      0.00     18.60      58.2     0.48      1015.2     3.9     NNE    20   6.8     NNW   348   9.49    262      -38.3
   03/16/2019 18:10      76.4      75.9       14     23.9      0.00     18.60      58.2     0.48      1015.2     4.4       N    10   9.5       N     0   9.49    262      -14.0
   03/16/2019 18:00      76.6      76.2       14     23.3      0.00     18.60      58.2     0.48      1015.1     4.7       N     0   8.4     NNW   335   9.50    261       12.0
   03/16/2019 17:50      77.0      76.2       13     22.8      0.00     18.60      58.1     0.48      1015.1     5.5       N     9  10.9     NNE    21   9.50    261       40.3
   03/16/2019 17:40      77.0      76.5       13     22.9      0.00     18.60      58.0     0.48      1015.2     5.3       N     6  11.2     NNW   332   9.50    261       68.3
   03/16/2019 17:30      77.1      76.5       13     22.7      0.00     18.60      58.0     0.48      1015.2     6.2       N     7  11.7      NE    46   9.51    261       96.7
   03/16/2019 17:20      77.7      76.9       13     23.0      0.00     18.60      58.0     0.48      1015.2     6.5       N    10  11.2       N   351   9.51    261      124.2
   03/16/2019 17:10      77.8      77.4       13     23.1      0.00     18.60      57.9     0.48      1015.2     4.9     NNE    22   9.3     NNE    14   9.51    261      151.0
   03/16/2019 17:00      77.9      77.3       13     23.0      0.00     18.60      57.8     0.48      1015.2     4.9     NNE    24   8.8     NNE    33   9.52    262      176.6
   03/16/2019 16:50      78.0      77.3       13     23.1      0.00     18.60      57.8     0.48      1015.2     5.3     NNE    17   9.6     NNW   342   9.52    262      203.1
   03/16/2019 16:40      77.9      77.1       13     23.4      0.00     18.60      57.7     0.48      1015.2     5.2     NNE    23   9.4     WNW   298   9.52    261      227.6
   03/16/2019 16:30      77.5      76.7       14     23.8      0.00     18.60      57.7     0.48      1015.3     6.6       N   356  13.8       N    10   9.53    262      238.5
   03/16/2019 16:20      77.3      76.7       14     23.5      0.00     18.60      57.6     0.48      1015.3     7.5       N     6  13.1     NNE    15   9.53    262      263.1
   03/16/2019 16:10      77.3      76.4       14     23.5      0.00     18.60      57.6     0.48      1015.3     7.7       N     4  19.5     NNE    12   9.53    262      287.4
   03/16/2019 16:00      77.6      76.7       14     23.9      0.00     18.60      57.5     0.48      1015.3     8.5     NNE    13  15.4     NNW   346   9.54    262      308.8
   03/16/2019 15:50      77.4      76.8       14     24.6      0.00     18.60      57.4     0.48      1015.4     6.9       N     5  12.1       N   349   9.54    262      329.5
   03/16/2019 15:40      77.6      76.8       14     24.4      0.00     18.60      57.4     0.48      1015.5     7.1       N     4  14.6       N     2   9.54    262      359.5
   03/16/2019 15:30      77.1      76.5       14     24.2      0.00     18.60      57.3     0.48      1015.5     7.3     NNE    20  13.8     NNW   348   9.55    262      384.6
   03/16/2019 15:20      77.4      76.9       14     24.3      0.00     18.60      57.3     0.48      1015.6     6.8     NNE    19  13.6     NNE    20   9.55    261      401.3
   03/16/2019 15:10      77.4      76.2       14     24.1      0.00     18.60      57.2     0.48      1015.7     7.6       N    11  13.8      NW   309   9.55    261      421.4
   03/16/2019 15:00      77.0      76.4       14     24.0      0.00     18.60      57.1     0.48      1015.7     7.0     NNE    19  15.9      NE    42   9.56    261      437.1
   03/16/2019 14:50      76.8      76.2       14     23.5      0.00     18.60      57.1     0.48      1015.8     8.3       N     9  15.5       N     9   9.56    261      452.7
   03/16/2019 14:40      77.0      76.4       14     23.6      0.00     18.60      57.0     0.48      1016.0     7.9       N     6  13.5     NNE    13   9.56    261      464.5
   03/16/2019 14:30      76.8      76.1       14     23.8      0.00     18.60      57.0     0.48      1016.1     7.7       N     1  14.1     NNW   341   9.56    261      477.0
   03/16/2019 14:20      76.6      75.6       14     23.9      0.00     18.60      57.0     0.48      1016.3     6.8       N    10  13.4       N     6   9.56    261      490.6
   03/16/2019 14:10      76.0      75.2       14     23.3      0.00     18.60      56.9     0.48      1016.5     8.2       N   355  13.4       N    11   9.57    261      502.3
   03/16/2019 14:00      75.8      75.0       14     23.0      0.00     18.60      56.9     0.48      1016.7     8.6       N     4  14.7     NNE    33   9.57    261      510.6
   03/16/2019 13:50      75.5      74.9       14     22.8      0.00     18.60      56.8     0.48      1016.9     7.9       N    10  17.5     NNW   334   9.57    261      516.9
   03/16/2019 13:40      75.8      75.1       14     22.7      0.00     18.60      56.8     0.48      1017.0     8.3     NNE    14  14.9       N     2   9.58    261      523.4
   03/16/2019 13:30      75.7      74.5       14     22.7      0.00     18.60      56.7     0.48      1017.1     7.3     NNE    17  15.6      NE    38   9.58    261      528.7
   03/16/2019 13:20      74.8      74.1       14     21.9      0.00     18.60      56.7     0.48      1017.3     7.9     NNE    16  13.8       N     3   9.58    261      535.1
   03/16/2019 13:10      74.4      73.7       14     21.4      0.00     18.60      56.7     0.48      1017.4     8.9     NNE    16  15.3     NNE    12   9.58    261      538.6
   03/16/2019 13:00      74.3      73.3       14     21.3      0.00     18.60      56.7     0.48      1017.5     8.6       N     5  19.3       S   179   9.58    261      538.3
   03/16/2019 12:50      73.9      73.2       14     21.3      0.00     18.60      56.7     0.48      1017.6     8.1     NNE    17  17.7       N   350   9.59    261      538.2
   03/16/2019 12:40      74.1      73.3       14     21.7      0.00     18.60      56.7     0.48      1017.7     8.0     NNE    25  15.0     NNW   327   9.59    261      535.2
   03/16/2019 12:30      73.7      73.1       14     21.5      0.00     18.60      56.7     0.48      1017.8     7.3     NNE    23  13.1     NNE    33   9.59    261      531.2
   03/16/2019 12:20      73.8      72.6       14     21.5      0.00     18.60      56.7     0.48      1017.9     6.9       N     8  12.1      NW   311   9.59    261      527.5
   03/16/2019 12:10      73.5      72.2       14     20.8      0.00     18.60      56.7     0.48      1018.0     8.3     NNE    19  14.9     NNE    29   9.59    261      523.4
   03/16/2019 12:00      72.9      72.1       14     20.2      0.00     18.60      56.6     0.48      1018.0     9.5       N     7  17.3       N   353   9.59    261      516.9
   03/16/2019 11:50      73.1      72.1       14     20.5      0.00     18.60      56.7     0.48      1018.1     7.6       N    11  15.5       N     0   9.60    261      505.3
   03/16/2019 11:40      72.6      71.8       14     20.8      0.00     18.60      56.7     0.48      1018.2     8.0     NNE    13  15.1     ENE    65   9.60    261      496.9
   03/16/2019 11:30      72.3      71.3       15     21.1      0.00     18.60      56.7     0.48      1018.3     7.3       N     2  17.3       N     9   9.60    261      485.6
   03/16/2019 11:20      71.8      71.0       15     21.3      0.00     18.60      56.7     0.48      1018.4     7.6       N     4  12.9     NNE    20   9.60    261      473.1
   03/16/2019 11:10      71.7      70.7       15     21.2      0.00     18.60      56.8     0.48      1018.5     7.1       N   356  12.9     NNE    28   9.60    261      459.3
   03/16/2019 11:00      70.9      69.9       15     21.0      0.00     18.60      56.8     0.48      1018.5     6.8       N   360  14.0      NW   319   9.60    261      444.4
   03/16/2019 10:50      69.9      69.6       15     20.4      0.00     18.60      56.8     0.48      1018.7     8.2       N     3  16.9       N     4   9.61    261      429.6
   03/16/2019 10:40      69.9      68.7       15     20.3      0.00     18.60      56.8     0.48      1018.7     7.8     NNE    16  13.5       N   351   9.61    261      413.5
   03/16/2019 10:30      69.2      68.1       16     20.2      0.00     18.60      56.8     0.48      1018.7     8.2     NNE    12  14.7     NNE    28   9.61    261      396.3
   03/16/2019 10:20      68.5      67.6       16     20.4      0.00     18.60      56.9     0.48      1018.7     8.4       N    10  19.5       N     4   9.61    261      376.4
   03/16/2019 10:10      68.0      67.4       16     20.6      0.00     18.60      56.8     0.48      1018.7     7.5       N     9  13.2     NNW   347   9.61    261      356.1
   03/16/2019 10:00      67.7      67.0       17     20.5      0.00     18.60      56.9     0.48      1018.8     7.0       N     7  15.0       N   355   9.61    261      335.6
   03/16/2019 09:50      67.5      66.8       16     20.1      0.00     18.60      56.9     0.48      1018.9     6.9       N   358  12.3       N   349   9.61    261      314.0
   03/16/2019 09:40      67.1      66.3       16     19.6      0.00     18.60      56.9     0.48      1018.9     8.1       N     4  14.0     NNE    24   9.61    262      292.8
   03/16/2019 09:30      66.4      65.5       17     19.9      0.00     18.60      57.0     0.48      1018.9     6.9     NNE    13  12.9     NNW   339   9.61    263      271.7
   03/16/2019 09:20      65.6      64.9       17     19.7      0.00     18.60      57.0     0.48      1019.0     6.1       N    11  10.3     NNE    17   9.61    262      251.0
   03/16/2019 09:10      65.1      63.9       18     19.6      0.00     18.60      57.0     0.48      1019.0     6.3     NNE    14  10.1     NNE    24   9.62    263      229.2
   03/16/2019 09:00      64.2      63.6       18     20.1      0.00     18.60      57.0     0.48      1019.0     5.7       N   358  11.3     NNW   335   9.62    264      205.2
   03/16/2019 08:50      63.8      63.3       18     19.8      0.00     18.60      57.1     0.48      1019.0     4.4       N   359   9.1     NNE    19   9.62    264      180.9
   03/16/2019 08:40      63.5      63.0       18     19.6      0.00     18.60      57.1     0.48      1019.0     3.8       N   358   7.6     NNW   336   9.62    264      155.1
   03/16/2019 08:30      63.2      61.3       19     19.9      0.00     18.60      57.1     0.48      1018.8     2.8       N   353   6.3      NW   312   9.62    264      125.8
   03/16/2019 08:20      61.4      59.0       26     24.7      0.00     18.60      57.1     0.48      1018.7     1.8     ENE    62   6.2      NE    40   9.62    265       95.8
   03/16/2019 08:10      59.4      55.6       28     24.3      0.00     18.60      57.2     0.48      1018.6     1.0     WSW   247   2.2       W   277   9.62    265       38.1
   03/16/2019 08:00      55.8      53.1       33     25.8      0.00     18.60      57.2     0.48      1018.5     1.1     SSW   194   2.3       E    84   9.62    266      -37.4
   03/16/2019 07:50      53.5      50.7       36     25.6      0.00     18.60      57.2     0.48      1018.5     0.8     SSE   151   2.1       S   178   9.62    266      -22.9
   03/16/2019 07:40      51.8      50.2       38     26.4      0.00     18.60      57.3     0.48      1018.5     1.3     SSE   162   2.5       S   170   9.62    266      -49.4
   03/16/2019 07:30      51.8      49.7       34     23.3      0.00     18.60      57.3     0.49      1018.4     1.8     SSE   166   3.7     SSE   149   9.62    266      -54.0
   03/16/2019 07:20      51.4      49.8       35     23.7      0.00     18.60      57.3     0.48      1018.2     2.0     SSE   159   4.0      SE   140   9.62    266      -56.6
   03/16/2019 07:10      50.6      49.3       35     23.4      0.00     18.60      57.3     0.49      1018.2     1.5       S   180   2.8      SE   142   9.62    266      -60.5
   03/16/2019 07:00      50.2      48.1       36     23.5      0.00     18.60      57.4     0.49      1018.2     2.5       S   180   4.4      SW   216   9.62    266      -63.6
   03/16/2019 06:50      50.0      47.6       40     25.4      0.00     18.60      57.4     0.49      1018.3     1.8     SSE   166   3.6     SSW   196   9.62    266      -64.8
   03/16/2019 06:40      53.1      49.9       33     23.4      0.00     18.60      57.4     0.49      1018.2     1.6     SSE   161   3.5      SE   135   9.62    266      -65.6
   03/16/2019 06:30      54.9      49.4       29     20.9      0.00     18.60      57.5     0.49      1018.2     1.7     WSW   254   4.7     NNE    13   9.62    265      -66.5
   03/16/2019 06:20      50.2      47.5       37     23.5      0.00     18.60      57.5     0.49      1018.2     1.7       S   180   3.8      SW   222   9.62    266      -65.7
   03/16/2019 06:10      48.5      46.9       40     24.5      0.00     18.60      57.5     0.49      1018.2     1.6     SSE   150   3.4      SE   141   9.62    266      -65.2
   03/16/2019 06:00      48.3      46.9       41     24.8      0.00     18.60      57.5     0.49      1018.1     1.2     SSE   153   2.9     SSW   200   9.62    266      -65.2
   03/16/2019 05:50      49.1      47.7       40     24.8      0.00     18.60      57.6     0.49      1018.0     2.4     SSE   153   4.6      SE   138   9.62    266      -66.5
   03/16/2019 05:40      51.1      48.8       35     23.3      0.00     18.60      57.6     0.49      1017.8     2.5       S   186   3.4      SE   145   9.62    266      -63.8
   03/16/2019 05:30      50.9      49.9       33     22.4      0.00     18.60      57.6     0.49      1017.8     1.4       S   171   2.6     WSW   254   9.62    266      -64.5
   03/16/2019 05:20      53.9      50.4       33     23.8      0.00     18.60      57.6     0.49      1017.8     1.6     SSE   159   3.4      SE   136   9.62    266      -65.6
   03/16/2019 05:10      55.8      53.8       25     19.8      0.00     18.60      57.7     0.49      1017.7     2.8      SW   230   4.1     WSW   258   9.63    265      -64.8
   03/16/2019 05:00      56.7      55.6       23     19.0      0.00     18.60      57.7     0.49      1017.7     1.8      SW   235   2.7     WSW   247   9.63    265      -65.2
   03/16/2019 04:50      56.6      55.5       22     18.3      0.00     18.60      57.7     0.49      1017.6     1.0     NNW   336   4.1       N     5   9.63    264      -67.6
   03/16/2019 04:40      55.6      50.8       27     20.1      0.00     18.60      57.8     0.49      1017.6     2.5      SW   216   6.2     SSE   169   9.63    265      -66.7
   03/16/2019 04:30      51.8      50.2       32     22.5      0.00     18.60      57.8     0.49      1017.5     2.4     SSE   169   5.2      SW   219   9.63    266      -64.3
   03/16/2019 04:20      50.5      48.3       36     23.3      0.00     18.60      57.8     0.49      1017.6     1.7       S   175   4.3      SE   137   9.63    266      -63.3
   03/16/2019 04:10      49.6      47.6       38     23.6      0.00     18.60      57.8     0.49      1017.5     1.5     SSE   161   3.6       S   185   9.63    266      -64.5
   03/16/2019 04:00      48.2      46.8       39     23.8      0.00     18.60      57.8     0.49      1017.6     1.0     SSE   163   2.5       S   175   9.63    266      -64.9
   03/16/2019 03:50      47.6      45.9       43     25.5      0.00     18.60      57.8     0.49      1017.6     1.4       S   169   3.5      SE   141   9.63    266      -67.0
   03/16/2019 03:40      49.6      47.2       40     24.9      0.00     18.60      57.9     0.49      1017.6     1.9     SSE   155   3.9      SE   136   9.63    266      -68.0
   03/16/2019 03:30      48.8      47.8       38     23.9      0.00     18.60      57.9     0.49      1017.7     1.7     SSE   149   3.7      SE   136   9.63    266      -69.2
   03/16/2019 03:20      48.3      46.8       40     24.2      0.00     18.60      57.9     0.49      1017.9     1.7     SSE   153   3.0       S   180   9.63    266      -67.8
   03/16/2019 03:10      50.3      46.8       42     26.1      0.00     18.60      57.9     0.49      1018.1     1.5     SSE   162   3.7      SE   132   9.63    266      -67.9
   03/16/2019 03:00      51.3      50.0       33     22.6      0.00     18.60      57.9     0.49      1018.1     1.1     SSE   166   3.1     SSE   149   9.63    265      -66.7
   03/16/2019 02:50      53.2      50.8       32     22.8      0.00     18.60      58.0     0.49      1018.2     0.8     SSW   211   2.0      SW   235   9.63    265      -67.6
   03/16/2019 02:40      53.2      51.1       28     20.5      0.00     18.60      58.0     0.49      1018.2     1.3      SW   216   3.5      SW   232   9.64    265      -69.1
   03/16/2019 02:30      51.0      47.8       36     22.9      0.00     18.60      58.0     0.49      1018.2     1.5     SSW   203   4.9       S   176   9.64    266      -69.7
   03/16/2019 02:20      48.0      46.1       42     25.0      0.00     18.60      58.0     0.49      1018.2     1.7       S   172   3.2       S   180   9.64    266      -69.2
   03/16/2019 02:10      49.5      47.5       39     24.8      0.00     18.60      58.0     0.49      1018.2     1.7     SSE   162   3.0      SE   145   9.64    265      -71.1
   03/16/2019 02:00      51.8      49.3       35     23.4      0.00     18.60      58.0     0.49      1018.2     2.2       S   185   4.1      SW   228   9.64    265      -70.4
   03/16/2019 01:50      52.1      49.3       35     23.9      0.00     18.60      58.1     0.49      1018.2     2.2       S   185   5.8       S   190   9.64    265      -73.1
   03/16/2019 01:40      53.7      49.5       34     23.5      0.00     18.60      58.1     0.49      1018.1     2.5     SSE   166   5.8       S   180   9.64    265      -75.4
   03/16/2019 01:30      54.5      52.1       27     20.2      0.00     18.60      58.1     0.49      1018.0     2.5       W   262   4.5     WNW   290   9.64    264      -74.6
   03/16/2019 01:20      52.4      50.5       30     21.5      0.00     18.60      58.1     0.49      1018.1     1.1     WSW   251   2.7     WSW   251   9.64    265      -72.6
   03/16/2019 01:10      51.3      49.7       35     23.2      0.00     18.60      58.1     0.49      1018.1     0.8     SSE   161   2.7     WNW   288   9.64    265      -71.6
   03/16/2019 01:00      51.3      49.9       34     22.9      0.00     18.60      58.1     0.49      1018.3     1.6       S   183   3.6     SSW   204   9.64    265      -71.5
   03/16/2019 00:50      51.0      49.8       34     23.2      0.00     18.60      58.1     0.49      1018.4     1.6       S   186   3.7      SW   220   9.64    265      -71.8
   03/16/2019 00:40      51.0      49.5       35     23.4      0.00     18.60      58.1     0.49      1018.4     1.1     SSE   168   2.8      SE   140   9.64    264      -72.9
   03/16/2019 00:30      51.2      48.7       35     23.2      0.00     18.60      58.1     0.49      1018.5     1.4       S   183   3.8      SW   229   9.64    265      -72.9
   03/16/2019 00:20      49.4      47.3       41     25.1      0.00     18.60      58.2     0.49      1018.5     1.1     SSE   161   2.0     SSE   154   9.65    265      -73.4
   03/16/2019 00:10      50.5      48.7       37     24.7      0.00     18.60      58.2     0.49      1018.7     1.3     SSE   161   2.7     SSE   166   9.65    264      -74.0
   03/16/2019 00:00      53.0      50.5       34     23.7      0.00     18.60      58.1     0.49      1018.6     1.4     SSE   156   2.6     SSE   154   9.65    264      -74.0
   03/15/2019 23:50      58.2      52.7       27     21.9      0.00     18.60      58.2     0.49      1018.7     1.0     SSE   156   2.2       S   182   9.65    264      -74.7
   03/15/2019 23:40      58.4      57.9       20     17.6      0.00     18.60      58.2     0.49      1018.6     0.8     WNW   304   2.8     WNW   295   9.65    264      -78.5
   03/15/2019 23:30      58.5      56.9       20     17.3      0.00     18.60      58.2     0.49      1018.6     1.3       W   272   3.0       W   277   9.65    264      -79.9
   03/15/2019 23:20      57.1      54.1       24     19.6      0.00     18.60      58.2     0.49      1018.6     2.6      SW   219   4.1      SW   233   9.65    264      -76.5
   03/15/2019 23:10      55.8      53.7       25     19.6      0.00     18.60      58.2     0.49      1018.6     1.6     SSW   211   3.0     WSW   252   9.65    264      -77.6
   03/15/2019 23:00      55.3      54.1       26     20.7      0.00     18.60      58.2     0.49      1018.5     1.3       S   171   3.6     SSE   157   9.65    264      -80.7
   03/15/2019 22:50      57.9      55.2       25     20.6      0.00     18.60      58.2     0.49      1018.5     1.4     SSW   195   3.0      SW   234   9.66    264      -82.9
   03/15/2019 22:40      60.8      57.7       21     19.1      0.00     18.60      58.2     0.49      1018.4     2.2       S   173   4.7       S   181   9.66    263      -87.1
   03/15/2019 22:30      61.8      60.8       17     15.6      0.00     18.60      58.2     0.49      1018.2     2.3     NNE    32   4.8       N     4   9.66    262      -90.9
   03/15/2019 22:20      62.0      61.3       17     15.8      0.00     18.60      58.2     0.49      1018.0     3.0       N   359   5.7      NW   314   9.66    263      -90.9
   03/15/2019 22:10      62.3      61.5       16     15.3      0.00     18.60      58.2     0.49      1018.0     3.1       N   352   6.7     NNW   347   9.66    263      -91.6
   03/15/2019 22:00      62.1      61.8       16     15.0      0.00     18.60      58.1     0.49      1018.0     3.5     NNW   341   6.7      NW   320   9.66    263      -91.1
   03/15/2019 21:50      62.0      61.4       16     15.1      0.00     18.60      58.2     0.49      1018.0     3.3     NNW   331   5.5       W   262   9.66    263      -88.4
   03/15/2019 21:40      61.8      61.4       16     15.5      0.00     18.60      58.1     0.49      1018.1     2.8     NNW   332   5.1       N     0   9.66    263      -86.5
   03/15/2019 21:30      61.6      60.5       17     15.6      0.00     18.60      58.1     0.49      1018.0     2.3     NNW   347   4.2     NNW   343   9.67    263      -85.8
   03/15/2019 21:20      61.5      60.1       18     16.9      0.00     18.60      58.1     0.49      1018.0     1.2     NNW   339   3.5     NNW   332   9.67    263      -84.9
   03/15/2019 21:10      61.9      61.4       17     16.2      0.00     18.60      58.1     0.49      1018.0     1.2     NNW   333   2.5      NW   311   9.67    263      -86.1
   03/15/2019 21:00      62.5      61.6       17     16.1      0.00     18.60      58.0     0.49      1017.9     1.4     NNW   337   4.3     ENE    71   9.67    263      -85.9
   03/15/2019 20:50      62.3      61.7       16     15.3      0.00     18.60      58.0     0.49      1017.9     1.2     NNW   345   3.1       E    90   9.67    263      -86.4
   03/15/2019 20:40      62.9      61.8       16     15.0      0.00     18.60      58.0     0.49      1017.8     0.6      NE    55   2.3       E    88   9.67    263      -88.8
   03/15/2019 20:30      64.5      62.8       15     15.3      0.00     18.60      58.0     0.49      1017.8     1.0      NE    45   3.8       N     8   9.68    263      -91.7
   03/15/2019 20:20      64.4      63.7       14     14.0      0.00     18.60      58.0     0.49      1017.7     2.3      NE    43   6.3      NE    44   9.68    262      -93.6
   03/15/2019 20:10      64.0      61.7       16     15.1      0.00     18.60      58.0     0.49      1017.6     2.0      NE    45   4.3     NNE    20   9.68    263      -92.1
   03/15/2019 20:00      63.3      62.4       16     16.4      0.00     18.60      57.9     0.49      1017.5     0.6      NE    55   2.5       N   354   9.68    263      -93.2
   03/15/2019 19:50      64.1      63.2       16     16.3      0.00     18.60      57.9     0.49      1017.4     1.1      NE    50   4.8      NE    46   9.68    262      -95.4
   03/15/2019 19:40      65.7      63.8       15     15.9      0.00     18.60      57.8     0.49      1017.4     0.9      NE    45   2.5     NNE    14   9.68    262      -97.0
   03/15/2019 19:30      66.0      65.3       14     14.7      0.00     18.60      57.8     0.49      1017.4     2.0     NNE    31   4.3       N     6   9.68    262     -100.3
   03/15/2019 19:20      66.7      65.8       13     14.4      0.00     18.60      57.8     0.49      1017.3     2.7     NNE    24   5.7     NNE    32   9.69    262     -102.7
   03/15/2019 19:10      67.1      66.3       13     13.8      0.00     18.60      57.7     0.49      1017.2     4.0     NNE    23  10.7     NNE    22   9.69    262     -102.5
   03/15/2019 19:00      67.7      66.9       13     13.8      0.00     18.60      57.7     0.49      1017.2     4.8     NNE    14   9.3     NNE    28   9.69    262     -100.8
   03/15/2019 18:50      68.0      67.3       12     13.8      0.00     18.60      57.7     0.49      1017.1     5.2     NNE    14  10.8      NW   321   9.70    262      -96.3
   03/15/2019 18:40      68.5      67.7       12     14.0      0.00     18.60      57.6     0.49      1017.1     5.3     NNE    30  11.9     NNE    16   9.70    262      -86.3
   03/15/2019 18:30      69.4      68.3       12     14.9      0.00     18.60      57.6     0.49      1017.0     5.3     NNE    27  10.1     NNE    33   9.70    262      -64.3
   03/15/2019 18:20      69.5      69.0       12     15.0      0.00     18.60      57.6     0.49      1016.9     4.8     NNE    12  13.3       N     2   9.71    262      -41.8
   03/15/2019 18:10      69.8      69.2       12     15.2      0.00     18.60      57.5     0.49      1016.8     6.0       N    11  12.7       N   353   9.71    262      -16.5
   03/15/2019 18:00      69.8      69.3       12     15.6      0.00     18.60      57.5     0.49      1016.8     5.2     NNE    22   9.7      NE    35   9.71    262       11.7
   03/15/2019 17:50      70.1      69.4       12     14.9      0.00     18.60      57.4     0.49      1016.8     7.5     NNE    13  14.8     NNW   330   9.72    261       41.2
   03/15/2019 17:40      70.2      69.6       12     14.4      0.00     18.60      57.4     0.49      1016.9     7.3       N    10  13.0       N     0   9.72    261       70.1
   03/15/2019 17:30      70.5      69.9       12     14.6      0.00     18.60      57.4     0.49      1016.8     6.4     NNE    26  10.9     NNW   342   9.72    261       99.2
   03/15/2019 17:20      70.4      69.9       12     14.7      0.00     18.60      57.3     0.49      1016.8     6.7     NNE    25  12.0      NE    41   9.72    261      128.7
   03/15/2019 17:10      70.9      70.0       12     15.1      0.00     18.60      57.3     0.49      1016.9     7.5     NNE    25  13.4       N     7   9.73    261      155.7
   03/15/2019 17:00      70.9      70.2       12     15.4      0.00     18.60      57.2     0.49      1016.9     6.3     NNE    17  11.4       N     1   9.73    262      182.6
   03/15/2019 16:50      70.7      70.2       12     15.2      0.00     18.60      57.1     0.49      1016.9     8.2     NNE    14  15.3       N   355   9.74    262      210.9
   03/15/2019 16:40      71.4      70.4       12     15.8      0.00     18.60      57.1     0.49      1017.0     7.7     NNE    18  14.0     NNE    22   9.74    261      232.0
   03/15/2019 16:30      71.8      70.8       12     16.9      0.00     18.60      57.1     0.49      1017.0     7.2     NNE    12  13.2       N     0   9.74    262      241.2
   03/15/2019 16:20      71.7      70.5       13     17.3      0.00     18.60      57.0     0.49      1017.1     7.1     NNE    22  16.5     NNW   344   9.75    262      265.5
   03/15/2019 16:10      72.0      71.0       13     17.9      0.00     18.60      57.0     0.49      1017.2     7.1       N     7  13.8     NNE    21   9.75    261      286.8
   03/15/2019 16:00      72.0      70.8       13     17.9      0.00     18.60      56.9     0.49      1017.2     6.1     NNE    17  11.0     NNE    21   9.75    262      310.8
   03/15/2019 15:50      71.6      71.0       13     18.2      0.00     18.60      56.9     0.49      1017.3     7.9       N    10  12.2      NE    38   9.76    262      334.8
   03/15/2019 15:40      72.0      71.3       13     18.9      0.00     18.60      56.8     0.49      1017.4     7.0     NNE    20  14.9     NNE    32   9.76    262      362.4
   03/15/2019 15:30      71.8      70.7       14     18.9      0.00     18.60      56.7     0.49      1017.5     6.9     NNE    14  11.4       N    11   9.76    262      389.2
   03/15/2019 15:20      71.3      70.7       14     18.6      0.00     18.60      56.7     0.49      1017.6     8.7     NNE    13  16.4     NNW   339   9.77    261      409.0
   03/15/2019 15:10      71.6      70.7       14     19.5      0.00     18.60      56.6     0.49      1017.7     7.7     NNE    19  12.1      NE    41   9.77    261      424.2
   03/15/2019 15:00      71.6      70.7       14     18.7      0.00     18.60      56.6     0.49      1017.9     7.0     NNE    22  16.2     NNE    13   9.77    261      439.8
   03/15/2019 14:50      71.3      70.5       14     18.8      0.00     18.60      56.5     0.49      1018.0     8.4     NNE    13  14.1     NNE    22   9.78    261      456.1
   03/15/2019 14:40      71.0      70.1       14     19.8      0.00     18.60      56.5     0.49      1018.1     7.6       N    10  14.2       N    11   9.78    261      469.4
   03/15/2019 14:30      70.7      69.6       15     19.6      0.00     18.60      56.4     0.49      1018.2     8.3     NNE    15  16.4     NNW   341   9.78    261      483.1
   03/15/2019 14:20      70.7      69.8       15     20.2      0.00     18.60      56.4     0.49      1018.4     7.6     NNE    12  15.1     NNE    22   9.79    261      494.4
   03/15/2019 14:10      70.5      69.4       15     20.0      0.00     18.60      56.4     0.49      1018.6     8.0     NNE    21  14.7     NNE    30   9.79    261      505.3
   03/15/2019 14:00      70.7      69.3       15     19.7      0.00     18.60      56.3     0.48      1018.7     9.5       N     7  17.9     NNE    21   9.79    261      515.5
   03/15/2019 13:50      70.5      69.3       15     19.6      0.00     18.60      56.3     0.48      1018.9     8.0     NNE    14  16.9     NNE    14   9.80    261      520.9
   03/15/2019 13:40      69.6      69.2       15     19.4      0.00     18.60      56.2     0.48      1019.0     8.7       N    10  16.2     NNW   347   9.80    261      528.7
   03/15/2019 13:30      70.1      69.0       15     19.7      0.00     18.60      56.2     0.48      1019.1     7.9       N     6  14.4     NNE    18   9.81    261      532.0
   03/15/2019 13:20      69.4      68.5       15     19.3      0.00     18.60      56.2     0.48      1019.2     8.9       N     9  18.2       N     8   9.81    261      537.7
   03/15/2019 13:10      69.4      68.6       15     19.6      0.00     18.60      56.2     0.48      1019.4     8.8     NNE    17  15.8     NNE    26   9.79    261      538.5
   03/15/2019 13:00      69.3      68.3       15     19.0      0.00     18.60      56.2     0.48      1019.6     8.9     NNE    12  13.8       N     2   9.79    261      540.9
   03/15/2019 12:50      69.4      68.2       15     19.8      0.00     18.60      56.2     0.48      1019.7     8.4     NNE    17  14.4     NNE    13   9.79    261      539.0
   03/15/2019 12:40      69.9      68.5       15     20.2      0.00     18.60      56.1     0.48      1019.8     6.7     NNE    12  14.9     NNE    20   9.79    261      535.0
   03/15/2019 12:30      68.8      67.4       15     18.9      0.00     18.60      56.1     0.48      1020.0     8.1       N    11  13.3       N     6   9.80    261      535.2
   03/15/2019 12:20      68.3      67.1       15     18.6      0.00     18.60      56.1     0.48      1020.1     8.3     NNE    14  14.2     NNE    21   9.80    261      531.6
   03/15/2019 12:10      67.5      67.1       15     17.7      0.00     18.60      56.1     0.48      1020.3     8.2     NNE    26  12.5     NNE    12   9.80    261      525.6
   03/15/2019 12:00      68.2      67.2       15     18.2      0.00     18.60      56.1     0.48      1020.4     9.1     NNE    23  17.5     NNE    16   9.81    261      517.6
   03/15/2019 11:50      67.7      67.0       15     18.6      0.00     18.60      56.1     0.48      1020.5     7.9       N     5  14.5       N     0   9.81    261      508.5
   03/15/2019 11:40      68.0      67.4       15     19.0      0.00     18.60      56.1     0.48      1020.6     6.9     NNE    19  14.6     ENE    60   9.81    261      497.2
   03/15/2019 11:30      68.0      66.9       15     18.6      0.00     18.60      56.2     0.48      1020.8     6.6     NNE    17  15.8       N     0   9.81    261      487.9
   03/15/2019 11:20      67.4      66.6       15     18.6      0.00     18.60      56.2     0.48      1020.9     7.0       N     4  13.8     NNE    16   9.82    261      474.4
   03/15/2019 11:10      67.2      66.3       16     19.3      0.00     18.60      56.2     0.48      1021.0     6.8     NNE    12  14.3     NNW   346   9.82    261      451.3
   03/15/2019 11:00      66.8      66.0       17     19.6      0.00     18.60      56.2     0.48      1021.1     6.2       N     9  13.4     NNW   346   9.82    261      441.9
   03/15/2019 10:50      66.4      65.3       16     18.7      0.00     18.60      56.2     0.49      1021.1     7.6     NNE    14  13.5     NNW   334   9.83    261      429.9
   03/15/2019 10:40      65.8      65.1       17     18.8      0.00     18.60      56.3     0.49      1021.1     7.6     NNE    12  16.3     NNE    21   9.83    261      411.9
   03/15/2019 10:30      65.7      64.9       17     18.9      0.00     18.60      56.3     0.49      1021.1     6.9     NNE    13  14.0     NNW   336   9.83    261      393.2
   03/15/2019 10:20      65.6      64.4       17     19.2      0.00     18.60      56.4     0.49      1021.1     5.7     NNE    19  12.6     NNE    27   9.84    261      373.6
   03/15/2019 10:10      64.6      63.8       18     19.1      0.00     18.60      56.3     0.49      1021.1     6.5       N     9  10.6       N     0   9.84    262      354.5
   03/15/2019 10:00      64.0      62.9       18     19.5      0.00     18.60      56.4     0.49      1021.1     6.3       N     0  11.6     NNW   342   9.84    262      310.1
   03/15/2019 09:50      63.1      62.4       18     19.3      0.00     18.60      56.4     0.49      1021.2     6.9       N     1  13.1     NNE    32   9.84    262      303.8
   03/15/2019 09:40      62.7      62.0       19     19.4      0.00     18.60      56.4     0.49      1021.3     6.6       N     0  14.0       N     0   9.85    262      289.1
   03/15/2019 09:30      62.1      61.3       19     19.3      0.00     18.60      56.5     0.49      1021.3     6.5       N     5  12.1      NW   320   9.85    263      269.6
   03/15/2019 09:20      61.5      60.6       20     20.0      0.00     18.60      56.5     0.49      1021.5     4.9       N   355   9.4     NNW   344   9.18    262      247.6
   03/15/2019 09:10      60.7      60.1       21     19.7      0.00     18.60      56.5     0.49      1021.5     4.6       N   358   8.5     NNE    15   9.18    263      226.4
   03/15/2019 09:00      60.1      59.4       21     19.5      0.00     18.60      56.5     0.49      1021.5     4.2       N   355   8.9       N     0   9.18    264      202.6
   03/15/2019 08:50      59.6      58.5       21     18.8      0.00     18.60      56.6     0.49      1021.5     4.5       N     4   9.6     NNE    26   9.18    264      177.9
   03/15/2019 08:40      58.6      57.9       21     18.3      0.00     18.60      56.6     0.49      1021.5     4.7       N     6  10.4     NNE    17   9.18    264      150.5
   03/15/2019 08:30      57.9      57.2       21     17.8      0.00     18.60      56.6     0.49      1021.5     5.3       N     3   9.8       N     0   9.18    264      120.8
   03/15/2019 08:20      57.5      56.7       21     17.7      0.00     18.60      56.6     0.49      1021.4     5.4     NNE    12  12.8     NNW   328   9.18    264       90.6
   03/15/2019 08:10      57.0      56.2       22     17.8      0.00     18.60      56.6     0.49      1021.4     4.1       N    10   9.8     NNE    16   9.18    264       21.6
   03/15/2019 08:00      56.4      54.5       23     17.8      0.00     18.60      56.7     0.49      1021.4     3.1     NNE    15   6.0     NNW   345   9.18    264      -43.8
   03/15/2019 07:50      54.6      53.5       25     18.6      0.00     18.60      56.8     0.49      1021.4     1.7      NE    36   6.3     NNW   345   9.18    264      -17.4
   03/15/2019 07:40      53.9      53.2       25     18.1      0.00     18.60      56.8     0.49      1021.4     1.9      NE    37   5.6     NNW   339   9.18    265      -55.6
   03/15/2019 07:30      53.7      52.4       25     17.7      0.00     18.60      56.8     0.49      1021.4     1.4      NE    37   5.1     NNE    27   9.18    265      -58.7
   03/15/2019 07:20      52.9      52.1       25     17.6      0.00     18.60      56.8     0.49      1021.4     0.8     WNW   302   2.7     WSW   246   9.18    265      -62.1
   03/15/2019 07:10      52.4      51.6       26     18.2      0.00     18.60      56.9     0.49      1021.3     0.8       W   272   2.5     WSW   249   9.18    265      -66.0
   03/15/2019 07:00      52.1      51.5       26     18.1      0.00     18.60      56.9     0.49      1021.3     1.2     SSW   193   2.9     SSW   209   9.18    266      -69.3
   03/15/2019 06:50      52.6      51.7       25     17.5      0.00     18.60      56.9     0.49      1021.2     1.2       E    84   4.5     NNW   345   9.18    265      -73.6
   03/15/2019 06:40      51.9      50.3       27     18.2      0.00     18.60      57.0     0.49      1021.2     1.2       E    83   2.8      SE   126   9.18    266      -71.7
   03/15/2019 06:30      51.0      48.3       28     18.5      0.00     18.60      57.0     0.49      1021.2     1.1     ESE   103   3.5      SE   140   9.18    266      -71.7
   03/15/2019 06:20      49.7      47.8       33     21.1      0.00     18.60      57.0     0.49      1021.2     1.8       S   184   4.1     SSW   210   9.18    266      -69.2
   03/15/2019 06:10      50.6      49.4       30     19.7      0.00     18.60      57.0     0.49      1021.1     1.3       S   175   3.3       S   182   9.18    266      -71.2
   03/15/2019 06:00      50.5      48.3       30     19.0      0.00     18.60      57.1     0.49      1021.1     1.1     ESE   112   2.7     SSE   157   9.18    266      -71.3
   03/15/2019 05:50      49.6      47.8       33     20.7      0.00     18.60      57.1     0.49      1021.0     1.4     SSE   169   3.8     SSE   151   9.18    266      -71.1
   03/15/2019 05:40      49.7      47.8       33     20.6      0.00     18.60      57.1     0.49      1020.9     1.9     SSE   164   4.1     SSE   148   9.18    266      -70.4
   03/15/2019 05:30      49.2      46.9       33     20.0      0.00     18.60      57.1     0.49      1020.9     1.4      SE   134   4.2      SE   141   9.18    266      -70.9
   03/15/2019 05:20      47.3      45.4       37     21.8      0.00     18.60      57.1     0.49      1020.9     1.1      SE   146   4.0       S   184   9.18    266      -69.8
   03/15/2019 05:10      47.6      46.5       36     21.4      0.00     18.60      57.2     0.49      1021.0     1.7     SSE   154   3.2      SE   138   9.19    266      -71.1
   03/15/2019 05:00      47.2      46.4       36     21.5      0.00     18.60      57.2     0.49      1020.9     1.6      SE   130   4.8     SSE   161   9.19    266      -71.6
   03/15/2019 04:50      48.4      47.0       36     21.9      0.00     18.60      57.2     0.49      1020.9     1.3     SSE   161   4.8     SSE   147   9.19    266      -71.9
   03/15/2019 04:40      49.8      48.0       32     20.6      0.00     18.60      57.3     0.49      1020.9     2.5       S   173   4.6     SSW   193   9.19    266      -71.3
   03/15/2019 04:30      50.3      46.6       33     20.6      0.00     18.60      57.3     0.49      1020.9     2.2       S   187   5.5     SSW   196   9.19    266      -69.8
   03/15/2019 04:20      47.0      44.5       38     21.4      0.00     18.60      57.3     0.49      1020.9     1.3       S   187   3.3     SSW   205   9.19    266      -70.1
   03/15/2019 04:10      47.4      44.6       40     22.9      0.00     18.60      57.3     0.49      1021.0     1.4     SSE   158   4.0     SSE   149   9.19    266      -70.2
   03/15/2019 04:00      47.1      46.0       37     21.6      0.00     18.60      57.4     0.49      1021.1     1.4     SSE   156   4.6       S   176   9.19    266      -70.7
   03/15/2019 03:50      47.4      45.9       39     22.7      0.00     18.60      57.4     0.49      1021.1     1.6     SSE   151   3.2     SSW   196   9.19    266      -70.0
   03/15/2019 03:40      48.7      46.8       33     20.3      0.00     18.60      57.4     0.49      1021.2     1.2     SSE   162   2.3      SW   234   9.19    266      -70.4
   03/15/2019 03:30      47.5      46.5       36     21.3      0.00     18.60      57.4     0.49      1021.3     1.6     SSE   157   5.7     SSW   203   9.19    266      -70.8
   03/15/2019 03:20      47.4      45.9       36     21.4      0.00     18.60      57.5     0.49      1021.4     1.8     SSE   167   3.4      SW   221   9.19    266      -70.1
   03/15/2019 03:10      46.5      45.6       39     22.3      0.00     18.60      57.5     0.49      1021.5     2.1     SSE   163   4.8       S   172   9.19    266      -71.4
   03/15/2019 03:00      47.8      46.1       38     22.3      0.00     18.60      57.5     0.49      1021.6     1.8     SSE   165   3.9       S   180   9.19    266      -70.7
   03/15/2019 02:50      47.6      45.9       37     21.3      0.00     18.60      57.5     0.49      1021.8     2.1       S   176   3.6       S   186   9.19    266      -69.5
   03/15/2019 02:40      46.2      45.0       40     22.6      0.00     18.60      57.5     0.49      1022.0     1.4     SSE   152   3.9       S   177   9.19    266      -71.5
   03/15/2019 02:30      47.0      44.8       39     22.2      0.00     18.60      57.5     0.49      1022.1     2.1       S   170   4.9       S   181   9.19    266      -71.2
   03/15/2019 02:20      45.9      44.4       40     22.2      0.00     18.60      57.6     0.49      1022.1     1.7       S   170   4.1      SE   145   9.19    266      -70.7
   03/15/2019 02:10      46.0      44.1       43     23.7      0.00     18.60      57.6     0.49      1022.2     1.8       S   175   3.6      SE   142   9.19    266      -71.5
   03/15/2019 02:00      46.7      45.9       37     21.6      0.00     18.60      57.6     0.49      1022.4     1.1     SSE   164   2.8     SSE   152   9.20    266      -71.5
   03/15/2019 01:50      46.9      45.0       40     23.0      0.00     18.60      57.6     0.49      1022.4     0.8     SSE   160   2.3     SSE   152   9.20    266      -71.8
   03/15/2019 01:40      47.9      46.6       35     21.2      0.00     18.60      57.6     0.49      1022.4     1.1     SSE   163   2.4     SSE   160   9.20    266      -70.6
   03/15/2019 01:30      47.8      45.8       37     21.3      0.00     18.60      57.6     0.49      1022.4     1.3     SSE   162   2.4       S   172   9.20    266      -71.7
   03/15/2019 01:20      46.4      45.0       41     23.1      0.00     18.60      57.6     0.49      1022.5     1.9     SSE   148   3.3      SE   142   9.20    266      -73.3
   03/15/2019 01:10      47.7      46.1       38     22.4      0.00     18.60      57.7     0.49      1022.4     1.5     SSE   161   3.0     SSE   150   9.20    266      -71.8
   03/15/2019 01:00      48.6      47.6       34     20.8      0.00     18.60      57.6     0.49      1022.5     1.2     SSE   162   1.9      SE   142   9.20    265      -72.4
   03/15/2019 00:50      48.7      47.8       32     20.1      0.00     18.60      57.7     0.49      1022.5     1.0     SSE   168   2.1       S   184   9.20    265      -73.6
   03/15/2019 00:40      49.5      48.3       31     19.9      0.00     18.60      57.7     0.49      1022.5     1.5     SSE   158   3.0     SSE   164   9.20    265      -75.3
   03/15/2019 00:30      50.5      48.4       31     20.1      0.00     18.60      57.7     0.49      1022.5     1.6     SSE   147   4.1      SE   140   9.20    264      -77.0
   03/15/2019 00:20      51.1      49.0       28     18.5      0.00     18.60      57.7     0.49      1022.5     1.5     SSE   164   3.6     SSW   197   9.20    264      -76.1
   03/15/2019 00:10      51.5      49.1       30     19.9      0.00     18.60      57.7     0.49      1022.5     1.3     SSE   148   4.1     SSE   167   9.20    264      -78.6
   03/15/2019 00:00      52.8      49.3       26     17.1      0.00     18.60      57.7     0.49      1022.5     3.2     SSE   161   6.3       S   188   9.20    264      -78.9
   03/14/2019 23:50      50.2      47.6       31     19.5      0.00     18.60      57.7     0.49      1022.5     2.9       S   173   5.4       S   181   9.20    265      -78.2
   03/14/2019 23:40      50.6      49.2       29     19.1      0.00     18.60      57.7     0.49      1022.5     1.7     SSE   160   3.8       S   183   9.21    264      -78.6
   03/14/2019 23:30      50.8      49.6       29     19.0      0.00     18.60      57.7     0.49      1022.6     1.4     SSE   168   2.6       S   188   9.21    264      -79.8
   03/14/2019 23:20      51.8      48.4       29     18.4      0.00     18.60      57.8     0.49      1022.7     2.1     SSE   167   4.3       S   183   9.21    264      -78.7
   03/14/2019 23:10      51.9      48.5       33     21.9      0.00     18.60      57.7     0.49      1022.7     0.9      SE   144   2.3       S   184   9.21    264      -81.0
   03/14/2019 23:00      52.1      50.8       27     18.2      0.00     18.60      57.7     0.49      1022.7     2.0     SSE   160   4.3       S   180   9.21    264      -82.0
   03/14/2019 22:50      52.6      51.3       27     19.1      0.00     18.60      57.7     0.49      1022.7     1.4       S   181   3.2      SW   221   9.21    264      -82.0
   03/14/2019 22:40      54.1      52.4       24     17.0      0.00     18.60      57.7     0.49      1022.6     1.2       S   185   2.4      SW   217   9.21    264      -83.9
   03/14/2019 22:30      57.6      53.6       22     17.2      0.00     18.60      57.7     0.49      1022.5     1.4       S   183   2.8       S   186   9.21    264      -90.1
   03/14/2019 22:20      58.4      57.4       16     12.5      0.00     18.60      57.7     0.49      1022.4     2.4     ENE    75   6.3     NNE    19   9.21    263      -96.3
   03/14/2019 22:10      58.5      58.0       16     12.4      0.00     18.60      57.7     0.49      1022.2     3.9       N   359   9.2     NNW   345   9.22    263      -96.6
   03/14/2019 22:00      58.7      58.2       16     12.2      0.00     18.60      57.7     0.49      1022.2     3.7       N   355   6.3       N     0   9.22    263      -96.6
   03/14/2019 21:50      59.0      58.5       16     12.0      0.00     18.60      57.7     0.49      1022.2     4.0       N   359   7.1     NNE    29   9.22    263      -97.4
   03/14/2019 21:40      59.3      58.7       15     11.8      0.00     18.60      57.7     0.49      1022.2     4.5       N   357   8.1      NW   326   9.22    263      -98.0
   03/14/2019 21:30      59.3      58.9       15     11.3      0.00     18.60      57.7     0.49      1022.1     4.9       N   356   8.7     NNW   344   9.22    263      -98.2
   03/14/2019 21:20      59.8      59.1       15     11.3      0.00     18.60      57.7     0.49      1022.1     4.2       N   357   9.4     NNE    15   9.22    263      -98.3
   03/14/2019 21:10      59.6      59.2       15     11.4      0.00     18.60      57.7     0.49      1022.0     4.5       N     2  10.2     NNE    23   9.22    263      -98.1
   03/14/2019 21:00      59.9      59.3       15     11.7      0.00     18.60      57.6     0.49      1022.0     4.0       N     7   8.0     NNW   345   9.23    263      -98.0
   03/14/2019 20:50      60.1      59.4       15     11.4      0.00     18.60      57.7     0.49      1022.0     4.3       N   353   7.0       N     0   9.23    263      -98.3
   03/14/2019 20:40      60.2      59.8       14     11.2      0.00     18.60      57.6     0.49      1021.8     4.0       N   356   7.1       N     0   9.23    263      -98.7
   03/14/2019 20:30      60.4      59.8       14     11.4      0.00     18.60      57.6     0.49      1021.8     3.4       N     0   6.2     NNW   336   9.23    263      -98.7
   03/14/2019 20:20      60.5      60.1       14     11.3      0.00     18.60      57.6     0.49      1021.8     3.8       N   356   7.9       N   350   9.24    262      -98.7
   03/14/2019 20:10      60.9      60.2       14     11.6      0.00     18.60      57.6     0.49      1021.8     2.9       N   359   7.1     NNW   336   9.24    263      -98.0
   03/14/2019 20:00      61.2      60.6       14     11.0      0.00     18.60      57.5     0.49      1021.8     3.8       N     3   7.2       N    10   9.24    262      -99.0
   03/14/2019 19:50      61.5      60.8       14     11.3      0.00     18.60      57.5     0.49      1021.7     3.0       N   355   8.7       N   354   9.24    263      -99.6
   03/14/2019 19:40      61.7      61.0       14     11.1      0.00     18.60      57.5     0.49      1021.6     3.6       N     2   9.9      NE    34   9.24    262     -100.6
   03/14/2019 19:30      62.2      61.5       13     10.8      0.00     18.60      57.5     0.49      1021.5     4.3       N     2   9.0     NNW   344   9.24    262     -101.3
   03/14/2019 19:20      62.5      61.9       13     10.5      0.00     18.60      57.5     0.49      1021.4     5.2       N     5   8.5       N   353   9.25    262     -101.3
   03/14/2019 19:10      62.7      62.2       13     10.9      0.00     18.60      57.4     0.49      1021.2     5.6     NNE    17  10.4       N   354   9.25    262      -99.6
   03/14/2019 19:00      63.2      62.4       13     11.6      0.00     18.60      57.4     0.49      1021.1     5.1       N     7  12.2       N     7   9.25    262      -95.5
   03/14/2019 18:50      63.6      62.9       13     11.7      0.00     18.60      57.4     0.49      1021.0     5.4       N     8   9.3       N   354   9.26    262      -92.5
   03/14/2019 18:40      64.1      63.2       13     11.9      0.00     18.60      57.3     0.49      1020.8     6.3       N     7  11.1     NNE    31   9.26    262      -86.0
   03/14/2019 18:30      64.4      63.7       13     11.6      0.00     18.60      57.3     0.49      1020.8     7.4       N    10  13.4     NNW   349   9.26    262      -57.7
   03/14/2019 18:20      64.6      64.1       13     11.7      0.00     18.60      57.3     0.49      1020.7     7.0       N     8  11.5     ENE    66   9.27    262      -28.4
   03/14/2019 18:10      64.6      64.2       13     11.8      0.00     18.60      57.3     0.49      1020.7     6.9       N     8  12.5       N     0   9.27    262      -16.9
   03/14/2019 18:00      65.5      64.3       13     12.3      0.00     18.60      57.2     0.49      1020.8     6.7       N     5  14.0     ENE    69   9.27    262      -44.2
   03/14/2019 17:50      65.5      65.0       13     13.2      0.00     18.60      57.2     0.49      1020.7     5.4       N   355  10.2      NE    42   9.28    262        2.2
   03/14/2019 17:40      65.6      65.2       13     12.5      0.00     18.60      57.1     0.49      1020.6     7.0       N     6  12.0     NNE    14   9.28    262       47.6
   03/14/2019 17:30      66.5      65.3       12     12.6      0.00     18.60      57.1     0.49      1020.7     8.1       N     3  14.9       N   355   9.28    262       96.9
   03/14/2019 17:20      66.2      65.7       13     13.0      0.00     18.60      57.0     0.49      1020.7     6.7       N     7  12.0     NNE    23   9.29    262      128.7
   03/14/2019 17:10      66.3      65.6       13     13.0      0.00     18.60      57.0     0.49      1020.7     8.0       N     7  18.8       N   352   9.29    262      156.7
   03/14/2019 17:00      66.6      65.9       12     12.3      0.00     18.60      57.0     0.49      1020.7     9.3     NNE    14  15.9     NNE    19   9.29    262      182.7
   03/14/2019 16:50      66.8      66.3       12     12.5      0.00     18.60      56.9     0.49      1020.8     7.9     NNE    13  15.7     WNW   283   9.30    262      208.2
   03/14/2019 16:40      66.8      66.1       12     12.9      0.00     18.60      56.9     0.49      1020.8     8.8       N    10  17.0       N   355   9.30    262      233.1
   03/14/2019 16:30      67.0      66.2       12     13.2      0.00     18.60      56.8     0.49      1020.9     8.0       N   358  14.8     NNE    23   9.30    262      244.6
   03/14/2019 16:20      67.2      66.1       12     12.7      0.00     18.60      56.8     0.49      1020.8     7.3     NNE    14  14.2     NNE    17   9.31    262      264.3
   03/14/2019 16:10      67.5      66.2       12     12.3      0.00     18.60      56.7     0.49      1020.9     9.2     NNE    11  18.3      NE    44   9.31    262      288.9
   03/14/2019 16:00      68.0      66.9       12     12.3      0.00     18.60      56.7     0.49      1020.8     8.2       N    10  16.0     NNE    22   9.31    262      310.1
   03/14/2019 15:50      68.3      67.3       12     12.6      0.00     18.60      56.7     0.49      1020.8     6.6     NNE    13  13.1       N     0   9.32    262      331.9
   03/14/2019 15:40      67.7      66.9       12     12.5      0.00     18.60      56.6     0.49      1020.9     7.6       N     8  15.5     NNW   344   9.32    262      362.6
   03/14/2019 15:30      67.7      66.4       12     12.6      0.00     18.60      56.5     0.49      1020.9     8.0       N     7  15.0       N     5   9.32    262      390.7
   03/14/2019 15:20      68.2      67.1       12     12.6      0.00     18.60      56.5     0.49      1020.9     7.1       N   356  14.4     NNW   341   9.33    261      406.9
   03/14/2019 15:10      67.6      66.7       12     12.3      0.00     18.60      56.5     0.49      1021.0     7.1     NNE    12  13.9     NNE    28   9.33    261      425.0
   03/14/2019 15:00      67.2      66.3       12     12.6      0.00     18.60      56.4     0.49      1021.1     7.8       N   355  14.3     NNW   341   9.33    261      442.0
   03/14/2019 14:50      66.6      65.9       12     12.1      0.00     18.60      56.4     0.49      1021.3     9.1       N   356  16.5     NNW   347   9.33    261      459.0
   03/14/2019 14:40      66.6      66.1       13     13.2      0.00     18.60      56.3     0.49      1021.4     8.5       N     8  16.4      NE    38   9.34    261      470.3
   03/14/2019 14:30      67.2      66.4       13     13.8      0.00     18.60      56.3     0.49      1021.5     6.8       N   354  12.3     NNW   342   9.34    261      482.3
   03/14/2019 14:20      66.9      65.8       13     13.6      0.00     18.60      56.3     0.49      1021.7     7.4       N     8  13.4       N   352   9.34    261      495.0
   03/14/2019 14:10      66.8      65.5       13     13.5      0.00     18.60      56.2     0.49      1021.8     6.0       N     5  10.3       N     3   9.34    261      503.4
   03/14/2019 14:00      66.4      65.4       13     13.3      0.00     18.60      56.2     0.49      1022.0     8.0     NNE    17  16.2     NNE    22   9.35    261      513.8
   03/14/2019 13:50      65.8      65.2       13     12.5      0.00     18.60      56.1     0.49      1022.1     9.2       N   355  15.8      NW   323   9.35    261      523.0
   03/14/2019 13:40      66.0      65.2       13     13.2      0.00     18.60      56.1     0.49      1022.4     7.6     NNE    18  15.2      NE    37   9.35    261      525.8
   03/14/2019 13:30      66.1      64.9       13     13.6      0.00     18.60      56.1     0.49      1022.5     7.8       N     8  16.9     NNE    29   9.35    261      531.0
   03/14/2019 13:20      66.3      65.0       13     13.6      0.00     18.60      56.1     0.49      1022.6     7.5       N   359  15.6       N     5   9.35    261      534.7
   03/14/2019 13:10      66.7      65.0       13     13.4      0.00     18.60      56.1     0.49      1022.7     8.3       N     7  13.5     NNW   340   9.35    261      538.3
   03/14/2019 13:00      66.6      64.9       14     14.4      0.00     18.60      56.1     0.49      1022.8     7.0     NNE    13  14.6       N     5   9.36    261      536.8
   03/14/2019 12:50      65.3      64.3       14     14.8      0.00     18.60      56.0     0.49      1023.0     6.8       N   357  13.9     NNW   343   9.36    261      536.9
   03/14/2019 12:40      65.4      64.1       14     14.2      0.00     18.60      56.1     0.49      1023.1     7.8       N   357  14.5     NNE    21   9.36    262      534.7
   03/14/2019 12:30      65.2      64.1       13     13.3      0.00     18.60      56.0     0.49      1023.2     6.6     NNE    13  13.6      NE    44   9.36    261      530.7
   03/14/2019 12:20      64.9      63.7       14     13.3      0.00     18.60      56.0     0.49      1023.2     7.3       N     6  15.6     NNW   341   9.36    261      527.4
   03/14/2019 12:10      64.3      63.5       13     12.6      0.00     18.60      56.1     0.49      1023.3     7.7       N     0  16.2     WNW   294   9.36    262      522.9
   03/14/2019 12:00      64.1      62.6       14     12.9      0.00     18.60      56.1     0.49      1023.3     6.7       N     3  13.1       N     3   9.37    261      515.4
   03/14/2019 11:50      63.0      62.2       13     11.5      0.00     18.60      56.1     0.49      1023.3     8.8       N     4  17.0     NNW   346   9.37    262      508.3
   03/14/2019 11:40      63.3      62.4       14     12.8      0.00     18.60      56.1     0.49      1023.3     7.7       N   359  14.4       N     5   9.37    262      495.3
   03/14/2019 11:30      63.1      61.9       14     12.7      0.00     18.60      56.1     0.49      1023.4     6.0     NNE    18  12.7       N     0   9.37    261      484.2
   03/14/2019 11:20      62.6      61.1       14     12.9      0.00     18.60      56.1     0.49      1023.4     6.2     NNE    13  12.6       N   351   9.37    262      472.3
   03/14/2019 11:10      61.6      60.9       14     12.1      0.00     18.60      56.1     0.49      1023.4     8.1       N     8  13.3     NNE    18   9.38    261      459.3
   03/14/2019 11:00      61.1      60.3       15     12.1      0.00     18.60      56.2     0.49      1023.4     8.1       N   354  17.3       N   352   9.38    262      444.3
   03/14/2019 10:50      61.4      60.4       15     12.9      0.00     18.60      56.2     0.49      1023.3     8.0       N     9  16.6       N     6   9.38    261      426.7
   03/14/2019 10:40      60.6      59.7       15     12.8      0.00     18.60      56.2     0.49      1023.3     7.4       N     6  15.7     NNE    16   9.38    262      409.6
   03/14/2019 10:30      60.3      59.6       15     12.7      0.00     18.60      56.2     0.49      1023.3     7.7       N     7  14.7     NNE    21   9.38    262      390.7
   03/14/2019 10:20      60.3      59.3       16     13.1      0.00     18.60      56.2     0.49      1023.2     6.8       N     9  12.5     NNE    13   9.38    261      371.0
   03/14/2019 10:10      59.6      59.0       16     12.9      0.00     18.60      56.3     0.49      1023.2     7.5       N     7  13.3     ESE   108   9.38    262      351.2
   03/14/2019 10:00      59.2      58.3       16     12.4      0.00     18.60      56.3     0.49      1023.2     8.1       N     8  14.1     NNE    29   9.39    262      330.9
   03/14/2019 09:50      58.6      57.9       16     12.3      0.00     18.60      56.3     0.49      1023.2     9.0       N     9  16.1     NNE    22   9.39    262      308.3
   03/14/2019 09:40      58.2      57.6       16     12.2      0.00     18.60      56.3     0.49      1023.1     8.9     NNE    11  15.4     NNE    26   9.39    262      285.3
   03/14/2019 09:30      58.0      57.4       17     12.5      0.00     18.60      56.3     0.49      1023.1     7.6     NNE    11  14.6      NW   322   9.39    262      262.1
   03/14/2019 09:20      57.6      56.8       17     12.8      0.00     18.60      56.4     0.49      1023.0     6.0     NNE    13  11.3     NNE    24   9.39    262      240.1
   03/14/2019 09:10      57.1      56.4       17     12.1      0.00     18.60      56.4     0.49      1022.9     7.3       N    10  15.2     ENE    64   9.39    263      217.0
   03/14/2019 09:00      56.8      56.0       17     12.3      0.00     18.60      56.4     0.49      1022.8     6.7     NNE    17  16.6     NNE    13   9.39    264      191.8
   03/14/2019 08:50      56.2      55.5       17     12.0      0.00     18.60      56.5     0.49      1022.7     7.5       N     7  15.3     NNE    31   9.39    264      165.3
   03/14/2019 08:40      55.7      55.2       18     12.3      0.00     18.60      56.5     0.49      1022.5     7.3       N    10  12.3       N     1   9.39    264      137.2
   03/14/2019 08:30      55.4      54.7       18     12.0      0.00     18.60      56.5     0.49      1022.3     7.3       N     9  13.8     NNE    27   9.40    264      105.6
   03/14/2019 08:20      54.9      54.4       18     12.2      0.00     18.60      56.5     0.49      1022.2     6.8       N    11  13.6       N     0   9.39    264       73.3
   03/14/2019 08:10      54.6      54.1       18     11.6      0.00     18.60      56.5     0.49      1022.1     7.6       N     8  13.8     NNE    31   9.40    264       -5.8
   03/14/2019 08:00      54.3      53.7       18     11.7      0.00     18.60      56.5     0.49      1022.0     6.0       N     6  13.6     NNE    15   9.40    264      -67.1
   03/14/2019 07:50      53.9      53.3       18     11.5      0.00     18.60      56.6     0.49      1021.9     7.2     NNE    15  13.2     NNE    18   9.40    264      -36.3
   03/14/2019 07:40      53.6      53.2       19     11.7      0.00     18.60      56.6     0.49      1021.8     5.1     NNE    18   9.4     WNW   299   9.40    264      -70.7
   03/14/2019 07:30      53.4      52.9       19     11.7      0.00     18.60      56.6     0.49      1021.7     5.3     NNE    19  13.6       S   177   9.40    264      -74.6
   03/14/2019 07:20      53.4      52.9       19     11.8      0.00     18.60      56.6     0.49      1021.6     5.1     NNE    11  10.7     NNE    13   9.40    264      -78.9
   03/14/2019 07:10      53.3      53.0       19     11.8      0.00     18.60      56.7     0.49      1021.6     5.8     NNE    23  12.4     NNE    21   9.40    264      -83.0
   03/14/2019 07:00      53.6      53.0       19     12.0      0.00     18.60      56.7     0.49      1021.5     4.5     NNE    15  10.6       N   354   9.40    264      -85.2
   03/14/2019 06:50      53.5      53.1       19     12.1      0.00     18.60      56.7     0.49      1021.4     6.1     NNE    16  11.9     NNE    17   9.40    264      -85.8
   03/14/2019 06:40      53.5      53.1       19     12.3      0.00     18.60      56.7     0.49      1021.3     5.1     NNE    19  10.6       N   352   9.40    264      -85.7
   03/14/2019 06:30      53.6      53.0       19     12.5      0.00     18.60      56.8     0.49      1021.2     5.0     NNE    15   9.5     NNE    17   9.40    264      -86.0
   03/14/2019 06:20      53.9      53.3       19     12.6      0.00     18.60      56.8     0.49      1021.1     5.5     NNE    12  11.1       N   351   9.41    264      -86.4
   03/14/2019 06:10      53.7      53.2       19     12.7      0.00     18.60      56.8     0.49      1020.9     6.9     NNE    17  12.3     NNE    27   9.41    264      -86.8
   03/14/2019 06:00      53.6      53.1       20     13.2      0.00     18.60      56.8     0.49      1020.7     6.8       N     9  13.2     NNE    20   9.41    264      -86.3
   03/14/2019 05:50      53.6      53.1       20     13.7      0.00     18.60      56.9     0.49      1020.6     6.1       N    10  12.0     NNE    27   9.41    264      -86.3
   03/14/2019 05:40      53.8      53.2       21     14.1      0.00     18.60      56.9     0.49      1020.5     6.4       N     4  11.2     WNW   292   9.41    264      -86.1
   03/14/2019 05:30      53.7      53.2       21     14.2      0.00     18.60      56.9     0.49      1020.5     6.8       N     3  13.2     NNE    25   9.41    264      -85.9
   03/14/2019 05:20      53.7      53.3       21     14.5      0.00     18.60      56.9     0.49      1020.5     5.7     NNE    18   9.9     NNE    16   9.41    264      -86.1
   03/14/2019 05:10      53.6      53.2       21     14.8      0.00     18.60      56.9     0.50      1020.3     6.3       N     9  13.5       N   350   9.41    264      -85.8
   03/14/2019 05:00      53.7      53.2       22     15.2      0.00     18.60      57.0     0.50      1020.3     5.7       N     5  11.3     NNE    18   9.41    264      -85.8
   03/14/2019 04:50      53.8      53.3       22     15.6      0.00     18.60      57.0     0.50      1020.2     6.3       N     6  10.5       N     3   9.41    264      -85.6
   03/14/2019 04:40      53.9      53.4       22     15.9      0.00     18.60      57.0     0.50      1020.2     6.6     NNE    12  12.0       N   353   9.41    264      -84.7
   03/14/2019 04:30      53.8      53.5       23     16.3      0.00     18.60      57.1     0.50      1020.1     7.5     NNE    12  15.7     NNW   349   9.42    264      -82.9
   03/14/2019 04:20      53.8      53.3       24     17.1      0.00     18.60      57.1     0.50      1020.0     6.5       N     8  10.9     NNW   347   9.42    265      -81.6
   03/14/2019 04:10      53.8      53.3       24     17.6      0.00     18.60      57.1     0.50      1020.0     6.8       N     3  13.5       N     2   9.42    265      -80.8
   03/14/2019 04:00      53.8      53.2       25     18.1      0.00     18.60      57.1     0.50      1020.0     5.1       N     5   9.9      NE    48   9.42    265      -79.3
   03/14/2019 03:50      53.8      53.2       25     18.6      0.00     18.60      57.1     0.50      1020.0     4.9     NNE    13  11.2     NNE    27   9.42    265      -78.7
   03/14/2019 03:40      53.8      53.4       25     18.6      0.00     18.60      57.1     0.50      1020.0     5.7       N     7  10.6      NE    45   9.42    265      -78.1
   03/14/2019 03:30      53.7      53.1       25     18.8      0.00     18.60      57.2     0.50      1020.1     4.5     NNE    19  12.3     NNE    31   9.42    266      -76.8
   03/14/2019 03:20      53.2      51.6       27     19.4      0.00     18.60      57.3     0.50      1020.2     3.0     NNE    13   7.1       N     9   9.42    266      -74.9
   03/14/2019 03:10      51.9      50.4       30     20.6      0.00     18.60      57.3     0.50      1020.3     1.8     ENE    68   5.5       E    93   9.42    266      -73.2
   03/14/2019 03:00      51.2      50.0       32     21.9      0.00     18.60      57.3     0.50      1020.4     1.5     SSE   164   3.5       S   176   9.42    266      -71.2
   03/14/2019 02:50      51.5      50.5       33     22.7      0.00     18.60      57.3     0.50      1020.5     1.8     SSE   164   2.9      SE   129   9.42    266      -71.0
   03/14/2019 02:40      52.3      51.1       31     22.4      0.00     18.60      57.3     0.50      1020.6     1.0     SSE   161   3.8     ENE    60   9.42    266      -73.0
   03/14/2019 02:30      51.0      48.9       37     24.1      0.00     18.60      57.3     0.50      1020.6     1.3      SE   138   3.7       S   180   9.42    266      -69.9
   03/14/2019 02:20      50.9      49.8       38     25.4      0.00     18.60      57.4     0.50      1020.6     2.3     SSE   157   4.7      SE   134   9.42    266      -70.2
   03/14/2019 02:10      51.8      50.7       37     25.5      0.00     18.60      57.4     0.50      1020.6     1.7     SSW   195   3.7       S   186   9.42    266      -70.2
   03/14/2019 02:00      51.6      50.4       37     25.8      0.00     18.60      57.4     0.50      1020.7     1.9     SSW   204   4.8      SW   225   9.43    266      -69.9
   03/14/2019 01:50      50.8      49.2       40     26.6      0.00     18.60      57.4     0.50      1020.6     2.9     SSW   210   4.8     WSW   244   9.43    266      -68.0
   03/14/2019 01:40      49.8      48.1       42     27.1      0.00     18.60      57.4     0.50      1020.6     2.0       S   182   4.6     SSW   194   9.43    266      -68.4
   03/14/2019 01:30      50.0      48.3       44     27.8      0.00     18.60      57.4     0.50      1020.6     1.5       S   186   4.1       S   183   9.43    266      -69.3
   03/14/2019 01:20      50.5      49.3       40     26.5      0.00     18.60      57.5     0.50      1020.6     1.6       S   171   3.4      SW   218   9.43    266      -69.0
   03/14/2019 01:10      51.3      49.7       38     25.7      0.00     18.60      57.5     0.50      1020.6     0.7      SE   136   3.1       S   178   9.43    266      -69.9
   03/14/2019 01:00      50.3      47.6       40     25.4      0.00     18.60      57.5     0.50      1020.6     0.7       S   177   4.5      SW   231   9.43    266      -68.2
   03/14/2019 00:50      47.6      46.5       45     26.8      0.00     18.60      57.5     0.50      1020.6     1.0     SSE   164   2.4      SE   144   9.43    266      -68.7
   03/14/2019 00:40      47.5      46.2       46     27.2      0.00     18.60      57.5     0.50      1020.6     1.7     SSE   147   3.2       S   176   9.43    266      -69.8
   03/14/2019 00:30      47.3      45.9       46     26.8      0.00     18.60      57.5     0.50      1020.5     1.4     SSE   164   2.7      SE   143   9.43    266      -69.1
   03/14/2019 00:20      49.5      47.0       42     26.3      0.00     18.60      57.5     0.50      1020.5     2.0     SSE   168   3.2      SW   232   9.43    266      -69.9
   03/14/2019 00:10      49.4      46.1       43     26.1      0.00     18.60      57.5     0.50      1020.4     2.3     SSW   195   3.7      SW   219   9.43    266      -70.3
   03/14/2019 00:00      51.4      48.4       38     25.1      0.00     18.60      57.5     0.50      1020.3     1.8       S   188   3.3       S   178   9.43    266      -73.1
   03/13/2019 23:50      51.1      49.8       34     23.3      0.00     18.60      57.6     0.50      1020.3     1.3      SW   219   3.3       N     3   9.43    266      -74.5
   03/13/2019 23:40      51.1      50.3       34     23.6      0.00     18.60      57.6     0.50      1020.3     0.6      NE    44   1.7       N     3   9.43    266      -75.0
   03/13/2019 23:30      51.8      50.6       34     23.6      0.00     18.60      57.6     0.50      1020.4     1.4       W   267   2.8     WNW   281   9.44    266      -75.5
   03/13/2019 23:20      51.5      50.3       35     24.0      0.00     18.60      57.6     0.50      1020.4     1.5     WSW   237   2.8     WSW   243   9.44    266      -76.6
   03/13/2019 23:10      52.5      51.2       33     23.5      0.00     18.60      57.6     0.50      1020.4     1.7     WSW   248   2.7      SW   217   9.44    265      -80.0
   03/13/2019 23:00      53.3      52.2       31     23.0      0.00     18.60      57.6     0.50      1020.3     2.1       W   275   3.8       W   277   9.44    265      -82.6
   03/13/2019 22:50      53.3      52.9       30     22.3      0.00     18.60      57.6     0.50      1020.3     1.9     WNW   297   3.9       W   277   9.44    264      -84.4
   03/13/2019 22:40      53.3      53.0       30     22.3      0.00     18.60      57.6     0.50      1020.3     2.0      NW   311   4.4     WNW   284   9.44    265      -83.9
   03/13/2019 22:30      53.7      53.2       29     22.2      0.00     18.60      57.6     0.50      1020.2     2.0     NNW   333   5.6      NW   308   9.44    264      -84.0
   03/13/2019 22:20      54.1      53.5       29     22.4      0.00     18.60      57.6     0.50      1020.1     1.5     NNW   333   5.2     NNW   327   9.44    264      -84.6
   03/13/2019 22:10      54.1      53.7       28     21.9      0.00     18.60      57.6     0.50      1020.0     2.2     NNE    20   5.3      NW   320   9.44    264      -85.8
   03/13/2019 22:00      54.1      53.8       28     21.9      0.00     18.60      57.6     0.50      1019.7     3.6     NNW   332   7.5      NW   326   9.45    264      -85.3
   03/13/2019 21:50      54.1      53.6       29     22.1      0.00     18.60      57.6     0.50      1019.8     3.4     NNW   343   6.4     NNW   335   9.45    264      -84.9
   03/13/2019 21:40      53.9      53.0       29     22.1      0.00     18.60      57.6     0.50      1019.7     2.3     NNE    12   4.7       N   354   9.45    264      -86.0
   03/13/2019 21:30      54.1      52.7       30     22.9      0.00     18.60      57.6     0.50      1019.6     1.8     WSW   253   5.3      NW   318   9.45    265      -85.3
   03/13/2019 21:20      54.1      53.5       29     22.0      0.00     18.60      57.6     0.50      1019.5     1.5      NE    43   5.1       N     6   9.45    264      -87.8
   03/13/2019 21:10      54.5      53.3       30     23.0      0.00     18.60      57.6     0.50      1019.4     0.9     NNW   333   3.6       N   349   9.45    264      -89.1
   03/13/2019 21:00      55.0      54.1       29     22.6      0.00     18.60      57.6     0.50      1019.2     1.5       N     9   3.6      NW   308   9.45    264      -91.7
   03/13/2019 20:50      55.3      54.7       28     22.5      0.00     18.60      57.6     0.50      1019.1     3.6       N     3   7.1       N   354   9.46    264      -93.1
   03/13/2019 20:40      55.7      55.0       27     22.2      0.00     18.60      57.5     0.50      1019.0     4.5       N   356   8.5     NNW   336   9.46    264      -94.0
   03/13/2019 20:30      55.9      55.3       26     21.4      0.00     18.60      57.5     0.50      1018.8     5.4       N   359  13.9      NE    44   9.46    264      -94.9
   03/13/2019 20:20      56.3      55.5       24     19.7      0.00     18.60      57.5     0.50      1018.6     4.1     NNW   346   8.5      NE    41   9.46    264      -95.3
   03/13/2019 20:10      56.6      56.0       23     18.7      0.00     18.60      57.5     0.50      1018.6     4.7     NNW   347   9.8     NNW   343   9.46    264      -95.5
   03/13/2019 20:00      56.9      56.3       22     18.1      0.00     18.60      57.5     0.50      1018.5     4.4     NNW   348  10.4       N   352   9.46    264      -95.8
   03/13/2019 19:50      57.2      56.6       22     18.1      0.00     18.60      57.5     0.50      1018.4     4.0     NNW   338   9.4      NE    39   9.47    264      -96.1
   03/13/2019 19:40      57.4      56.9       22     18.5      0.00     18.60      57.4     0.50      1018.3     4.2     NNW   330   9.8     ENE    60   9.47    264      -96.6
   03/13/2019 19:30      58.0      57.0       22     18.6      0.00     18.60      57.4     0.50      1018.2     3.1      NW   318   5.5       W   279   9.47    264      -97.5
   03/13/2019 19:20      58.6      57.8       21     17.8      0.00     18.60      57.4     0.50      1018.0     3.2     NNW   333   6.9       N     3   9.47    264      -98.8
   03/13/2019 19:10      59.0      58.2       20     17.8      0.00     18.60      57.4     0.50      1017.9     3.6     NNW   338   7.3      NW   314   9.48    264      -98.5
   03/13/2019 19:00      59.5      58.7       20     17.8      0.00     18.60      57.3     0.50      1017.8     3.4     NNW   339   7.1      NE    35   9.48    264      -95.6
   03/13/2019 18:50      60.1      59.2       19     17.6      0.00     18.60      57.3     0.50      1017.6     3.6     NNW   342   8.3      NW   311   9.48    264      -92.7
   03/13/2019 18:40      60.8      59.7       19     18.0      0.00     18.60      57.3     0.50      1017.5     4.6     NNW   334   9.4       N     0   9.48    263      -89.9
   03/13/2019 18:30      61.4      60.5       19     17.9      0.00     18.60      57.3     0.50      1017.4     4.1     NNW   334   7.8     NNW   327   9.49    263      -63.1
   03/13/2019 18:20      62.0      61.0       19     18.4      0.00     18.60      57.2     0.50      1017.3     3.7     NNW   343   7.6       N     3   9.49    263      -41.9
   03/13/2019 18:10      62.3      61.7       18     17.7      0.00     18.60      57.2     0.50      1017.2     3.9     NNW   328  10.4     WNW   292   9.49    263      -17.0
   03/13/2019 18:00      62.7      61.9       17     16.4      0.00     18.60      57.2     0.50      1017.1     5.4     NNW   341   9.3     WNW   299   9.49    263       10.1
   03/13/2019 17:50      62.8      62.2       17     16.5      0.00     18.60      57.1     0.50      1017.1     5.4       N   351  11.1      NW   325   9.50    263       39.0
   03/13/2019 17:40      63.4      62.4       17     17.4      0.00     18.60      57.1     0.50      1017.0     5.5     NNW   327   9.4      NW   324   9.50    263       69.3
   03/13/2019 17:30      63.8      63.2       16     15.8      0.00     18.60      57.0     0.50      1017.0     4.8     NNW   333  10.2      NW   304   9.51    263       97.6
   03/13/2019 17:20      64.7      63.3       15     15.9      0.00     18.60      57.0     0.50      1017.0     6.3     NNW   340  11.4       N     1   9.51    263      125.7
   03/13/2019 17:10      64.9      64.3       16     17.6      0.00     18.60      57.0     0.50      1016.8     5.0     NNW   336  10.9      NW   311   9.51    263      153.2
   03/13/2019 17:00      64.6      63.7       16     16.5      0.00     18.60      56.9     0.50      1016.7     5.6       N   350  10.9      NW   309   9.51    263      181.9
   03/13/2019 16:50      65.2      64.3       16     17.7      0.00     18.60      56.9     0.50      1016.7     4.9     NNW   343  12.2       N   354   9.52    263      207.0
   03/13/2019 16:40      65.0      64.3       16     18.2      0.00     18.60      56.8     0.50      1016.7     4.4     NNW   332   8.2     NNW   334   9.52    263      231.4
   03/13/2019 16:30      64.9      64.3       16     17.3      0.00     18.60      56.8     0.50      1016.6     5.1       N   353   9.5       N     8   9.52    263      238.8
   03/13/2019 16:20      65.3      64.4       16     17.4      0.00     18.60      56.7     0.50      1016.6     6.0       N     4  12.9     NNE    19   9.53    263      264.0
   03/13/2019 16:10      65.5      64.9       16     18.5      0.00     18.60      56.7     0.50      1016.5     5.4       N   350  11.6      NE    35   9.53    263      286.0
   03/13/2019 16:00      65.5      64.9       17     19.1      0.00     18.60      56.6     0.50      1016.5     5.0     NNW   338  12.2     NNW   332   9.53    263      308.0
   03/13/2019 15:50      66.0      65.0       17     19.3      0.00     18.60      56.6     0.50      1016.5     5.8       N   351  12.0     NNE    29   9.53    263      330.3
   03/13/2019 15:40      65.9      64.4       18     19.6      0.00     18.60      56.5     0.50      1016.4     4.3     NNE    11  12.2     WNW   301   9.54    263      357.4
   03/13/2019 15:30      65.0      64.4       18     19.8      0.00     18.60      56.5     0.50      1016.4     6.0     NNW   344  10.6       N     0   9.54    263      388.0
   03/13/2019 15:20      65.6      64.4       18     20.5      0.00     18.60      56.5     0.50      1016.4     5.1      NW   320  10.8      NW   312   9.54    263      405.9
   03/13/2019 15:10      65.4      64.5       19     21.1      0.00     18.60      56.4     0.50      1016.4     4.0     NNW   335   8.1     NNW   346   9.54    262      421.1
   03/13/2019 15:00      66.0      64.8       19     21.9      0.00     18.60      56.3     0.50      1016.5     5.1     NNW   342  10.0       N     2   9.55    263      436.2
   03/13/2019 14:50      65.5      64.3       19     21.3      0.00     18.60      56.3     0.50      1016.6     4.3       N     4   9.4       N     8   9.55    263      449.7
   03/13/2019 14:40      65.1      64.3       19     21.4      0.00     18.60      56.3     0.50      1016.7     4.1       N   351   8.7       N     8   9.55    262      464.8
   03/13/2019 14:30      65.5      64.3       19     21.5      0.00     18.60      56.2     0.50      1016.7     3.9     NNW   339   8.1     NNE    27   9.55    263      478.5
   03/13/2019 14:20      65.4      64.1       19     21.8      0.00     18.60      56.2     0.50      1016.8     4.8     NNW   347   9.7       W   269   9.55    263      489.8
   03/13/2019 14:10      64.5      63.5       19     20.8      0.00     18.60      56.1     0.50      1016.9     4.6       N   349   9.3     NNW   343   9.55    263      501.1
   03/13/2019 14:00      64.6      63.3       19     21.3      0.00     18.60      56.1     0.50      1017.0     5.9       N   353  10.0     NNW   340   9.56    263      511.2
   03/13/2019 13:50      64.5      63.6       19     21.3      0.00     18.60      56.1     0.50      1017.2     4.6     NNW   334   8.7     NNW   337   9.56    263      518.3
   03/13/2019 13:40      65.0      63.9       19     21.3      0.00     18.60      56.1     0.50      1017.3     4.4     NNW   347  11.4       N    10   9.56    263      522.0
   03/13/2019 13:30      64.7      63.4       20     21.5      0.00     18.60      56.1     0.50      1017.4     3.7       N   356   8.5     WNW   303   9.56    263      527.7
   03/13/2019 13:20      63.8      62.9       20     21.3      0.00     18.60      56.1     0.50      1017.4     4.8     NNW   328   8.9      NW   315   9.56    263      532.8
   03/13/2019 13:10      63.6      62.6       20     20.8      0.00     18.60      56.0     0.50      1017.5     4.5       N   350   7.7     NNW   330   9.57    263      534.6
   03/13/2019 13:00      63.9      63.0       19     20.8      0.00     18.60      56.0     0.50      1017.5     4.6     NNW   345  10.1       N    10   9.57    263      536.3
   03/13/2019 12:50      63.6      62.5       19     20.6      0.00     18.60      56.0     0.50      1017.6     4.3       N   356   9.2       N     5   9.57    263      535.6
   03/13/2019 12:40      63.6      62.5       19     20.6      0.00     18.60      56.1     0.50      1017.7     4.4       N   353  11.1     NNW   330   9.57    263      532.9
   03/13/2019 12:30      63.1      61.4       20     20.6      0.00     18.60      56.0     0.50      1017.7     4.3       N   352   8.0     NNE    16   9.57    263      531.1
   03/13/2019 12:20      61.9      61.3       20     19.8      0.00     18.60      56.0     0.50      1017.7     5.9     NNW   347   8.8       N     4   9.57    263      529.3
   03/13/2019 12:10      61.7      60.8       20     19.4      0.00     18.60      56.1     0.50      1017.7     5.7     NNW   342  11.1     WNW   301   9.57    263      525.2
   03/13/2019 12:00      61.3      60.6       19     18.9      0.00     18.60      56.1     0.50      1017.8     5.4     NNW   341  11.2      NW   308   9.58    263      516.2
   03/13/2019 11:50      61.1      60.4       19     18.7      0.00     18.60      56.1     0.50      1017.7     5.5       N   350  13.1     NNW   342   9.58    263      508.1
   03/13/2019 11:40      61.0      59.5       20     19.2      0.00     18.60      56.1     0.50      1017.7     4.9     NNW   339   9.8     WNW   298   9.58    263      498.1
   03/13/2019 11:30      60.5      59.0       19     17.9      0.00     18.60      56.1     0.50      1017.7     7.4     NNE    12  14.1     NNW   340   9.58    263      489.8
   03/13/2019 11:20      60.1      59.4       19     18.0      0.00     18.60      56.2     0.50      1017.7     6.7       N   354  17.7     NNE    28   9.58    263      473.8
   03/13/2019 11:10      59.8      59.0       21     19.6      0.00     18.60      56.2     0.50      1017.7     5.8       N   358  10.1      SW   222   9.58    263      459.3
   03/13/2019 11:00      59.2      58.3       21     19.3      0.00     18.60      56.2     0.50      1017.7     6.9       N   360  15.6       N     2   9.58    264      444.8
   03/13/2019 10:50      58.7      58.1       22     19.9      0.00     18.60      56.3     0.50      1017.7     7.5       N     9  15.4      NE    35   9.58    264      427.6
   03/13/2019 10:40      58.8      57.9       23     20.5      0.00     18.60      56.3     0.50      1017.6     7.1       N     8  14.3       N     0   9.59    264      412.2
   03/13/2019 10:30      58.2      57.4       23     20.4      0.00     18.60      56.3     0.50      1017.5     6.8     NNE    13  10.9     NNE    29   9.59    264      393.8
   03/13/2019 10:20      57.5      57.0       25     21.8      0.00     18.60      56.3     0.50      1017.5     7.0     NNE    13  12.5     NNE    16   9.59    264      374.0
   03/13/2019 10:10      58.0      57.0       25     22.2      0.00     18.60      56.4     0.50      1017.5     6.3     NNE    13  11.8       N     8   9.59    264      351.3
   03/13/2019 10:00      57.9      57.0       24     20.7      0.00     18.60      56.4     0.50      1017.4     5.3       N   358  12.7     NNW   343   9.59    264      330.0
   03/13/2019 09:50      57.2      56.3       24     20.2      0.00     18.60      56.4     0.50      1017.3     6.8       N   357  13.8     NNE    14   9.59    264      309.7
   03/13/2019 09:40      56.6      55.8       26     21.3      0.00     18.60      56.5     0.50      1017.2     7.5       N     6  17.8     NNE    17   9.60    264      288.0
   03/13/2019 09:30      56.0      55.3       27     21.9      0.00     18.60      56.5     0.50      1017.2     7.1       N   353  15.4     NNE    32   9.59    264      266.1
   03/13/2019 09:20      55.8      55.1       27     21.9      0.00     18.60      56.5     0.50      1017.2     7.1       N     4  16.5     NNW   337   9.60    266      244.5
   03/13/2019 09:10      55.2      54.7       28     22.1      0.00     18.60      56.5     0.50      1017.1     8.1       N     1  18.4     NNE    28   9.60    266      221.2
   03/13/2019 09:00      54.8      53.6       30     23.4      0.00     18.60      56.6     0.50      1017.0     5.9     NNW   348  11.6     NNW   334   9.60    266      195.6
   03/13/2019 08:50      53.8      53.2       31     23.9      0.00     18.60      56.6     0.50      1016.7     7.2       N   353  15.7     NNW   348   9.60    266      168.7
   03/13/2019 08:40      53.5      52.7       33     24.8      0.00     18.60      56.6     0.50      1016.6     7.1     NNW   345  15.4      NW   307   9.60    267      141.0
   03/13/2019 08:30      52.8      52.1       35     25.3      0.00     18.60      56.7     0.50      1016.5     6.3       N     4  14.8       N     9   9.60    267      110.5
   03/13/2019 08:20      52.4      51.6       36     25.9      0.00     18.60      56.7     0.50      1016.4     6.5       N   357  13.1     NNW   346   9.60    267       78.4
   03/13/2019 08:10      52.0      51.4       37     26.3      0.00     18.60      56.7     0.50      1016.2     6.1       N     5  12.7       N     6   9.60    267       -3.7
   03/13/2019 08:00      51.6      51.1       38     26.3      0.00     18.60      56.7     0.50      1016.0     6.2       N     0  12.2     NNW   330   9.60    267      -61.1
   03/13/2019 07:50      51.2      50.6       38     26.1      0.00     18.60      56.8     0.50      1015.7     6.8       N    10  13.5       N   355   9.60    267      -47.8
   03/13/2019 07:40      51.0      50.5       38     26.3      0.00     18.60      56.8     0.50      1015.4     5.6     NNE    16  10.8     NNE    26   9.60    268      -64.6
   03/13/2019 07:30      50.9      50.3       39     26.3      0.00     18.60      56.8     0.50      1015.4     7.0       N    11  14.0     NNW   338   9.60    268      -67.9
   03/13/2019 07:20      50.7      50.2       39     26.5      0.00     18.60      56.9     0.50      1015.3     5.3       N     9  10.2     NNE    19   9.60    268      -71.8
   03/13/2019 07:10      50.4      49.9       40     26.7      0.00     18.60      56.9     0.50      1015.2     4.9       N    10  10.8     NNW   337   9.60    268      -75.0
   03/13/2019 07:00      50.0      49.5       41     27.0      0.00     18.60      56.9     0.50      1015.1     4.0       N     9   9.9      NE    38   9.60    269      -76.2
   03/13/2019 06:50      49.6      48.5       43     27.4      0.00     18.60      57.0     0.50      1014.9     1.7       N    10   6.6       N   350   9.60    269      -75.8
   03/13/2019 06:40      50.3      48.7       43     27.8      0.00     18.60      57.0     0.50      1014.7     0.8       E    98   3.0      NE    39   9.60    269      -76.7
   03/13/2019 06:30      50.2      49.3       42     27.5      0.00     18.60      57.0     0.50      1014.4     2.6       N     9   6.2     WNW   290   9.61    269      -76.8
   03/13/2019 06:20      50.0      49.4       43     28.1      0.00     18.60      57.1     0.50      1014.2     1.6     NNE    24   4.8      NW   323   9.61    269      -76.2
   03/13/2019 06:10      50.2      49.7       43     28.1      0.00     18.60      57.1     0.50      1014.0     2.4     NNE    12   6.2     NNW   340   9.61    269      -76.5
   03/13/2019 06:00      50.3      49.7       43     28.3      0.00     18.60      57.1     0.50      1013.8     2.3       N   357   5.6       N     4   9.61    269      -76.5
   03/13/2019 05:50      50.3      49.9       43     28.6      0.00     18.60      57.1     0.50      1013.5     3.0       N   359   7.8      NW   323   9.60    269      -76.5
   03/13/2019 05:40      50.2      49.2       45     29.2      0.00     18.60      57.1     0.50      1013.3     3.1       N   352   5.6       N     2   9.61    269      -77.7
   03/13/2019 05:30      49.2      46.3       52     31.0      0.00     18.60      57.1     0.50      1013.2     2.6       N     2   5.1      NE    44   9.61    272      -77.6
   03/13/2019 05:20      46.5      45.4       64     34.1      0.00     18.60      57.2     0.50      1013.1     0.5     NNE    21   3.3     NNW   344   9.61    297      -56.5
   03/13/2019 05:10      45.7      45.1       67     35.2      0.00     18.60      57.2     0.50      1012.9     0.9       S   174   2.5      SE   140   9.61    311      -44.9
   03/13/2019 05:00      45.5      44.8       70     36.0      0.00     18.60      57.3     0.50      1012.7     0.4     SSW   198   1.5       S   187   9.61    319      -39.5
   03/13/2019 04:50      45.2      44.6       72     36.6      0.00     18.60      57.3     0.50      1012.4     0.9      SE   135   1.8      SE   142   9.61    325      -36.6
   03/13/2019 04:40      45.1      43.9       76     37.4      0.00     18.60      57.3     0.50      1012.3     0.7       E    96   3.6     ESE   121   9.61    328      -35.4
   03/13/2019 04:30      44.8      44.0       78     37.9      0.00     18.60      57.3     0.50      1012.3     0.5      SE   138   1.9     ESE   106   9.61    333      -34.0
   03/13/2019 04:20      44.6      43.4       79     38.0      0.00     18.60      57.3     0.50      1012.2     1.2       S   188   3.5      SW   223   9.61    333      -32.9
   03/13/2019 04:10      45.0      44.0       79     38.5      0.00     18.60      57.4     0.50      1012.1     1.0     SSE   166   2.6      SE   134   9.61    337      -31.5
   03/13/2019 04:00      45.0      44.1       81     39.1      0.00     18.60      57.4     0.50      1012.0     0.7       S   184   1.8      SW   221   9.61    338      -31.1
   03/13/2019 03:50      44.8      44.0       84     39.6      0.00     18.60      57.4     0.50      1011.9     1.5       S   170   3.3      SE   143   9.61    340      -29.6
   03/13/2019 03:40      44.8      44.3       84     40.0      0.00     18.60      57.4     0.50      1011.9     1.0     SSE   158   3.1      SE   145   9.61    339      -29.9
   03/13/2019 03:30      45.3      44.4       83     40.1      0.00     18.60      57.5     0.50      1011.8     1.0     SSE   158   2.4      SE   139   9.61    337      -29.9
   03/13/2019 03:20      46.2      45.0       83     40.8      0.00     18.60      57.5     0.50      1011.7     0.7     SSE   164   1.8     SSE   164   9.61    334      -30.1
   03/13/2019 03:10      46.3      45.1       87     41.9      0.00     18.60      57.5     0.50      1011.6     1.1     SSE   148   3.6     ESE   119   9.61    333      -29.3
   03/13/2019 03:00      46.1      45.5       89     42.6      0.00     18.60      57.5     0.50      1011.5     1.2     SSE   163   2.1      SE   143   9.62    331      -28.6
   03/13/2019 02:50      46.4      45.7       90     43.3      0.00     18.60      57.5     0.50      1011.4     1.5     SSE   167   3.5      SE   137   9.61    326      -29.5
   03/13/2019 02:40      46.5      45.9       91     43.6      0.00     18.60      57.5     0.50      1011.4     1.2     SSE   161   3.7     SSE   167   9.61    321      -31.0
   03/13/2019 02:30      46.5      45.7       91     43.5      0.00     18.60      57.5     0.50      1011.3     1.0     SSE   157   2.7       S   175   9.61    315      -35.0
   03/13/2019 02:20      46.2      45.4       90     43.0      0.00     18.60      57.5     0.50      1011.2     1.9     SSE   152   3.1     SSE   149   9.61    309      -37.6
   03/13/2019 02:10      46.3      45.6       89     42.9      0.00     18.60      57.5     0.50      1011.2     1.1       S   174   3.4       S   189   9.62    303      -42.6
   03/13/2019 02:00      46.5      45.5       88     42.7      0.00     18.60      57.6     0.50      1011.1     0.6       S   185   1.8       S   179   9.62    298      -48.4
   03/13/2019 01:50      48.2      46.0       86     43.0      0.00     18.60      57.6     0.50      1011.0     0.5     SSE   164   1.1       S   172   9.62    293      -51.3
   03/13/2019 01:40      48.9      47.8       85     44.2      0.00     18.60      57.6     0.50      1011.0     0.6       S   176   1.9       S   187   9.62    289      -51.8
   03/13/2019 01:30      49.7      48.7       84     44.5      0.00     18.60      57.6     0.50      1010.8     0.8       S   184   1.6       S   173   9.62    285      -55.0
   03/13/2019 01:20      49.5      49.1       85     45.0      0.00     18.60      57.6     0.50      1010.7     2.5     WSW   253   5.3       W   280   9.62    283      -54.4
   03/13/2019 01:10      49.3      48.4       87     45.2      0.00     18.60      57.6     0.51      1010.5     2.4     WSW   254   4.4     WNW   286   9.62    286      -51.9
   03/13/2019 01:00      48.8      48.3       88     45.0      0.00     18.60      57.7     0.51      1010.4     2.1      SW   214   3.5     SSW   201   9.62    285      -53.5
   03/13/2019 00:50      48.6      47.8       87     44.5      0.00     18.60      57.7     0.50      1010.4     1.4     SSW   195   2.8     SSW   200   9.62    283      -62.3
   03/13/2019 00:40      49.7      48.3       85     44.8      0.00     18.60      57.7     0.51      1010.4     0.9       S   169   1.9       S   181   9.62    278      -66.7
   03/13/2019 00:30      50.1      49.4       84     45.1      0.00     18.60      57.7     0.51      1010.4     0.8     SSW   191   2.8     SSW   214   9.62    273      -69.4
   03/13/2019 00:20      50.1      49.6       85     45.5      0.00     18.60      57.7     0.51      1010.4     1.6       S   189   3.6     SSE   156   9.62    270      -62.0
   03/13/2019 00:10      49.9      49.2       85     45.2      0.00     18.60      57.7     0.51      1010.4     0.3       S   178   1.3       S   182   9.62    271      -13.4
   03/13/2019 00:00      49.9      49.3       85     45.3      0.00     18.60      57.7     0.51      1010.3     0.0     NNE    16   0.9     NNE    12   9.62    271      -33.8
   03/12/2019 23:50      49.9      49.5       85     45.5      0.00     18.60      57.7     0.51      1010.1     0.7     SSW   201   1.1       S   185   9.62    271      -36.6
   03/12/2019 23:40      50.3      49.5       85     45.4      0.00     18.60      57.7     0.51      1010.0     1.0       S   169   1.7      SE   135   9.62    272      -58.6
   03/12/2019 23:30      50.2      49.7       85     45.6      0.00     18.60      57.7     0.51      1010.0     1.8       S   178   3.6       S   181   9.62    270      -64.3
   03/12/2019 23:20      50.0      49.7       85     45.6      0.00     18.60      57.7     0.51      1009.9     1.5     SSE   165   2.9     SSW   199   9.62    270      -62.8
   03/12/2019 23:10      50.0      49.2       85     45.3      0.00     18.60      57.7     0.51      1010.1     2.1     SSW   201   4.1     SSW   213   9.62    271      -30.0
   03/12/2019 23:00      50.3      49.7       84     45.2      0.00     18.60      57.7     0.51      1010.0     0.3      SE   142   2.0      SE   140   9.63    275      -42.1
   03/12/2019 22:50      50.3      49.3       84     45.3      0.00     18.60      57.7     0.51      1009.9     1.0       S   178   2.5       S   179   9.63    275      -63.4
   03/12/2019 22:40      51.0      49.9       82     45.2      0.00     18.60      57.7     0.51      1009.7     1.4     SSW   204   2.2      SW   217   9.63    273      -65.7
   03/12/2019 22:30      51.6      50.8       81     45.5      0.00     18.60      57.7     0.51      1009.6     1.1     SSW   201   2.5     SSW   208   9.63    270      -66.0
   03/12/2019 22:20      51.9      51.3       81     45.7      0.00     18.60      57.7     0.51      1009.6     1.2     SSW   199   2.3       S   183   9.63    269      -66.2
   03/12/2019 22:10      52.1      51.4       79     45.5      0.00     18.60      57.7     0.51      1009.4     0.2       S   172   1.5       S   171   9.63    268      -68.1
   03/12/2019 22:00      52.9      51.9       78     45.6      0.00     18.60      57.7     0.51      1009.3     0.5     ESE   104   1.6       E    86   9.63    270      -69.8
   03/12/2019 21:50      53.0      52.5       77     45.7      0.00     18.60      57.7     0.51      1009.3     0.9     SSE   154   2.2      SE   137   9.63    270      -69.4
   03/12/2019 21:40      53.3      52.6       76     45.5      0.00     18.60      57.7     0.51      1009.2     1.5       S   177   3.7     SSW   199   9.63    270      -69.0
   03/12/2019 21:30      54.0      53.0       75     45.5      0.00     18.60      57.6     0.51      1009.0     1.0     SSE   150   2.5     SSW   198   9.63    269      -71.5
   03/12/2019 21:20      54.3      53.6       73     45.6      0.00     18.60      57.7     0.51      1008.8     1.7       S   183   4.2     SSW   207   9.63    269      -73.1
   03/12/2019 21:10      54.3      53.8       73     45.6      0.00     18.60      57.6     0.51      1008.4     1.2       S   181   3.3      SW   222   9.64    269      -76.3
   03/12/2019 21:00      54.9      54.2       72     45.6      0.00     18.60      57.6     0.51      1008.2     3.5      SW   228   8.8     WSW   240   9.64    268      -77.3
   03/12/2019 20:50      54.9      54.6       71     45.5      0.00     18.60      57.6     0.51      1008.2     5.9     WSW   242  10.8     WSW   249   9.64    268      -76.9
   03/12/2019 20:40      55.3      54.6       70     45.2      0.00     18.60      57.6     0.51      1008.1     3.2     WSW   237   6.3      SW   227   9.64    268      -77.7
   03/12/2019 20:30      55.5      55.0       69     45.0      0.00     18.60      57.5     0.51      1008.1     4.0      SW   219   8.2     SSW   194   9.64    268      -78.0
   03/12/2019 20:20      55.8      55.0       68     45.0      0.00     18.60      57.5     0.51      1008.2     3.2      SW   218   6.3      SW   228   9.64    268      -78.2
   03/12/2019 20:10      56.3      55.5       67     44.9      0.00     18.60      57.5     0.51      1008.2     3.9      SW   227   7.9     WSW   254   9.64    268      -78.9
   03/12/2019 20:00      56.6      56.0       66     44.8      0.00     18.60      57.5     0.51      1008.2     4.8      SW   234   8.9      SW   218   9.64    268      -79.1
   03/12/2019 19:50      57.1      56.3       65     44.8      0.00     18.60      57.4     0.51      1008.0     5.1      SW   224   9.3     SSW   208   9.65    268      -79.7
   03/12/2019 19:40      57.4      56.9       63     44.8      0.00     18.60      57.4     0.51      1008.0     4.8      SW   230  10.6     WSW   239   9.65    268      -79.9
   03/12/2019 19:30      58.0      57.0       63     44.9      0.00     18.60      57.4     0.51      1007.8     5.3      SW   228   8.7      SW   218   9.65    268      -80.5
   03/12/2019 19:20      58.3      57.5       62     45.1      0.00     18.60      57.3     0.51      1007.6     5.4      SW   228   9.7      SW   215   9.65    268      -81.1
   03/12/2019 19:10      58.7      58.1       62     45.5      0.00     18.60      57.3     0.51      1007.5     4.9      SW   231  10.1       S   186   9.66    268      -80.4
   03/12/2019 19:00      59.8      58.4       61     45.3      0.00     18.60      57.3     0.51      1007.5     4.6      SW   226   7.8      SW   218   9.66    267      -77.3
   03/12/2019 18:50      60.4      59.4       58     45.0      0.00     18.60      57.2     0.51      1007.4     4.6      SW   217  10.6      SW   220   9.66    267      -73.0
   03/12/2019 18:40      61.3      60.1       58     45.6      0.00     18.60      57.2     0.51      1007.4     4.2      SW   224   7.4     SSW   203   9.66    267      -68.2
   03/12/2019 18:30      62.5      61.1       56     45.6      0.00     18.60      57.1     0.51      1007.5     4.3     SSW   213   8.2      SW   229   9.66    267      -47.2
   03/12/2019 18:20      63.2      62.2       52     45.1      0.00     18.60      57.1     0.51      1007.4     3.8      SW   226   6.8     SSW   196   9.67    266      -27.8
   03/12/2019 18:10      63.4      62.9       51     44.9      0.00     18.60      57.0     0.51      1007.4     3.1      SW   225   6.9      SW   231   9.67    266       -5.4
   03/12/2019 18:00      63.3      62.7       51     44.7      0.00     18.60      57.0     0.51      1007.3     4.8     SSW   213   8.3       S   187   9.67    266       20.0
   03/12/2019 17:50      63.7      63.1       50     44.7      0.00     18.60      56.9     0.51      1007.4     4.5     SSW   210   7.9      SW   221   9.67    266       48.3
   03/12/2019 17:40      64.0      63.4       50     44.6      0.00     18.60      56.9     0.50      1007.4     5.1     SSW   213   7.3     WSW   245   9.67    266       76.6
   03/12/2019 17:30      63.9      63.3       50     44.5      0.00     18.60      56.8     0.50      1007.5     5.1      SW   230   8.4     WSW   254   9.68    266      105.9
   03/12/2019 17:20      64.1      63.4       50     44.5      0.00     18.60      56.8     0.50      1007.6     6.1      SW   219  10.2     WSW   239   9.68    266      134.3
   03/12/2019 17:10      64.3      63.8       49     44.3      0.00     18.60      56.7     0.50      1007.6     6.6      SW   233  10.5     WSW   243   9.68    266      161.1
   03/12/2019 17:00      64.3      63.6       49     44.4      0.00     18.60      56.7     0.50      1007.5     6.1      SW   231  11.9      SW   228   9.69    266      186.6
   03/12/2019 16:50      65.4      63.8       47     44.3      0.00     18.60      56.6     0.50      1007.5     7.6      SW   220  12.3      SW   233   9.69    266      213.4
   03/12/2019 16:40      66.1      65.3       42     41.9      0.00     18.60      56.5     0.50      1007.4     6.3      SW   230  11.0     WSW   251   9.69    266      238.2
   03/12/2019 16:30      67.1      65.9       35     37.9      0.00     18.60      56.5     0.50      1007.4     6.2      SW   234  10.2      SW   226   9.69    266      245.6
   03/12/2019 16:20      67.8      66.9       31     36.0      0.00     18.60      56.4     0.50      1007.4     5.9     WSW   248   9.6       W   260   9.70    265      265.7
   03/12/2019 16:10      67.7      66.9       32     36.4      0.00     18.60      56.4     0.50      1007.4     5.6     WSW   255   9.8     WSW   252   9.70    265      289.7
   03/12/2019 16:00      67.4      66.3       33     36.9      0.00     18.60      56.3     0.50      1007.4     6.4       W   264  11.0     WSW   244   9.70    265      313.7
   03/12/2019 15:50      67.1      66.3       33     36.9      0.00     18.60      56.2     0.50      1007.4     7.1      SW   233  11.1     WSW   241   9.70    265      337.8
   03/12/2019 15:40      67.7      66.5       34     37.6      0.00     18.60      56.1     0.50      1007.4     7.3     WSW   247  12.2     WNW   282   9.71    265      362.3
   03/12/2019 15:30      67.8      67.1       32     36.7      0.00     18.60      56.1     0.50      1007.3     6.6     WSW   252  11.2     WSW   238   9.71    265      388.7
   03/12/2019 15:20      67.5      66.6       32     36.7      0.00     18.60      56.0     0.50      1007.2     6.4     WSW   257  11.7       W   268   9.71    264      410.2
   03/12/2019 15:10      66.9      66.4       33     36.2      0.00     18.60      56.0     0.50      1007.4     7.5      SW   232  11.6      SW   226   9.72    264      429.2
   03/12/2019 15:00      66.9      65.9       34     37.3      0.00     18.60      55.8     0.50      1007.5     7.3     WSW   244  12.3     WSW   247   9.72    265      443.4
   03/12/2019 14:50      67.0      66.1       37     39.2      0.00     18.60      55.8     0.50      1007.6     7.6      SW   232  11.8      SW   235   9.72    264      458.3
   03/12/2019 14:40      67.2      66.2       36     38.6      0.00     18.60      55.8     0.50      1007.6     6.9     WSW   240   9.8     WSW   238   9.72    265      470.6
   03/12/2019 14:30      67.3      66.6       36     38.7      0.00     18.60      55.7     0.50      1007.5     7.2     WSW   255  12.1     WSW   257   9.72    264      482.6
   03/12/2019 14:20      68.3      66.8       36     39.5      0.00     18.60      55.6     0.50      1007.6     7.3     WSW   246  12.4     WSW   242   9.72    264      493.2
   03/12/2019 14:10      68.3      67.5       36     39.8      0.00     18.60      55.6     0.50      1007.7     5.9       W   261  12.9      SW   234   9.73    264      498.0
   03/12/2019 14:00      69.0      67.8       34     38.8      0.00     18.60      55.5     0.50      1007.6     6.8       W   262  10.1      NW   305   9.73    264      504.9
   03/12/2019 13:50      69.1      68.3       30     36.4      0.00     18.60      55.5     0.50      1007.7     4.1       W   274  10.5       W   273   9.73    264      510.9
   03/12/2019 13:40      68.7      67.6       32     37.1      0.00     18.60      55.4     0.50      1007.7     3.2     SSW   204   8.3      SW   224   9.73    264      513.9
   03/12/2019 13:30      69.2      67.9       32     37.5      0.00     18.60      55.4     0.50      1007.8     3.2     WSW   246   7.3       W   262   9.73    264      519.8
   03/12/2019 13:20      69.5      68.0       30     36.2      0.00     18.60      55.4     0.50      1008.0     2.4       W   279   7.9      NW   311   9.74    264      520.4
   03/12/2019 13:10      68.3      66.8       35     38.5      0.00     18.60      55.3     0.50      1008.1     4.4     WSW   238   9.0       W   262   9.74    264      529.2
   03/12/2019 13:00      67.8      67.1       35     39.1      0.00     18.60      55.3     0.50      1008.1     4.0      SW   225  10.1       W   267   9.74    264      530.5
   03/12/2019 12:50      67.6      66.7       34     37.9      0.00     18.60      55.3     0.50      1008.3     4.7       W   280  10.9     WSW   252   9.74    264      532.0
   03/12/2019 12:40      68.9      66.5       35     39.1      0.00     18.60      55.3     0.50      1008.4     5.7     WSW   251  10.9     WSW   245   9.74    264      529.6
   03/12/2019 12:30      70.3      68.6       28     35.4      0.00     18.60      55.2     0.50      1008.5     4.1      NW   305  11.0     WNW   285   9.74    263      517.6
   03/12/2019 12:20      69.5      68.9       24     30.4      0.00     18.60      55.2     0.50      1008.6     5.1       N   358  11.5     NNE    30   9.74    263      514.2
   03/12/2019 12:10      69.6      68.6       25     31.5      0.00     18.60      55.2     0.50      1008.7     4.3       N   351  10.1      NW   318   9.75    263      508.7
   03/12/2019 12:00      69.1      68.5       27     33.2      0.00     18.60      55.2     0.50      1008.8     3.8       N     7   8.6       N     2   9.75    263      501.2
   03/12/2019 11:50      68.7      67.1       29     34.0      0.00     18.60      55.2     0.50      1008.8     3.9       N     1  10.6       N   353   9.75    263      493.6
   03/12/2019 11:40      68.0      67.0       29     33.9      0.00     18.60      55.2     0.50      1008.9     5.5       N     7  11.2     NNE    20   9.75    264      483.7
   03/12/2019 11:30      67.9      66.2       30     34.9      0.00     18.60      55.3     0.50      1008.9     3.2       N     4   6.8       N    10   9.75    264      471.2
   03/12/2019 11:20      66.4      65.5       31     34.2      0.00     18.60      55.2     0.50      1009.0     4.3     NNW   331   8.3       N     6   9.75    264      460.7
   03/12/2019 11:10      66.0      64.9       32     34.7      0.00     18.60      55.2     0.50      1009.0     4.9      NW   319  10.3     NNW   332   9.75    264      446.6
   03/12/2019 11:00      65.2      64.3       35     36.1      0.00     18.60      55.2     0.50      1009.2     4.4     WNW   287   8.5     NNW   327   9.75    264      429.1
   03/12/2019 10:50      64.9      62.9       35     35.8      0.00     18.60      55.2     0.50      1009.1     2.4     NNW   340   5.2       N     0   9.75    264      410.7
   03/12/2019 10:40      63.2      62.5       36     35.4      0.00     18.60      55.2     0.50      1009.1     4.0       N   352   9.0       N   353   9.75    264      395.4
   03/12/2019 10:30      63.5      62.5       36     35.8      0.00     18.60      55.2     0.50      1009.2     3.9       N     7   7.7     NNW   332   9.75    264      376.4
   03/12/2019 10:20      62.7      60.9       40     36.9      0.00     18.60      55.3     0.50      1009.3     2.1      SW   223   4.9     SSW   209   9.75    264      357.0
   03/12/2019 10:10      62.9      61.5       39     36.8      0.00     18.60      55.3     0.50      1009.4     2.5     ESE   105   4.3      NE    55   9.75    264      335.3
   03/12/2019 10:00      63.3      62.6       39     37.7      0.00     18.60      55.3     0.50      1009.6     1.9       E    85   6.1       E    99   9.76    265      314.0
   03/12/2019 09:50      62.9      61.7       38     36.5      0.00     18.60      55.3     0.50      1009.9     1.0     ESE   105   3.6       E    88   9.76    264      304.9
   03/12/2019 09:40      62.2      61.4       38     36.0      0.00     18.60      55.3     0.50      1009.8     2.2      NE    40   4.3     ENE    57   9.76    264      313.7
   03/12/2019 09:30      63.3      62.0       39     37.3      0.00     18.60      55.4     0.50      1009.7     1.6       E    80   4.4      NE    52   9.76    266      339.0
   03/12/2019 09:20      62.7      61.2       39     36.9      0.00     18.60      55.3     0.50      1009.7     1.4     ENE    72   3.7     NNE    25   9.76    266      340.6
   03/12/2019 09:10      61.5      60.1       39     35.8      0.00     18.60      55.4     0.50      1009.8     1.1     NNW   343   5.3     NNW   334   9.76    266      308.5
   03/12/2019 09:00      60.3      59.7       41     36.0      0.00     18.60      55.3     0.50      1009.8     1.4     NNW   334   4.2       N     5   9.76    267      269.3
   03/12/2019 08:50      59.7      58.4       45     37.6      0.00     18.60      55.4     0.50      1009.7     1.5     SSE   148   3.9     ESE   122   9.76    267      236.6
   03/12/2019 08:40      58.6      57.6       46     37.5      0.00     18.60      55.4     0.50      1009.7     2.0     SSE   148   4.2     SSE   147   9.76    267      185.3
   03/12/2019 08:30      58.3      57.3       46     37.3      0.00     18.60      55.4     0.50      1009.6     1.0       S   170   2.0     WNW   300   9.76    268      120.2
   03/12/2019 08:20      57.6      57.0       47     37.1      0.00     18.60      55.4     0.50      1009.6     1.4      NW   305   2.9     WSW   252   9.76    268       88.1
   03/12/2019 08:10      57.3      55.8       47     36.7      0.00     18.60      55.4     0.50      1009.4     1.4      NE    51   4.6     ENE    60   9.76    268        4.0
   03/12/2019 08:00      56.0      54.6       50     36.8      0.00     18.60      55.4     0.50      1009.4     1.5     ENE    70   4.6     ENE    63   9.76    268      -34.3
   03/12/2019 07:50      54.8      52.6       52     36.3      0.00     18.60      55.4     0.50      1009.4     2.6     ESE   110   5.3     ENE    76   9.76    268      -27.1
   03/12/2019 07:40      52.7      50.6       57     36.7      0.00     18.60      55.4     0.50      1009.4     1.7     ESE   116   4.3     ESE   119   9.76    268      -26.0
   03/12/2019 07:30      51.0      50.1       60     37.2      0.00     18.60      55.4     0.50      1009.4     1.3     SSE   152   2.5     SSE   157   9.76    268      -34.8
   03/12/2019 07:20      52.0      50.5       58     36.9      0.00     18.60      55.4     0.50      1009.6     1.3     SSE   162   2.5     SSE   148   9.76    268      -43.9
   03/12/2019 07:10      54.9      51.9       52     36.1      0.00     18.60      55.4     0.50      1009.6     1.3      SE   138   3.1     SSE   166   9.76    268      -59.4
   03/12/2019 07:00      54.9      54.5       48     35.5      0.00     18.60      55.4     0.50      1009.5     2.0     NNE    24   4.5      NE    47   9.77    267      -62.9
   03/12/2019 06:50      54.9      54.5       48     35.6      0.00     18.60      55.4     0.51      1009.4     3.0     NNE    14   5.8     NNE    12   9.77    267      -64.6
   03/12/2019 06:40      55.0      54.5       48     35.5      0.00     18.60      55.4     0.51      1009.3     3.1     NNE    19   7.1      NE    44   9.77    268      -66.3
   03/12/2019 06:30      55.2      54.6       48     35.5      0.00     18.60      55.4     0.50      1009.3     2.8     NNE    21   4.9     NNE    26   9.77    267      -64.6
   03/12/2019 06:20      55.8      54.8       47     35.5      0.00     18.60      55.5     0.51      1009.3     3.1     NNE    18   5.7       N     9   9.77    267      -64.1
   03/12/2019 06:10      55.7      55.0       47     35.4      0.00     18.60      55.4     0.50      1009.2     3.8       N     7   9.7     NNW   340   9.77    267      -67.6
   03/12/2019 06:00      55.6      55.1       47     35.6      0.00     18.60      55.5     0.51      1009.0     2.8       N     6   5.4      NW   324   9.77    267      -68.3
   03/12/2019 05:50      55.9      55.2       47     35.6      0.00     18.60      55.5     0.51      1008.9     2.9       N     5   7.6       N     7   9.77    267      -69.9
   03/12/2019 05:40      55.8      55.4       47     35.6      0.00     18.60      55.5     0.51      1008.7     3.1     NNW   346   6.1     WNW   297   9.77    267      -69.0
   03/12/2019 05:30      55.9      55.5       47     35.8      0.00     18.60      55.5     0.51      1008.7     3.3       N   352   7.5      NW   307   9.77    267      -69.4
   03/12/2019 05:20      56.3      55.7       47     35.8      0.00     18.60      55.5     0.51      1008.6     3.1       N   349   6.6       N     0   9.77    267      -62.0
   03/12/2019 05:10      56.4      55.9       47     35.9      0.00     18.60      55.5     0.51      1008.5     2.8     NNW   346   6.0       N     0   9.77    267      -42.9
   03/12/2019 05:00      56.4      55.8       47     35.9      0.00     18.60      55.5     0.51      1008.5     3.6       N   349   6.6      NW   322   9.77    267      -43.1
   03/12/2019 04:50      56.1      55.7       48     36.2      0.00     18.60      55.5     0.51      1008.4     2.3     NNW   340   6.1     NNE    33   9.77    267      -46.7
   03/12/2019 04:40      56.2      55.9       48     36.4      0.00     18.60      55.5     0.51      1008.2     2.2     NNW   333   5.6      NW   317   9.77    267      -40.9
   03/12/2019 04:30      56.3      55.9       47     36.4      0.00     18.60      55.5     0.51      1008.3     2.3     NNW   334   5.2     WNW   287   9.77    267      -35.5
   03/12/2019 04:20      56.3      55.9       48     36.6      0.00     18.60      55.5     0.51      1008.3     2.4     NNW   332   6.5     NNW   329   9.77    267      -33.9
   03/12/2019 04:10      56.3      55.9       48     36.7      0.00     18.60      55.5     0.51      1008.4     2.1     NNW   334   4.6     NNE    15   9.77    267      -33.1
   03/12/2019 04:00      56.4      55.9       48     36.8      0.00     18.60      55.5     0.51      1008.5     2.5     NNW   334   6.8      NW   313   9.77    267      -33.3
   03/12/2019 03:50      56.4      56.0       48     36.8      0.00     18.60      55.5     0.51      1008.6     3.7      NW   314   8.7      NW   316   9.77    267      -33.2
   03/12/2019 03:40      56.3      55.9       49     37.0      0.00     18.60      55.5     0.51      1008.7     3.6      NW   321   8.4       E    96   9.77    267      -32.0
   03/12/2019 03:30      56.2      55.6       49     37.0      0.00     18.60      55.5     0.51      1008.8     2.9      NW   326   6.5      NW   307   9.77    267      -31.2
   03/12/2019 03:20      56.0      55.5       50     37.1      0.00     18.60      55.5     0.51      1008.9     2.7     NNW   334   5.5      NW   309   9.78    267      -30.3
   03/12/2019 03:10      55.9      55.5       50     37.0      0.00     18.60      55.5     0.51      1009.0     2.7      NW   323   6.0       N     0   9.77    268      -29.4
   03/12/2019 03:00      56.0      55.6       49     36.8      0.00     18.60      55.5     0.51      1009.1     1.7     NNW   335   4.1      NW   320   9.77    267      -28.0
   03/12/2019 02:50      56.3      55.8       49     36.9      0.00     18.60      55.5     0.51      1009.1     1.3     NNW   343   3.6     WNW   299   9.77    267      -27.7
   03/12/2019 02:40      56.4      55.9       49     37.0      0.00     18.60      55.5     0.51      1009.1     1.8       N   355   4.0       N     4   9.78    267      -27.0
   03/12/2019 02:30      56.8      56.2       48     36.8      0.00     18.60      55.5     0.51      1009.1     2.0     NNE    18   4.1     NNE    17   9.78    267      -26.7
   03/12/2019 02:20      56.8      56.4       47     36.6      0.00     18.60      55.5     0.51      1009.2     3.4     NNE    12   6.8     NNE    31   9.78    267      -26.4
   03/12/2019 02:10      56.8      56.3       47     36.7      0.00     18.60      55.5     0.51      1009.2     2.7     NNE    12   5.1     NNE    18   9.78    267      -26.0
   03/12/2019 02:00      56.9      56.3       47     36.8      0.00     18.60      55.5     0.51      1009.3     2.2       N     3   4.9       N   354   9.78    267      -25.1
   03/12/2019 01:50      56.9      56.5       47     36.8      0.00     18.60      55.5     0.51      1009.4     1.9     NNE    18   4.3     NNE    22   9.78    267      -24.3
   03/12/2019 01:40      56.9      56.5       47     36.8      0.00     18.60      55.5     0.51      1009.4     2.8       N     8   5.7       N     3   9.78    267      -22.8
   03/12/2019 01:30      56.9      56.6       47     36.6      0.00     18.60      55.5     0.51      1009.5     2.9       N     4   6.9     NNW   337   9.78    268      -23.2
   03/12/2019 01:20      56.8      56.4       47     36.5      0.00     18.60      55.5     0.51      1009.5     2.0     NNW   340   5.8      NW   321   9.78    267      -22.3
   03/12/2019 01:10      56.8      56.5       46     36.2      0.00     18.60      55.5     0.51      1009.5     1.9       N   358   5.5     NNE    30   9.78    267      -21.5
   03/12/2019 01:00      56.9      56.5       46     36.0      0.00     18.60      55.5     0.51      1009.6     1.8       N   351   5.1      NW   309   9.78    267      -21.5
   03/12/2019 00:50      56.8      56.3       46     36.0      0.00     18.60      55.5     0.51      1009.7     2.2       N     1   5.5     NNW   347   9.78    267      -20.7
   03/12/2019 00:40      56.6      56.0       46     36.1      0.00     18.60      55.5     0.51      1009.7     1.6       N   356   5.6       N     0   9.78    267      -19.2
   03/12/2019 00:30      56.6      56.1       47     36.2      0.00     18.60      55.5     0.51      1009.7     1.1     NNW   345   2.8       N   350   9.78    267      -20.2
   03/12/2019 00:20      56.8      56.3       46     36.0      0.00     18.60      55.5     0.51      1009.6     1.8      NW   326   3.8      NW   317   9.78    267      -24.5
   03/12/2019 00:10      56.8      56.4       46     36.0      0.00     18.60      55.5     0.51      1009.6     1.4      NW   323   4.3     WNW   283   9.78    267      -26.6
   03/12/2019 00:00      56.8      56.4       46     35.9      0.00     18.60      55.5     0.51      1009.8     1.7      NW   322   3.5      NW   307   9.78    267      -31.3
   03/11/2019 23:50      56.9      56.5       46     35.9      0.00     18.60      55.5     0.51      1009.8     2.4     NNW   328   4.6      NW   309   9.78    267      -35.2
   03/11/2019 23:40      57.0      56.6       46     36.1      0.00     18.60      55.5     0.51      1010.0     2.3     NNW   348   5.1       N   350   9.78    267      -32.2
   03/11/2019 23:30      57.0      56.6       46     36.2      0.00     18.60      55.5     0.51      1010.1     3.7       N   353   8.6     NNW   333   9.78    267      -32.7
   03/11/2019 23:20      57.1      56.6       46     36.2      0.00     18.60      55.5     0.51      1010.2     3.9       N   353   7.6       W   276   9.78    267      -37.3
   03/11/2019 23:10      57.3      56.7       46     36.2      0.00     18.60      55.5     0.51      1010.3     3.2       N     1   7.8      NE    36   9.78    267      -38.8
   03/11/2019 23:00      57.3      56.9       45     36.1      0.00     18.60      55.5     0.51      1010.3     3.1     NNW   340   7.2     NNE    15   9.79    267      -31.8
   03/11/2019 22:50      57.8      57.0       45     35.9      0.00     18.60      55.5     0.51      1010.2     2.7     NNW   335   7.7      NW   323   9.79    267      -33.6
   03/11/2019 22:40      58.7      57.5       42     34.9      0.00     18.60      55.5     0.51      1010.0     3.7      NW   326   7.7     WNW   300   9.79    266      -30.2
   03/11/2019 22:30      58.8      58.5       38     33.4      0.00     18.60      55.5     0.51      1009.8     2.3     NNW   328   6.0     WNW   294   9.79    266      -26.2
   03/11/2019 22:20      59.1      58.6       38     33.2      0.00     18.60      55.5     0.51      1009.7     2.0     NNW   333   4.3       N   352   9.79    266      -24.5
   03/11/2019 22:10      59.1      58.5       38     33.2      0.00     18.60      55.5     0.51      1009.7     2.3       N   349   5.0     NNW   332   9.79    266      -24.0
   03/11/2019 22:00      59.2      58.7       37     33.0      0.00     18.60      55.5     0.51      1009.8     2.4     NNW   329   6.0       N     0   9.79    266      -24.9
   03/11/2019 21:50      59.5      58.9       37     32.8      0.00     18.60      55.5     0.51      1009.8     2.5       N   357   5.1     NNW   334   9.79    266      -25.0
   03/11/2019 21:40      59.4      59.0       37     32.7      0.00     18.60      55.4     0.51      1009.8     3.8     NNW   347   7.6       N     3   9.79    266      -25.8
   03/11/2019 21:30      59.5      59.0       37     32.7      0.00     18.60      55.5     0.51      1009.6     3.4       N   350   5.9      NW   313   9.79    266      -24.1
   03/11/2019 21:20      59.5      59.1       36     32.6      0.00     18.60      55.4     0.51      1009.6     2.7       N     0   5.1       N   355   9.79    266      -24.4
   03/11/2019 21:10      59.7      59.0       36     32.4      0.00     18.60      55.4     0.51      1009.6     2.4       N     9   8.6      NE    36   9.79    266      -27.6
   03/11/2019 21:00      59.8      59.4       35     31.6      0.00     18.60      55.4     0.51      1009.5     2.4       N     2   5.2      NE    35   9.79    266      -28.5
   03/11/2019 20:50      59.8      59.2       35     32.1      0.00     18.60      55.4     0.51      1009.4     2.0     NNE    14   5.3     NNE    24   9.80    266      -30.5
   03/11/2019 20:40      60.1      59.4       35     31.9      0.00     18.60      55.4     0.51      1009.3     1.5      NE    35   3.9     NNE    13   9.80    266      -32.4
   03/11/2019 20:30      60.1      59.5       35     31.9      0.00     18.60      55.4     0.51      1009.3     1.8     NNE    28   3.5     ESE   121   9.80    266      -29.9
   03/11/2019 20:20      60.2      59.8       34     31.7      0.00     18.60      55.4     0.51      1009.4     3.5     NNE    20   9.6       N     4   9.80    266      -29.1
   03/11/2019 20:10      60.1      59.6       35     31.9      0.00     18.60      55.4     0.51      1009.5     4.7     NNE    13   9.3       N     3   9.80    266      -29.8
   03/11/2019 20:00      60.0      59.0       36     32.7      0.00     18.60      55.4     0.51      1009.5     3.5     NNE    15   8.8     NNW   348   9.80    266      -29.4
   03/11/2019 19:50      59.6      59.0       38     33.8      0.00     18.60      55.3     0.51      1009.6     1.2     NNE    17   3.7       N     8   9.80    266      -27.9
   03/11/2019 19:40      59.4      59.1       38     33.5      0.00     18.60      55.3     0.51      1009.6     2.1     NNE    32   4.7     ENE    60   9.80    266      -27.6
   03/11/2019 19:30      59.6      58.9       39     34.1      0.00     18.60      55.3     0.51      1009.8     2.1     NNE    27   6.7     NNE    32   9.80    267      -26.9
   03/11/2019 19:20      59.7      59.3       38     33.9      0.00     18.60      55.3     0.51      1009.9     3.0     NNE    17   5.3     NNE    14   9.80    266      -27.5
   03/11/2019 19:10      59.7      59.0       38     33.8      0.00     18.60      55.3     0.51      1010.1     3.8     NNE    31   7.4     ENE    67   9.80    266      -25.0
   03/11/2019 19:00      59.6      58.9       39     34.0      0.00     18.60      55.2     0.51      1010.3     3.9      NE    44   7.4     NNE    27   9.80    266      -25.1
   03/11/2019 18:50      59.4      59.0       39     34.1      0.00     18.60      55.3     0.51      1010.3     3.3      NE    36   7.7     ENE    62   9.80    266      -24.6
   03/11/2019 18:40      59.6      59.1       39     34.2      0.00     18.60      55.2     0.51      1010.3     4.8      NE    42  13.5     NNE    24   9.81    266      -21.5
   03/11/2019 18:30      59.6      59.1       39     34.3      0.00     18.60      55.2     0.51      1010.3     3.7      NE    51   8.8      NE    45   9.81    266      -14.8
   03/11/2019 18:20      59.8      59.3       38     34.0      0.00     18.60      55.2     0.51      1010.4     3.7      NE    51   7.8     ENE    61   9.81    266      -17.1
   03/11/2019 18:10      59.9      59.3       38     33.9      0.00     18.60      55.2     0.51      1010.4     4.6      NE    48   7.9      NE    51   9.81    266      -15.6
   03/11/2019 18:00      60.1      59.5       38     33.9      0.00     18.60      55.1     0.51      1010.5     3.7     NNE    26   8.1       N     3   9.81    266      -13.0
   03/11/2019 17:50      60.2      59.8       37     33.9      0.00     18.60      55.2     0.51      1010.6     4.9      NE    35  10.4       N     0   9.81    266       -5.1
   03/11/2019 17:40      60.5      59.9       37     33.9      0.00     18.60      55.1     0.51      1010.6     5.9     NNE    30  11.6     ENE    77   9.81    266        8.0
   03/11/2019 17:30      60.9      60.2       37     34.0      0.00     18.60      55.1     0.51      1010.5     6.9      NE    36  11.5     ENE    60   9.81    266       10.7
   03/11/2019 17:20      61.3      60.6       37     34.1      0.00     18.60      55.0     0.51      1010.5     5.3      NE    38  10.5      NE    47   9.81    266       25.9
   03/11/2019 17:10      62.1      61.0       36     34.3      0.00     18.60      55.0     0.51      1010.5     6.3     NNE    29  11.9     NNE    28   9.81    266       83.0
   03/11/2019 17:00      62.0      60.9       36     34.4      0.00     18.60      55.0     0.51      1010.6     6.4     NNE    13  13.3      NE    48   9.82    266      201.3
   03/11/2019 16:50      61.0      60.5       37     34.4      0.00     18.60      55.0     0.51      1010.6     5.8     NNE    19  11.0     NNE    21   9.82    266      102.4
   03/11/2019 16:40      60.8      60.3       38     35.0      0.00     18.60      55.0     0.51      1010.6     6.6       N    11  11.1       N     3   9.82    266       93.4
   03/11/2019 16:30      60.5      59.8       40     35.5      0.00     18.60      55.0     0.51      1010.6     6.5       N   359  12.2       N     2   9.82    266      139.5
   03/11/2019 16:20      60.1      59.4       40     35.3      0.00     18.60      55.0     0.51      1010.8     7.5       N     0  14.2     NNE    13   9.82    266      174.6
   03/11/2019 16:10      59.8      59.0       42     36.0      0.00     18.60      55.0     0.51      1010.9     4.8       N   356  10.3     NNW   344   9.82    266      149.2
   03/11/2019 16:00      59.2      58.6       43     36.5      0.00     18.60      54.9     0.51      1011.1     4.8       N   358  12.6      NE    47   9.82    266       95.3
   03/11/2019 15:50      59.1      58.7       43     36.4      0.00     18.60      54.9     0.51      1011.3     6.2       N   357  12.7      NW   322   9.82    266      163.8
   03/11/2019 15:40      59.2      58.6       41     35.5      0.00     18.60      54.9     0.51      1011.5     6.7       N     3  12.9     NNE    19   9.82    266      152.7
   03/11/2019 15:30      59.7      58.9       40     35.0      0.00     18.60      54.9     0.51      1011.5     6.2       N     2  10.9       N   355   9.82    266      144.4
   03/11/2019 15:20      59.7      59.3       38     34.0      0.00     18.60      54.8     0.51      1011.6     5.7       N     4  12.0      NE    35   9.83    266      137.4
   03/11/2019 15:10      59.9      59.1       37     33.0      0.00     18.60      54.8     0.51      1011.8     6.6       N     9  13.7     NNE    13   9.83    266       74.0
   03/11/2019 15:00      59.7      59.4       35     32.2      0.00     18.60      54.8     0.51      1012.0     5.7       N     5   9.8     NNE    15   9.83    266       38.4
   03/11/2019 14:50      60.2      59.3       34     31.0      0.00     18.60      54.8     0.51      1012.2     3.9     NNE    15  10.2     NNW   327   9.83    266       33.9
   03/11/2019 14:40      60.2      59.7       34     31.7      0.00     18.60      54.7     0.51      1012.3     5.2       N    11  10.5       N     3   9.83    266       82.8
   03/11/2019 14:30      61.1      59.9       34     32.2      0.00     18.60      54.7     0.51      1012.4     4.4      NE    49   7.8     NNE    30   9.83    267       71.9
   03/11/2019 14:20      61.3      60.8       34     32.5      0.00     18.60      54.8     0.51      1012.5     3.4     NNE    31   8.9     ENE    65   9.83    266       73.5
   03/11/2019 14:10      61.3      60.8       34     32.2      0.00     18.60      54.7     0.51      1012.6     4.2     NNE    19   8.8     NNE    31   9.83    267       91.5
   03/11/2019 14:00      61.3      60.8       34     32.5      0.00     18.60      54.7     0.51      1012.7     4.2     NNE    23   7.8     ENE    60   9.83    266       88.0
   03/11/2019 13:50      61.4      60.8       35     33.4      0.00     18.60      54.7     0.51      1012.8     3.5     NNE    19   7.2     NNE    20   9.83    266       94.9
   03/11/2019 13:40      61.0      60.6       35     33.2      0.00     18.60      54.7     0.51      1012.9     3.6       N   360   6.9      NE    34   9.83    266       90.4
   03/11/2019 13:30      61.0      60.5       35     33.2      0.00     18.60      54.7     0.51      1013.0     5.1       N   357   8.4       N   355   9.83    266      100.0
   03/11/2019 13:20      61.0      60.4       36     33.3      0.00     18.60      54.7     0.51      1013.1     5.4       N     6  12.6       N     4   9.83    266      131.9
   03/11/2019 13:10      61.0      60.5       36     33.2      0.00     18.60      54.7     0.51      1013.0     5.2       N   358   9.1     NNE    23   9.83    266      174.6
   03/11/2019 13:00      60.9      60.6       36     33.6      0.00     18.60      54.7     0.51      1013.1     5.6       N     2  11.0     NNE    16   9.84    266      193.3
   03/11/2019 12:50      61.0      60.5       35     33.2      0.00     18.60      54.7     0.51      1013.2     5.6       N     8  10.8     NNE    22   9.84    266      198.0
   03/11/2019 12:40      61.2      60.7       36     33.5      0.00     18.60      54.7     0.51      1013.3     5.5       N   356  10.8     NNW   340   9.84    266      199.8
   03/11/2019 12:30      61.2      60.5       36     33.8      0.00     18.60      54.7     0.51      1013.4     5.2       N     5  10.2       N   352   9.84    266      232.6
   03/11/2019 12:20      60.9      59.9       37     33.9      0.00     18.60      54.6     0.51      1013.4     4.8       N   359  10.5       N   350   9.84    266      259.5
   03/11/2019 12:10      60.2      59.7       37     33.5      0.00     18.60      54.7     0.51      1013.5     5.2     NNE    13  10.8     NNE    20   9.84    266      225.5
   03/11/2019 12:00      59.9      59.5       37     33.4      0.00     18.60      54.7     0.51      1013.6     5.7     NNE    16  13.6     NNE    28   9.84    267      193.2
   03/11/2019 11:50      59.7      59.1       37     33.4      0.00     18.60      54.7     0.51      1013.7     5.7       N     5  11.0     NNE    11   9.84    267      187.3
   03/11/2019 11:40      59.7      59.3       37     33.5      0.00     18.60      54.7     0.51      1013.8     5.4     NNE    14  10.0       N     0   9.84    267      145.3
   03/11/2019 11:30      59.7      59.2       37     33.4      0.00     18.60      54.7     0.51      1013.8     5.2       N     8  11.6     NNE    30   9.84    267      172.0
   03/11/2019 11:20      59.7      59.1       38     33.8      0.00     18.60      54.7     0.51      1013.7     4.6       N     1   9.7       N     4   9.84    267      177.8
   03/11/2019 11:10      59.8      59.3       37     33.3      0.00     18.60      54.7     0.51      1013.8     5.2       N    10   9.6      NE    49   9.84    267      210.0
   03/11/2019 11:00      59.8      59.4       38     34.0      0.00     18.60      54.7     0.51      1013.7     4.4     NNE    23   9.4       N   354   9.84    267      201.3
   03/11/2019 10:50      59.8      59.1       38     33.9      0.00     18.60      54.8     0.51      1013.7     5.1     NNE    15  12.1     NNW   342   9.84    267      323.4
   03/11/2019 10:40      59.2      57.9       40     34.0      0.00     18.60      54.8     0.51      1013.6     4.8     NNE    19  11.3     ENE    69   9.84    267      395.8
   03/11/2019 10:30      58.0      57.0       41     34.1      0.00     18.60      54.8     0.51      1013.7     5.9     NNE    15   9.8     NNE    23   9.84    267      319.1
   03/11/2019 10:20      57.3      56.2       44     34.8      0.00     18.60      54.9     0.51      1013.7     4.5       N    10   9.6       N   352   9.85    268      265.9
   03/11/2019 10:10      56.3      55.5       44     34.2      0.00     18.60      54.9     0.51      1013.7     6.0     NNE    13  11.4      NE    44   9.85    268      237.7
   03/11/2019 10:00      55.7      54.8       46     34.7      0.00     18.60      54.9     0.51      1013.7     4.7     NNE    15   8.8     NNE    14   9.85    268      211.0
   03/11/2019 09:50      54.9      54.5       47     34.7      0.00     18.60      54.9     0.51      1013.8     4.8       N    10   9.3     NNW   346   9.85    268      200.6
   03/11/2019 09:40      54.6      54.0       48     34.8      0.00     18.60      54.9     0.51      1013.8     5.2       N    11   9.6       N     7   9.85    269      185.7
   03/11/2019 09:30      54.2      53.4       49     34.9      0.00     18.60      55.0     0.51      1013.7     4.6       N     8  10.6     NNE    13   9.85    270      179.6
   03/11/2019 09:20      53.8      52.6       51     35.4      0.00     18.60      55.0     0.51      1013.7     3.2     NNE    14   8.6       N   352   9.85    275      176.9
   03/11/2019 09:10      52.9      51.5       55     36.4      0.00     18.60      55.0     0.51      1013.7     2.7     NNE    27   6.2       N     0   9.85    293      153.7
   03/11/2019 09:00      51.6      50.2       59     37.1      0.00     18.60      55.1     0.51      1013.5     1.9     NNE    29   4.5     NNW   333   9.85    344      132.0
   03/11/2019 08:50      50.5      49.1       63     37.6      0.00     18.60      55.1     0.52      1013.3     1.7     NNE    26   5.5     NNW   347   9.85    405      116.8
   03/11/2019 08:40      49.2      46.9       70     38.4      0.00     18.60      55.1     0.52      1013.3     0.7     ENE    62   2.9       N     9   9.85    444      106.9
   03/11/2019 08:30      46.9      45.2       79     39.7      0.00     18.60      55.1     0.52      1013.3     0.8       S   172   2.6      SW   215   9.85    468       86.9
   03/11/2019 08:20      45.3      44.1       85     40.5      0.00     18.60      55.2     0.52      1013.2     0.7     SSE   157   2.8      SE   131   9.85    482       56.6
   03/11/2019 08:10      44.3      43.4       90     41.0      0.00     18.60      55.2     0.52      1013.1     1.3     SSE   159   2.3       S   180   9.85    510       36.0
   03/11/2019 08:00      43.6      42.5       93     41.1      0.00     18.60      55.2     0.52      1013.0     1.7     SSE   164   3.4     SSW   194   9.85    523       27.4
   03/11/2019 07:50      42.6      42.1       94     40.7      0.00     18.60      55.3     0.52      1012.8     2.1     SSE   160   4.4     SSE   157   9.85    523       21.4
   03/11/2019 07:40      42.3      41.8       95     40.6      0.00     18.60      55.3     0.52      1012.7     1.6      SE   146   3.5      SE   141   9.85    513       13.3
   03/11/2019 07:30      42.2      41.6       95     40.4      0.00     18.60      55.3     0.52      1012.7     1.1     SSE   168   3.4     SSE   146   9.85    498        6.0
   03/11/2019 07:20      42.2      41.7       95     40.6      0.00     18.60      55.4     0.52      1012.8     1.2     SSE   150   2.3      SE   141   9.85    524        0.0
   03/11/2019 07:10      42.5      41.8       95     40.7      0.00     18.60      55.4     0.52      1012.9     0.3     SSE   157   1.3       S   176   9.85    525       -2.6
   03/11/2019 07:00      42.5      42.1       95     41.0      0.00     18.60      55.4     0.52      1013.1     0.5     SSW   193   1.3     SSE   151   9.85    522       -3.3
   03/11/2019 06:50      42.4      41.4       96     40.7      0.00     18.60      55.4     0.52      1013.3     1.2      SE   130   2.7     SSW   197   9.85    517       -3.2
   03/11/2019 06:40      41.7      41.0       96     40.1      0.00     18.60      55.4     0.52      1013.4     0.8       S   181   2.8     SSW   207   9.85    513       -3.0
   03/11/2019 06:30      41.5      40.4       96     39.8      0.00     18.60      55.5     0.52      1013.4     0.3     SSW   200   1.1     SSW   197   9.85    503       -3.0
   03/11/2019 06:20      40.8      40.3       96     39.3      0.00     18.60      55.5     0.52      1013.4     0.3     SSE   161   1.6     SSE   153   9.85    490       -3.1
   03/11/2019 06:10      40.9      40.2       95     39.2      0.00     18.60      55.6     0.52      1013.3     0.0      SE   143   0.8      SE   143   9.85    520       -3.8
   03/11/2019 06:00      40.9      40.1       96     39.3      0.00     18.60      55.6     0.52      1013.1     0.7      SE   143   2.1      SE   141   9.85    507       -4.7
   03/11/2019 05:50      40.4      39.8       96     39.0      0.00     18.60      55.6     0.52      1012.9     0.3     SSE   162   1.9       S   171   9.85    500       -4.7
   03/11/2019 05:40      40.9      40.0       96     39.2      0.00     18.60      55.6     0.52      1013.0     1.6     SSW   198   3.2     SSW   207   9.85    493       -4.2
   03/11/2019 05:30      40.5      40.0       96     39.1      0.00     18.60      55.7     0.52      1013.1     0.8     WSW   242   2.9     SSW   211   9.85    509       -4.9
   03/11/2019 05:20      40.5      39.8       96     38.9      0.00     18.60      55.7     0.52      1013.1     0.3       S   189   1.6       S   189   9.85    511       -5.6
   03/11/2019 05:10      40.3      39.8       95     38.7      0.00     18.60      55.7     0.52      1013.2     0.0       N     0   0.0     NNE    20   9.85    507       -5.8
   03/11/2019 05:00      40.4      39.9       95     38.9      0.00     18.60      55.7     0.52      1013.2     0.1       E    95   0.9      SE   141   9.85    498       -5.7
   03/11/2019 04:50      40.7      40.1       95     39.0      0.00     18.60      55.8     0.52      1013.2     0.2      SE   146   1.3      SE   142   9.85    483       -5.2
   03/11/2019 04:40      41.1      40.3       95     39.3      0.00     18.60      55.8     0.52      1013.3     0.5       S   181   1.8     SSW   210   9.85    502       -5.2
   03/11/2019 04:30      41.0      40.3       95     39.5      0.00     18.60      55.8     0.52      1013.6     0.1     SSW   193   1.2     SSW   193   9.85    494       -5.6
   03/11/2019 04:20      41.1      40.6       96     39.7      0.00     18.60      55.8     0.52      1013.7     0.0       N     0   0.0     SSE   147   9.85    475       -5.8
   03/11/2019 04:10      40.9      40.2       95     39.1      0.00     18.60      55.9     0.52      1013.8     0.2      SE   146   0.8     SSE   150   9.85    486       -6.2
   03/11/2019 04:00      41.5      40.5       95     39.6      0.00     18.60      55.9     0.52      1013.9     0.5     SSE   151   1.0      SE   145   9.85    486       -6.0
   03/11/2019 03:50      41.6      41.1       95     40.0      0.00     18.60      55.9     0.52      1013.9     0.3     SSW   191   1.1     SSW   213   9.86    481       -5.5
   03/11/2019 03:40      41.7      41.0       95     40.1      0.00     18.60      55.9     0.52      1014.2     1.1     SSW   207   1.7      SW   215   9.86    476       -5.3
   03/11/2019 03:30      42.0      41.1       95     40.0      0.00     18.60      55.9     0.52      1014.4     0.2     SSE   165   0.7     SSE   165   9.86    470       -5.9
   03/11/2019 03:20      42.0      41.5       95     40.3      0.00     18.60      56.0     0.52      1014.5     0.0     SSE   164   0.6       S   169   9.86    464       -6.2
   03/11/2019 03:10      42.1      41.6       95     40.5      0.00     18.60      56.0     0.52      1014.6     0.3     SSE   156   0.9     SSE   155   9.86    456       -6.1
   03/11/2019 03:00      42.0      41.0       95     40.0      0.00     18.60      56.0     0.52      1014.7     0.4     SSE   160   1.4      SE   143   9.86    447       -6.5
   03/11/2019 02:50      42.3      41.6       95     40.5      0.00     18.60      56.0     0.52      1014.8     0.8     SSE   151   1.6     SSE   148   9.86    467       -6.2
   03/11/2019 02:40      42.9      42.0       94     40.7      0.00     18.60      56.0     0.52      1014.9     0.6     SSE   148   1.2     SSE   163   9.86    462       -6.5
   03/11/2019 02:30      42.9      42.3       95     41.2      0.00     18.60      56.0     0.52      1015.0     1.0      SE   145   1.7      SE   145   9.86    455       -6.6
   03/11/2019 02:20      43.3      42.1       94     41.1      0.00     18.60      56.1     0.52      1015.1     1.4     SSW   200   2.0      SW   216   9.86    446       -5.4
   03/11/2019 02:10      43.9      43.0       94     41.8      0.00     18.60      56.1     0.52      1015.1     0.4       S   173   1.7     SSW   197   9.86    438       -5.9
   03/11/2019 02:00      44.4      43.5       94     42.2      0.00     18.60      56.1     0.52      1015.1     0.3       S   171   0.9       S   175   9.86    431       -6.1
   03/11/2019 01:50      44.8      44.2       94     42.9      0.00     18.60      56.1     0.52      1015.1     0.0      SE   138   0.6      SE   146   9.86    425       -6.4
   03/11/2019 01:40      45.2      44.5       94     43.3      0.00     18.60      56.1     0.52      1015.2     0.2     SSE   158   0.8     SSE   159   9.86    417       -5.8
   03/11/2019 01:30      45.3      44.8       94     43.5      0.00     18.60      56.2     0.52      1015.2     0.0     SSE   157   0.9     SSE   155   9.86    409       -5.7
   03/11/2019 01:20      45.4      45.0       94     43.5      0.00     18.60      56.2     0.52      1015.2     0.3     SSE   166   0.9       S   172   9.86    400       -4.7
   03/11/2019 01:10      45.5      45.0       94     43.6      0.00     18.60      56.2     0.52      1015.3     0.0       S   178   0.9       S   178   9.86    411       -4.7
   03/11/2019 01:00      45.9      45.3       94     44.0      0.00     18.60      56.2     0.52      1015.3     0.3     SSE   162   1.2     SSE   159   9.86    408       -4.4
   03/11/2019 00:50      45.9      45.5       94     44.1      0.00     18.60      56.2     0.52      1015.4     0.0       N     0   0.0     SSW   209   9.86    404       -4.1
   03/11/2019 00:40      45.9      45.6       94     44.2      0.00     18.60      56.3     0.52      1015.4     0.6     SSW   206   1.2     SSW   198   9.86    399       -4.0
   03/11/2019 00:30      45.9      45.5       94     44.2      0.00     18.60      56.3     0.52      1015.5     0.4     SSE   163   1.3      SE   144   9.87    397       -4.5
   03/11/2019 00:20      45.8      45.4       94     44.0      0.00     18.60      56.3     0.52      1015.4     0.1      SE   146   1.1      SE   144   9.87    395       -4.2
   03/11/2019 00:10      45.9      45.4       94     44.1      0.00     18.60      56.3     0.52      1015.5     0.0     SSW   202   0.5     SSW   202   9.87    391       -3.8
   03/11/2019 00:00      45.9      45.6       94     44.2      0.00     18.60      56.3     0.52      1015.5     0.4       S   175   1.2      SE   145   9.87    388       -4.1
   03/10/2019 23:50      46.0      45.6       95     44.4      0.00     18.60      56.4     0.53      1015.5     1.5      SE   145   2.2     SSE   149   9.87    386       -4.1
   03/10/2019 23:40      45.9      45.5       94     44.1      0.00     18.60      56.4     0.52      1015.5     0.6     SSE   161   2.0      SE   139   9.87    383       -3.9
   03/10/2019 23:30      45.9      45.5       95     44.2      0.00     18.60      56.4     0.53      1015.6     0.3      SE   142   1.0      SE   144   9.87    380       -4.4
   03/10/2019 23:20      45.8      45.1       94     43.8      0.00     18.60      56.4     0.53      1015.6     0.5     SSE   151   1.1      SE   144   9.87    376       -4.7
   03/10/2019 23:10      45.5      45.1       94     43.8      0.01     18.60      56.4     0.53      1015.6     0.4     SSE   158   0.9       S   170   9.87    372       -5.0
   03/10/2019 23:00      45.3      45.0       94     43.5      0.00     18.59      56.4     0.53      1015.5     0.1     SSE   151   0.7     SSE   148   9.87    366       -4.6
   03/10/2019 22:50      45.3      44.9       94     43.5      0.00     18.59      56.4     0.53      1015.5     0.0      SE   145   0.7      SE   143   9.87    362       -4.6
   03/10/2019 22:40      45.2      44.2       94     43.2      0.00     18.59      56.5     0.53      1015.4     0.6     SSE   147   1.4      SE   139   9.87    358       -4.9
   03/10/2019 22:30      45.4      44.2       94     43.0      0.00     18.59      56.4     0.53      1015.3     0.4       S   176   1.5       S   178   9.87    380       -5.0
   03/10/2019 22:20      45.4      44.8       94     43.4      0.00     18.59      56.5     0.53      1015.2     0.2       S   169   0.7     SSE   163   9.87    379       -5.5
   03/10/2019 22:10      45.8      44.9       93     43.4      0.00     18.59      56.5     0.53      1015.2     0.0     SSE   153   0.5     SSE   153   9.87    375       -5.8
   03/10/2019 22:00      46.2      45.4       93     43.9      0.00     18.59      56.5     0.53      1015.2     0.4     SSE   168   0.9       S   177   9.87    370       -5.7
   03/10/2019 21:50      46.1      45.7       94     44.1      0.00     18.59      56.5     0.53      1015.1     0.7     SSE   159   1.3     SSE   156   9.87    364       -6.1
   03/10/2019 21:40      46.5      45.7       93     44.2      0.00     18.59      56.5     0.53      1015.1     0.7     SSE   168   1.4       S   183   9.87    357       -6.4
   03/10/2019 21:30      46.7      46.1       93     44.4      0.00     18.59      56.5     0.53      1015.0     0.1     SSE   165   0.6     SSE   160   9.87    350       -6.5
   03/10/2019 21:20      46.7      46.3       93     44.5      0.00     18.59      56.5     0.53      1015.0     0.1     SSE   166   0.7     SSE   169   9.87    342       -6.6
   03/10/2019 21:10      46.8      46.2       92     44.3      0.00     18.59      56.5     0.53      1014.9     0.6     SSE   165   1.6      SE   132   9.87    335       -6.6
   03/10/2019 21:00      46.8      46.4       92     44.4      0.00     18.59      56.5     0.53      1014.9     0.6       S   188   1.8     SSW   209   9.88    354       -6.5
   03/10/2019 20:50      47.5      46.6       92     44.7      0.00     18.59      56.5     0.53      1014.8     1.2       S   184   2.2       S   191   9.88    353       -6.3
   03/10/2019 20:40      47.6      47.2       92     45.1      0.00     18.59      56.5     0.53      1014.7     0.2     ENE    76   1.1     ENE    62   9.88    350       -7.1
   03/10/2019 20:30      47.6      47.1       91     44.8      0.00     18.59      56.5     0.53      1014.7     0.1       S   180   0.9       S   180   9.88    344       -7.1
   03/10/2019 20:20      47.6      47.0       90     44.6      0.00     18.59      56.5     0.53      1014.6     0.3      SE   136   1.3      SE   134   9.88    340       -8.0
   03/10/2019 20:10      47.3      46.8       89     43.9      0.00     18.59      56.5     0.52      1014.6     0.4     SSE   149   1.5     SSW   194   9.88    335       -8.3
   03/10/2019 20:00      47.9      46.9       89     44.0      0.00     18.59      56.5     0.52      1014.5     1.2     SSW   194   1.9     SSW   206   9.88    330       -7.8
   03/10/2019 19:50      48.0      47.5       89     44.5      0.00     18.59      56.5     0.52      1014.5     1.1     SSW   197   2.6      SW   222   9.88    328       -7.6
   03/10/2019 19:40      47.7      47.3       89     44.4      0.00     18.59      56.5     0.52      1014.4     2.1     SSW   214   3.0     SSW   203   9.88    324       -7.7
   03/10/2019 19:30      47.8      47.3       89     44.3      0.00     18.59      56.5     0.52      1014.3     1.4     SSW   204   2.7       S   174   9.89    322       -8.9
   03/10/2019 19:20      47.8      47.3       89     44.2      0.00     18.59      56.5     0.52      1014.3     1.0     SSE   158   2.6       S   189   9.89    317       -8.8
   03/10/2019 19:10      48.1      47.4       88     44.1      0.00     18.59      56.5     0.51      1014.2     1.3     SSW   202   2.9      SW   221   9.89    348       -7.7
   03/10/2019 19:00      48.3      47.8       88     44.7      0.00     18.59      56.5     0.51      1014.2     2.2     WSW   240   3.1     WSW   254   9.90    347       -4.7
   03/10/2019 18:50      48.2      47.7       89     44.8      0.00     18.59      56.5     0.51      1014.3     1.7     WNW   286   3.5      NW   312   9.90    348       -3.4
   03/10/2019 18:40      48.2      47.6       89     44.8      0.00     18.59      56.4     0.51      1014.3     0.4     SSE   149   1.6     SSE   157   9.90    348        5.3
   03/10/2019 18:30      48.3      47.9       89     45.0      0.00     18.59      56.4     0.51      1014.2     0.8     ENE    63   2.3     ENE    63   9.91    380       20.2
   03/10/2019 18:20      48.4      47.8       89     44.9      0.00     18.59      56.3     0.51      1014.2     1.7      NE    54   3.0      NE    52   9.91    451       21.4
   03/10/2019 18:10      48.6      48.2       89     45.2      0.01     18.59      56.3     0.51      1014.2     2.7     NNE    12   6.0       N   354   9.91    400       11.4
   03/10/2019 18:00      48.5      48.1       88     44.8      0.04     18.58      56.3     0.51      1014.2     2.0     NNE    31   4.5       N   353   9.91    472        7.8
   03/10/2019 17:50      48.5      48.2       85     44.0      0.07     18.54      56.2     0.50      1014.1     0.4      NE    42   2.1      NE    54   9.87    482        9.0
   03/10/2019 17:40      50.7      48.3       79     42.9      0.08     18.47      56.2     0.50      1014.0     2.4     NNE    26   4.8     NNE    24   9.79    452        5.2
   03/10/2019 17:30      52.3      50.5       72     42.6      0.06     18.39      56.1     0.50      1013.9     2.3     NNE    25   5.4     NNE    17   9.73    505       -0.3
   03/10/2019 17:20      53.9      52.0       66     41.2      0.02     18.33      56.1     0.50      1013.7     1.9      NE    36   4.9       N     8   9.69    414        3.8
   03/10/2019 17:10      55.1      53.7       55     38.7      0.00     18.31      56.1     0.50      1013.6     2.8     NNE    23   7.3     NNE    12   9.68    421        9.4
   03/10/2019 17:00      55.3      54.7       50     36.7      0.00     18.31      56.0     0.50      1013.5     2.4     NNE    27   4.6       N     3   9.68    267        7.2
   03/10/2019 16:50      55.3      54.8       51     37.2      0.00     18.31      56.0     0.50      1013.5     2.9     NNE    30   5.1      NE    47   9.68    267       17.7
   03/10/2019 16:40      55.8      55.0       52     37.8      0.00     18.31      56.0     0.49      1013.4     2.9      NE    45   6.2     ENE    65   9.68    267       27.2
   03/10/2019 16:30      57.7      55.5       52     38.9      0.00     18.31      55.9     0.50      1013.3     3.9      NE    45   6.4      NE    40   9.68    267       68.4
   03/10/2019 16:20      58.5      57.5       50     39.3      0.00     18.31      55.9     0.49      1013.3     3.8     NNE    30   5.9       N     3   9.68    267      268.5
   03/10/2019 16:10      58.9      57.7       50     39.9      0.00     18.31      55.8     0.49      1013.2     3.9       W   267   8.3       W   260   9.68    267      349.1
   03/10/2019 16:00      58.7      57.0       54     41.3      0.00     18.31      55.8     0.49      1013.2     3.4     SSW   205   7.6     SSW   200   9.68    267      373.3
   03/10/2019 15:50      57.1      56.6       55     40.9      0.00     18.31      55.8     0.49      1013.1     4.6       S   183  10.3       S   186   9.68    268      252.7
   03/10/2019 15:40      57.7      56.5       55     41.2      0.00     18.31      55.7     0.49      1013.2     4.6       S   169   9.6       S   170   9.68    268      361.0
   03/10/2019 15:30      56.9      56.0       56     41.1      0.00     18.31      55.7     0.49      1013.3     4.3     SSE   154   8.4      SE   128   9.68    268      238.8
   03/10/2019 15:20      56.1      55.3       58     40.9      0.00     18.31      55.6     0.49      1013.3     5.6     SSE   155  10.5      SE   126   9.68    268      226.8
   03/10/2019 15:10      56.0      55.2       58     40.9      0.00     18.31      55.6     0.49      1013.3     5.6      SE   145  10.6     SSE   153   9.68    268      135.7
   03/10/2019 15:00      56.3      55.6       57     41.0      0.00     18.31      55.5     0.49      1013.3     5.4     SSE   161   9.6      SE   135   9.68    268      155.3
   03/10/2019 14:50      57.2      55.9       57     41.2      0.00     18.31      55.5     0.49      1013.4     4.8       S   173   8.5     SSE   158   9.68    267      246.8
   03/10/2019 14:40      57.2      55.6       49     37.4      0.00     18.31      55.5     0.49      1013.5     4.0       S   176   7.2     SSE   162   9.69    267      278.5
   03/10/2019 14:30      55.7      55.1       50     37.0      0.00     18.31      55.4     0.49      1013.5     4.0     SSW   195   9.9       S   187   9.69    267      174.3
   03/10/2019 14:20      55.4      54.9       54     39.0      0.00     18.31      55.4     0.49      1013.7     4.7     SSW   194   8.5     SSW   207   9.69    268      155.0
   03/10/2019 14:10      56.0      55.0       56     40.2      0.00     18.31      55.4     0.49      1013.7     4.3     SSW   203   7.4       W   269   9.69    268      104.6
   03/10/2019 14:00      57.9      55.7       53     39.6      0.00     18.31      55.3     0.49      1013.7     4.9       S   170  11.6       E   101   9.69    267       85.5
   03/10/2019 13:50      59.4      57.6       46     37.6      0.00     18.31      55.3     0.49      1013.8     2.1      SW   227   7.0       S   186   9.69    267       86.5
   03/10/2019 13:40      59.5      57.1       46     37.8      0.00     18.31      55.3     0.49      1013.9     3.6     WSW   243   7.7     WSW   257   9.69    266      647.9
   03/10/2019 13:30      57.8      56.0       50     38.2      0.00     18.31      55.2     0.49      1014.0     3.1     SSW   203   7.4     SSW   205   9.69    267      490.3
   03/10/2019 13:20      56.7      56.1       49     37.6      0.00     18.31      55.2     0.49      1014.0     2.4      SW   236   7.3     SSW   194   9.69    268       98.6
   03/10/2019 13:10      59.5      56.2       49     38.5      0.00     18.31      55.2     0.49      1014.0     2.4     SSW   196   5.8       S   171   9.69    267      104.0
   03/10/2019 13:00      59.6      56.1       47     37.5      0.00     18.31      55.2     0.49      1014.2     1.1       W   274   3.2     WSW   251   9.69    266      425.0
   03/10/2019 12:50      56.7      55.7       48     36.8      0.00     18.31      55.2     0.49      1014.3     2.5     WSW   249   5.9      SW   227   9.69    267      209.6
   03/10/2019 12:40      57.6      56.5       49     38.3      0.00     18.31      55.2     0.49      1014.4     3.5       W   259   7.5     SSW   211   9.69    266      496.5
   03/10/2019 12:30      57.5      55.5       51     38.4      0.00     18.31      55.1     0.49      1014.5     2.8     NNW   348   7.6     NNW   342   9.69    266      580.4
   03/10/2019 12:20      57.0      55.5       51     38.5      0.00     18.31      55.2     0.49      1014.6     1.6     NNW   331   4.9      NW   325   9.69    268      130.3
   03/10/2019 12:10      56.7      55.2       52     38.5      0.00     18.31      55.2     0.49      1014.6     2.1       N   351   5.1       W   272   9.69    267      405.3
   03/10/2019 12:00      56.5      54.4       53     38.8      0.00     18.31      55.1     0.49      1014.7     0.9     NNE    21   3.4      NW   319   9.69    267      427.1
   03/10/2019 11:50      54.5      53.7       58     39.8      0.00     18.31      55.2     0.49      1014.8     1.6       S   191   4.9       S   190   9.69    267      394.3
   03/10/2019 11:40      56.3      53.8       55     39.4      0.00     18.31      55.2     0.49      1014.8     2.4       W   261   5.3     WSW   242   9.70    267      257.1
   03/10/2019 11:30      56.1      53.6       57     39.8      0.00     18.31      55.2     0.49      1014.9     0.6     WNW   286   2.1     WSW   237   9.70    266      447.5
   03/10/2019 11:20      53.9      53.0       61     40.2      0.00     18.31      55.2     0.49      1015.0     1.6      SW   226   3.7      SW   233   9.70    267      266.1
   03/10/2019 11:10      54.1      53.4       58     39.1      0.00     18.31      55.3     0.49      1015.0     1.4     NNW   337   3.2      NE    39   9.70    267      377.9
   03/10/2019 11:00      53.8      52.5       58     39.0      0.00     18.31      55.3     0.49      1015.1     0.8       S   187   2.1      SW   218   9.70    267      456.3
   03/10/2019 10:50      52.5      51.0       63     39.5      0.00     18.31      55.3     0.49      1015.2     0.9       W   272   2.0      NW   311   9.70    267      352.1
   03/10/2019 10:40      51.3      50.2       65     39.5      0.00     18.31      55.3     0.49      1015.2     1.2      SW   222   2.9       S   182   9.70    268      252.7
   03/10/2019 10:30      50.4      49.7       65     38.8      0.00     18.31      55.3     0.49      1015.2     0.7     NNE    31   2.1     NNE    13   9.70    268      165.6
   03/10/2019 10:20      50.0      49.3       67     39.1      0.00     18.31      55.3     0.49      1015.3     0.8     NNW   341   2.1       N   350   9.70    269      121.5
   03/10/2019 10:10      49.5      48.8       68     39.1      0.00     18.31      55.4     0.49      1015.1     1.0     NNE    21   2.5     NNE    30   9.70    271      150.9
   03/10/2019 10:00      49.0      48.3       69     39.0      0.00     18.31      55.3     0.49      1015.1     0.9     ESE   107   2.7       E    94   9.70    276      113.6
   03/10/2019 09:50      48.8      48.1       71     39.4      0.00     18.31      55.3     0.49      1015.1     0.8     ENE    60   2.5      NE    39   9.70    279      100.0
   03/10/2019 09:40      48.2      47.8       71     39.0      0.00     18.31      55.4     0.49      1015.2     0.9      NE    36   2.4     ENE    67   9.70    282       89.3
   03/10/2019 09:30      48.0      47.3       73     39.3      0.00     18.31      55.4     0.49      1015.2     0.6      NW   317   1.7      NW   305   9.70    284       84.2
   03/10/2019 09:20      47.6      46.9       76     40.2      0.00     18.31      55.4     0.49      1015.2     0.9      NW   323   2.5      NW   310   9.70    286      102.1
   03/10/2019 09:10      47.1      46.4       79     40.7      0.00     18.31      55.5     0.49      1015.1     0.8      NW   308   2.4      NW   319   9.70    292      133.5
   03/10/2019 09:00      46.6      45.8       83     41.1      0.00     18.31      55.5     0.50      1015.0     1.6     WNW   292   3.9       W   275   9.70    307      151.4
   03/10/2019 08:50      45.9      44.9       85     41.3      0.00     18.31      55.5     0.49      1014.9     1.6       W   271   3.1     WSW   246   9.70    329      103.8
   03/10/2019 08:40      45.1      44.5       87     41.1      0.00     18.31      55.5     0.49      1014.8     0.5     WSW   254   1.9     WSW   255   9.70    340       64.2
   03/10/2019 08:30      44.8      44.1       88     41.3      0.00     18.31      55.5     0.50      1014.7     0.0       N     0   0.0       N     6   9.70    343       37.4
   03/10/2019 08:20      44.4      44.0       89     41.1      0.00     18.31      55.5     0.50      1014.7     0.0       N   359   0.4       N     0   9.70    344       27.4
   03/10/2019 08:10      44.2      43.5       90     41.0      0.00     18.31      55.6     0.49      1014.6     0.0       N     0   0.0     ESE   120   9.70    346       23.7
   03/10/2019 08:00      43.9      43.3       90     40.7      0.00     18.31      55.6     0.50      1014.5     0.0       N     0   0.0     ESE   120   9.70    347       16.8
   03/10/2019 07:50      43.6      43.0       90     40.5      0.00     18.31      55.6     0.50      1014.4     0.0       N     0   0.0     ESE   120   9.70    348       11.3
   03/10/2019 07:40      43.2      42.7       90     40.2      0.00     18.31      55.6     0.50      1014.3     0.1     SSE   153   1.0      SE   141   9.70    349        4.9
   03/10/2019 07:30      43.0      42.7       90     40.2      0.00     18.31      55.7     0.50      1014.3     0.0       N     0   0.0      NW   311   9.70    350       -2.6
   03/10/2019 07:20      42.9      42.5       90     40.0      0.00     18.31      55.7     0.50      1014.1     0.0      NW   311   0.4      NW   311   9.70    351       -5.6
   03/10/2019 07:10      42.9      42.5       91     40.1      0.00     18.31      55.7     0.50      1014.0     0.0       N     0   0.0     ENE    64   9.70    351       -8.0
   03/10/2019 07:00      42.7      42.3       91     40.1      0.00     18.31      55.7     0.50      1013.9     0.0       N     0   0.0     SSW   201   9.70    350       -9.5
   03/10/2019 06:50      42.6      42.1       91     39.9      0.00     18.31      55.7     0.50      1013.8     0.2     SSW   196   0.9     SSW   210   9.70    350       -9.9
   03/10/2019 06:40      42.5      42.0       91     39.8      0.00     18.31      55.8     0.50      1013.8     0.2     SSE   157   0.8      SE   142   9.70    350      -10.1
   03/10/2019 06:30      42.3      42.0       91     39.7      0.00     18.31      55.8     0.50      1013.8     0.4     SSE   154   1.1     SSE   149   9.70    349       -9.4
   03/10/2019 06:20      42.3      41.8       91     39.5      0.00     18.31      55.8     0.50      1013.8     0.4     SSE   166   1.3       S   175   9.70    349       -9.3
   03/10/2019 06:10      42.2      41.8       91     39.4      0.00     18.31      55.8     0.50      1013.7     0.6       S   179   1.5     SSW   192   9.70    348      -10.7
   03/10/2019 06:00      42.3      41.9       91     39.5      0.00     18.31      55.9     0.50      1013.6     0.2       S   189   0.8       S   188   9.70    346      -11.9
   03/10/2019 05:50      42.2      41.8       91     39.5      0.00     18.31      55.9     0.50      1013.6     0.0      SW   223   0.6      SW   223   9.70    345      -11.8
   03/10/2019 05:40      42.1      41.5       91     39.3      0.00     18.31      55.9     0.50      1013.5     1.1      SW   215   1.6     SSW   207   9.70    344      -10.2
   03/10/2019 05:30      41.9      41.5       91     39.2      0.00     18.31      55.9     0.50      1013.5     0.2     SSE   168   1.1       S   189   9.70    344      -12.1
   03/10/2019 05:20      41.8      41.5       91     39.1      0.00     18.31      56.0     0.50      1013.5     0.1     SSE   151   0.7     SSE   151   9.70    342      -13.1
   03/10/2019 05:10      41.9      41.3       91     39.1      0.00     18.31      56.0     0.50      1013.5     0.9     SSW   200   1.6     SSW   209   9.70    341      -12.4
   03/10/2019 05:00      42.0      41.3       91     39.1      0.00     18.31      56.0     0.50      1013.5     0.5     SSW   194   1.4     SSW   200   9.70    340      -14.2
   03/10/2019 04:50      42.2      41.7       91     39.5      0.00     18.31      56.0     0.50      1013.4     0.0     NNW   329   0.5       N   351   9.70    338      -15.5
   03/10/2019 04:40      42.1      41.5       91     39.4      0.00     18.31      56.1     0.50      1013.5     0.0      NW   323   0.6     NNW   330   9.70    336      -13.2
   03/10/2019 04:30      41.8      41.2       91     39.0      0.00     18.31      56.0     0.50      1013.6     0.0     SSE   163   0.6     SSE   158   9.70    335      -10.5
   03/10/2019 04:20      41.8      41.2       91     38.9      0.00     18.31      56.1     0.50      1013.7     0.2     SSE   155   0.6       S   170   9.70    334      -14.8
   03/10/2019 04:10      42.0      41.5       91     39.1      0.00     18.31      56.1     0.50      1013.8     0.1     SSE   162   0.7     SSW   192   9.70    332      -16.1
   03/10/2019 04:00      42.0      41.5       91     39.2      0.00     18.31      56.2     0.50      1013.9     0.0     SSW   192   0.7     SSW   192   9.70    329      -15.0
   03/10/2019 03:50      41.8      41.4       91     39.1      0.00     18.31      56.2     0.50      1013.9     0.2      SE   145   1.2      SE   142   9.70    327      -14.0
   03/10/2019 03:40      41.6      41.3       91     39.0      0.00     18.31      56.2     0.50      1014.1     0.6       S   183   1.3       S   188   9.70    326      -13.9
   03/10/2019 03:30      41.7      41.2       91     38.9      0.00     18.31      56.2     0.50      1014.2     0.4     SSE   162   1.3       S   183   9.70    325      -16.4
   03/10/2019 03:20      41.7      41.2       91     39.1      0.00     18.31      56.3     0.50      1014.3     0.9      SW   218   1.8     WSW   242   9.70    323      -16.9
   03/10/2019 03:10      41.4      41.0       91     38.9      0.00     18.31      56.3     0.50      1014.4     0.1     SSE   154   0.6     SSE   148   9.70    322      -17.1
   03/10/2019 02:00      41.5      41.1       92     39.0      0.00     18.31      56.3     0.50      1014.4     0.6     SSW   210   1.4      SW   234   9.70    321      -18.8
   03/10/2019 01:50      41.4      40.8       91     38.8      0.00     18.31      56.3     0.50      1014.5     0.3     SSE   163   1.0       S   176   9.70    319      -18.3
   03/10/2019 01:40      41.0      40.7       91     38.4      0.00     18.31      56.3     0.50      1014.5     0.3     SSE   152   0.9     SSE   149   9.70    317      -19.5
   03/10/2019 01:30      41.2      40.4       91     38.3      0.00     18.31      56.4     0.50      1014.6     1.3       S   188   2.1     SSW   209   9.70    314      -22.5
   03/10/2019 01:20      41.4      40.9       91     38.6      0.00     18.31      56.4     0.50      1014.5     0.6       S   183   1.2      SW   218   9.70    312      -27.5
   03/10/2019 01:10      41.6      41.0       90     38.6      0.00     18.31      56.4     0.50      1014.5     0.5     SSE   167   1.5       S   177   9.70    307      -30.9
   03/10/2019 01:00      41.6      41.0       90     38.5      0.00     18.31      56.4     0.50      1014.7     0.5       S   181   1.2     SSW   198   9.70    305      -31.5
   03/10/2019 00:50      42.0      41.2       89     38.5      0.00     18.31      56.4     0.50      1014.8     0.2     SSE   155   0.8     SSE   155   9.70    302      -30.8
   03/10/2019 00:40      42.2      41.6       90     39.0      0.00     18.31      56.5     0.50      1014.9     0.5       S   180   1.2       S   184   9.70    300      -32.4
   03/10/2019 00:30      42.0      41.6       89     38.9      0.00     18.31      56.5     0.50      1014.9     0.2     SSE   161   1.0     SSE   161   9.70    298      -36.2
   03/10/2019 00:20      42.1      41.6       89     38.8      0.00     18.31      56.5     0.50      1014.9     0.3     SSE   164   0.8       S   169   9.70    295      -38.1
   03/10/2019 00:10      42.0      41.6       88     38.5      0.00     18.31      56.5     0.50      1014.9     0.6     SSE   162   1.7     SSW   192   9.70    293      -44.7
   03/10/2019 00:00      42.4      41.6       87     38.3      0.00     18.31      56.5     0.50      1014.9     0.9     SSE   168   2.1     SSW   198   9.70    289      -50.5
   03/09/2019 23:50      43.1      42.1       86     38.6      0.00     18.31      56.5     0.50      1014.9     1.0       S   181   2.5     SSW   199   9.70    286      -50.5
   03/09/2019 23:40      42.9      42.4       86     38.8      0.00     18.31      56.6     0.50      1015.0     0.9       S   190   1.8     SSW   200   9.70    283      -51.3
   03/09/2019 23:30      43.7      42.6       84     38.5      0.00     18.31      56.6     0.50      1015.0     0.2     SSE   168   0.9     SSE   151   9.70    281      -56.9
   03/09/2019 23:20      44.0      43.5       83     38.9      0.00     18.31      56.6     0.50      1015.0     0.1     SSE   158   0.7     SSE   164   9.71    277      -61.0
   03/09/2019 23:10      45.2      43.8       81     38.7      0.00     18.31      56.6     0.50      1015.1     0.5     SSE   151   1.0     SSE   166   9.71    272      -63.3
   03/09/2019 23:00      45.7      44.9       79     38.9      0.00     18.31      56.6     0.50      1015.1     0.5       S   190   1.5     SSW   192   9.71    270      -64.9
   03/09/2019 22:50      46.1      45.3       77     38.9      0.00     18.31      56.6     0.50      1015.0     1.4     SSW   199   1.9     SSW   208   9.71    271      -66.9
   03/09/2019 22:40      46.2      45.9       76     39.0      0.00     18.31      56.6     0.50      1015.0     1.5     SSW   196   2.1       S   190   9.71    271      -63.9
   03/09/2019 22:30      46.2      45.8       76     38.9      0.00     18.31      56.6     0.50      1015.1     1.5       S   186   2.5     SSW   201   9.71    271      -59.3
   03/09/2019 22:20      46.6      45.9       75     38.7      0.00     18.31      56.7     0.50      1015.2     1.5       S   175   2.9       S   176   9.71    270      -51.0
   03/09/2019 22:10      46.6      46.0       75     38.6      0.00     18.31      56.6     0.50      1015.2     1.9       S   185   2.9     SSW   204   9.71    270      -46.1
   03/09/2019 22:00      46.1      45.0       76     38.5      0.00     18.31      56.6     0.50      1015.1     2.0       S   182   2.8     SSW   200   9.71    271      -51.7
   03/09/2019 21:50      46.1      45.0       76     38.3      0.00     18.31      56.7     0.50      1015.1     0.8       S   170   2.0       S   175   9.71    271      -50.6
   03/09/2019 21:40      46.4      45.9       74     38.1      0.00     18.31      56.7     0.50      1015.1     0.6       S   169   2.0     SSW   191   9.71    271      -56.0
   03/09/2019 21:30      46.4      45.9       73     38.1      0.00     18.31      56.7     0.50      1015.1     1.5       S   185   2.8     SSW   197   9.71    270      -56.9
   03/09/2019 21:20      46.7      46.0       72     37.9      0.00     18.31      56.7     0.50      1015.0     1.1       S   184   1.7       S   176   9.71    270      -57.7
   03/09/2019 21:10      46.8      46.4       71     37.7      0.00     18.31      56.7     0.50      1014.9     0.5       S   185   1.2       S   188   9.71    270      -52.9
   03/09/2019 21:00      47.3      46.6       71     37.9      0.00     18.31      56.7     0.50      1015.0     1.0       S   186   1.9      SW   220   9.71    270      -52.3
   03/09/2019 20:50      47.7      46.8       70     37.9      0.00     18.31      56.7     0.50      1015.1     1.4       S   182   2.5       S   186   9.71    270      -57.3
   03/09/2019 20:40      47.6      47.3       70     38.0      0.00     18.31      56.7     0.50      1015.1     1.5     SSW   204   2.8      SW   217   9.71    269      -54.4
   03/09/2019 20:30      47.6      47.2       70     38.1      0.00     18.31      56.7     0.50      1015.1     0.6     SSW   196   1.4       S   178   9.71    269      -43.7
   03/09/2019 20:20      47.8      47.3       69     37.9      0.00     18.31      56.7     0.50      1015.1     1.6     SSW   198   2.5       S   187   9.71    269      -43.9
   03/09/2019 20:10      47.8      47.3       69     37.7      0.00     18.31      56.7     0.50      1015.1     1.7     SSW   211   3.3     SSW   211   9.71    269      -52.8
   03/09/2019 20:00      48.0      47.6       68     37.7      0.00     18.31      56.7     0.50      1015.1     2.0     SSW   207   3.0      SW   223   9.71    269      -63.4
   03/09/2019 19:50      48.6      47.8       67     37.6      0.00     18.31      56.7     0.50      1015.2     1.7     SSW   204   2.8      SW   235   9.71    269      -67.4
   03/09/2019 19:40      48.8      48.3       65     37.4      0.00     18.31      56.7     0.50      1015.3     1.7      SW   215   3.3      SW   217   9.71    269      -66.8
   03/09/2019 19:30      49.0      48.6       64     37.1      0.00     18.31      56.6     0.50      1015.3     2.5      SW   229   3.9     WSW   244   9.72    268      -68.7
   03/09/2019 19:20      49.5      48.7       62     36.7      0.00     18.31      56.6     0.50      1015.2     1.7      SW   224   3.8      SW   227   9.72    268      -69.5
   03/09/2019 19:10      49.7      49.3       61     36.4      0.00     18.31      56.6     0.50      1015.0     2.2     WSW   238   3.8     WSW   239   9.72    268      -54.4
   03/09/2019 19:00      49.6      49.2       60     35.9      0.00     18.31      56.6     0.50      1014.8     3.0     WSW   241   5.7      SW   223   9.72    268      -41.3
   03/09/2019 18:50      49.9      49.4       58     35.4      0.00     18.31      56.6     0.50      1014.8     3.3      SW   226   5.3      SW   233   9.72    268      -52.9
   03/09/2019 18:40      50.4      49.6       57     35.4      0.00     18.31      56.6     0.50      1014.8     3.5      SW   233   6.3     SSW   205   9.72    268      -66.2
   03/09/2019 18:30      50.6      49.9       57     35.5      0.00     18.31      56.5     0.50      1014.8     3.5     WSW   242   6.9     WSW   248   9.72    268      -67.7
   03/09/2019 18:20      51.0      50.3       56     35.4      0.00     18.31      56.5     0.50      1014.7     4.3      SW   235   7.2     WSW   241   9.72    268      -63.5
   03/09/2019 18:10      51.3      50.7       56     35.6      0.00     18.31      56.5     0.50      1014.5     3.4     WSW   236   6.9     WSW   237   9.72    268      -55.5
   03/09/2019 18:00      51.5      50.9       54     35.3      0.00     18.31      56.5     0.50      1014.4     4.2     WSW   238   7.5      SW   235   9.73    268      -54.4
   03/09/2019 17:50      52.0      51.2       53     34.9      0.00     18.31      56.5     0.50      1014.2     4.0      SW   226   6.9      SW   222   9.73    268      -49.1
   03/09/2019 17:40      52.8      51.9       51     34.4      0.00     18.31      56.5     0.50      1014.1     4.0      SW   229   6.7     SSW   209   9.72    268      -42.6
   03/09/2019 17:30      53.2      52.5       49     34.1      0.00     18.31      56.4     0.50      1014.1     3.2      SW   234   5.6       W   259   9.73    268      -28.7
   03/09/2019 17:20      53.5      52.8       48     34.0      0.00     18.31      56.4     0.50      1014.1     4.2     WSW   241   7.5      SW   230   9.73    268      -25.8
   03/09/2019 17:10      54.0      53.4       47     34.1      0.00     18.31      56.4     0.50      1014.0     5.0     WSW   241   8.5       W   261   9.73    267      -18.0
   03/09/2019 17:00      54.9      53.7       47     34.8      0.00     18.31      56.4     0.50      1014.1     4.4     WSW   238   8.9      SW   222   9.73    267        4.6
   03/09/2019 16:50      55.0      54.5       48     35.6      0.00     18.31      56.3     0.50      1014.1     3.7     SSW   214   6.7      SW   219   9.73    268       20.4
   03/09/2019 16:40      55.6      54.7       48     35.7      0.00     18.31      56.3     0.50      1014.1     3.2      SW   227   6.9     WSW   238   9.73    267       -2.6
   03/09/2019 16:30      56.0      55.4       47     35.6      0.00     18.31      56.3     0.50      1014.1     4.7      SW   229   7.1      SW   219   9.74    267       60.8
   03/09/2019 16:20      56.8      55.7       47     36.6      0.00     18.31      56.3     0.50      1014.2     4.7     SSW   213   9.6     WSW   253   9.74    267      132.4
   03/09/2019 16:10      56.5      55.5       49     37.0      0.00     18.31      56.2     0.50      1014.2     2.5      SW   216   5.2     SSW   201   9.74    268      154.9
   03/09/2019 16:00      55.9      55.4       49     36.9      0.00     18.31      56.2     0.50      1014.4     3.7       S   190   6.6      SW   222   9.74    267      108.1
   03/09/2019 15:50      55.8      55.3       51     37.6      0.00     18.31      56.2     0.50      1014.5     3.7     SSE   164   6.4     SSW   196   9.74    267       70.1
   03/09/2019 15:40      55.6      55.0       52     37.8      0.00     18.31      56.1     0.50      1014.6     3.8     SSE   158   6.5      SE   130   9.74    267       75.6
   03/09/2019 15:30      55.9      54.9       52     38.1      0.00     18.31      56.1     0.50      1014.4     4.6       S   183   8.3       S   181   9.74    268       21.8
   03/09/2019 15:20      56.8      55.6       52     38.7      0.00     18.31      56.1     0.50      1014.5     4.2       S   186   9.6     WSW   249   9.74    267       69.7
   03/09/2019 15:10      57.2      56.5       51     38.8      0.00     18.31      56.0     0.50      1014.6     4.8     SSW   200   8.6     SSE   168   9.75    267      187.7
   03/09/2019 15:00      58.0      56.6       51     39.2      0.00     18.31      56.0     0.50      1014.6     6.0       S   187  10.5       S   186   9.75    267      306.0
   03/09/2019 14:50      58.3      57.6       51     40.0      0.00     18.31      56.0     0.50      1014.5     5.2       S   181   9.3     SSW   208   9.74    267      354.4
   03/09/2019 14:40      58.7      57.3       52     40.6      0.00     18.31      56.0     0.50      1014.6     4.2       S   185   9.8       S   176   9.75    267      415.0
   03/09/2019 14:30      57.8      57.0       52     39.9      0.00     18.31      56.0     0.50      1014.7     5.6     SSW   194   9.8       S   180   9.75    267      436.6
   03/09/2019 14:20      58.1      56.4       53     40.1      0.00     18.31      55.9     0.50      1014.9     5.7       S   188   9.3       W   259   9.75    267      458.5
   03/09/2019 14:10      56.6      55.4       54     39.6      0.00     18.31      55.9     0.50      1015.1     4.7     SSW   195   7.4     SSW   198   9.75    267      223.1
   03/09/2019 14:00      58.4      56.4       53     40.4      0.00     18.31      55.9     0.50      1015.2     5.0       S   178  10.8       S   178   9.75    267      171.6
   03/09/2019 13:50      58.5      57.3       53     40.9      0.00     18.31      55.8     0.50      1015.2     4.6       S   191   9.5     SSE   153   9.75    267      577.5
   03/09/2019 13:40      57.5      55.8       55     40.0      0.00     18.31      55.8     0.50      1015.4     2.4      SW   215   4.4      SW   215   9.75    267      346.2
   03/09/2019 13:30      56.4      55.7       55     39.9      0.00     18.31      55.8     0.50      1015.4     3.3     SSW   195   7.6     WSW   250   9.75    268       95.7
   03/09/2019 13:20      56.4      55.8       53     39.0      0.00     18.31      55.7     0.50      1015.5     2.5     WSW   251   5.1      NW   319   9.75    268       78.1
   03/09/2019 13:10      56.4      55.6       52     38.7      0.00     18.31      55.7     0.50      1015.6     3.3     WSW   248   5.3      SW   229   9.75    268      115.2
   03/09/2019 13:00      56.5      55.9       52     38.7      0.00     18.31      55.7     0.50      1015.7     3.0       W   262   7.1     WSW   240   9.75    267      138.7
   03/09/2019 12:50      56.8      55.9       53     39.1      0.00     18.31      55.7     0.50      1015.9     2.7      SW   220   5.9     WSW   245   9.76    268      134.1
   03/09/2019 12:40      56.7      55.8       55     40.3      0.00     18.31      55.7     0.50      1016.0     2.0     WSW   248   4.5     NNW   339   9.76    267      204.3
   03/09/2019 12:30      56.7      55.7       56     40.9      0.00     18.31      55.6     0.50      1016.1     3.2       S   189   6.3       S   181   9.76    267      302.9
   03/09/2019 12:20      56.8      56.0       51     38.4      0.00     18.31      55.6     0.50      1016.2     2.2       S   172   4.6      SW   214   9.76    268      173.8
   03/09/2019 12:10      56.7      55.6       50     37.8      0.00     18.31      55.6     0.50      1016.3     1.7       E    84   4.5      SE   133   9.76    267      168.5
   03/09/2019 12:00      57.1      56.0       49     37.7      0.00     18.31      55.6     0.50      1016.5     1.6      SE   125   3.9     ESE   110   9.76    267      116.2
   03/09/2019 11:50      58.1      56.5       48     38.1      0.00     18.31      55.6     0.50      1016.8     2.7       E    83   5.3     ENE    77   9.76    267      290.5
   03/09/2019 11:40      57.2      56.1       51     38.6      0.00     18.31      55.6     0.50      1016.8     3.7       S   185   7.4     WSW   238   9.76    267      484.6
   03/09/2019 11:30      56.6      55.0       53     39.0      0.00     18.31      55.6     0.50      1016.9     3.5       E   101   6.5       E    91   9.76    267      532.2
   03/09/2019 11:20      56.6      55.2       54     39.3      0.00     18.31      55.6     0.50      1017.1     2.9       E    88   7.7     ENE    63   9.76    268      136.3
   03/09/2019 11:10      56.6      54.9       55     39.8      0.00     18.31      55.6     0.50      1017.2     1.8     NNW   331   4.2     WNW   290   9.76    267      415.3
   03/09/2019 11:00      55.8      54.2       56     39.9      0.00     18.31      55.6     0.50      1017.3     1.5     NNW   331   4.2     SSW   194   9.76    268      271.9
   03/09/2019 10:50      54.2      53.1       61     40.3      0.00     18.31      55.6     0.50      1017.4     0.5       W   267   3.0     SSE   156   9.76    268      153.9
   03/09/2019 10:40      53.2      52.3       64     40.7      0.00     18.31      55.7     0.50      1017.6     1.6      SW   230   4.2      SW   219   9.76    268       96.5
   03/09/2019 10:30      54.2      52.6       61     40.3      0.00     18.31      55.7     0.50      1017.6     2.5     SSE   161   6.4     SSE   163   9.76    268       54.5
   03/09/2019 10:20      55.6      53.9       58     40.4      0.00     18.31      55.7     0.50      1017.7     1.4     ESE   105   4.0      SE   135   9.76    268      125.4
   03/09/2019 10:10      56.0      54.7       59     41.3      0.00     18.31      55.7     0.50      1017.7     2.0     ENE    71   4.4      NE    55   9.76    267      392.7
   03/09/2019 10:00      55.1      54.0       60     40.9      0.00     18.31      55.7     0.50      1017.7     1.1     ESE   121   3.9     SSE   151   9.76    267      409.8
   03/09/2019 09:50      54.3      53.5       61     41.0      0.00     18.31      55.7     0.50      1017.8     0.9     ENE    76   2.9      NE    43   9.76    268      278.3
   03/09/2019 09:40      53.8      52.7       63     40.8      0.00     18.31      55.7     0.50      1017.9     1.3     NNE    33   4.1      NE    52   9.76    267      364.2
   03/09/2019 09:30      52.9      50.9       66     41.0      0.00     18.31      55.8     0.50      1017.9     0.7     NNE    30   2.8     NNW   339   9.77    268      336.6
   03/09/2019 09:20      52.0      50.8       66     40.2      0.00     18.31      55.8     0.50      1017.9     1.4     ENE    71   3.9      NE    53   9.77    269       64.9
   03/09/2019 09:10      52.0      50.8       65     40.0      0.00     18.31      55.8     0.50      1017.9     0.8     ENE    73   2.7     ESE   104   9.77    268      181.9
   03/09/2019 09:00      50.9      49.7       67     39.3      0.00     18.31      55.9     0.50      1017.9     0.2     ENE    64   1.3     NNE    13   9.77    269      143.7
   03/09/2019 08:50      50.6      49.5       65     38.4      0.00     18.31      55.9     0.50      1017.8     0.9      NE    36   2.9     ENE    63   9.77    268       66.8
   03/09/2019 08:40      50.5      49.5       63     37.8      0.00     18.31      55.9     0.50      1017.8     1.2     NNE    26   3.0       N     8   9.77    268      176.9
   03/09/2019 08:30      49.7      48.8       62     37.0      0.00     18.31      56.0     0.50      1017.7     1.2     NNE    29   2.8      NE    41   9.77    268      208.7
   03/09/2019 08:20      49.0      48.3       62     36.3      0.00     18.31      56.0     0.50      1017.6     1.0      NE    53   2.4      NE    41   9.77    268      117.5
   03/09/2019 08:10      48.8      48.0       62     36.1      0.00     18.31      56.0     0.50      1017.5     1.5      NE    34   3.3     ENE    57   9.77    269      216.0
   03/09/2019 08:00      48.3      47.5       62     35.6      0.00     18.31      56.0     0.50      1017.4     0.4      NE    42   1.5     ENE    57   9.77    269      127.2
   03/09/2019 07:50      47.8      46.7       65     36.3      0.00     18.31      56.1     0.50      1017.3     0.5      NE    43   1.5     ENE    62   9.77    270      104.9
   03/09/2019 07:40      46.7      45.6       71     37.2      0.00     18.31      56.1     0.50      1017.2     0.0       S   184   0.5       S   184   9.77    270       67.5
   03/09/2019 07:30      45.6      44.8       75     37.9      0.00     18.31      56.1     0.50      1017.1     0.6      SE   131   1.6      SE   137   9.77    271       63.9
   03/09/2019 07:20      44.9      43.5       80     38.2      0.00     18.31      56.1     0.50      1017.2     0.7     SSE   160   1.6     SSE   147   9.77    278       61.2
   03/09/2019 07:10      43.8      42.5       83     38.1      0.00     18.31      56.1     0.50      1017.1     1.3      SE   138   2.1      SE   139   9.77    291       42.2
   03/09/2019 07:00      42.7      41.8       84     37.8      0.00     18.31      56.2     0.50      1017.1     0.7      SE   140   1.9     SSE   156   9.77    305       24.1
   03/09/2019 06:50      42.0      41.5       84     37.4      0.00     18.31      56.2     0.50      1017.1     0.5      SE   125   1.4      SE   132   9.77    312       -2.2
   03/09/2019 06:40      41.7      41.1       85     37.1      0.00     18.31      56.2     0.50      1017.1     0.2     SSE   164   1.1     SSE   146   9.77    316        5.0
   03/09/2019 06:30      41.3      40.8       85     36.8      0.00     18.31      56.3     0.50      1017.0     0.0     SSE   164   0.6     SSE   166   9.77    320       -9.2
   03/09/2019 06:20      41.1      40.7       85     36.8      0.00     18.31      56.4     0.50      1016.9     0.0     SSE   149   1.0     SSE   149   9.77    322      -19.6
   03/09/2019 06:10      41.0      40.3       86     36.7      0.00     18.31      56.4     0.50      1016.8     0.1       S   184   0.9       S   184   9.77    323      -10.6
   03/09/2019 06:00      40.6      40.1       87     36.7      0.00     18.31      56.4     0.50      1016.8     0.0     SSW   197   0.6       S   187   9.77    326      -12.5
   03/09/2019 05:50      40.4      40.0       87     36.6      0.00     18.31      56.5     0.50      1016.9     0.0       N     0   0.0     ESE   117   9.77    328      -15.2
   03/09/2019 05:40      40.4      39.9       87     36.6      0.00     18.31      56.5     0.50      1016.9     0.3     SSE   150   1.1      SE   144   9.77    328      -18.1
   03/09/2019 05:30      40.4      40.0       88     36.7      0.00     18.31      56.5     0.50      1016.9     0.2       S   169   1.0     SSE   158   9.77    329      -29.0
   03/09/2019 05:20      40.6      40.1       88     36.8      0.00     18.31      56.5     0.50      1016.9     0.0     ESE   106   0.9       E   101   9.77    328      -19.7
   03/09/2019 05:10      40.4      40.0       88     36.9      0.00     18.31      56.6     0.50      1016.8     0.0     SSE   165   0.6     SSE   156   9.77    329      -23.1
   03/09/2019 05:00      40.3      39.8       88     36.7      0.00     18.31      56.6     0.50      1016.8     0.0     SSE   166   0.6     SSE   166   9.77    329      -18.3
   03/09/2019 04:50      40.0      39.6       88     36.6      0.00     18.31      56.6     0.50      1016.7     0.1     SSE   165   0.7       S   171   9.77    329      -23.2
   03/09/2019 04:40      39.8      39.1       89     36.3      0.00     18.31      56.7     0.50      1016.6     0.0       N     0   0.0       E    89   9.77    329       -9.2
   03/09/2019 04:30      39.3      38.4       89     35.8      0.00     18.31      56.7     0.50      1016.6     0.5      SE   137   1.4      SE   141   9.77    330       -6.0
   03/09/2019 04:20      38.6      37.9       89     35.3      0.00     18.31      56.7     0.50      1016.6     0.5       S   175   1.2     SSW   211   9.77    333      -15.9
   03/09/2019 04:10      38.2      37.6       88     34.7      0.00     18.31      56.8     0.50      1016.5     0.4     SSE   150   1.0     SSE   155   9.77    333      -26.7
   03/09/2019 04:00      38.3      37.7       87     34.5      0.00     18.31      56.8     0.50      1016.5     1.0     SSE   148   1.4     SSE   153   9.77    331      -39.9
   03/09/2019 03:50      38.4      37.9       87     34.6      0.00     18.31      56.9     0.50      1016.6     1.0     SSE   165   1.6       S   181   9.77    327      -42.1
   03/09/2019 03:40      38.4      37.9       86     34.4      0.00     18.31      56.9     0.51      1016.6     0.4     SSE   160   1.3     SSE   163   9.77    324      -44.2
   03/09/2019 03:30      38.7      38.0       86     34.3      0.00     18.31      56.9     0.51      1016.6     0.4      SE   146   1.4      SE   135   9.77    321      -45.9
   03/09/2019 03:20      38.6      37.9       86     34.3      0.00     18.31      56.9     0.51      1016.7     0.5     SSW   201   1.6      SE   141   9.77    319      -47.2
   03/09/2019 03:10      38.7      38.1       85     34.1      0.00     18.31      57.0     0.51      1016.8     0.4     SSE   151   1.6      SE   138   9.77    316      -48.9
   03/09/2019 03:00      38.8      38.4       84     34.1      0.00     18.31      57.0     0.51      1016.9     1.0     SSE   160   2.2       S   180   9.77    315      -50.2
   03/09/2019 02:50      38.8      38.3       83     33.7      0.00     18.31      57.1     0.51      1016.9     0.9       S   190   1.7     SSW   194   9.77    314      -51.2
   03/09/2019 02:40      38.8      38.4       82     33.5      0.00     18.31      57.1     0.51      1017.0     1.0       S   188   2.0      SW   229   9.77    312      -52.8
   03/09/2019 02:30      39.0      38.4       84     34.0      0.00     18.31      57.1     0.51      1016.9     0.3     SSW   194   1.9     WSW   246   9.77    312      -53.2
   03/09/2019 02:20      39.0      38.5       85     34.5      0.00     18.31      57.1     0.51      1016.8     0.8       S   183   1.3     WSW   237   9.77    311      -53.9
   03/09/2019 02:10      38.8      38.3       85     34.4      0.00     18.31      57.1     0.51      1016.9     0.0     SSE   163   0.7       S   177   9.77    310      -57.4
   03/09/2019 02:00      38.9      38.5       85     34.5      0.00     18.31      57.2     0.51      1016.9     0.4     SSE   156   0.9       S   181   9.77    308      -60.7
   03/09/2019 01:50      39.3      38.6       84     34.4      0.00     18.31      57.2     0.51      1016.9     0.0     SSE   148   0.6      SE   146   9.77    305      -64.3
   03/09/2019 01:40      39.8      38.9       82     34.1      0.00     18.31      57.2     0.51      1016.9     0.1      SE   142   1.0      SE   141   9.77    303      -67.2
   03/09/2019 01:30      40.1      39.5       80     34.1      0.00     18.31      57.2     0.51      1017.0     1.0      SE   142   1.8      SE   138   9.78    301      -69.2
   03/09/2019 01:20      41.2      39.9       77     33.8      0.00     18.31      57.3     0.51      1017.0     0.6     SSE   163   1.1     SSE   167   9.78    299      -69.0
   03/09/2019 01:10      41.8      41.0       73     33.4      0.00     18.31      57.3     0.51      1017.1     0.4     SSE   150   1.2      SE   129   9.78    299      -67.0
   03/09/2019 01:00      42.0      41.5       72     33.5      0.00     18.31      57.3     0.51      1017.0     0.9     SSW   207   2.0      SW   234   9.78    300      -58.5
   03/09/2019 00:50      42.6      41.2       72     33.6      0.00     18.31      57.3     0.51      1016.9     1.0     SSE   160   2.0     SSW   196   9.78    303      -51.8
   03/09/2019 00:40      43.4      42.3       69     33.4      0.00     18.31      57.4     0.51      1017.0     1.6      SW   216   3.4     WSW   245   9.78    306      -48.2
   03/09/2019 00:30      42.6      42.0       72     33.8      0.00     18.31      57.4     0.51      1017.0     0.6     SSW   192   2.3       W   277   9.78    313      -42.3
   03/09/2019 00:20      42.8      42.3       70     33.6      0.00     18.31      57.4     0.51      1016.9     1.0     SSE   155   1.9      SE   140   9.78    316      -39.9
   03/09/2019 00:10      42.8      42.1       71     33.9      0.00     18.31      57.4     0.51      1016.8     1.2     SSE   153   2.3     SSE   160   9.78    319      -37.3
   03/09/2019 00:00      42.3      41.8       78     35.5      0.00     18.31      57.5     0.51      1016.9     1.6     SSE   147   2.8      SE   137   9.78    324      -33.5
   03/08/2019 23:50      42.1      41.6       81     36.5      0.00     18.31      57.5     0.51      1017.2     1.1     SSE   148   2.1      SE   144   9.78    328      -30.9
   03/08/2019 23:40      43.0      41.8       84     37.7      0.00     18.31      57.5     0.51      1017.3     1.0     SSE   159   1.6       S   173   9.78    327      -29.7
   03/08/2019 23:30      43.0      42.5       85     38.5      0.00     18.31      57.5     0.51      1017.5     0.4     SSE   148   1.4      SE   140   9.78    325      -30.1
   03/08/2019 23:20      43.1      42.1       87     39.2      0.00     18.31      57.5     0.51      1017.6     1.4      SE   145   2.6      SE   136   9.78    322      -30.9
   03/08/2019 23:10      43.1      41.9       88     39.0      0.00     18.31      57.6     0.51      1017.6     1.0     SSE   156   2.4      SE   137   9.78    319      -31.7
   03/08/2019 23:00      43.0      42.1       88     39.4      0.00     18.31      57.5     0.51      1017.5     0.8     SSE   152   1.4     SSE   154   9.78    315      -33.0
   03/08/2019 22:50      43.1      42.3       88     39.5      0.00     18.31      57.6     0.51      1017.5     0.4     SSE   167   1.5     SSE   164   9.78    311      -35.0
   03/08/2019 22:40      43.1      42.4       88     39.5      0.00     18.31      57.6     0.51      1017.4     0.7       S   181   1.6       S   190   9.78    308      -36.9
   03/08/2019 22:30      43.5      42.7       88     39.7      0.00     18.31      57.6     0.51      1017.4     0.6     SSE   158   1.5     SSE   147   9.78    305      -39.6
   03/08/2019 22:20      43.7      43.1       88     39.9      0.00     18.31      57.6     0.51      1017.3     0.5     SSE   167   1.1      SE   146   9.78    301      -42.2
   03/08/2019 22:10      44.3      43.4       87     39.9      0.00     18.31      57.6     0.51      1017.3     0.2     SSE   158   0.8       S   176   9.78    297      -46.5
   03/08/2019 22:00      44.4      44.0       86     40.3      0.00     18.31      57.6     0.51      1017.3     0.6     SSE   152   1.6      SE   139   9.78    294      -50.4
   03/08/2019 21:50      44.3      43.4       86     40.1      0.00     18.31      57.6     0.51      1017.2     0.6     SSW   204   1.6      SW   219   9.78    292      -54.1
   03/08/2019 21:40      44.9      43.4       85     40.0      0.00     18.31      57.6     0.51      1017.0     0.8     SSE   150   1.6      SE   139   9.78    288      -58.7
   03/08/2019 21:30      45.0      44.5       85     40.4      0.00     18.31      57.6     0.51      1017.0     1.3       S   174   1.9     SSW   192   9.78    285      -60.7
   03/08/2019 21:20      45.3      44.6       84     40.4      0.00     18.31      57.6     0.51      1017.0     0.3      SE   143   1.3       S   180   9.79    282      -66.7
   03/08/2019 21:10      46.2      45.0       82     40.1      0.00     18.31      57.6     0.51      1017.0     0.1     SSE   161   1.3     SSE   162   9.79    279      -71.1
   03/08/2019 21:00      46.8      45.9       80     40.6      0.00     18.31      57.6     0.51      1016.9     0.5     SSE   150   1.6      SE   137   9.79    274      -72.0
   03/08/2019 20:50      46.7      46.2       80     40.7      0.00     18.31      57.7     0.51      1017.0     1.5       S   188   2.8     SSE   162   9.79    271      -70.8
   03/08/2019 20:40      46.7      46.3       80     40.7      0.00     18.31      57.6     0.51      1016.9     1.3     SSW   195   2.7       S   190   9.79    270      -71.2
   03/08/2019 20:30      48.1      46.6       77     40.4      0.00     18.31      57.6     0.51      1016.7     0.7     SSE   169   1.9       S   184   9.79    271      -71.8
   03/08/2019 20:20      48.0      47.6       76     40.7      0.00     18.31      57.6     0.51      1016.6     1.7     SSW   209   2.1     SSW   201   9.79    271      -70.6
   03/08/2019 20:10      48.6      47.6       76     40.6      0.00     18.31      57.6     0.51      1016.7     0.9     SSW   197   2.1     SSW   200   9.79    271      -70.6
   03/08/2019 20:00      49.4      48.3       73     40.6      0.00     18.31      57.6     0.51      1016.7     1.3       S   190   1.9     SSW   193   9.79    270      -72.0
   03/08/2019 19:50      49.4      49.0       73     40.7      0.00     18.31      57.6     0.51      1016.8     1.6     SSW   202   2.5     SSW   213   9.79    270      -72.8
   03/08/2019 19:40      49.8      49.0       72     40.7      0.00     18.31      57.6     0.51      1016.9     1.7     SSW   191   2.5     SSW   195   9.79    270      -74.3
   03/08/2019 19:30      50.1      49.5       71     40.6      0.00     18.31      57.6     0.51      1016.8     1.6     SSW   200   2.8     WSW   257   9.79    269      -75.6
   03/08/2019 19:20      50.3      49.9       70     40.6      0.00     18.31      57.6     0.51      1016.7     1.7      SW   230   4.4     WSW   245   9.80    269      -75.9
   03/08/2019 19:10      50.6      50.0       69     40.6      0.00     18.31      57.6     0.51      1016.8     2.4      SW   223   3.7     SSW   201   9.80    269      -74.1
   03/08/2019 19:00      51.0      50.4       68     40.6      0.00     18.31      57.6     0.51      1016.8     1.8      SW   229   2.9     WSW   252   9.80    269      -74.3
   03/08/2019 18:50      51.1      50.7       68     40.6      0.00     18.31      57.5     0.51      1016.9     2.6     WSW   238   5.2     WSW   255   9.80    269      -72.9
   03/08/2019 18:40      51.4      50.7       67     40.5      0.00     18.31      57.5     0.51      1016.7     3.4      SW   229   5.7     WNW   283   9.80    268      -73.4
   03/08/2019 18:30      51.5      51.0       66     40.4      0.00     18.31      57.5     0.51      1016.7     3.6      SW   229   6.3      SW   232   9.80    268      -71.4
   03/08/2019 18:20      52.0      51.2       65     40.2      0.00     18.31      57.5     0.51      1016.5     2.7      SW   220   6.1     SSW   213   9.80    268      -72.5
   03/08/2019 18:10      52.1      51.7       64     39.9      0.00     18.31      57.5     0.51      1016.5     4.1     WSW   237   6.8     WSW   240   9.80    268      -66.5
   03/08/2019 18:00      53.0      51.8       61     39.5      0.00     18.31      57.4     0.51      1016.3     3.6      SW   232   7.5      SW   227   9.80    268      -64.2
   03/08/2019 17:50      53.4      52.5       59     39.1      0.00     18.31      57.4     0.51      1016.3     4.1     WSW   237   6.3     WSW   248   9.80    268      -50.1
   03/08/2019 17:40      53.9      53.0       57     38.4      0.00     18.31      57.4     0.51      1016.2     4.9     WSW   240   7.4       W   276   9.81    268      -22.3
   03/08/2019 17:30      54.2      53.4       54     37.6      0.00     18.31      57.3     0.51      1016.2     5.6     WSW   237   9.7       W   259   9.81    268       -6.5
   03/08/2019 17:20      54.8      53.9       53     37.4      0.00     18.31      57.3     0.51      1015.9     5.9      SW   230  10.4      SW   236   9.81    267       23.4
   03/08/2019 17:10      55.6      54.5       52     37.7      0.00     18.31      57.3     0.51      1015.9     5.3     WSW   242   9.8      SW   231   9.81    267       43.7
   03/08/2019 17:00      55.4      54.5       52     37.8      0.00     18.31      57.2     0.51      1015.9     5.0       W   261   9.0     WSW   257   9.82    267       59.5
   03/08/2019 16:50      55.3      54.5       52     37.6      0.00     18.31      57.2     0.51      1015.8     6.1     WSW   237  10.8      SW   227   9.82    267       61.2
   03/08/2019 16:40      55.3      54.8       51     37.4      0.00     18.31      57.2     0.51      1015.7     5.4     WSW   249  10.2     WSW   243   9.82    267       77.1
   03/08/2019 16:30      55.5      54.7       51     37.3      0.00     18.31      57.1     0.51      1015.6     6.3      SW   234  12.2     WSW   240   9.82    267      103.8
   03/08/2019 16:20      56.1      55.3       50     37.4      0.00     18.31      57.1     0.51      1015.5     6.4     WSW   250  10.5     WSW   247   9.82    267      130.4
   03/08/2019 16:10      56.4      55.7       49     37.1      0.00     18.31      57.0     0.51      1015.6     5.8       W   259  11.2       W   264   9.83    267      156.9
   03/08/2019 16:00      56.3      55.7       49     37.4      0.00     18.31      57.0     0.51      1015.6     5.5     WSW   253   8.5       W   280   9.83    267      184.7
   03/08/2019 15:50      56.4      55.6       50     37.6      0.00     18.31      57.0     0.51      1015.7     6.6      SW   220  11.9     SSW   207   9.83    267      213.4
   03/08/2019 15:40      56.5      56.0       50     37.8      0.00     18.31      56.9     0.51      1015.7     5.5     WSW   240   9.0     WSW   247   9.83    267      242.6
   03/08/2019 15:30      56.6      56.0       49     37.3      0.00     18.31      56.8     0.51      1015.6     7.1     WSW   244  10.6     WSW   254   9.84    267      255.6
   03/08/2019 15:20      57.2      56.2       49     37.5      0.00     18.31      56.8     0.51      1015.6     5.5      SW   232  11.2     WSW   256   9.84    267      276.9
   03/08/2019 15:10      56.6      55.5       51     38.0      0.00     18.31      56.8     0.51      1015.7     6.9     WSW   241  11.2     WSW   252   9.84    267      333.1
   03/08/2019 15:00      56.2      55.3       51     37.6      0.00     18.31      56.7     0.51      1015.7     6.9     WSW   255  12.2     SSW   205   9.84    267      129.8
   03/08/2019 14:50      57.3      55.9       49     37.4      0.00     18.31      56.7     0.51      1015.6     7.1     WSW   248  11.6     WNW   299   9.84    267      162.2
   03/08/2019 14:40      58.1      57.1       45     36.6      0.00     18.31      56.7     0.51      1015.6     5.7     WSW   254  12.4     WSW   254   9.84    266      287.1
   03/08/2019 14:30      58.3      57.1       45     36.4      0.00     18.31      56.6     0.51      1015.4     4.9     WNW   288  11.2      SW   235   9.85    266      375.5
   03/08/2019 14:20      57.5      56.9       47     37.0      0.00     18.31      56.5     0.51      1015.3     6.0       W   264   9.2       W   277   9.85    267      282.0
   03/08/2019 14:10      58.1      56.8       46     37.0      0.00     18.31      56.5     0.51      1015.4     5.4     WSW   252   8.9       W   272   9.85    266      430.7
   03/08/2019 14:00      57.9      56.4       45     36.1      0.00     18.31      56.4     0.51      1015.5     6.0       W   267  10.5       W   272   9.85    266      272.3
   03/08/2019 13:50      58.1      57.1       44     35.8      0.00     18.31      56.4     0.51      1015.5     4.8     WSW   256  11.7     WSW   244   9.86    266      501.0
   03/08/2019 13:40      58.3      57.2       46     36.8      0.00     18.31      56.4     0.51      1015.4     5.9     WSW   251  11.2       W   261   9.86    266      495.2
   03/08/2019 13:30      57.8      56.5       44     35.4      0.00     18.31      56.3     0.51      1015.5     4.7     WSW   244   9.0     WSW   238   9.86    266      501.4
   03/08/2019 13:20      57.5      56.5       44     35.4      0.00     18.31      56.3     0.51      1015.6     4.9      SW   232   9.0     WSW   254   9.86    266      512.4
   03/08/2019 13:10      57.7      56.2       43     34.7      0.00     18.31      56.3     0.51      1015.7     4.4     WSW   241   8.3     WSW   243   9.86    266      512.9
   03/08/2019 13:00      57.1      56.1       43     34.6      0.00     18.31      56.2     0.51      1015.7     5.2     WSW   237   9.8     SSW   212   9.86    266      501.9
   03/08/2019 12:50      57.9      56.0       42     34.1      0.00     18.31      56.2     0.51      1016.0     5.7     WSW   255  10.3     WSW   237   9.86    266      513.2
   03/08/2019 12:40      57.9      56.5       43     35.2      0.00     18.31      56.2     0.51      1016.2     5.4     WNW   288  11.2       W   270   9.86    266      558.5
   03/08/2019 12:30      57.6      56.6       45     35.6      0.00     18.31      56.2     0.51      1016.3     5.8     WSW   249  10.7      SW   223   9.87    266      571.5
   03/08/2019 12:20      56.8      56.1       45     35.4      0.00     18.31      56.1     0.51      1016.3     6.0     WSW   247   9.8     WNW   284   9.87    266      596.2
   03/08/2019 12:10      57.2      55.9       45     35.4      0.00     18.31      56.1     0.51      1016.3     6.6       W   262  11.4       W   268   9.87    266      592.6
   03/08/2019 12:00      56.8      56.0       46     35.8      0.00     18.31      56.1     0.51      1016.4     4.6     WSW   248   7.3     SSW   204   9.87    267      328.6
   03/08/2019 11:50      57.1      56.2       45     35.4      0.00     18.31      56.1     0.51      1016.4     5.2     WSW   257  10.9     WSW   243   9.87    266      539.1
   03/08/2019 11:40      57.5      55.6       46     36.1      0.00     18.31      56.1     0.51      1016.4     4.1       W   277   8.3     WSW   249   9.87    266      617.7
   03/08/2019 11:30      56.0      55.5       48     36.3      0.00     18.31      56.1     0.51      1016.6     4.9     WSW   257   9.9     WSW   249   9.87    267      493.6
   03/08/2019 11:20      55.5      54.4       49     35.8      0.00     18.31      56.1     0.51      1016.7     5.1     WSW   253   9.3       W   268   9.87    267      555.1
   03/08/2019 11:10      56.1      54.7       47     35.8      0.00     18.31      56.2     0.51      1016.7     5.0       W   266   9.9       W   268   9.88    267      316.8
   03/08/2019 11:00      55.7      54.1       49     35.9      0.00     18.31      56.2     0.51      1016.7     4.7       W   275  10.4       W   266   9.88    266      570.0
   03/08/2019 10:50      54.4      53.9       50     35.8      0.00     18.31      56.2     0.51      1016.7     5.8      SW   230  10.5      SW   236   9.88    267      523.9
   03/08/2019 10:40      54.7      53.8       52     36.8      0.00     18.31      56.2     0.51      1016.8     5.1      SW   227   8.7      SW   219   9.88    267      440.5
   03/08/2019 10:30      54.6      53.6       54     37.7      0.00     18.31      56.3     0.51      1016.9     4.2      SW   217   8.7     SSW   211   9.88    267      506.7
   03/08/2019 10:20      54.4      53.6       54     37.6      0.00     18.31      56.3     0.51      1017.1     6.2      SW   223   9.9      SW   224   9.89    267      586.3
   03/08/2019 10:10      54.3      52.8       54     37.2      0.00     18.31      56.3     0.51      1017.2     5.1     WSW   244   8.3     WSW   244   9.89    267      564.8
   03/08/2019 10:00      52.8      52.1       54     36.3      0.00     18.31      56.3     0.51      1017.1     5.3     WSW   239  11.0      SW   217   9.89    268      372.9
   03/08/2019 09:50      52.5      51.9       56     36.8      0.00     18.31      56.4     0.51      1017.2     5.7     WSW   249   9.9     WSW   256   9.89    268      266.6
   03/08/2019 09:40      52.6      51.8       57     37.3      0.00     18.31      56.4     0.51      1017.2     4.9       W   268   9.3       W   265   9.89    268      257.0
   03/08/2019 09:30      52.7      51.8       59     38.1      0.00     18.31      56.4     0.51      1017.1     5.0       W   265   8.1     NNW   336   9.90    268      270.4
   03/08/2019 09:20      52.5      51.7       60     38.4      0.00     18.31      56.5     0.51      1017.2     5.3     WSW   258   8.6       W   264   9.90    268      332.5
   03/08/2019 09:10      52.5      51.5       59     38.2      0.00     18.31      56.5     0.51      1017.4     3.9       W   274   8.4     WSW   256   9.90    268      350.9
   03/08/2019 09:00      52.0      50.9       61     38.4      0.00     18.31      56.5     0.51      1017.4     4.7       W   272   8.1       W   259   9.90    268      297.5
   03/08/2019 08:50      51.1      50.3       62     38.2      0.00     18.31      56.5     0.51      1017.4     5.7       W   265   9.6       W   265   9.90    268      296.5
   03/08/2019 08:40      50.6      50.0       64     38.5      0.00     18.31      56.5     0.51      1017.3     6.3     WSW   240   9.8      SW   223   9.90    268      278.9
   03/08/2019 08:30      50.5      49.9       65     38.9      0.00     18.31      56.6     0.51      1017.1     5.6     WSW   242   8.3      SW   232   9.91    268      255.2
   03/08/2019 08:20      50.4      49.7       67     39.6      0.00     18.31      56.6     0.51      1017.0     4.4     WSW   243   7.2     WSW   251   9.91    269      229.2
   03/08/2019 08:10      49.8      49.2       68     39.5      0.00     18.31      56.6     0.51      1016.9     4.0       W   259   7.6     WSW   238   9.91    271      175.1
   03/08/2019 08:00      49.7      48.9       70     40.0      0.00     18.31      56.6     0.51      1016.9     3.1      SW   236   5.9      SW   217   9.92    271      174.1
   03/08/2019 07:50      49.0      48.6       71     39.8      0.00     18.31      56.7     0.51      1016.7     2.8     WSW   250   5.2     WSW   250   9.92    271      146.0
   03/08/2019 07:40      48.8      48.1       71     39.5      0.00     18.31      56.7     0.51      1016.7     2.4      SW   226   4.3      SW   226   9.92    271      116.7
   03/08/2019 07:30      48.3      47.8       72     39.5      0.00     18.31      56.8     0.51      1016.7     2.9      SW   232   5.3     WSW   246   9.92    271       87.2
   03/08/2019 07:20      48.0      47.2       73     39.2      0.00     18.31      56.8     0.51      1016.6     2.4     WSW   247   4.3     WSW   249   9.92    271       52.2
   03/08/2019 07:10      47.4      46.6       74     39.2      0.00     18.31      56.8     0.51      1016.5     2.4     WSW   237   4.1      SW   230   9.92    271       -4.5
   03/08/2019 07:00      46.9      45.6       76     39.1      0.00     18.31      56.8     0.51      1016.4     1.8      SW   231   4.2      SW   215   9.92    271      -36.9
   03/08/2019 06:50      45.8      45.0       78     38.8      0.00     18.31      56.9     0.51      1016.4     2.2     SSW   212   3.5      SW   214   9.92    271      -55.9
   03/08/2019 06:40      45.3      44.7       79     38.8      0.00     18.31      56.9     0.51      1016.5     2.5      SW   228   4.3      SW   222   9.92    271      -59.5
   03/08/2019 06:30      45.1      44.5       79     38.7      0.00     18.31      56.9     0.51      1016.5     2.4      SW   227   4.4     WSW   238   9.92    271      -63.6
   03/08/2019 06:20      45.1      44.8       79     38.8      0.00     18.31      56.9     0.51      1016.4     2.0     WSW   255   3.7       W   265   9.92    271      -67.0
   03/08/2019 06:10      45.1      44.5       80     38.8      0.00     18.31      57.0     0.51      1016.4     2.4      SW   228   3.8     WSW   236   9.92    271      -69.1
   03/08/2019 06:00      45.4      44.6       79     38.7      0.00     18.31      57.0     0.51      1016.3     1.7      SW   217   2.6     SSW   201   9.92    272      -69.6
   03/08/2019 05:50      45.8      45.2       77     38.8      0.00     18.31      57.0     0.51      1016.3     1.7     SSW   205   2.3      SW   232   9.93    272      -67.8
   03/08/2019 05:40      46.1      45.5       76     38.7      0.00     18.31      57.0     0.51      1016.3     1.7      SW   226   3.0      SW   232   9.93    271      -51.7
   03/08/2019 05:30      46.0      45.5       77     38.8      0.00     18.31      57.1     0.51      1016.2     1.8     SSW   214   3.5      SW   223   9.93    271      -61.2
   03/08/2019 05:20      46.2      45.5       77     38.9      0.00     18.31      57.1     0.51      1016.2     1.8     SSW   206   2.8     SSW   207   9.93    271      -67.8
   03/08/2019 05:10      46.9      46.0       75     39.0      0.00     18.31      57.1     0.51      1016.2     1.6       S   187   2.8       S   188   9.93    271      -51.9
   03/08/2019 05:00      46.7      46.2       75     38.9      0.00     18.31      57.2     0.51      1016.2     2.1      SW   219   3.9     WSW   251   9.93    271      -28.7
   03/08/2019 04:50      46.6      46.1       75     38.8      0.00     18.31      57.2     0.51      1016.1     1.7     SSW   211   3.5      SW   226   9.93    271      -29.7
   03/08/2019 04:40      46.7      46.2       74     38.6      0.00     18.31      57.2     0.51      1016.0     1.8      SW   225   3.1      SW   236   9.93    271      -40.6
   03/08/2019 04:30      46.9      46.4       73     38.5      0.00     18.31      57.3     0.51      1016.0     2.3     WSW   243   5.1       W   277   9.93    271      -50.0
   03/08/2019 04:20      47.3      46.6       73     38.5      0.00     18.31      57.3     0.51      1015.9     1.4       W   264   2.7       W   260   9.93    271      -43.5
   03/08/2019 04:10      47.1      46.8       72     38.5      0.00     18.31      57.3     0.51      1015.9     2.3     WSW   248   4.3     WSW   244   9.93    271      -29.7
   03/08/2019 04:00      47.1      46.4       72     38.3      0.00     18.31      57.3     0.51      1015.8     3.6     WSW   246   5.7     WSW   237   9.93    271      -31.9
   03/08/2019 03:50      46.7      46.2       73     38.3      0.00     18.31      57.3     0.51      1015.9     3.3      SW   225   7.4      SW   225   9.93    271      -46.3
   03/08/2019 03:40      46.5      45.9       74     38.4      0.00     18.31      57.4     0.51      1015.9     3.5      SW   224   7.5     SSW   200   9.93    271      -57.5
   03/08/2019 03:30      46.1      45.6       75     38.5      0.00     18.31      57.4     0.51      1015.9     2.7      SW   223   6.9     SSW   193   9.93    271      -61.2
   03/08/2019 03:20      45.8      45.2       78     38.9      0.00     18.31      57.5     0.51      1015.9     1.9     SSW   205   4.5     SSW   212   9.93    271      -68.7
   03/08/2019 03:10      46.1      45.5       78     39.3      0.00     18.31      57.5     0.51      1016.0     1.9     SSW   194   3.5     SSW   208   9.93    271      -71.2
   03/08/2019 03:00      46.0      45.6       80     40.0      0.00     18.31      57.5     0.51      1016.0     1.7     SSW   201   3.8      SW   233   9.93    271      -69.8
   03/08/2019 02:50      46.3      45.8       81     40.5      0.00     18.31      57.5     0.51      1016.1     1.8       S   187   4.5      SW   225   9.93    272      -63.5
   03/08/2019 02:40      46.1      45.8       82     40.8      0.00     18.31      57.5     0.51      1016.1     2.1     SSW   195   4.0     WSW   241   9.93    271      -57.5
   03/08/2019 02:30      46.1      45.6       82     40.7      0.00     18.31      57.6     0.51      1016.1     1.4     SSW   200   3.9      SW   215   9.93    272      -52.8
   03/08/2019 02:20      46.4      45.9       82     40.7      0.00     18.31      57.6     0.52      1016.1     1.4       S   189   2.8     SSW   201   9.93    272      -54.5
   03/08/2019 02:10      46.7      45.9       81     40.5      0.00     18.31      57.6     0.52      1016.1     1.2       S   189   2.1     SSW   207   9.93    272      -56.2
   03/08/2019 02:00      46.6      46.2       80     40.5      0.00     18.31      57.7     0.52      1016.0     1.4     SSW   192   3.4     SSW   207   9.93    271      -60.6
   03/08/2019 01:50      46.9      46.4       78     40.3      0.00     18.31      57.7     0.52      1016.1     2.6     SSW   193   5.1     SSW   212   9.93    271      -64.2
   03/08/2019 01:40      47.2      46.7       77     40.2      0.00     18.31      57.7     0.52      1016.1     3.2     SSW   195   5.7      SW   217   9.93    271      -69.9
   03/08/2019 01:30      47.5      46.8       76     40.0      0.00     18.31      57.8     0.52      1016.2     3.4     SSW   194   5.8       S   183   9.93    271      -71.9
   03/08/2019 01:20      47.5      47.1       76     40.0      0.00     18.31      57.8     0.52      1016.3     3.4     SSW   211   6.6      SW   236   9.93    271      -72.1
   03/08/2019 01:10      47.4      47.0       76     40.0      0.00     18.31      57.8     0.52      1016.3     3.3      SW   217   8.1      SW   214   9.93    271      -73.2
   03/08/2019 01:00      47.1      46.6       78     40.2      0.00     18.31      57.8     0.52      1016.2     3.0      SW   217   5.5      SW   219   9.93    271      -73.5
   03/08/2019 00:50      46.9      46.5       78     40.3      0.00     18.31      57.9     0.52      1016.3     2.9     SSW   213   6.0      SW   232   9.94    271      -73.0
   03/08/2019 00:40      47.0      46.6       79     40.4      0.00     18.31      57.9     0.52      1016.4     1.8     SSW   204   3.7      SW   215   9.94    271      -72.0
   03/08/2019 00:30      47.1      46.6       78     40.4      0.00     18.31      57.9     0.52      1016.3     1.9     SSW   195   2.8     SSW   205   9.94    271      -72.6
   03/08/2019 00:20      47.3      46.8       78     40.3      0.00     18.31      57.9     0.52      1016.4     2.2     SSW   194   4.3      SW   217   9.94    271      -71.1
   03/08/2019 00:10      47.5      46.9       76     40.1      0.00     18.31      58.0     0.52      1016.4     2.1     SSW   208   4.5      SW   228   9.94    271      -72.1
   03/08/2019 00:00      47.5      47.1       75     39.8      0.00     18.31      58.0     0.52      1016.4     2.5      SW   234   4.6      SW   236   9.94    273      -68.5
   03/07/2019 23:50      47.2      45.9       77     39.5      0.00     18.31      58.0     0.52      1016.3     1.9      SW   215   4.3     SSW   208   9.94    284      -49.6
   03/07/2019 23:40      46.3      45.4       79     39.6      0.00     18.31      58.0     0.52      1016.3     0.8       S   183   2.1     SSW   205   9.94    295      -41.0
   03/07/2019 23:30      46.1      45.5       80     40.0      0.00     18.31      58.1     0.52      1016.2     0.6     SSE   166   1.4     SSE   162   9.94    297      -39.9
   03/07/2019 23:20      46.1      45.6       81     40.3      0.00     18.31      58.1     0.52      1016.3     1.5       S   174   3.3     SSW   198   9.94    297      -40.5
   03/07/2019 23:10      45.9      45.0       84     40.8      0.00     18.31      58.1     0.52      1016.3     1.6       S   179   2.9       S   179   9.94    299      -31.2
   03/07/2019 23:00      45.3      44.2       88     41.3      0.00     18.31      58.1     0.52      1016.3     1.6       S   174   2.7       S   179   9.94    300      -38.6
   03/07/2019 22:50      44.4      43.9       89     41.0      0.00     18.31      58.1     0.52      1016.5     1.1       S   174   2.1       S   171   9.94    298      -42.8
   03/07/2019 22:40      44.3      43.7       89     41.0      0.00     18.31      58.1     0.52      1016.4     1.2       S   185   1.7       S   187   9.94    295      -47.6
   03/07/2019 22:30      44.6      43.9       88     40.8      0.00     18.31      58.2     0.52      1016.4     0.8     SSE   165   1.6     SSE   163   9.94    292      -53.3
   03/07/2019 22:20      45.8      44.3       86     41.1      0.00     18.31      58.2     0.52      1016.3     0.9     SSE   167   1.8     SSW   210   9.94    288      -57.0
   03/07/2019 22:10      46.3      45.5       85     41.8      0.00     18.31      58.2     0.52      1016.3     0.9       S   175   1.8       S   174   9.94    284      -61.5
   03/07/2019 22:00      46.8      46.0       84     41.9      0.00     18.31      58.2     0.52      1016.2     0.8       S   172   1.8       S   178   9.94    281      -65.7
   03/07/2019 21:50      46.8      46.5       84     42.1      0.00     18.31      58.2     0.52      1016.2     1.4       S   185   2.0       S   180   9.94    277      -67.5
   03/07/2019 21:40      47.7      46.5       82     41.7      0.00     18.31      58.2     0.52      1016.1     0.5     SSE   166   1.8       S   182   9.94    275      -70.8
   03/07/2019 21:30      48.1      47.5       80     41.9      0.00     18.31      58.2     0.52      1016.0     0.9       S   174   1.7       S   174   9.94    272      -71.9
   03/07/2019 21:20      48.2      47.8       79     41.9      0.00     18.31      58.3     0.52      1016.1     1.8     SSW   192   2.9     SSW   213   9.94    270      -73.4
   03/07/2019 21:10      48.5      47.8       79     41.9      0.00     18.31      58.2     0.52      1016.2     1.9       S   186   4.9      SW   221   9.95    271      -74.5
   03/07/2019 21:00      48.7      48.1       78     41.9      0.00     18.31      58.2     0.52      1016.2     1.3     SSW   192   2.8     SSW   196   9.95    270      -75.4
   03/07/2019 20:50      48.7      48.4       78     42.0      0.00     18.31      58.3     0.52      1016.2     1.5     SSW   200   3.4     SSW   202   9.95    270      -76.3
   03/07/2019 20:40      49.1      48.4       78     42.0      0.00     18.31      58.3     0.52      1016.2     2.0     SSW   209   3.3       S   180   9.95    270      -76.5
   03/07/2019 20:30      49.4      48.8       77     42.0      0.00     18.31      58.3     0.52      1016.2     2.8      SW   218   5.5     SSW   192   9.95    270      -76.6
   03/07/2019 20:20      49.5      49.1       76     42.0      0.00     18.31      58.3     0.52      1016.1     3.9      SW   231   6.5       W   259   9.95    270      -75.4
   03/07/2019 20:10      50.0      49.2       75     41.9      0.00     18.31      58.3     0.52      1016.0     4.0      SW   229   7.7     WSW   248   9.95    270      -75.1
   03/07/2019 20:00      50.2      49.5       74     41.8      0.00     18.31      58.3     0.52      1015.9     4.2      SW   229   7.8     WSW   252   9.95    270      -70.6
   03/07/2019 19:50      50.3      49.9       72     41.4      0.00     18.31      58.3     0.52      1015.9     5.3      SW   234   8.6     SSW   211   9.95    270      -60.6
   03/07/2019 19:40      50.5      49.9       72     41.3      0.00     18.31      58.3     0.52      1015.8     4.5     WSW   239   8.9      SW   233   9.95    270      -64.1
   03/07/2019 19:30      50.8      50.3       70     41.2      0.00     18.31      58.3     0.52      1015.8     5.1     WSW   237   8.3      SW   232   9.96    269      -66.6
   03/07/2019 19:20      51.0      50.5       70     41.3      0.00     18.31      58.3     0.52      1015.7     4.1     WSW   241   7.2     WSW   257   9.96    269      -65.7
   03/07/2019 19:10      51.1      50.7       70     41.6      0.00     18.31      58.3     0.52      1015.7     4.2      SW   231   8.2     SSW   202   9.96    269      -61.4
   03/07/2019 19:00      51.6      51.0       70     41.8      0.00     18.31      58.3     0.52      1015.6     4.7      SW   235  10.6     WSW   240   9.96    269      -63.6
   03/07/2019 18:50      52.0      51.3       70     41.9      0.00     18.31      58.3     0.52      1015.5     6.4     WSW   240  12.2     WSW   250   9.96    269      -62.4
   03/07/2019 18:40      52.0      51.6       69     41.8      0.00     18.31      58.3     0.52      1015.4     5.8     WSW   238   9.3     WSW   237   9.96    269      -57.5
   03/07/2019 18:30      52.5      51.8       68     41.7      0.00     18.31      58.2     0.52      1015.4     4.2     WSW   242   8.5     WNW   289   9.97    269      -55.2
   03/07/2019 18:20      53.0      52.2       65     40.9      0.00     18.31      58.2     0.52      1015.5     4.6     WSW   253   9.4      SW   234   9.97    269      -63.3
   03/07/2019 18:10      53.3      52.6       59     38.9      0.00     18.31      58.2     0.52      1015.3     5.5     WSW   242  10.3     SSW   202   9.97    268      -72.4
   03/07/2019 18:00      53.4      52.9       61     40.2      0.00     18.31      58.2     0.52      1015.2     5.0      SW   233   8.5      SW   232   9.97    268      -69.0
   03/07/2019 17:50      53.9      53.2       60     39.9      0.00     18.31      58.1     0.52      1015.2     5.3     WSW   245   9.1     WSW   254   9.97    268      -61.6
   03/07/2019 17:40      54.1      53.6       58     39.3      0.00     18.31      58.1     0.52      1015.2     4.3     WSW   246   7.1     WSW   239   9.97    268      -64.2
   03/07/2019 17:30      54.9      53.8       57     39.5      0.00     18.31      58.1     0.52      1015.3     5.2     WSW   240   8.7     SSW   213   9.98    268      -64.7
   03/07/2019 17:20      55.7      54.7       54     38.8      0.00     18.31      58.1     0.52      1015.2     5.0      SW   234   9.2      SW   227   9.98    268      -31.1
   03/07/2019 17:10      55.8      55.3       54     38.8      0.00     18.31      58.1     0.52      1015.2     5.4     WSW   251   8.2       W   273   9.98    268       -8.7
   03/07/2019 17:00      56.6      55.5       55     39.8      0.00     18.31      58.1     0.52      1015.3     6.0      SW   235   9.4     WSW   239   9.98    268       16.1
   03/07/2019 16:50      57.1      56.4       54     40.4      0.00     18.31      58.0     0.52      1015.3     5.4     WSW   252  10.5      NW   309   9.99    268       43.1
   03/07/2019 16:40      57.6      56.9       53     40.0      0.00     18.31      58.0     0.52      1015.3     5.7       W   260   9.1     WNW   286   9.99    268       72.5
   03/07/2019 16:30      58.2      57.2       51     39.7      0.00     18.31      58.0     0.52      1015.2     5.8     WSW   259  11.2     WSW   251   9.99    268      103.3
   03/07/2019 16:20      58.8      57.8       49     39.3      0.00     18.31      58.0     0.52      1015.2     5.4     WSW   256   9.9     WNW   302   9.99    268      130.2
   03/07/2019 16:10      59.1      58.3       47     38.7      0.00     18.31      58.0     0.52      1015.3     5.3     WSW   245   9.8       W   273   9.99    268      168.2
   03/07/2019 16:00      59.0      58.0       46     37.6      0.00     18.31      57.9     0.52      1015.4     4.7      SW   227  10.1     SSW   198   9.99    268      195.6
   03/07/2019 15:50      58.9      58.3       44     36.7      0.00     18.31      57.8     0.52      1015.5     5.7     WSW   241   9.6     SSW   205  10.00    267      228.8
   03/07/2019 15:40      59.7      58.6       43     36.8      0.00     18.31      57.8     0.52      1015.6     6.0     WSW   237  10.7     WSW   246  10.00    268      262.7
   03/07/2019 15:30      59.7      58.6       47     38.7      0.00     18.31      57.8     0.52      1015.5     4.7     WSW   245   8.1       W   280  10.00    268      273.6
   03/07/2019 15:20      58.8      57.4       50     39.6      0.00     18.31      57.8     0.52      1015.5     4.4     SSW   208   7.4      SW   219  10.00    268      192.9
   03/07/2019 15:10      58.6      57.1       53     40.8      0.00     18.31      57.7     0.52      1015.8     4.5     WSW   249   7.7       W   261  10.00    268      261.8
   03/07/2019 15:00      57.5      57.0       59     42.9      0.00     18.31      57.7     0.52      1015.9     3.8     WSW   247   7.1       W   264  10.00    268       97.2
   03/07/2019 14:50      57.8      57.0       59     43.2      0.00     18.31      57.7     0.52      1015.9     5.9       W   263   9.6     WNW   284  10.00    268       83.9
   03/07/2019 14:40      58.7      57.5       58     43.6      0.00     18.31      57.6     0.52      1016.0     5.8     WSW   241   9.8       W   262  10.01    268      225.5
   03/07/2019 14:30      58.4      57.5       59     43.7      0.00     18.31      57.6     0.52      1016.1     4.7      SW   227   8.9     WNW   282  10.01    268      213.1
   03/07/2019 14:20      58.1      57.4       60     43.9      0.00     18.31      57.6     0.52      1016.0     4.8       S   171   8.4       S   176  10.01    268      154.3
   03/07/2019 14:10      58.4      57.8       59     44.0      0.00     18.31      57.5     0.52      1016.0     4.8     SSE   162   9.9       S   172  10.01    268      156.3
   03/07/2019 14:00      58.9      58.1       57     43.4      0.00     18.31      57.5     0.52      1016.2     5.2       S   172   9.0       S   180  10.01    268      230.3
   03/07/2019 13:50      60.1      58.5       54     42.6      0.00     18.31      57.5     0.52      1016.4     4.4       S   188   8.5       S   183  10.02    268      137.3
   03/07/2019 13:40      60.9      59.9       52     42.8      0.00     18.31      57.4     0.52      1016.3     4.7     SSW   199   8.8     SSW   195  10.02    267      449.0
   03/07/2019 13:30      60.6      59.5       53     42.5      0.00     18.31      57.4     0.52      1016.2     4.0       S   185   6.4     SSW   213  10.02    268      503.9
   03/07/2019 13:20      60.3      59.5       54     42.9      0.00     18.31      57.4     0.52      1016.2     5.0       S   176   9.2     SSE   152  10.02    267      512.4
   03/07/2019 13:10      60.4      59.2       56     44.0      0.00     18.31      57.4     0.52      1016.4     5.0       S   191   8.7     SSW   212  10.02    268      524.6
   03/07/2019 13:00      59.8      59.2       54     43.0      0.00     18.31      57.4     0.52      1016.6     5.9     SSE   166  12.1       S   187  10.03    268      543.5
   03/07/2019 12:50      60.3      59.4       54     43.3      0.00     18.31      57.4     0.52      1016.8     5.7       S   174  12.4     SSW   200  10.02    268      584.3
   03/07/2019 12:40      61.1      59.8       53     43.3      0.00     18.31      57.3     0.52      1017.1     5.5     SSE   165  10.1     SSW   198  10.03    268      696.8
   03/07/2019 12:30      60.3      59.2       54     42.8      0.00     18.31      57.4     0.52      1017.2     3.7       S   177   9.1       S   182  10.02    268      526.3
   03/07/2019 12:20      59.8      58.1       54     42.8      0.00     18.31      57.3     0.52      1017.3     5.0     SSE   166  12.3      SE   137  10.02    268      780.9
   03/07/2019 12:10      59.4      57.8       55     42.5      0.00     18.31      57.3     0.52      1017.5     5.2     SSE   164  11.3       S   180  10.03    268      377.2
   03/07/2019 12:00      58.7      57.4       59     43.4      0.00     18.31      57.3     0.52      1017.7     3.0     SSW   201   5.1     SSW   207  10.03    269      323.3
   03/07/2019 11:50      59.3      57.5       59     44.0      0.00     18.31      57.2     0.52      1017.9     4.4      SW   214   7.1     SSW   211  10.03    269      250.1
   03/07/2019 11:40      60.4      58.5       59     45.2      0.00     18.31      57.3     0.52      1017.9     4.7     SSW   198   8.5       S   181  10.03    268      761.1
   03/07/2019 11:30      58.6      57.0       61     44.3      0.00     18.31      57.3     0.53      1018.0     4.2      SW   223   7.0     WSW   251  10.03    268      710.0
   03/07/2019 11:20      57.1      56.4       63     44.3      0.00     18.31      57.2     0.53      1018.0     3.9     SSW   207   6.1       S   174  10.03    269      343.5
   03/07/2019 11:10      56.8      56.3       64     44.6      0.00     18.31      57.3     0.52      1018.1     2.8     SSW   194   5.3      SW   217  10.03    269      210.0
   03/07/2019 11:00      56.7      55.7       65     44.6      0.00     18.31      57.3     0.53      1018.2     2.3     SSW   199   4.0     SSW   195  10.04    270      212.1
   03/07/2019 10:50      56.1      55.7       66     44.7      0.00     18.31      57.3     0.53      1018.4     2.6       S   175   5.4     SSW   196  10.04    269      182.9
   03/07/2019 10:40      56.1      55.3       67     44.9      0.00     18.31      57.3     0.53      1018.6     2.3       S   187   3.9       S   176  10.04    269      173.5
   03/07/2019 10:30      55.6      55.3       68     44.9      0.00     18.31      57.2     0.53      1018.5     3.5     SSW   203   6.0     SSW   208  10.04    269      162.5
   03/07/2019 10:20      55.6      55.0       68     45.0      0.00     18.31      57.3     0.53      1018.4     3.0     SSW   213   5.4      SW   218  10.04    270      147.7
   03/07/2019 10:10      56.9      55.2       66     44.7      0.00     18.31      57.3     0.53      1018.4     3.4      SW   226   5.6      SW   227  10.04    270      137.4
   03/07/2019 10:00      56.8      55.6       67     45.1      0.00     18.31      57.3     0.53      1018.3     2.0     WSW   244   6.8       S   179  10.04    269      303.7
   03/07/2019 09:50      56.9      55.8       68     45.8      0.00     18.31      57.3     0.53      1018.3     3.0     WSW   247   6.1      SW   222  10.04    269      326.6
   03/07/2019 09:40      55.8      54.8       69     45.1      0.00     18.31      57.3     0.53      1018.3     2.2      SW   227   4.7      SW   236  10.04    268      408.6
   03/07/2019 09:30      55.1      53.9       71     45.1      0.00     18.31      57.3     0.53      1018.3     2.9      SW   235   5.0      SW   218  10.04    269      392.0
   03/07/2019 09:20      54.2      53.7       72     45.0      0.00     18.31      57.3     0.53      1018.4     2.4       W   268   4.3       W   275  10.04    270      230.3
   03/07/2019 09:10      54.7      53.9       71     45.1      0.00     18.31      57.3     0.53      1018.5     2.3       W   264   3.6     WSW   256  10.04    270      185.4
   03/07/2019 09:00      54.7      53.2       73     45.3      0.00     18.31      57.4     0.53      1018.7     2.0     WSW   253   4.8       W   260  10.04    269      366.6
   03/07/2019 08:50      53.6      53.0       74     45.3      0.00     18.31      57.4     0.53      1018.6     2.6     WSW   241   4.9       W   268  10.04    270      198.6
   03/07/2019 08:40      53.3      52.6       76     45.4      0.00     18.31      57.4     0.53      1018.6     4.0     WSW   258   6.9      SW   224  10.04    270      246.3
   03/07/2019 08:30      53.0      52.5       77     45.7      0.00     18.31      57.4     0.53      1018.6     3.6     WSW   252   7.4       W   271  10.05    270      239.8
   03/07/2019 08:20      52.7      51.8       79     45.6      0.00     18.31      57.4     0.53      1018.5     4.2     WSW   237   6.9     WSW   248  10.05    270      255.9
   03/07/2019 08:10      52.2      51.6       80     45.8      0.00     18.31      57.4     0.53      1018.2     3.5     WSW   242   5.3     WSW   242  10.05    271      141.8
   03/07/2019 08:00      52.0      51.6       81     46.0      0.00     18.31      57.4     0.53      1018.3     4.0     WSW   244   6.0     WSW   257  10.05    271      130.2
   03/07/2019 07:50      52.1      51.8       81     46.1      0.00     18.31      57.4     0.53      1018.1     3.0     WSW   244   4.7      SW   230  10.05    272      104.8
   03/07/2019 07:40      51.9      51.3       81     45.9      0.00     18.31      57.5     0.53      1017.9     1.7     WSW   239   3.0      SW   222  10.05    272       91.6
   03/07/2019 07:30      51.5      51.1       80     45.4      0.00     18.31      57.5     0.53      1017.8     2.4     WSW   237   3.7     WSW   245  10.05    273       69.9
   03/07/2019 07:20      51.4      50.9       80     45.1      0.00     18.31      57.5     0.53      1017.8     2.5     WSW   240   4.1      SW   233  10.05    274       51.7
   03/07/2019 07:10      51.1      50.8       81     45.5      0.00     18.31      57.5     0.53      1017.7     2.4     WSW   246   3.6      SW   233  10.05    277       33.2
   03/07/2019 07:00      51.2      50.8       84     46.2      0.00     18.31      57.5     0.53      1017.6     1.8      SW   233   3.3     SSW   214  10.05    282       22.1
   03/07/2019 06:50      51.1      50.6       85     46.4      0.00     18.31      57.5     0.53      1017.5     1.1      SW   216   2.2      SW   225  10.06    285       16.1
   03/07/2019 06:40      51.0      50.3       88     47.2      0.00     18.31      57.5     0.53      1017.4     1.7     WSW   243   3.5      SW   230  10.06    288        9.1
   03/07/2019 06:30      50.6      50.3       90     47.7      0.00     18.31      57.6     0.53      1017.3     1.3     SSW   213   2.4     SSW   205  10.06    290        1.8
   03/07/2019 06:20      50.5      50.1       91     47.9      0.00     18.31      57.6     0.53      1017.1     0.6     SSW   208   1.4     SSW   207  10.06    292       -2.3
   03/07/2019 06:10      50.7      49.9       92     47.9      0.00     18.31      57.6     0.53      1017.0     1.0      SW   220   1.6     WSW   242  10.06    293       -3.5
   03/07/2019 06:00      50.6      50.1       92     48.3      0.00     18.31      57.6     0.53      1017.0     0.0     SSE   162   0.5     SSE   161  10.06    295       -3.5
   03/07/2019 05:50      50.5      50.1       92     48.1      0.00     18.31      57.6     0.53      1017.0     0.5     SSW   202   1.3     SSW   194  10.06    295       -3.9
   03/07/2019 05:40      50.3      50.0       93     48.2      0.00     18.31      57.6     0.53      1017.0     0.6     SSW   194   1.2       S   183  10.06    296       -3.8
   03/07/2019 05:30      50.7      50.0       93     48.4      0.00     18.31      57.6     0.53      1017.0     0.2     NNW   346   1.8      NW   313  10.06    296       -3.2
   03/07/2019 05:20      50.6      50.1       93     48.3      0.00     18.31      57.7     0.53      1017.0     0.2     SSE   153   1.1     SSE   147  10.06    298       -3.0
   03/07/2019 05:10      50.5      50.1       93     48.3      0.00     18.31      57.7     0.53      1016.9     0.0       N     0   0.0     SSE   155  10.06    299       -3.1
   03/07/2019 05:00      50.5      50.1       93     48.3      0.01     18.31      57.7     0.53      1016.8     0.0       N     0   0.0      SE   139  10.06    300       -3.2
   03/07/2019 04:50      50.4      49.9       93     48.0      0.00     18.30      57.7     0.53      1016.7     0.0     SSE   161   0.5     SSE   167  10.06    302       -3.3
   03/07/2019 04:40      50.1      49.9       92     47.8      0.00     18.30      57.7     0.53      1016.7     0.0      SE   139   0.8      SE   141  10.06    302       -3.5
   03/07/2019 04:30      50.2      49.8       92     47.7      0.00     18.30      57.8     0.53      1016.8     0.2      SE   129   0.9      SE   130  10.07    303       -3.7
   03/07/2019 04:20      50.3      49.9       92     47.6      0.00     18.30      57.8     0.53      1016.7     0.0       N     0   0.0     SSE   147  10.07    302       -4.5
   03/07/2019 04:10      50.5      50.0       92     47.8      0.00     18.30      57.8     0.53      1016.7     0.0       N     0   0.0     SSE   147  10.07    300       -4.5
   03/07/2019 04:00      50.3      50.0       92     47.9      0.00     18.30      57.8     0.53      1016.7     0.2     SSE   148   1.1     SSE   154  10.07    299       -4.0
   03/07/2019 03:50      50.3      49.9       92     47.8      0.00     18.30      57.8     0.53      1016.9     0.7     SSW   194   1.9       S   189  10.07    300       -3.9
   03/07/2019 03:40      50.2      49.8       92     47.7      0.00     18.30      57.8     0.54      1016.7     1.0       S   184   1.8       S   174  10.07    303       -3.7
   03/07/2019 03:30      50.0      49.5       92     47.5      0.00     18.30      57.8     0.54      1016.7     0.6     WSW   238   1.8       W   266  10.07    307       -3.5
   03/07/2019 03:20      49.8      49.2       92     47.1      0.00     18.30      57.9     0.54      1016.7     1.3     SSW   199   1.7     SSW   202  10.07    309       -3.6
   03/07/2019 03:10      49.7      49.2       92     47.0      0.00     18.30      57.9     0.54      1016.6     0.6       S   173   1.5     SSW   203  10.07    310       -3.7
   03/07/2019 03:00      49.5      48.9       91     46.6      0.00     18.30      57.9     0.54      1016.6     0.5       E    88   2.4     SSW   205  10.07    310       -3.5
   03/07/2019 02:50      49.7      49.0       89     46.2      0.00     18.30      57.8     0.54      1016.8     1.0      SE   136   2.2      SE   144  10.07    313       -3.8
   03/07/2019 02:40      49.7      49.2       89     46.3      0.00     18.30      57.9     0.54      1017.0     1.3     WSW   244   2.8      SW   228  10.08    318       -6.2
   03/07/2019 02:30      49.6      49.3       89     46.4      0.00     18.30      57.9     0.54      1017.1     3.1     SSW   202   4.5      SW   226  10.08    315       -6.5
   03/07/2019 02:20      49.7      49.1       90     46.5      0.00     18.30      57.9     0.54      1017.2     2.6     SSW   197   5.2     SSW   205  10.08    344       -6.5
   03/07/2019 02:10      49.7      49.2       91     46.8      0.00     18.30      57.9     0.54      1017.3     1.9       S   175   4.5       S   174  10.08    350       -6.9
   03/07/2019 02:00      50.3      49.4       91     47.2      0.00     18.30      58.0     0.54      1017.3     1.5     SSE   161   3.1     SSE   167  10.08    351       -6.6
   03/07/2019 01:50      50.4      49.9       92     47.8      0.00     18.30      58.0     0.54      1017.4     2.4       S   186   4.5     SSW   205  10.08    345       -6.1
   03/07/2019 01:40      50.9      49.9       92     48.1      0.00     18.30      58.0     0.54      1017.4     2.0     SSE   163   3.4       S   190  10.08    346       -6.3
   03/07/2019 01:30      51.0      50.6       92     48.5      0.00     18.30      58.0     0.54      1017.5     1.2     SSE   165   2.6     SSW   202  10.08    369       -6.2
   03/07/2019 01:20      51.5      50.7       92     48.9      0.00     18.30      58.0     0.54      1017.5     1.0       S   178   2.1       S   176  10.08    365       -5.9
   03/07/2019 01:10      51.7      51.2       92     49.2      0.00     18.30      58.0     0.53      1017.6     1.8     SSW   193   3.2     SSW   197  10.08    362       -5.3
   03/07/2019 01:00      51.9      51.3       93     49.5      0.00     18.30      58.0     0.53      1017.5     2.3     SSW   207   4.1      SW   232  10.08    366       -4.6
   03/07/2019 00:50      52.0      51.5       93     49.6      0.00     18.30      58.0     0.53      1017.5     2.0      SW   217   4.2     SSW   208  10.08    378       -4.1
   03/07/2019 00:40      52.0      51.6       93     49.6      0.01     18.30      58.0     0.53      1017.4     2.4      SW   226   5.7     SSW   191  10.08    435       -3.7
   03/07/2019 00:30      52.0      51.6       92     49.6      0.01     18.29      58.0     0.53      1017.4     2.4     SSW   202   4.2     SSW   209  10.07    420       -3.6
   03/07/2019 00:20      52.5      51.7       92     49.7      0.02     18.28      58.0     0.53      1017.4     2.7     SSW   203   4.6     SSW   200  10.06    414       -3.4
   03/07/2019 00:10      53.0      52.1       91     49.9      0.05     18.26      58.0     0.53      1017.5     3.0     SSW   193   5.9     SSW   204  10.05    485       -3.4
   03/07/2019 00:00      53.5      52.6       91     50.3      0.02     18.21      58.1     0.53      1017.4     2.7      SW   215   4.8     WSW   243  10.01    462       -3.9
   03/06/2019 23:50      53.6      53.0       91     50.7      0.00     18.19      58.0     0.53      1017.4     2.1     SSW   208   3.4     SSW   195  10.00    367       -3.8
   03/06/2019 23:40      53.8      53.5       91     51.2      0.00     18.19      58.1     0.53      1017.3     1.0      SW   224   3.1       S   191  10.00    387       -2.7
   03/06/2019 23:30      54.0      53.6       91     51.0      0.00     18.19      58.1     0.53      1017.3     0.7     SSW   194   2.0       S   185  10.00    360       -3.3
   03/06/2019 23:20      54.0      53.6       90     50.9      0.01     18.19      58.1     0.53      1017.3     0.4       S   189   1.5       S   178  10.00    426       -3.1
   03/06/2019 23:10      54.0      53.6       89     50.7      0.00     18.18      58.1     0.53      1017.4     1.7     SSW   193   3.0     SSW   206   9.99    412       -3.6
   03/06/2019 23:00      54.0      53.5       90     50.8      0.00     18.18      58.1     0.53      1017.3     1.8     SSW   201   3.0      SW   214   9.99    440       -3.8
   03/06/2019 22:50      53.8      53.5       90     50.9      0.00     18.18      58.1     0.53      1017.3     1.9     SSW   206   2.9     SSW   202   9.99    347       -3.1
   03/06/2019 22:40      53.8      53.5       91     50.9      0.00     18.18      58.1     0.53      1017.2     2.0     SSW   206   2.9     SSW   193   9.99    352       -3.2
   03/06/2019 22:30      53.9      53.5       91     51.1      0.00     18.18      58.1     0.53      1017.0     2.1       S   186   4.1       S   173   9.99    359       -3.8
   03/06/2019 22:20      54.0      53.5       92     51.3      0.00     18.18      58.1     0.53      1017.0     1.0     SSE   160   1.8     SSE   162   9.99    368       -3.5
   03/06/2019 22:10      53.8      53.5       93     51.5      0.00     18.18      58.1     0.53      1017.0     1.6     SSW   198   5.0      SW   224   9.99    373       -2.7
   03/06/2019 22:00      53.7      53.3       93     51.5      0.00     18.18      58.1     0.53      1017.0     1.4     SSW   206   3.0     SSW   197   9.99    363       -1.9
   03/06/2019 21:50      53.9      53.5       93     51.7      0.00     18.18      58.1     0.53      1017.0     1.0       S   177   2.0       S   182   9.99    354       -2.8
   03/06/2019 21:40      54.1      53.6       93     51.9      0.00     18.18      58.2     0.53      1016.9     0.9       S   172   1.7       S   181   9.99    354       -3.6
   03/06/2019 21:30      54.1      53.6       93     52.0      0.00     18.18      58.1     0.53      1016.9     0.6       S   176   1.6       S   172   9.99    368       -3.3
   03/06/2019 21:20      54.0      53.6       93     51.9      0.01     18.18      58.1     0.53      1016.8     0.4     SSE   165   1.1       S   178   9.99    378       -3.3
   03/06/2019 21:10      54.1      53.6       93     51.8      0.00     18.17      58.1     0.53      1016.9     0.1     SSE   153   0.7      SE   139   9.99    478       -2.9
   03/06/2019 21:00      54.3      53.8       93     52.0      0.00     18.17      58.1     0.53      1016.8     0.2     SSE   153   0.8      SE   144  10.00    389       -3.3
   03/06/2019 20:50      54.5      53.9       93     52.0      0.00     18.17      58.1     0.53      1016.7     0.0     SSE   165   0.5     SSE   155  10.00    393       -3.4
   03/06/2019 20:40      54.3      54.0       92     51.9      0.00     18.17      58.2     0.54      1016.7     0.6      SE   143   1.3      SE   135  10.00    397       -2.8
   03/06/2019 20:30      54.3      54.0       92     51.9      0.00     18.17      58.1     0.54      1016.6     0.0     SSE   165   0.5     SSE   164  10.00    394       -2.9
   03/06/2019 20:20      54.4      54.0       92     52.0      0.00     18.17      58.1     0.54      1016.5     0.2      SE   144   1.1      SE   138  10.00    395       -3.3
   03/06/2019 20:10      54.3      53.9       92     51.8      0.00     18.17      58.1     0.54      1016.4     0.6      SE   145   1.8      SE   138  10.00    396       -3.5
   03/06/2019 20:00      54.6      53.9       92     51.8      0.00     18.17      58.1     0.54      1016.3     0.3     SSE   167   0.9       S   183  10.00    393       -3.2
   03/06/2019 19:50      54.9      54.4       92     52.3      0.00     18.17      58.1     0.54      1016.2     0.8      SW   226   1.5     SSW   198  10.00    391       -3.6
   03/06/2019 19:40      55.0      54.5       92     52.3      0.00     18.17      58.1     0.54      1016.1     0.2      SE   140   1.1      SE   140  10.00    387       -3.5
   03/06/2019 19:30      55.0      54.7       91     52.2      0.00     18.17      58.1     0.54      1016.0     0.0       S   191   0.5       S   191  10.00    387       -3.7
   03/06/2019 19:20      55.4      54.8       91     52.4      0.00     18.17      58.1     0.54      1015.8     0.0       N     0   0.0     ESE   107  10.00    386       -3.9
   03/06/2019 19:10      55.6      55.0       90     52.4      0.00     18.17      58.1     0.54      1015.8     0.1       S   170   0.7       S   176  10.00    386       -4.0
   03/06/2019 19:00      55.9      55.2       89     52.4      0.00     18.17      58.1     0.54      1015.6     0.2      SE   129   0.9       S   177  10.01    379       -4.2
   03/06/2019 18:50      55.8      55.4       89     52.4      0.00     18.17      58.0     0.54      1015.5     0.4     SSE   167   2.3       S   180  10.01    378       -4.4
   03/06/2019 18:40      56.2      55.5       88     52.2      0.00     18.17      58.0     0.54      1015.5     0.3       S   190   1.4       S   189  10.01    383       -4.5
   03/06/2019 18:30      56.3      55.9       87     52.3      0.00     18.17      58.0     0.54      1015.5     0.7       S   188   2.2     SSW   206  10.01    399       -5.3
   03/06/2019 18:20      56.4      55.9       87     52.2      0.00     18.17      58.0     0.54      1015.4     1.0       S   178   3.2       S   183  10.01    363       -4.9
   03/06/2019 18:10      56.3      56.0       87     52.2      0.00     18.17      58.0     0.54      1015.4     1.6       S   177   3.5     SSW   209  10.01    273       -4.3
   03/06/2019 18:00      56.5      56.0       86     51.9      0.00     18.17      58.0     0.54      1015.3     1.0       S   171   2.3       S   181  10.01    272       -3.3
   03/06/2019 17:50      56.8      56.3       84     51.8      0.00     18.17      57.9     0.54      1015.2     1.6       S   187   3.8     SSW   210  10.01    272        1.1
   03/06/2019 17:40      56.9      56.4       84     51.9      0.00     18.17      57.9     0.54      1015.2     2.3       S   185   5.4      SE   127  10.01    272        9.8
   03/06/2019 17:30      57.2      56.6       85     52.2      0.00     18.17      57.9     0.54      1015.2     2.5       S   186   5.6       S   183  10.01    272       20.3
   03/06/2019 17:20      57.2      56.9       85     52.4      0.00     18.17      57.9     0.54      1015.0     1.8     SSW   192   4.6       S   173  10.02    272       40.5
   03/06/2019 17:10      57.4      56.9       85     52.5      0.00     18.17      57.9     0.55      1015.0     2.3       S   191   6.7     SSW   210  10.02    272       54.2
   03/06/2019 17:00      57.5      56.9       84     52.5      0.00     18.17      57.8     0.55      1014.9     3.3     SSW   193   7.4       S   172  10.02    274       53.0
   03/06/2019 16:50      57.5      57.1       86     53.2      0.00     18.17      57.8     0.55      1014.9     2.7     SSW   200   6.3     SSW   194  10.02    273       86.3
   03/06/2019 16:40      57.5      56.9       85     52.7      0.00     18.17      57.8     0.55      1014.9     3.0     SSW   195   6.9      SW   227  10.02    274       83.3
   03/06/2019 16:30      57.8      57.1       83     52.3      0.00     18.17      57.8     0.55      1014.9     4.5     SSW   206   6.8      SW   215  10.02    274       52.3
   03/06/2019 16:20      58.0      57.4       84     52.7      0.00     18.17      57.7     0.55      1014.8     5.5     SSW   204   8.5     SSW   212  10.03    274       64.8
   03/06/2019 16:10      58.0      57.5       86     53.5      0.00     18.17      57.7     0.55      1014.7     3.8     SSW   201   6.4     SSE   159  10.03    280       65.1
   03/06/2019 16:00      57.9      57.4       89     54.4      0.00     18.17      57.6     0.55      1014.7     3.6     SSW   192   8.7      SW   214  10.03    298      110.0
   03/06/2019 15:50      57.9      57.4       90     54.7      0.00     18.17      57.7     0.55      1014.6     2.7       S   185   4.7      SW   220  10.03    326       81.1
   03/06/2019 15:40      57.7      57.2       90     54.4      0.01     18.17      57.6     0.55      1014.5     3.3       S   177   6.8       S   188  10.04    359       87.7
   03/06/2019 15:30      57.9      57.3       89     54.4      0.00     18.16      57.6     0.55      1014.5     5.6       S   189   9.5       S   173  10.04    309       99.5
   03/06/2019 15:20      57.9      57.4       90     54.7      0.00     18.16      57.6     0.55      1014.4     3.9     SSE   156  10.7     SSE   159  10.04    344      138.7
   03/06/2019 15:10      58.0      57.4       89     54.5      0.01     18.16      57.6     0.55      1014.3     2.9     SSE   163   7.0       S   170  10.03    485       63.3
   03/06/2019 15:00      58.3      57.6       89     54.7      0.02     18.15      57.5     0.55      1014.2     3.7     SSE   160  14.1     SSW   197  10.03    428       90.0
   03/06/2019 14:50      58.5      57.9       89     55.0      0.02     18.13      57.5     0.55      1014.1     2.1     SSE   156   4.9       S   172  10.01    458      117.2
   03/06/2019 14:40      58.3      57.5       89     54.4      0.01     18.11      57.5     0.55      1014.1     5.2     SSE   167  13.3     SSE   156  10.00    452      189.7
   03/06/2019 14:30      58.3      57.9       89     54.7      0.00     18.10      57.5     0.55      1014.1     5.4     SSE   158  11.9      SE   130  10.00    422      210.2
   03/06/2019 14:20      58.2      57.7       90     55.0      0.00     18.10      57.5     0.55      1014.1     4.1     SSE   157   8.1     SSE   153   9.99    396      209.4
   03/06/2019 14:10      57.9      57.2       90     54.7      0.00     18.10      57.5     0.55      1014.1     4.8     SSE   163  10.3       S   178   9.99    334      217.4
   03/06/2019 14:00      58.2      57.2       89     54.3      0.02     18.10      57.4     0.55      1014.1     7.0     SSE   165  13.1     SSW   207   9.99    378      193.1
   03/06/2019 13:50      59.0      57.8       86     54.3      0.02     18.08      57.4     0.55      1014.2     4.2     SSE   155   8.2      SE   143   9.98    484      127.6
   03/06/2019 13:40      59.8      58.8       85     54.6      0.01     18.06      57.4     0.55      1014.2     3.7      SE   129   8.4     SSE   147   9.96    482      170.8
   03/06/2019 13:30      60.3      59.5       85     55.2      0.00     18.05      57.4     0.55      1014.2     3.2     ESE   118   8.1      SE   144   9.96    311      291.3
   03/06/2019 13:20      60.1      59.0       85     55.2      0.00     18.05      57.4     0.55      1014.3     2.9     ESE   114   5.4     ESE   114   9.96    300      349.3
   03/06/2019 13:10      59.2      58.8       85     54.5      0.00     18.05      57.4     0.55      1014.5     2.7       E    99   6.5      SE   140   9.97    303      290.8
   03/06/2019 13:00      59.1      58.3       85     54.2      0.00     18.05      57.5     0.55      1014.7     2.7     ESE   118   6.1      SE   141   9.97    302      234.0
   03/06/2019 12:50      59.2      58.5       86     54.7      0.00     18.05      57.4     0.56      1014.7     3.0       E    94   7.9     ESE   103   9.97    305      240.1
   03/06/2019 12:40      59.0      57.7       88     54.6      0.00     18.05      57.4     0.56      1014.8     2.3     ENE    78   4.9     NNE    31   9.98    332      380.5
   03/06/2019 12:30      58.2      57.5       88     54.2      0.00     18.05      57.4     0.56      1015.0     3.3     ESE   116   7.8      SE   145   9.98    330      339.8
   03/06/2019 12:20      58.2      57.0       90     54.6      0.00     18.05      57.4     0.56      1015.0     2.3       E    98   5.6      SE   125   9.99    310      456.8
   03/06/2019 12:10      57.5      56.6       90     54.1      0.00     18.05      57.4     0.56      1015.1     3.4     ESE   119   6.5      SE   144   9.99    427      360.6
   03/06/2019 12:00      57.7      56.6       91     54.5      0.00     18.05      57.4     0.56      1015.2     3.3      SE   128   6.3     SSE   146   9.99    437      528.9
   03/06/2019 11:50      56.9      55.6       91     53.5      0.01     18.05      57.5     0.56      1015.4     2.8     ESE   122   6.7      SE   127  10.00    470      373.7
   03/06/2019 11:40      56.1      55.4       91     52.9      0.00     18.04      57.4     0.56      1015.5     3.8      SE   126   8.1      SE   125  10.00    438      243.2
   03/06/2019 11:30      55.7      55.4       91     52.8      0.01     18.04      57.4     0.57      1015.4     2.3     ESE   117   6.1     SSE   155  10.01    402      125.2
   03/06/2019 11:20      55.5      55.0       91     52.7      0.00     18.03      57.5     0.57      1015.4     2.6       E   100   6.9      SE   142  10.01    463      156.6
   03/06/2019 11:10      55.5      55.0       92     52.9      0.00     18.03      57.5     0.57      1015.5     2.5     ESE   108   7.1      SE   141  10.01    440      150.5
   03/06/2019 11:00      55.2      54.1       92     52.3      0.00     18.03      57.5     0.57      1015.5     1.6     ENE    71   3.6      SE   125  10.02    401      224.0
   03/06/2019 10:50      54.8      54.1       92     52.1      0.01     18.03      57.5     0.57      1015.4     2.2     ENE    77   4.9     ENE    74  10.03    433      121.7
   03/06/2019 10:40      54.7      54.1       92     52.1      0.01     18.02      57.5     0.57      1015.4     2.7       E    96   5.0      SE   129  10.03    440       98.9
   03/06/2019 10:30      54.7      54.0       92     52.1      0.00     18.01      57.5     0.57      1015.4     2.6       E    91   6.8     ENE    75  10.04    437       84.3
   03/06/2019 10:20      54.3      53.7       93     51.8      0.01     18.01      57.5     0.57      1015.3     2.4     ESE   103   5.7      SE   141  10.04    432       64.2
   03/06/2019 10:10      54.0      53.6       93     51.7      0.01     18.00      57.6     0.57      1015.1     1.4     ENE    57   4.2     ESE   120  10.05    455       70.2
   03/06/2019 10:00      54.0      53.1       93     51.4      0.02     17.99      57.6     0.57      1015.0     2.0       E    81   4.7     ESE   115  10.05    456       99.6
   03/06/2019 09:50      53.5      52.8       93     51.0      0.01     17.97      57.6     0.57      1015.2     0.6     ENE    72   2.2      NE    44  10.04    461       60.4
   03/06/2019 09:40      53.2      52.7       93     50.8      0.01     17.96      57.6     0.57      1015.2     1.0     ENE    63   2.7     ENE    68  10.04    436       75.5
   03/06/2019 09:30      53.0      52.3       93     50.4      0.02     17.95      57.7     0.57      1015.3     0.7       E    87   2.1     SSE   151  10.04    474       49.3
   03/06/2019 09:20      52.9      52.4       93     50.5      0.00     17.93      57.7     0.57      1015.1     1.1     ENE    67   4.4      NE    44  10.04    493       39.5
   03/06/2019 09:10      53.3      52.5       92     50.6      0.02     17.93      57.7     0.57      1015.1     1.1       E    79   2.8     ESE   105  10.04    446       50.1
   03/06/2019 09:00      53.1      52.6       92     50.5      0.04     17.91      57.7     0.57      1015.1     1.7      NE    54   4.1     ENE    58  10.04    473       50.1
   03/06/2019 08:50      52.9      52.2       92     50.1      0.03     17.87      57.8     0.57      1015.2     1.6     WSW   247   4.2      SW   227  10.02    497       17.9
   03/06/2019 08:40      52.5      52.1       92     50.0      0.00     17.84      57.8     0.57      1014.2     3.6       E    92   9.2      NE    39  10.01    395       56.2
   03/06/2019 08:30      52.5      52.1       92     50.1      0.00     17.84      57.8     0.57      1013.7     2.7     ENE    79   7.9     ENE    76  10.02    425       62.4
   03/06/2019 08:20      52.4      52.0       92     49.9      0.03     17.84      57.9     0.57      1014.1     2.0       E    81   5.7       E    83  10.02    499       25.9
   03/06/2019 08:10      52.3      51.9       92     49.8      0.03     17.81      57.9     0.57      1014.3     1.9     ESE   114   5.4     ENE    59  10.01    480       12.7
   03/06/2019 08:00      52.1      51.8       93     49.8      0.01     17.78      57.9     0.57      1013.9     2.4      SE   139   5.8      SE   132   9.99    490        5.7
   03/06/2019 07:50      52.0      51.6       93     49.9      0.00     17.77      57.9     0.57      1013.5     3.5       E    84   6.0      SE   126  10.00    407       14.4
   03/06/2019 07:40      51.8      51.3       94     49.8      0.00     17.77      58.0     0.57      1013.0     3.6     ESE   101   7.9      SE   136  10.00    419       15.1
   03/06/2019 07:30      51.6      51.3       94     49.7      0.01     17.77      58.0     0.57      1013.1     3.7       E    81   7.4     ESE   115  10.02    410       20.2
   03/06/2019 07:20      52.0      51.4       94     49.9      0.01     17.76      58.0     0.57      1013.6     2.9     ESE   106   6.3       E    83  10.02    463        3.3
   03/06/2019 07:10      51.9      51.5       94     50.0      0.04     17.75      58.0     0.57      1013.7     1.2      NE    52   2.7     ENE    74  10.02    467        1.9
   03/06/2019 07:00      51.9      51.5       94     49.9      0.04     17.71      58.0     0.56      1014.0     0.3      NE    42   1.4      NE    39  10.00    491       -1.7
   03/06/2019 06:50      52.0      51.6       94     50.0      0.01     17.67      58.1     0.56      1013.4     0.7      NE    55   2.9      NE    54   9.98    461        0.5
   03/06/2019 06:40      52.1      51.6       94     50.0      0.02     17.66      58.1     0.56      1013.1     0.5       E    83   1.6     ENE    57   9.99    475        1.6
   03/06/2019 06:30      52.0      51.7       94     50.0      0.03     17.64      58.1     0.56      1013.3     0.5     ENE    65   2.2       E    85   9.99    488       -2.1
   03/06/2019 06:20      52.0      51.4       94     49.9      0.00     17.61      58.1     0.56      1013.2     0.2      NE    38   1.2      NE    45   9.99    458       -2.9
   03/06/2019 06:10      51.8      51.4       93     49.7      0.01     17.61      58.2     0.54      1013.2     0.0       N     0   0.0      NE    37  10.01    461       -3.1
   03/06/2019 06:00      51.9      51.4       93     49.7      0.03     17.60      58.2     0.52      1013.4     0.3       E    93   1.5     ENE    60  10.03    463       -3.0
   03/06/2019 05:50      51.9      51.4       93     49.7      0.01     17.57      58.2     0.51      1013.4     0.3      NE    55   1.8      NE    52  10.04    447       -3.0
   03/06/2019 05:40      51.9      51.5       93     49.7      0.04     17.56      58.3     0.51      1013.4     1.3     ESE   104   2.8      SE   137  10.07    462       -2.9
   03/06/2019 05:30      52.0      51.6       93     49.8      0.07     17.52      58.3     0.51      1013.3     1.4       W   261   3.1     WNW   284  10.08    469       -2.8
   03/06/2019 05:20      52.0      51.6       93     49.7      0.05     17.45      58.3     0.50      1013.0     1.1       E    83   3.2     ENE    73  10.05    485       -3.1
   03/06/2019 05:10      52.0      51.6       92     49.6      0.04     17.40      58.3     0.50      1013.5     1.6       S   176   4.1     SSW   192  10.01    470       -4.2
   03/06/2019 05:00      52.0      51.7       92     49.7      0.02     17.36      58.3     0.50      1012.6     1.2      SE   145   3.1      NE    56   9.99    457       -3.8
   03/06/2019 04:50      52.0      51.7       92     49.7      0.02     17.34      58.3     0.50      1012.9     1.8       S   175   3.9     SSW   208   9.97    439       -4.1
   03/06/2019 04:40      52.2      51.8       92     49.7      0.00     17.32      58.3     0.50      1012.2     1.5     ESE   117   3.1       E   100   9.96    435       -3.5
   03/06/2019 04:30      52.5      51.8       92     49.9      0.01     17.32      58.3     0.50      1012.4     0.5     ENE    74   2.5     ENE    63   9.95    446       -3.5
   03/06/2019 04:20      52.3      51.8       92     49.7      0.00     17.31      58.3     0.50      1012.5     0.8     ENE    56   1.6     ENE    57   9.95    368       -3.8
   03/06/2019 04:10      52.4      51.8       91     49.5      0.03     17.31      58.4     0.50      1012.9     1.2       S   187   3.6       S   178   9.95    446       -4.1
   03/06/2019 04:00      52.5      51.9       90     49.5      0.00     17.28      58.4     0.50      1012.6     1.3      SE   140   3.4     SSW   197   9.93    427       -4.1
   03/06/2019 03:50      52.7      52.1       89     49.3      0.01     17.28      58.4     0.50      1012.8     0.8       S   178   2.7       S   186   9.92    476       -4.4
   03/06/2019 03:40      52.7      52.4       89     49.4      0.00     17.27      58.4     0.50      1012.9     0.4       N     3   2.1     WNW   302   9.92    375       -4.4
   03/06/2019 03:30      53.1      52.4       88     49.3      0.00     17.27      58.4     0.50      1013.4     2.0      SW   231   4.6     WSW   242   9.92    347       -4.2
   03/06/2019 03:20      53.4      52.7       87     49.4      0.00     17.27      58.4     0.50      1012.3     1.8     NNW   331   3.9      SW   224   9.92    367       -4.6
   03/06/2019 03:10      53.5      53.0       86     49.1      0.03     17.27      58.4     0.50      1013.2     1.8     WNW   297   4.3      SW   223   9.92    374       -5.1
   03/06/2019 03:00      53.2      52.4       87     48.9      0.00     17.24      58.4     0.50      1012.9     1.9       W   281   6.7     WSW   238   9.90    313       -4.4
   03/06/2019 02:50      52.7      52.3       88     49.1      0.00     17.24      58.4     0.50      1012.7     0.8     WNW   286   1.8      NE    52   9.90    317       -4.3
   03/06/2019 02:40      52.7      52.2       89     49.4      0.00     17.24      58.4     0.50      1012.8     2.2     SSW   209   4.0     SSW   205   9.90    321       -4.1
   03/06/2019 02:30      52.9      52.5       89     49.4      0.00     17.24      58.5     0.50      1012.6     0.4      SE   133   1.4     SSE   154   9.90    331       -4.3
   03/06/2019 02:20      53.0      52.4       88     49.2      0.00     17.24      58.4     0.50      1012.7     0.8      SE   133   1.4      SE   146   9.90    307       -4.6
   03/06/2019 02:10      53.0      52.5       87     49.0      0.00     17.24      58.5     0.50      1012.6     0.0     ENE    75   0.8     ENE    68   9.90    302       -4.3
   03/06/2019 02:00      53.0      52.5       87     49.0      0.00     17.24      58.5     0.50      1012.7     0.2      NE    52   1.1     ENE    66   9.90    308       -4.4
   03/06/2019 01:50      52.7      52.4       87     48.7      0.00     17.24      58.5     0.50      1012.8     0.4     SSE   159   1.7       S   169   9.90    310       -4.4
   03/06/2019 01:40      52.7      52.4       86     48.5      0.00     17.24      58.5     0.50      1012.8     1.4       S   178   2.5       S   177   9.90    312       -4.6
   03/06/2019 01:30      53.0      52.4       86     48.5      0.00     17.24      58.5     0.50      1012.9     1.0     SSE   161   3.1     SSE   164   9.90    318       -4.7
   03/06/2019 01:20      53.3      52.6       82     47.7      0.00     17.24      58.5     0.50      1012.9     0.9     SSE   165   2.5       S   185   9.90    328       -5.4
   03/06/2019 01:10      53.5      53.0       81     47.6      0.00     17.24      58.5     0.50      1013.0     1.2      SW   215   4.4      SW   234   9.90    348       -5.6
   03/06/2019 01:00      54.0      53.2       79     47.2      0.01     17.24      58.5     0.50      1013.5     3.0      SW   214   5.6      SW   223   9.90    330       -6.2
   03/06/2019 00:50      54.1      53.5       80     47.8      0.00     17.23      58.5     0.50      1014.1     6.2     SSW   210  11.5     WSW   257   9.90    367       -6.3
   03/06/2019 00:40      54.0      53.3       84     49.0      0.00     17.23      58.5     0.50      1012.8     2.8     SSW   208   6.5      SW   231   9.89    319       -5.5
   03/06/2019 00:30      54.0      53.5       86     49.4      0.00     17.23      58.5     0.50      1013.0     2.7     SSW   193   6.2      SW   231   9.89    319       -5.2
   03/06/2019 00:20      54.0      53.6       87     50.1      0.01     17.23      58.6     0.50      1012.9     1.2      SW   231   3.7       W   263   9.89    312       -5.0
   03/06/2019 00:10      53.8      53.2       88     50.0      0.00     17.22      58.6     0.50      1013.2     3.1     WSW   251   4.9     WSW   257   9.89    315       -5.1
   03/06/2019 00:00      54.0      53.2       87     49.7      0.00     17.22      58.6     0.50      1012.8     2.1      SW   214   3.4      SW   230   9.89    336       -4.9
   03/05/2019 23:50      54.4      53.7       85     49.6      0.00     17.22      58.6     0.50      1012.9     0.5     ESE   120   1.7      SE   143   9.89    326       -6.3
   03/05/2019 23:40      54.6      54.0       84     49.6      0.00     17.22      58.6     0.50      1013.8     2.1      SW   224   4.0      SW   234   9.89    328       -5.9
   03/05/2019 23:30      55.2      54.4       83     49.5      0.00     17.22      58.6     0.50      1013.9     1.7      SW   236   4.0     WSW   239   9.89    329       -5.8
   03/05/2019 23:20      55.5      54.9       81     49.2      0.01     17.22      58.6     0.50      1014.2     1.8     WSW   254   4.6     SSW   212   9.89    356       -6.2
   03/05/2019 23:10      55.4      55.1       80     49.2      0.00     17.21      58.6     0.50      1014.3     1.9     WNW   295   4.4      NW   320   9.88    322       -5.9
   03/05/2019 23:00      55.6      55.0       80     49.2      0.00     17.21      58.6     0.50      1014.5     2.7     WNW   282   4.7      NW   310   9.88    315       -5.8
   03/05/2019 22:50      55.5      54.9       80     49.1      0.00     17.21      58.6     0.50      1014.0     2.9       W   273   5.3     WSW   257   9.88    314       -6.0
   03/05/2019 22:40      55.5      54.9       80     49.1      0.00     17.21      58.6     0.50      1013.5     0.3     NNW   339   1.6     NNW   343   9.88    322       -6.2
   03/05/2019 22:30      55.7      55.0       78     48.6      0.00     17.21      58.6     0.50      1013.8     0.8       E    89   3.0     ENE    69   9.88    332       -7.4
   03/05/2019 22:20      55.9      55.4       76     48.1      0.01     17.21      58.6     0.50      1014.1     2.5     ESE   123   6.8      SE   125   9.88    362       -7.7
   03/05/2019 22:10      56.3      55.7       76     48.4      0.00     17.20      58.6     0.50      1014.3     1.8       E    89   4.5      SE   135   9.88    365       -5.8
   03/05/2019 22:00      56.8      56.0       73     47.9      0.00     17.20      58.6     0.50      1014.3     2.6     ENE    59   5.7     ENE    78   9.88    324       -7.0
   03/05/2019 21:50      56.8      56.5       69     46.6      0.00     17.20      58.6     0.50      1014.2     2.6     ENE    76   5.9      SE   125   9.88    316       -7.0
   03/05/2019 21:40      56.8      55.7       69     46.2      0.00     17.20      58.6     0.50      1013.9     3.0     ENE    78   5.6      SE   142   9.88    329       -7.1
   03/05/2019 21:30      56.0      55.5       71     46.5      0.00     17.20      58.6     0.50      1013.9     2.5       E    84   7.4     ESE   108   9.88    305       -8.2
   03/05/2019 21:20      56.4      55.6       72     46.8      0.00     17.20      58.7     0.50      1014.7     1.7     ESE   101   4.0     ENE    61   9.88    313       -8.3
   03/05/2019 21:10      56.8      56.3       69     46.4      0.01     17.20      58.6     0.50      1015.2     1.7     SSE   149   4.0     WSW   254   9.88    323       -8.9
   03/05/2019 21:00      56.6      55.4       75     48.0      0.00     17.19      58.6     0.50      1014.7     2.2       S   176   4.6      SE   134   9.88    329       -8.3
   03/05/2019 20:50      55.9      55.1       83     50.4      0.00     17.19      58.6     0.50      1013.8     1.2       S   181   3.2      SW   218   9.87    366       -7.3
   03/05/2019 20:40      56.1      55.5       83     50.6      0.00     17.19      58.5     0.50      1013.5     0.6     ENE    72   1.9       E    94   9.87    323       -8.7
   03/05/2019 20:30      56.3      55.8       81     50.2      0.00     17.19      58.6     0.50      1014.0     1.8     WNW   283   5.1       W   259   9.87    323       -7.5
   03/05/2019 20:20      56.4      55.8       79     49.6      0.01     17.19      58.5     0.50      1013.5     1.2     NNE    30   2.5     NNE    32   9.87    346      -10.9
   03/05/2019 20:10      56.8      56.0       78     49.5      0.00     17.18      58.5     0.50      1013.9     0.9      NE    56   2.5     ENE    65   9.87    322      -11.2
   03/05/2019 20:00      57.2      56.5       75     49.0      0.00     17.18      58.5     0.50      1014.1     1.0       E    89   3.1       E    83   9.87    357      -20.7
   03/05/2019 19:50      57.3      56.8       74     48.9      0.00     17.18      58.5     0.50      1014.1     2.0     ESE   120   4.6       E    86   9.87    302      -19.2
   03/05/2019 19:40      57.4      56.9       75     49.1      0.00     17.18      58.5     0.50      1013.9     1.7     ENE    58   3.0      NE    51   9.87    270      -29.5
   03/05/2019 19:30      57.5      56.9       74     49.1      0.00     17.18      58.5     0.50      1014.5     1.9     ENE    65   4.3      NE    54   9.87    270      -25.3
   03/05/2019 19:20      57.4      56.9       75     49.4      0.00     17.18      58.5     0.50      1015.0     1.4      NE    36   2.5       N     7   9.87    270      -18.9
   03/05/2019 19:10      57.6      57.0       76     49.5      0.00     17.18      58.5     0.50      1014.7     1.2     ENE    71   4.9     ENE    78   9.87    270      -24.4
   03/05/2019 19:00      58.1      57.3       75     49.8      0.00     17.18      58.5     0.50      1014.6     1.9      NE    52   4.1      NE    45   9.87    270      -39.7
   03/05/2019 18:50      58.3      57.6       74     49.8      0.00     17.18      58.4     0.50      1014.8     2.0     ENE    56   3.5      NE    45   9.87    270      -46.9
   03/05/2019 18:40      59.0      58.1       72     49.4      0.00     17.18      58.4     0.50      1015.0     2.2     ENE    77   5.8       E    96   9.88    272      -39.5
   03/05/2019 18:30      59.8      58.7       69     49.0      0.00     17.18      58.4     0.50      1015.0     2.2     ENE    72   5.0     ENE    75   9.88    269      -48.4
   03/05/2019 18:20      60.1      59.4       63     47.3      0.00     17.18      58.4     0.50      1015.4     1.3     ENE    59   4.2      NE    54   9.88    269      -38.2
   03/05/2019 18:10      60.1      59.4       61     46.1      0.00     17.18      58.3     0.50      1015.4     0.8     NNE    12   2.5       N   353   9.88    268      -24.7
   03/05/2019 18:00      60.3      59.5       59     45.7      0.00     17.18      58.3     0.50      1015.0     0.7      NE    48   2.2      NE    53   9.88    268      -29.9
   03/05/2019 17:50      60.6      60.0       58     45.5      0.00     17.18      58.3     0.50      1015.2     1.5     NNW   344   2.9      NW   317   9.88    268      -29.8
   03/05/2019 17:40      60.7      60.3       58     45.5      0.00     17.18      58.3     0.50      1015.4     1.5     NNE    30   3.7       N     0   9.88    268      -20.9
   03/05/2019 17:30      60.7      60.3       60     46.7      0.00     17.18      58.2     0.50      1016.0     2.0      NW   320   4.6      NW   311   9.88    268      -13.7
   03/05/2019 17:20      60.6      60.2       62     47.2      0.00     17.18      58.2     0.50      1016.0     2.2     WSW   240   3.8      SW   236   9.89    268      -15.5
   03/05/2019 17:10      60.5      60.0       62     47.2      0.00     17.18      58.2     0.50      1015.7     2.1     SSW   211   3.5     SSW   201   9.89    268       -4.6
   03/05/2019 17:00      60.4      59.9       61     46.7      0.00     17.18      58.1     0.50      1015.3     2.4     SSW   205   3.5     SSW   196   9.89    268        2.0
   03/05/2019 16:50      60.8      60.0       60     46.4      0.00     17.18      58.1     0.50      1015.0     1.3     SSE   168   3.4     SSW   198   9.89    268        1.1
   03/05/2019 16:40      60.7      60.2       60     46.5      0.00     17.18      58.1     0.50      1014.9     0.1     ENE    76   1.0     ESE   102   9.89    268        4.6
   03/05/2019 16:30      60.5      60.2       61     46.7      0.00     17.18      58.1     0.50      1015.2     0.6     ESE   121   2.2       S   187   9.89    268       -2.7
   03/05/2019 16:20      60.5      59.5       63     47.6      0.00     17.18      58.0     0.50      1015.3     1.0     ESE   104   3.3     NNE    12   9.89    268       36.6
   03/05/2019 16:10      59.8      59.0       66     48.0      0.00     17.18      58.0     0.50      1015.6     1.8     ESE   115   3.6      SE   140   9.89    268       45.2
   03/05/2019 16:00      59.7      59.0       68     48.5      0.00     17.18      58.0     0.50      1015.8     1.2     ESE   121   3.2      SE   141   9.89    268       15.7
   03/05/2019 15:50      60.4      59.4       67     48.8      0.00     17.18      57.9     0.50      1016.1     1.3     ESE   104   3.1      SE   127   9.89    268       37.3
   03/05/2019 15:40      60.6      60.0       65     48.4      0.00     17.18      57.9     0.50      1016.2     1.8     NNW   335   3.7       W   276   9.89    268       83.2
   03/05/2019 15:30      60.4      58.7       68     48.7      0.00     17.18      57.9     0.50      1016.4     2.1     WNW   302   5.0     WSW   253   9.89    268      186.3
   03/05/2019 15:20      60.1      58.9       69     49.3      0.00     17.18      57.9     0.50      1016.9     4.3       W   271   9.6     WNW   301   9.89    268      107.2
   03/05/2019 15:10      60.0      59.2       68     49.0      0.00     17.18      57.8     0.50      1016.8     3.7     WNW   300   7.0     WNW   302   9.89    268      359.2
   03/05/2019 15:00      60.0      59.5       67     48.8      0.00     17.18      57.7     0.50      1016.7     3.2     WNW   303   7.0      NW   308   9.89    268       96.5
   03/05/2019 14:50      60.3      59.6       67     48.7      0.00     17.18      57.7     0.50      1016.3     3.3       W   263   7.4       W   265   9.89    268       74.0
   03/05/2019 14:40      60.6      60.0       67     49.3      0.00     17.18      57.7     0.50      1016.7     4.3     WNW   284   8.4       W   265   9.90    268       87.4
   03/05/2019 14:30      61.3      60.0       64     48.5      0.00     17.18      57.6     0.50      1016.9     6.1       W   262  10.8     WSW   238   9.90    268      161.9
   03/05/2019 14:20      61.6      60.8       55     44.8      0.00     17.18      57.6     0.50      1017.1     5.5     SSW   207   9.2      SW   214   9.90    267       87.5
   03/05/2019 14:10      62.7      61.4       50     43.4      0.00     17.18      57.6     0.50      1017.0     5.1      SW   230  10.1      SW   214   9.90    267       99.2
   03/05/2019 14:00      65.0      62.2       45     41.7      0.00     17.18      57.5     0.50      1016.7     6.7      SW   216  11.2      SW   229   9.90    267       18.9
   03/05/2019 13:50      65.7      64.8       37     38.2      0.00     17.18      57.5     0.50      1015.4     2.6     SSE   149   6.9     ESE   122   9.90    266      159.9
   03/05/2019 13:40      66.4      65.5       36     37.9      0.00     17.18      57.5     0.50      1015.1     2.6     ESE   115   6.2      SE   143   9.90    266      182.6
   03/05/2019 13:30      66.6      65.5       36     38.2      0.00     17.18      57.4     0.50      1015.1     3.5      SE   133   7.3      SE   136   9.90    266      278.8
   03/05/2019 13:20      66.3      65.7       33     35.8      0.00     17.18      57.4     0.50      1015.2     4.0      SE   136   8.6      SE   141   9.91    266      329.3
   03/05/2019 13:10      66.2      65.5       34     36.8      0.00     17.18      57.4     0.50      1015.4     3.6     SSE   150   6.8      SE   131   9.91    266      209.9
   03/05/2019 13:00      67.6      65.8       36     38.5      0.00     17.18      57.3     0.50      1015.6     4.6     SSE   155   8.7      SE   134   9.91    266      167.8
   03/05/2019 12:50      68.5      67.4       38     41.5      0.00     17.18      57.3     0.50      1015.4     2.1      SE   137   6.5     SSE   166   9.91    266      215.4
   03/05/2019 12:40      68.4      67.8       38     41.3      0.00     17.18      57.3     0.50      1015.4     1.7     ENE    59   3.3       E    83   9.92    266      187.3
   03/05/2019 12:30      68.0      67.0       39     41.6      0.00     17.18      57.3     0.50      1015.6     2.1     ENE    66   5.1     ENE    77   9.92    266      305.7
   03/05/2019 12:20      67.1      65.7       46     44.8      0.00     17.18      57.3     0.50      1016.0     2.2     SSW   212   4.0      SW   229   9.92    266      371.0
   03/05/2019 12:10      66.7      65.2       45     44.3      0.00     17.18      57.3     0.50      1016.1     1.3     SSE   165   2.7      SW   225   9.92    266      415.9
   03/05/2019 12:00      65.4      64.8       46     44.0      0.00     17.18      57.2     0.50      1015.9     2.0      NE    54   3.9      NE    55   9.92    267      353.9
   03/05/2019 11:50      65.0      64.4       47     44.2      0.00     17.18      57.3     0.50      1016.1     1.6      NE    37   3.6       N   350   9.92    267      245.2
   03/05/2019 11:40      64.6      64.0       50     45.1      0.00     17.18      57.2     0.50      1016.3     0.7     SSW   196   2.0     SSW   206   9.93    267      215.0
   03/05/2019 11:30      64.1      63.6       50     44.7      0.00     17.18      57.3     0.50      1016.5     1.4     WNW   291   2.8      NW   323   9.93    267      221.4
   03/05/2019 11:20      64.0      63.5       50     44.7      0.00     17.18      57.2     0.50      1016.5     1.5       N   353   3.0      NW   306   9.93    267      206.4
   03/05/2019 11:10      63.8      63.3       50     44.7      0.00     17.18      57.3     0.50      1016.7     0.6     WNW   297   2.1     WSW   258   9.93    267      168.7
   03/05/2019 11:00      64.8      63.5       51     45.8      0.00     17.18      57.2     0.50      1016.8     1.2     NNE    32   2.7     NNE    21   9.93    267      222.2
   03/05/2019 10:50      64.6      62.7       51     45.4      0.00     17.18      57.3     0.50      1016.7     1.0     WNW   290   2.6      SW   227   9.93    266      518.0
   03/05/2019 10:40      62.9      61.8       53     44.9      0.00     17.18      57.3     0.50      1016.4     1.0       N     3   3.2     NNE    16   9.94    267      298.6
   03/05/2019 10:30      62.2      61.1       54     44.9      0.00     17.18      57.3     0.50      1016.3     1.2      NE    36   3.4     ESE   105   9.94    267      283.6
   03/05/2019 10:20      61.5      61.0       54     44.5      0.00     17.18      57.3     0.50      1016.6     1.5     NNE    17   3.2     NNE    14   9.94    268      267.8
   03/05/2019 10:10      61.5      59.8       56     44.6      0.00     17.18      57.3     0.50      1016.8     0.8     ESE   106   3.0      SE   133   9.95    267      315.9
   03/05/2019 10:00      60.0      59.4       58     44.7      0.00     17.18      57.4     0.50      1017.0     0.8     SSE   155   2.7       S   185   9.95    268      221.5
   03/05/2019 09:50      59.8      57.8       60     44.8      0.00     17.18      57.3     0.50      1016.9     0.5     NNW   341   1.4     WNW   286   9.95    267      226.8
   03/05/2019 09:40      58.0      57.5       61     44.4      0.00     17.18      57.4     0.50      1017.1     1.8      NW   324   3.4     NNW   336   9.95    268      123.6
   03/05/2019 09:30      57.9      57.4       61     44.4      0.00     17.18      57.4     0.50      1016.8     1.7     NNW   343   3.2     NNW   346   9.95    268      146.5
   03/05/2019 09:20      57.9      57.4       62     44.7      0.00     17.18      57.4     0.50      1016.8     1.1      NW   320   3.7       N   354   9.96    269      143.7
   03/05/2019 09:10      57.9      57.2       62     44.8      0.00     17.18      57.4     0.50      1016.7     0.8       N     9   4.3       N     3   9.97    269      188.5
   03/05/2019 09:00      57.4      56.6       64     44.9      0.00     17.18      57.4     0.50      1016.6     0.4       W   272   1.6     WNW   286   9.98    271      155.8
   03/05/2019 08:50      57.3      56.4       65     45.0      0.00     17.18      57.4     0.50      1016.4     0.5     NNW   344   1.9     NNE    17   9.99    275      141.0
   03/05/2019 08:40      56.8      56.2       66     45.4      0.00     17.18      57.5     0.50      1016.4     0.8     WSW   245   2.1     WSW   239  10.00    279      191.1
   03/05/2019 08:30      56.4      54.9       68     45.1      0.00     17.18      57.5     0.50      1016.3     0.2     NNW   338   1.6      NW   320   9.63    283      113.7
   03/05/2019 08:20      55.1      53.6       71     45.1      0.00     17.18      57.5     0.50      1016.5     0.6       S   181   1.7      SE   143   9.63    286       77.1
   03/05/2019 08:10      53.8      53.2       74     45.4      0.00     17.18      57.5     0.50      1016.3     2.0       S   187   3.8       S   178   9.63    288      122.1
   03/05/2019 08:00      53.5      52.6       76     46.0      0.00     17.18      57.6     0.50      1016.1     1.8       S   190   4.2       S   180   9.63    291      136.8
   03/05/2019 07:50      52.7      50.5       82     46.0      0.00     17.18      57.6     0.50      1016.1     2.2       S   191   4.7     SSW   198   9.63    303      226.2
   03/05/2019 07:40      50.5      49.3       86     45.6      0.00     17.18      57.6     0.50      1015.6     1.6     ESE   103   3.0     ESE   122   9.63    324      123.6
   03/05/2019 07:30      49.7      48.7       88     45.5      0.00     17.18      57.6     0.50      1015.9     1.4     ESE   107   2.9     ESE   107   9.63    347       70.5
   03/05/2019 07:20      49.0      48.3       89     45.4      0.00     17.18      57.6     0.50      1015.9     1.5      NE    49   2.8      NE    52   9.63    365       42.5
   03/05/2019 07:10      48.6      47.8       91     45.6      0.00     17.18      57.6     0.50      1016.3     1.0     ENE    57   2.5      NE    54   9.63    378       39.3
   03/05/2019 07:00      48.0      47.1       91     45.1      0.00     17.18      57.7     0.50      1016.5     0.4     ESE   120   1.2     ESE   106   9.63    389       33.7
   03/05/2019 06:50      47.5      46.9       91     44.7      0.00     17.18      57.7     0.50      1016.5     0.5       S   173   1.5     SSW   193   9.63    400       17.6
   03/05/2019 06:40      47.2      46.9       91     44.7      0.00     17.18      57.8     0.50      1016.5     0.4       S   180   1.7       S   183   9.63    401        3.4
   03/05/2019 06:30      47.2      46.9       92     44.7      0.00     17.18      57.8     0.50      1016.6     0.0       E    97   0.8       E    98   9.63    402       -2.5
   03/05/2019 06:20      47.2      46.8       92     44.7      0.00     17.18      57.8     0.50      1016.7     0.3     ESE   103   1.0     SSE   148   9.63    402       -4.9
   03/05/2019 06:10      47.1      46.4       92     44.5      0.00     17.18      57.8     0.50      1016.6     0.2       W   269   1.1     NNW   327   9.63    405       -4.1
   03/05/2019 06:00      46.6      46.0       92     44.3      0.00     17.18      57.9     0.50      1016.2     0.0     SSW   210   0.0     SSW   210   9.63    409       -4.0
   03/05/2019 05:50      46.1      45.8       92     43.9      0.00     17.18      57.9     0.50      1016.2     0.6     SSW   199   1.9     SSW   201   9.63    412       -4.3
   03/05/2019 05:40      46.1      45.3       93     43.6      0.00     17.18      57.9     0.50      1016.3     0.0     SSE   147   0.5     SSE   147   9.63    414       -4.6
   03/05/2019 05:30      45.5      45.1       92     43.1      0.00     17.18      58.0     0.50      1016.1     0.1     SSE   167   0.7       S   175   9.63    414       -7.5
   03/05/2019 05:20      45.6      45.2       92     43.2      0.00     17.18      58.0     0.50      1016.0     0.3      SE   134   1.5      SE   135   9.63    413      -10.3
   03/05/2019 05:10      45.5      44.9       93     43.0      0.00     17.18      58.0     0.50      1016.0     1.2     SSE   155   2.4      SE   142   9.63    412      -12.0
   03/05/2019 05:00      45.2      44.6       92     42.6      0.00     17.18      58.0     0.50      1015.8     0.3       S   185   0.7       S   185   9.63    410       -9.5
   03/05/2019 04:50      45.1      44.6       92     42.6      0.00     17.18      58.1     0.50      1015.8     0.0       N     0   0.0       S   179   9.63    408      -14.2
   03/05/2019 04:40      45.5      44.6       92     42.8      0.00     17.18      58.1     0.50      1015.8     0.3      SE   136   1.4      SE   136   9.63    401      -18.0
   03/05/2019 04:30      45.8      44.7       92     43.0      0.00     17.18      58.1     0.50      1015.8     1.2     SSW   197   2.3      SW   226   9.63    392      -15.2
   03/05/2019 04:20      45.5      44.8       92     42.8      0.00     17.18      58.2     0.50      1015.6     0.0       N     0   0.0     SSE   150   9.63    385      -16.3
   03/05/2019 04:10      45.8      45.1       92     43.2      0.00     17.18      58.2     0.50      1015.8     0.7       S   184   1.8     SSW   199   9.63    378      -14.1
   03/05/2019 04:00      45.6      44.6       92     42.8      0.00     17.18      58.2     0.50      1015.7     1.9     WSW   245   3.1     WSW   256   9.63    374      -15.0
   03/05/2019 03:50      45.2      44.5       92     42.4      0.00     17.18      58.2     0.50      1015.3     0.4     SSW   209   1.1      SW   220   9.64    370      -16.6
   03/05/2019 03:40      45.5      44.8       91     42.7      0.00     17.18      58.3     0.50      1015.6     0.3     ESE   119   1.5      SE   137   9.64    365      -18.6
   03/05/2019 03:30      46.0      45.1       92     43.3      0.00     17.18      58.3     0.50      1015.7     1.2       S   174   3.8      SW   215   9.64    357      -19.8
   03/05/2019 03:20      45.9      44.8       92     43.1      0.00     17.18      58.3     0.50      1015.5     2.1     SSW   194   3.7     SSW   211   9.64    351      -22.0
   03/05/2019 03:10      45.8      44.8       91     42.8      0.00     17.18      58.3     0.50      1015.4     0.7      SE   144   1.4     SSE   157   9.64    346      -23.8
   03/05/2019 03:00      45.6      45.2       91     43.0      0.00     17.18      58.4     0.50      1015.6     0.2      SE   138   0.9     SSE   159   9.64    340      -23.7
   03/05/2019 02:50      45.6      45.2       91     43.0      0.00     17.18      58.4     0.50      1016.0     0.0       E    96   0.4       E    96   9.64    336      -15.7
   03/05/2019 02:40      45.5      45.0       91     42.7      0.00     17.18      58.4     0.50      1016.2     0.0      SE   129   0.4      SE   129   9.64    334      -12.0
   03/05/2019 02:30      45.9      45.1       91     43.0      0.00     17.18      58.5     0.50      1016.2     0.4     ESE   117   1.2      SE   131   9.64    332      -19.8
   03/05/2019 02:20      46.0      45.4       90     42.8      0.00     17.18      58.5     0.50      1016.2     0.9       S   172   1.8       S   190   9.64    327      -25.9
   03/05/2019 02:10      46.5      45.8       90     43.1      0.00     17.18      58.5     0.50      1016.4     0.9       S   170   1.8     SSW   193   9.64    322      -26.6
   03/05/2019 02:00      47.0      46.1       89     43.3      0.00     17.18      58.5     0.50      1016.5     0.5     SSE   163   1.4       S   180   9.64    319      -28.2
   03/05/2019 01:50      47.2      46.6       88     43.6      0.00     17.18      58.5     0.50      1016.8     0.2       S   179   0.7      SE   133   9.64    315      -31.4
   03/05/2019 01:40      47.2      46.9       88     43.7      0.00     17.18      58.6     0.51      1017.0     0.2       S   179   1.1      SW   235   9.64    312      -28.7
   03/05/2019 01:30      47.2      46.9       89     43.8      0.00     17.18      58.6     0.51      1017.0     1.7     SSW   212   2.7      SW   215   9.64    311      -15.2
   03/05/2019 01:20      47.1      46.6       89     43.6      0.00     17.18      58.6     0.51      1016.8     0.2      SW   221   1.7      SW   214   9.64    311      -13.8
   03/05/2019 01:10      47.1      46.6       88     43.5      0.00     17.18      58.6     0.51      1016.7     0.2     NNE    30   1.2     NNE    26   9.64    311      -22.6
   03/05/2019 01:00      47.6      46.9       88     43.6      0.00     17.18      58.7     0.51      1016.7     0.0       E    88   0.8       E    87   9.64    309      -24.8
   03/05/2019 00:50      47.4      46.7       89     44.0      0.00     17.18      58.7     0.51      1016.9     0.3      SW   215   1.4      SW   222   9.64    308      -21.5
   03/05/2019 00:40      47.0      46.4       89     43.5      0.00     17.18      58.7     0.51      1016.9     0.9     ESE   116   1.9     ENE    70   9.64    307      -20.4
   03/05/2019 00:30      46.7      46.1       89     43.3      0.00     17.18      58.7     0.51      1017.3     0.2     SSW   193   0.9     SSW   213   9.64    308      -22.5
   03/05/2019 00:20      46.5      45.5       89     43.2      0.00     17.18      58.8     0.51      1017.5     1.7       S   170   2.8      SE   134   9.64    307      -27.9
   03/05/2019 00:10      46.0      45.4       88     42.4      0.00     17.18      58.7     0.51      1017.3     1.0       S   171   1.9     SSE   155   9.64    305      -31.6
   03/05/2019 00:00      46.6      45.4       87     42.3      0.00     17.18      58.8     0.51      1017.3     1.4     SSE   164   2.6       S   177   9.64    303      -36.6
   03/04/2019 23:50      46.6      46.1       87     42.6      0.00     17.18      58.8     0.51      1017.3     1.2     SSW   209   1.6      SW   216   9.64    300      -40.3
   03/04/2019 23:40      46.5      46.1       87     42.6      0.00     17.18      58.8     0.51      1017.5     1.0     SSE   152   2.3      SE   143   9.64    297      -42.8
   03/04/2019 23:30      46.5      46.0       86     42.2      0.00     17.18      58.8     0.51      1017.7     1.2       S   184   1.9       S   169   9.64    295      -41.3
   03/04/2019 23:20      47.2      46.2       85     42.4      0.00     17.18      58.9     0.51      1017.6     1.0      SE   135   2.4      SE   138   9.64    294      -46.5
   03/04/2019 23:10      47.1      46.7       86     42.7      0.00     17.18      58.9     0.51      1017.6     2.1     WSW   245   2.9       W   265   9.64    291      -48.9
   03/04/2019 23:00      46.9      46.3       86     42.6      0.00     17.18      58.9     0.51      1017.7     0.9     SSW   194   2.1     SSW   210   9.64    290      -52.6
   03/04/2019 22:50      47.1      46.4       85     42.2      0.00     17.18      58.9     0.51      1017.9     0.2     SSE   159   1.3     SSW   191   9.64    287      -59.9
   03/04/2019 22:40      48.1      46.9       83     42.6      0.00     17.18      58.9     0.51      1018.1     0.5     SSE   148   1.3      SE   139   9.64    284      -62.3
   03/04/2019 22:30      48.3      47.5       83     42.7      0.00     17.18      58.9     0.51      1018.2     0.5       W   277   1.3       N     0   9.64    281      -61.9
   03/04/2019 22:20      48.3      47.8       82     42.9      0.00     17.18      58.9     0.51      1018.2     0.7     SSW   199   1.2      SW   227   9.64    278      -62.4
   03/04/2019 22:10      49.6      48.2       79     42.6      0.00     17.18      59.0     0.51      1018.2     0.4     ESE   109   1.4      SE   124   9.65    275      -67.7
   03/04/2019 22:00      49.6      49.2       78     42.8      0.00     17.18      58.9     0.51      1018.5     0.8       S   172   1.9       S   188   9.65    275      -67.8
   03/04/2019 21:50      49.5      48.6       81     43.4      0.00     17.18      59.0     0.51      1018.5     1.0     SSW   196   1.9       S   169   9.65    275      -65.8
   03/04/2019 21:40      49.0      48.3       83     43.8      0.00     17.18      59.0     0.51      1018.5     0.8       S   169   1.5       S   177   9.65    278      -64.1
   03/04/2019 21:30      48.8      48.2       83     43.5      0.00     17.18      59.0     0.51      1018.4     0.7     SSE   167   1.4       S   178   9.65    276      -67.8
   03/04/2019 21:20      49.3      48.5       82     43.6      0.00     17.18      59.0     0.51      1018.3     0.8       S   169   1.9       S   173   9.65    273      -68.6
   03/04/2019 21:10      49.7      49.1       81     43.9      0.00     17.18      59.0     0.51      1018.3     0.7     SSE   167   1.3     SSE   161   9.65    271      -67.0
   03/04/2019 21:00      49.9      49.2       81     43.9      0.00     17.18      59.0     0.51      1018.3     0.5     SSE   162   0.9       S   169   9.65    271      -60.1
   03/04/2019 20:50      50.0      49.4       81     43.9      0.00     17.18      59.0     0.51      1018.3     0.0       S   182   0.7       S   176   9.65    270      -57.5
   03/04/2019 20:40      50.0      49.5       81     44.1      0.00     17.18      59.0     0.51      1018.2     0.5       S   185   1.0       S   188   9.65    270      -57.8
   03/04/2019 20:30      50.4      49.2       80     43.8      0.00     17.18      59.0     0.51      1018.1     0.3       S   184   1.1     SSW   199   9.65    270      -62.2
   03/04/2019 20:20      51.0      50.0       79     44.0      0.00     17.18      59.0     0.51      1018.1     0.7       S   181   1.6       S   175   9.65    270      -66.3
   03/04/2019 20:10      51.8      50.8       76     44.0      0.00     17.18      58.9     0.51      1018.2     0.9     SSE   163   2.4     SSE   162   9.65    270      -69.0
   03/04/2019 20:00      51.8      51.2       75     43.9      0.00     17.18      58.9     0.51      1018.1     1.6       S   180   2.8     SSW   192   9.66    270      -70.4
   03/04/2019 19:50      52.6      51.4       73     43.6      0.00     17.18      58.9     0.51      1018.0     0.4     SSE   168   1.1       S   176   9.66    270      -73.3
   03/04/2019 19:40      53.5      52.2       71     43.6      0.00     17.18      58.9     0.51      1018.0     0.6       S   171   1.3      SE   138   9.66    270      -71.3
   03/04/2019 19:30      54.4      53.2       68     43.6      0.00     17.18      58.9     0.51      1018.1     0.9       S   184   2.3      SW   234   9.66    270      -67.3
   03/04/2019 19:20      54.6      54.1       68     43.8      0.00     17.18      58.8     0.51      1018.2     1.0      SW   220   3.1     WSW   248   9.66    269      -55.4
   03/04/2019 19:10      54.4      54.0       67     43.7      0.00     17.18      58.9     0.51      1018.3     1.8     WSW   238   3.8       W   262   9.66    269      -34.9
   03/04/2019 19:00      54.3      53.8       67     43.2      0.00     17.18      58.9     0.51      1018.3     1.8      SW   223   3.9     SSW   201   9.66    269      -26.9
   03/04/2019 18:50      54.1      53.6       67     43.0      0.00     17.18      58.8     0.51      1018.2     1.7      SW   226   3.8      SW   221   9.66    269      -26.0
   03/04/2019 18:40      54.1      53.5       66     42.8      0.00     17.18      58.8     0.51      1018.1     2.0     SSW   206   3.0     SSW   195   9.66    269      -29.5
   03/04/2019 18:30      53.9      53.4       68     43.1      0.00     17.18      58.8     0.51      1017.9     1.6     SSW   194   2.7     SSW   209   9.66    269      -43.7
   03/04/2019 18:20      54.0      53.4       67     43.0      0.00     17.18      58.8     0.51      1017.8     2.5       S   175   6.1     SSW   193   9.66    269      -44.2
   03/04/2019 18:10      54.4      53.7       66     43.1      0.00     17.18      58.7     0.51      1017.8     2.6     SSE   167   4.8     SSE   166   9.67    269      -59.0
   03/04/2019 18:00      55.0      54.0       65     43.1      0.00     17.18      58.7     0.51      1017.6     2.9       S   183   5.1       S   185   9.67    269      -65.3
   03/04/2019 17:50      55.5      54.7       64     43.1      0.00     17.18      58.7     0.51      1017.5     2.9       S   173   4.6       S   179   9.67    268      -54.7
   03/04/2019 17:40      55.6      55.2       64     43.4      0.00     17.18      58.6     0.51      1017.7     2.7       S   175   4.5     SSE   161   9.67    268      -27.3
   03/04/2019 17:30      56.3      55.4       63     43.3      0.00     17.18      58.6     0.51      1017.7     2.8       S   175   4.8     SSE   163   9.67    268      -30.8
   03/04/2019 17:20      56.4      56.0       62     43.4      0.00     17.18      58.6     0.51      1017.7     2.4     SSE   166   3.9       S   175   9.67    268      -17.2
   03/04/2019 17:10      56.3      55.8       63     43.5      0.00     17.18      58.6     0.51      1017.6     2.4       S   185   5.1     SSW   199   9.67    268        6.7
   03/04/2019 17:00      56.3      55.8       62     43.3      0.00     17.18      58.5     0.51      1017.6     2.2     SSW   198   4.4     SSW   196   9.68    268      -10.7
   03/04/2019 16:50      56.8      56.0       62     43.3      0.00     17.18      58.5     0.51      1017.7     3.1      SW   217   5.1     SSW   193   9.68    268       -2.2
   03/04/2019 16:40      57.0      56.4       61     43.5      0.00     17.18      58.4     0.51      1017.8     2.8     SSW   201   6.2      SW   223   9.68    268       39.9
   03/04/2019 16:30      56.8      56.3       61     43.4      0.00     17.18      58.4     0.51      1017.7     3.3     SSW   207   5.6     SSW   195   9.68    268       35.0
   03/04/2019 16:20      56.9      56.4       61     43.3      0.00     17.18      58.3     0.51      1017.7     3.9     SSW   205   7.6      SW   218   9.68    268       55.7
   03/04/2019 16:10      56.9      56.4       60     43.1      0.00     17.18      58.3     0.51      1017.7     4.0       S   177   7.9     SSW   192   9.68    268       74.1
   03/04/2019 16:00      57.1      56.4       61     43.3      0.00     17.18      58.2     0.51      1017.6     4.1       S   185   9.0       S   184   9.69    268       79.3
   03/04/2019 15:50      57.3      56.9       61     43.6      0.00     17.18      58.2     0.51      1017.6     4.3       S   185   7.1      SW   221   9.69    268       55.7
   03/04/2019 15:40      58.4      57.0       59     43.5      0.00     17.18      58.2     0.51      1017.4     6.1       S   184   9.7       S   172   9.69    268       94.7
   03/04/2019 15:30      59.0      58.2       57     43.4      0.00     17.18      58.1     0.51      1017.2     5.1       S   171  10.4       S   187   9.69    268      176.6
   03/04/2019 15:20      59.2      58.4       57     43.8      0.00     17.18      58.1     0.51      1017.2     5.9       S   184  10.5     SSW   193   9.69    268      178.6
   03/04/2019 15:10      59.8      58.7       58     44.4      0.00     17.18      58.0     0.51      1017.3     5.2       S   181   7.6       S   170   9.70    268      152.6
   03/04/2019 15:00      60.0      59.4       58     45.0      0.00     17.18      58.0     0.51      1017.4     4.1       S   172   7.6     ESE   118   9.70    268      152.7
   03/04/2019 14:50      61.7      59.8       56     44.7      0.00     17.18      57.9     0.51      1017.4     4.2     SSE   156   8.3     SSE   151   9.70    268      144.5
   03/04/2019 14:40      61.7      59.9       57     45.4      0.00     17.18      57.9     0.51      1017.4     4.0       S   177   7.8      SW   218   9.70    267      360.4
   03/04/2019 14:30      60.1      59.4       58     44.8      0.00     17.18      57.8     0.51      1017.4     4.6       S   175   8.2       S   175   9.70    268      252.7
   03/04/2019 14:20      60.2      59.4       58     44.9      0.00     17.18      57.8     0.51      1017.4     5.2       S   176   8.3      SE   143   9.71    268      203.6
   03/04/2019 14:10      60.9      60.0       57     45.4      0.00     17.18      57.7     0.51      1017.3     5.8       S   186   8.8     SSW   195   9.71    267      349.1
   03/04/2019 14:00      60.8      60.3       56     44.9      0.00     17.18      57.6     0.51      1017.2     5.1       S   172   8.7       S   176   9.71    267      378.3
   03/04/2019 13:50      61.3      60.0       57     45.2      0.00     17.18      57.6     0.51      1017.2     6.1       S   187  10.7       S   189   9.71    267      439.7
   03/04/2019 13:40      61.3      60.6       57     45.5      0.00     17.18      57.6     0.51      1017.1     5.6       S   175   9.3       S   176   9.71    267      435.4
   03/04/2019 13:30      61.4      60.6       57     45.6      0.00     17.18      57.5     0.51      1017.1     5.8     SSE   169  10.8     SSE   162   9.72    267      466.4
   03/04/2019 13:20      61.5      60.6       56     45.5      0.00     17.18      57.5     0.51      1017.2     4.6      SE   145   9.2       S   177   9.72    267      481.1
   03/04/2019 13:10      61.8      61.0       56     45.6      0.00     17.18      57.5     0.51      1017.4     5.4     SSE   148   8.7       S   190   9.72    267      492.2
   03/04/2019 13:00      61.5      60.6       57     45.8      0.00     17.18      57.4     0.51      1017.5     5.6     SSE   153  10.7       S   175   9.72    267      487.6
   03/04/2019 12:50      62.1      60.7       57     46.1      0.00     17.18      57.4     0.51      1017.7     6.5       S   174  12.2       S   170   9.72    267      507.8
   03/04/2019 12:40      62.1      61.4       56     46.0      0.00     17.18      57.4     0.51      1017.7     4.9     SSE   162   9.0       S   177   9.72    267      512.1
   03/04/2019 12:30      62.8      61.4       55     45.6      0.00     17.18      57.4     0.51      1017.7     5.7      SE   145   9.3     SSW   193   9.72    267      520.7
   03/04/2019 12:20      65.1      62.5       53     45.9      0.00     17.18      57.3     0.50      1017.9     4.4     SSE   154   7.3      SE   145   9.72    266      517.3
   03/04/2019 12:10      65.1      64.3       44     42.1      0.00     17.18      57.3     0.50      1018.0     1.7      NE    51   4.0     NNW   342   9.72    266      509.5
   03/04/2019 12:00      65.5      64.7       44     42.5      0.00     17.18      57.3     0.50      1018.1     2.4     NNE    27   5.7       N   354   9.73    266      502.9
   03/04/2019 11:50      65.1      64.4       44     42.4      0.00     17.18      57.3     0.50      1018.2     1.6     NNE    18   3.5     NNE    19   9.72    266      505.3
   03/04/2019 11:40      64.7      62.7       45     41.9      0.00     17.18      57.3     0.50      1018.1     2.4     WNW   302   5.4     WNW   286   9.72    266      505.1
   03/04/2019 11:30      63.6      62.1       46     42.0      0.00     17.18      57.3     0.50      1018.1     2.0     WSW   246   5.1     ESE   108   9.73    266      503.7
   03/04/2019 11:20      63.4      62.6       47     42.3      0.00     17.18      57.3     0.50      1018.2     2.3     ESE   110   4.2      SE   128   9.73    266      499.0
   03/04/2019 11:10      63.1      61.8       48     42.3      0.00     17.18      57.3     0.50      1018.3     1.6     ENE    65   4.2      NE    49   9.73    266      491.3
   03/04/2019 11:00      63.1      62.0       47     42.2      0.00     17.18      57.4     0.50      1018.4     2.3       N    10   5.6      NE    55   9.73    266      482.1
   03/04/2019 10:50      62.2      60.4       50     42.3      0.00     17.18      57.4     0.50      1018.4     1.9     WSW   248   5.1     SSW   209   9.73    266      473.9
   03/04/2019 10:40      62.8      60.8       49     42.6      0.00     17.18      57.4     0.50      1018.4     1.7      SE   138   6.2      SE   143   9.73    266      464.7
   03/04/2019 10:30      61.1      59.9       51     42.4      0.00     17.18      57.4     0.50      1018.6     1.8      NW   310   3.4     NNW   336   9.73    267      451.0
   03/04/2019 10:20      60.4      59.3       54     42.9      0.00     17.18      57.4     0.51      1018.8     2.2     SSW   192   5.1     SSW   209   9.73    267      432.6
   03/04/2019 10:10      61.1      59.8       51     42.3      0.00     17.18      57.5     0.51      1019.0     1.7     ESE   121   4.6      SE   143   9.73    267      428.5
   03/04/2019 10:00      60.5      59.9       52     42.6      0.00     17.18      57.5     0.51      1019.1     2.2       W   266   6.3       W   266   9.73    266      396.0
   03/04/2019 09:50      60.6      58.8       53     42.7      0.00     17.18      57.5     0.51      1019.2     1.2       W   279   4.3     SSW   212   9.73    266      394.0
   03/04/2019 09:40      59.8      58.7       54     42.6      0.00     17.18      57.5     0.51      1019.1     2.2     WSW   241   5.0     SSW   211   9.73    267      380.7
   03/04/2019 09:30      59.7      57.8       55     42.5      0.00     17.18      57.6     0.51      1019.2     1.2       S   184   4.3     WSW   241   9.73    267      363.0
   03/04/2019 09:20      58.4      57.5       57     42.8      0.00     17.18      57.6     0.51      1019.2     2.0     SSW   198   3.6     SSW   203   9.73    268      344.1
   03/04/2019 09:10      58.8      57.8       60     44.5      0.00     17.18      57.6     0.51      1019.3     1.9     SSW   211   4.2      SW   233   9.73    268      328.2
   03/04/2019 09:00      59.1      58.0       63     45.9      0.00     17.18      57.6     0.51      1019.3     1.2       W   262   2.9      SW   215   9.73    268      307.4
   03/04/2019 08:50      58.2      57.6       63     45.5      0.00     17.18      57.7     0.51      1019.2     1.0     WNW   297   2.3       W   263   9.73    273      283.6
   03/04/2019 08:40      57.9      56.4       64     45.1      0.00     17.18      57.7     0.51      1019.1     0.6       W   276   1.8      SE   136   9.73    279      251.5
   03/04/2019 08:30      57.1      56.4       70     46.9      0.00     17.18      57.7     0.51      1019.1     1.3     SSE   149   3.4      SE   146   9.73    284      235.1
   03/04/2019 08:20      56.8      55.5       70     46.6      0.00     17.18      57.8     0.51      1018.9     0.5       W   266   2.1     ESE   122   9.73    295      207.6
   03/04/2019 08:10      56.0      55.3       73     47.1      0.00     17.18      57.8     0.51      1018.8     0.9      SE   133   2.4     ESE   109   9.74    333      189.9
   03/04/2019 08:00      55.9      55.2       75     47.6      0.00     17.18      57.8     0.51      1018.8     0.8     ENE    72   1.8       E    91   9.73    350      185.7
   03/04/2019 07:50      55.4      54.1       78     48.0      0.00     17.18      57.8     0.51      1018.7     0.6     ENE    64   2.1     ENE    61   9.73    359      187.4
   03/04/2019 07:40      54.3      53.0       84     48.8      0.00     17.18      57.8     0.51      1018.9     0.5       E    97   1.9       E    90   9.73    368      171.4
   03/04/2019 07:30      53.1      50.4       91     49.3      0.00     17.18      57.9     0.51      1018.8     0.2     ENE    74   1.7     ESE   121   9.73    373      127.0
   03/04/2019 07:20      50.4      48.3       93     47.4      0.00     17.18      57.9     0.51      1018.7     0.5      SE   142   1.2      SE   137   9.73    373       52.6
   03/04/2019 07:10      48.5      48.0       93     46.3      0.00     17.18      57.9     0.51      1018.6     0.8     SSE   146   1.6      SE   144   9.74    369       25.1
   03/04/2019 07:00      48.3      47.4       93     45.9      0.00     17.18      57.9     0.51      1018.6     0.2     SSW   205   0.8     SSW   208   9.73    360       -0.5
   03/04/2019 06:50      48.0      46.9       94     45.6      0.00     17.18      58.0     0.51      1018.6     0.0       N     0   0.0     SSE   155   9.73    353       -4.4
   03/04/2019 06:40      47.5      47.0       93     45.4      0.00     17.18      58.0     0.51      1018.6     0.2     SSE   161   0.8       S   176   9.74    346       -2.8
   03/04/2019 06:30      47.3      46.9       93     45.4      0.00     17.18      58.0     0.51      1018.6     0.4     SSW   207   1.3     SSW   199   9.74    341       -7.0
   03/04/2019 06:20      47.2      46.9       93     45.1      0.00     17.18      58.0     0.51      1018.7     0.2       S   185   0.9       S   185   9.74    337      -12.0
   03/04/2019 06:10      47.3      46.9       93     45.0      0.00     17.18      58.0     0.51      1018.7     0.0       N     0   0.0     ESE   108   9.74    335      -17.2
   03/04/2019 06:00      47.8      47.1       93     45.5      0.00     17.18      58.1     0.51      1018.8     0.7     SSW   209   1.5      SW   221   9.74    327      -19.7
   03/04/2019 05:50      47.6      47.0       93     45.3      0.00     17.18      58.1     0.51      1018.9     0.2     SSW   194   0.9      SW   217   9.74    322      -22.6
   03/04/2019 05:40      47.8      47.0       93     45.3      0.00     17.18      58.1     0.51      1019.0     0.2      SE   140   1.0      SE   138   9.74    320      -19.3
   03/04/2019 05:30      47.7      47.1       93     45.4      0.00     17.18      58.1     0.51      1018.9     0.1       S   187   0.7     SSW   195   9.74    316      -21.7
   03/04/2019 05:20      47.5      47.1       92     45.1      0.00     17.18      58.1     0.51      1018.7     0.0      SE   133   0.5      SE   133   9.74    311      -28.8
   03/04/2019 05:10      47.5      47.1       92     45.1      0.00     17.18      58.1     0.51      1018.6     0.7     SSE   167   1.5       S   190   9.74    307      -32.3
   03/04/2019 05:00      48.7      47.1       91     45.1      0.00     17.18      58.1     0.51      1018.5     0.5     SSE   165   1.3     SSE   157   9.74    302      -36.0
   03/04/2019 04:50      48.8      48.3       91     46.0      0.00     17.18      58.2     0.51      1018.5     1.6       S   181   2.8     SSW   197   9.74    297      -37.4
   03/04/2019 04:40      49.2      48.6       90     46.1      0.00     17.18      58.2     0.51      1018.3     1.5     SSW   212   2.2      SW   214   9.74    292      -43.0
   03/04/2019 04:30      49.3      48.7       90     46.1      0.00     17.18      58.2     0.51      1018.1     0.4     SSW   193   1.3     SSW   199   9.74    289      -48.0
   03/04/2019 04:20      49.6      48.9       89     46.2      0.00     17.18      58.2     0.51      1018.1     0.0       N     0   0.0     ESE   117   9.74    285      -47.5
   03/04/2019 04:10      49.7      49.2       89     46.3      0.00     17.18      58.3     0.51      1018.1     0.0       S   177   0.5       S   177   9.74    283      -42.3
   03/04/2019 04:00      50.1      49.3       88     46.3      0.00     17.18      58.3     0.51      1018.0     0.2       S   178   0.7       S   182   9.74    279      -45.2
   03/04/2019 03:50      50.4      49.8       88     46.5      0.00     17.18      58.3     0.51      1018.0     0.0      SE   144   0.6      SE   142   9.74    275      -46.8
   03/04/2019 03:40      50.3      49.9       87     46.5      0.00     17.18      58.3     0.51      1018.1     0.3     SSE   151   0.6      SE   144   9.74    273      -30.3
   03/04/2019 03:30      50.5      49.9       86     46.2      0.00     17.18      58.3     0.51      1018.2     0.5     SSE   158   1.7     SSE   154   9.74    273      -21.5
   03/04/2019 03:20      50.4      50.0       86     46.0      0.00     17.18      58.3     0.51      1018.1     1.4       S   178   2.8       S   187   9.74    272      -29.2
   03/04/2019 03:10      50.5      50.0       84     45.8      0.00     17.18      58.3     0.51      1018.3     1.3       S   182   2.5       S   173   9.74    272      -27.0
   03/04/2019 03:00      51.0      50.3       83     45.6      0.00     17.18      58.4     0.51      1018.3     1.6     SSW   192   2.1     SSW   194   9.74    272      -38.1
   03/04/2019 02:50      52.5      50.8       80     45.6      0.00     17.18      58.4     0.51      1018.2     1.0     SSE   167   2.1     SSW   195   9.74    272      -59.7
   03/04/2019 02:40      52.5      52.1       79     45.9      0.00     17.18      58.4     0.51      1018.5     0.7     WNW   291   3.7       W   273   9.74    271      -46.2
   03/04/2019 02:30      52.4      51.9       80     46.1      0.00     17.18      58.4     0.51      1018.6     1.4     WNW   298   4.4       W   262   9.74    271      -12.2
   03/04/2019 02:20      52.1      51.4       82     46.4      0.00     17.18      58.4     0.51      1018.8     1.5     WNW   281   3.6      NW   313   9.74    271      -12.8
   03/04/2019 02:10      51.5      50.9       84     46.4      0.00     17.18      58.4     0.51      1018.8     2.1       W   260   4.4       W   259   9.74    272      -29.4
   03/04/2019 02:00      51.4      51.0       86     47.1      0.00     17.18      58.4     0.51      1018.8     1.8      SW   227   3.2       W   261   9.74    278      -64.6
   03/04/2019 01:50      51.9      51.1       86     47.4      0.00     17.18      58.4     0.51      1018.9     0.9     SSW   206   1.6      SW   234   9.75    280      -69.9
   03/04/2019 01:40      52.4      51.8       86     47.9      0.00     17.18      58.4     0.51      1019.0     1.0     SSW   204   1.9      SW   215   9.75    275      -66.6
   03/04/2019 01:30      52.7      52.0       86     48.1      0.00     17.18      58.5     0.51      1019.1     1.7      SW   217   2.3     SSW   196   9.75    273      -60.9
   03/04/2019 01:20      52.9      52.3       86     48.4      0.00     17.18      58.5     0.51      1019.0     1.9     SSW   213   2.9     SSW   194   9.75    272      -52.4
   03/04/2019 01:10      52.9      52.4       86     48.7      0.00     17.18      58.5     0.51      1019.1     1.6      SW   231   2.9      SW   216   9.75    272      -20.4
   03/04/2019 01:00      52.9      52.3       86     48.5      0.00     17.18      58.5     0.51      1019.1     1.4      SW   215   2.0     SSW   208   9.75    272      -19.4
   03/04/2019 00:50      53.0      52.5       85     48.5      0.00     17.18      58.5     0.51      1019.2     0.5     SSW   201   1.2       S   188   9.75    272      -36.0
   03/04/2019 00:40      53.3      52.9       85     48.8      0.00     17.18      58.5     0.51      1019.2     0.2       S   191   0.7       S   182   9.75    272      -25.1
   03/04/2019 00:30      53.3      53.0       85     48.8      0.00     17.18      58.5     0.51      1019.2     0.0       N     0   0.0      SW   217   9.75    272      -19.7
   03/04/2019 00:20      53.5      53.0       85     48.8      0.00     17.18      58.5     0.51      1019.2     0.6      SW   215   1.4      SW   217   9.75    272      -12.9
   03/04/2019 00:10      53.5      53.0       85     48.8      0.00     17.18      58.5     0.51      1019.2     0.0     SSW   203   0.6     SSW   203   9.75    273      -13.2
   03/04/2019 00:00      53.6      53.1       85     48.7      0.00     17.18      58.5     0.51      1019.1     0.0     ESE   120   0.5     ESE   103   9.75    273      -17.2
   03/03/2019 23:50      53.7      53.3       84     48.9      0.00     17.18      58.5     0.51      1019.1     0.0       N     0   0.0      SE   124   9.75    274      -11.1
   03/03/2019 23:40      53.7      53.2       84     48.6      0.00     17.18      58.6     0.51      1019.2     0.0       N     0   0.0      SW   223   9.75    278      -11.3
   03/03/2019 23:30      53.7      53.3       83     48.5      0.00     17.18      58.6     0.51      1019.2     0.0       N     0   0.0       W   262   9.75    274      -12.5
   03/03/2019 23:20      53.7      53.3       83     48.4      0.00     17.18      58.6     0.51      1019.2     0.0       S   187   0.7     SSW   196   9.75    281      -12.9
   03/03/2019 23:10      53.8      53.3       83     48.4      0.00     17.18      58.6     0.51      1019.3     1.0       S   191   2.0       S   185   9.75    276      -12.3
   03/03/2019 23:00      53.8      53.3       83     48.4      0.00     17.18      58.6     0.51      1019.3     1.4     WSW   242   2.2     WSW   240   9.75    271      -12.1
   03/03/2019 22:50      53.8      53.2       83     48.4      0.00     17.18      58.6     0.51      1019.1     0.6     SSW   195   2.3     SSW   212   9.75    271      -13.7
   03/03/2019 22:40      53.8      53.3       83     48.3      0.00     17.18      58.6     0.51      1019.1     1.8     WSW   244   3.2     WSW   247   9.75    271      -11.1
   03/03/2019 22:30      53.7      53.3       83     48.3      0.00     17.18      58.6     0.51      1019.3     1.1     WSW   252   2.9      SW   226   9.75    271      -12.3
   03/03/2019 22:20      53.6      53.1       83     48.1      0.00     17.18      58.6     0.51      1019.4     1.9       W   259   4.0     WSW   249   9.75    270      -12.7
   03/03/2019 22:10      53.5      53.1       82     48.0      0.00     17.18      58.6     0.51      1019.4     2.3      SW   221   4.4      SW   235   9.75    270      -11.8
   03/03/2019 22:00      53.6      53.1       82     47.8      0.00     17.18      58.6     0.51      1019.4     3.1      SW   224   5.8       S   182   9.75    270      -12.5
   03/03/2019 21:50      53.9      53.3       80     47.6      0.00     17.18      58.7     0.51      1019.3     3.2     SSW   207   5.5     SSW   192   9.75    270      -12.0
   03/03/2019 21:40      53.8      53.3       80     47.5      0.00     17.18      58.6     0.51      1019.3     1.9      SW   227   4.4     SSW   200   9.75    270      -11.8
   03/03/2019 21:30      53.7      53.3       80     47.4      0.00     17.18      58.6     0.51      1019.3     2.4     SSW   213   4.6      SW   234   9.75    270      -14.3
   03/03/2019 21:20      53.7      53.3       79     47.3      0.00     17.18      58.7     0.51      1019.2     3.0     SSW   209   5.1     SSW   202   9.75    270      -13.7
   03/03/2019 21:10      53.9      53.3       79     47.1      0.00     17.18      58.7     0.51      1019.2     3.1      SW   218   6.8     SSW   195   9.75    270      -12.9
   03/03/2019 21:00      53.9      53.5       79     47.3      0.00     17.18      58.7     0.51      1019.1     3.0      SW   234   6.0      SW   214   9.75    270      -19.4
   03/03/2019 20:50      54.0      53.5       79     47.5      0.00     17.18      58.7     0.51      1019.0     2.8     WSW   243   5.1      SW   229   9.76    270      -15.3
   03/03/2019 20:40      54.1      53.7       78     47.4      0.00     17.18      58.7     0.51      1018.9     3.4     WSW   258   5.8     WSW   241   9.76    270      -15.6
   03/03/2019 20:30      54.1      53.7       78     47.1      0.00     17.18      58.7     0.51      1018.9     4.0       W   270   6.7       W   261   9.76    270      -13.1
   03/03/2019 20:20      54.1      53.7       77     46.9      0.00     17.18      58.7     0.51      1018.9     5.0       W   263   8.0     WSW   243   9.76    270      -13.7
   03/03/2019 20:10      54.0      53.6       78     47.0      0.00     17.18      58.6     0.51      1018.8     4.4     WSW   247   7.8     WSW   250   9.76    270      -13.8
   03/03/2019 20:00      54.1      53.7       79     47.5      0.00     17.18      58.6     0.51      1018.8     3.1      SW   233   6.6     SSW   211   9.76    270      -13.5
   03/03/2019 19:50      54.3      53.7       79     47.5      0.00     17.18      58.7     0.51      1018.6     4.2      SW   236   7.6      SW   229   9.76    270      -15.1
   03/03/2019 19:40      54.1      53.8       80     47.8      0.00     17.18      58.7     0.51      1018.6     3.9      SW   232   6.1      SW   226   9.76    270      -14.6
   03/03/2019 19:30      54.1      53.8       80     47.7      0.00     17.18      58.6     0.51      1018.6     3.6     WSW   239   7.1      SW   231   9.76    270      -15.3
   03/03/2019 19:20      54.1      53.8       80     47.8      0.00     17.18      58.6     0.51      1018.6     4.3      SW   231   7.4      SW   228   9.76    270      -17.1
   03/03/2019 19:10      54.4      53.8       79     47.8      0.00     17.18      58.6     0.51      1018.6     5.0      SW   233   9.3      SW   232   9.76    270      -21.3
   03/03/2019 19:00      54.7      54.1       78     47.6      0.00     17.18      58.6     0.51      1018.5     5.0     WSW   236   8.1      SW   231   9.77    270      -21.7
   03/03/2019 18:50      54.5      54.1       78     47.6      0.00     17.18      58.6     0.51      1018.4     4.7      SW   235   8.0     SSW   213   9.77    270      -24.8
   03/03/2019 18:40      54.7      54.0       78     47.6      0.00     17.18      58.6     0.51      1018.2     3.4      SW   232   5.7     WSW   257   9.76    270      -44.7
   03/03/2019 18:30      54.8      54.0       78     47.5      0.00     17.18      58.6     0.51      1018.1     3.3      SW   229   5.9     WSW   246   9.77    270      -66.9
   03/03/2019 18:20      54.9      54.4       77     47.6      0.00     17.18      58.5     0.51      1018.0     3.7      SW   231   6.6      SW   215   9.77    270      -70.7
   03/03/2019 18:10      55.4      54.5       76     47.5      0.00     17.18      58.5     0.51      1018.0     3.8      SW   231   7.9     WSW   249   9.77    270      -71.2
   03/03/2019 18:00      55.6      55.1       75     47.4      0.00     17.18      58.5     0.51      1017.8     3.1      SW   231   4.6     WSW   237   9.77    270      -63.3
   03/03/2019 17:50      55.9      55.4       74     47.5      0.00     17.18      58.4     0.51      1017.9     2.5      SW   226   4.7      SW   232   9.77    270      -47.6
   03/03/2019 17:40      56.3      55.6       73     47.4      0.00     17.18      58.4     0.51      1017.8     3.1      SW   231   5.5     WSW   242   9.77    270      -43.9
   03/03/2019 17:30      56.9      56.0       72     47.5      0.00     17.18      58.4     0.51      1017.9     3.1      SW   231   6.1      SW   234   9.78    270      -35.8
   03/03/2019 17:20      57.4      56.5       72     47.9      0.00     17.18      58.4     0.51      1017.9     3.9     WSW   240   6.8     WSW   249   9.78    270      -30.8
   03/03/2019 17:10      57.9      56.9       71     48.0      0.00     17.18      58.4     0.51      1017.8     4.2     WSW   239   6.1     WSW   253   9.78    270       -7.3
   03/03/2019 17:00      58.2      57.5       73     49.1      0.00     17.18      58.3     0.51      1017.7     3.9      SW   231   6.3     WSW   240   9.78    270       33.4
   03/03/2019 16:50      58.5      57.9       72     49.3      0.00     17.18      58.3     0.51      1017.9     3.1     SSW   207   6.5      SW   236   9.78    270       42.0
   03/03/2019 16:40      58.8      58.2       72     49.4      0.00     17.18      58.3     0.51      1017.9     4.0     WSW   236   6.4     SSW   210   9.78    270       43.9
   03/03/2019 16:30      59.3      58.3       71     49.4      0.00     17.18      58.2     0.51      1017.9     2.9     WSW   243   4.9      SW   215   9.78    270       23.7
   03/03/2019 16:20      59.2      58.8       72     49.8      0.00     17.18      58.2     0.51      1017.9     3.1     WSW   243   5.4     WSW   241   9.78    270       77.3
   03/03/2019 16:10      59.0      58.6       72     49.6      0.00     17.18      58.2     0.51      1017.8     3.1     WSW   236   5.9      SW   219   9.78    270       90.9
   03/03/2019 16:00      58.8      58.1       76     50.7      0.00     17.18      58.1     0.51      1017.8     2.4     SSW   196   5.6     SSW   203   9.79    270       86.4
   03/03/2019 15:50      58.2      57.8       76     50.6      0.00     17.18      58.1     0.51      1017.9     2.1     SSE   162   4.7       S   172   9.79    270       80.2
   03/03/2019 15:40      58.3      57.7       75     50.2      0.00     17.18      58.1     0.51      1017.8     2.8     SSE   159   5.0      SE   143   9.79    270       99.6
   03/03/2019 15:30      58.2      57.6       76     50.4      0.00     17.18      58.1     0.51      1017.9     2.6       S   185   5.8     SSW   207   9.79    270      157.4
   03/03/2019 15:20      57.9      57.0       77     50.4      0.00     17.18      58.0     0.51      1018.1     4.0     SSW   208   7.4       S   186   9.79    270      199.6
   03/03/2019 15:10      57.6      56.7       81     51.4      0.00     17.18      58.0     0.51      1018.2     4.4     SSW   199   8.7     SSE   157   9.79    270      195.8
   03/03/2019 15:00      57.7      56.6       80     51.0      0.00     17.18      57.9     0.51      1018.2     4.6     SSW   213   8.6     SSW   193   9.79    270      158.8
   03/03/2019 14:50      58.3      57.5       78     51.0      0.00     17.18      57.9     0.51      1018.2     4.5      SW   232   7.6      SW   231   9.79    270      178.3
   03/03/2019 14:40      58.2      57.5       77     50.7      0.00     17.18      57.9     0.51      1018.2     2.8       W   259   5.3     WSW   238   9.79    270      179.8
   03/03/2019 14:30      57.8      57.4       78     50.5      0.00     17.18      57.8     0.51      1018.2     4.6     WSW   257   7.1     WSW   253   9.80    270      149.3
   03/03/2019 14:20      57.9      57.5       79     51.2      0.00     17.18      57.8     0.51      1018.1     3.9       W   261   9.0       W   265   9.80    270      137.9
   03/03/2019 14:10      58.1      57.6       78     51.1      0.00     17.18      57.8     0.51      1018.1     3.4     WSW   255   7.8     WSW   256   9.80    271      126.3
   03/03/2019 14:00      58.4      57.7       76     50.3      0.00     17.18      57.7     0.51      1018.2     5.2       W   261   8.5      SW   219   9.80    270      108.0
   03/03/2019 13:50      59.5      58.2       70     48.9      0.00     17.18      57.7     0.51      1018.2     5.0      SW   226   6.8       S   185   9.80    270      118.2
   03/03/2019 13:40      60.0      59.1       67     48.3      0.00     17.18      57.7     0.51      1018.2     4.7      SW   217   7.0     SSW   209   9.80    269      168.8
   03/03/2019 13:30      59.9      59.4       65     47.9      0.00     17.18      57.6     0.51      1018.2     3.7      SW   225   7.2      SW   225   9.80    269      233.9
   03/03/2019 13:20      59.9      59.4       65     47.7      0.00     17.18      57.6     0.51      1018.3     3.3       S   175   6.0       S   180   9.80    268      209.9
   03/03/2019 13:10      59.7      59.2       66     47.9      0.00     17.18      57.6     0.51      1018.4     3.9     SSE   155   8.0      SE   132   9.80    269      204.9
   03/03/2019 13:00      59.8      59.0       66     47.9      0.00     17.18      57.6     0.51      1018.6     4.7     SSE   156   7.5      SE   128   9.80    269      196.6
   03/03/2019 12:50      60.8      59.4       65     48.2      0.00     17.18      57.5     0.51      1018.6     5.5       S   169   9.7      SE   138   9.80    268      217.2
   03/03/2019 12:40      61.9      60.3       64     48.4      0.00     17.18      57.5     0.51      1018.7     5.4     SSE   159  12.8      SE   144   9.80    268      348.7
   03/03/2019 12:30      62.0      61.0       64     49.5      0.00     17.18      57.5     0.51      1018.8     5.0     SSE   161  10.8      SE   125   9.80    268      642.7
   03/03/2019 12:20      62.2      60.6       64     49.3      0.00     17.18      57.5     0.51      1018.9     4.9     SSE   155   9.6      SE   143   9.80    269      540.9
   03/03/2019 12:10      62.0      60.5       65     49.1      0.00     17.18      57.5     0.51      1018.9     5.5     SSE   159  10.5      SE   133   9.80    268      706.8
   03/03/2019 12:00      61.4      59.8       67     49.6      0.00     17.18      57.5     0.51      1018.8     4.9     SSE   159  12.8      SE   139   9.80    268      660.2
   03/03/2019 11:50      60.0      58.7       70     49.6      0.00     17.18      57.5     0.51      1019.0     5.6       S   176  10.3     SSW   207   9.81    269      679.8
   03/03/2019 11:40      59.8      58.2       71     49.3      0.00     17.18      57.5     0.51      1019.2     5.8       S   179  10.8      SE   136   9.81    270      339.6
   03/03/2019 11:30      59.8      59.2       69     49.5      0.00     17.18      57.5     0.51      1019.4     4.7     SSE   155   8.6       S   185   9.81    269      400.0
   03/03/2019 11:20      59.2      57.8       72     49.5      0.00     17.18      57.5     0.51      1019.6     4.9     SSE   162   9.9     SSE   162   9.81    270      457.7
   03/03/2019 11:10      59.1      57.5       73     49.6      0.00     17.18      57.5     0.51      1019.6     6.1       S   182   9.3     SSW   199   9.81    270      367.4
   03/03/2019 11:00      59.1      58.2       73     50.0      0.00     17.18      57.5     0.51      1019.6     3.2       S   177   8.0     SSE   166   9.81    270      326.9
   03/03/2019 10:50      58.5      57.7       75     50.3      0.00     17.18      57.5     0.51      1019.5     4.2     SSE   159   6.9      SE   145   9.81    270      374.4
   03/03/2019 10:40      57.9      56.5       82     51.5      0.00     17.18      57.5     0.52      1019.6     3.2     SSW   194   6.6     SSE   165   9.81    270      330.9
   03/03/2019 10:30      56.6      55.6       85     51.8      0.00     17.18      57.4     0.52      1019.7     2.7     SSW   200   5.1      SW   216   9.81    271      297.6
   03/03/2019 10:20      56.0      55.5       86     51.3      0.01     17.18      57.5     0.52      1019.8     3.1     SSW   209   5.7      SW   229   9.81    283      207.3
   03/03/2019 10:10      56.1      55.4       85     51.4      0.00     17.17      57.5     0.52      1019.8     3.2     WSW   241   6.0       S   191   9.80    287      170.9
   03/03/2019 10:00      55.9      55.3       85     51.1      0.00     17.17      57.5     0.51      1019.9     4.1     WSW   241   5.8       W   267   9.80    271      184.0
   03/03/2019 09:50      57.2      55.3       83     51.1      0.00     17.17      57.5     0.51      1019.8     4.5     WSW   240   6.8      SW   235   9.80    271      205.1
   03/03/2019 09:40      58.0      56.8       76     49.9      0.00     17.17      57.5     0.51      1019.6     3.4     SSW   204   6.4     SSW   208   9.80    271      216.6
   03/03/2019 09:30      58.6      57.7       75     50.4      0.00     17.17      57.5     0.52      1019.6     2.3      SE   138   3.9       S   170   9.80    275      236.7
   03/03/2019 09:20      58.6      56.7       79     51.1      0.00     17.17      57.5     0.52      1019.7     0.8       E    87   2.5       E    87   9.80    280      322.5
   03/03/2019 09:10      57.0      56.3       80     50.4      0.00     17.17      57.5     0.52      1019.7     1.2       E    93   3.8       E    79   9.80    286      182.7
   03/03/2019 09:00      56.8      56.0       82     50.8      0.00     17.17      57.5     0.52      1019.7     1.2     NNE    27   2.6     ENE    77   9.80    289      210.4
   03/03/2019 08:50      56.3      55.4       84     50.9      0.00     17.17      57.5     0.52      1019.9     0.6     NNE    15   1.9       N     9   9.80    293      179.4
   03/03/2019 08:40      55.6      54.6       85     50.6      0.00     17.17      57.5     0.52      1019.9     0.5     NNE    21   2.1     NNE    14   9.80    295      157.7
   03/03/2019 08:30      54.8      54.4       87     50.6      0.00     17.17      57.6     0.52      1019.8     0.7       E    99   2.0       E    83   9.80    297      106.8
   03/03/2019 08:20      54.7      53.6       88     50.5      0.00     17.17      57.5     0.52      1019.7     0.9       E    81   2.1       E    80   9.81    300      120.2
   03/03/2019 08:10      54.3      53.6       88     50.2      0.00     17.17      57.5     0.52      1019.6     1.5       E    90   3.6     ENE    78   9.81    329       95.9
   03/03/2019 08:00      54.3      53.8       87     50.3      0.00     17.17      57.6     0.52      1019.6     1.4     ESE   109   3.8     ESE   117   9.81    303       78.0
   03/03/2019 07:50      54.1      53.5       88     50.4      0.00     17.17      57.6     0.52      1019.5     0.5     ESE   103   1.5       E    90   9.81    315       52.7
   03/03/2019 07:40      53.8      53.1       90     50.6      0.00     17.17      57.6     0.52      1019.4     0.8     WSW   241   2.2     WSW   254   9.81    333       37.7
   03/03/2019 07:30      53.5      53.0       91     50.8      0.00     17.17      57.6     0.52      1019.2     0.9     WSW   254   2.9       W   267   9.81    352       31.6
   03/03/2019 07:20      53.5      53.0       92     50.9      0.00     17.17      57.6     0.52      1019.2     0.5      SW   232   1.5       W   267   9.81    371       40.3
   03/03/2019 07:10      53.4      52.5       93     51.0      0.00     17.17      57.7     0.52      1019.1     0.1     NNW   331   0.9      NW   308   9.81    390       33.3
   03/03/2019 07:00      52.6      51.9       93     50.3      0.00     17.17      57.6     0.52      1019.1     0.0      SE   140   0.4      SE   140   9.81    403       25.1
   03/03/2019 06:50      52.2      51.7       93     50.0      0.00     17.17      57.6     0.52      1019.0     0.3     SSE   167   1.3      SE   140   9.81    411       14.2
   03/03/2019 06:40      52.0      51.4       93     49.8      0.00     17.17      57.7     0.52      1018.9     0.4      SE   144   1.8      SE   140   9.81    416        3.1
   03/03/2019 06:30      51.6      51.1       93     49.3      0.00     17.17      57.6     0.52      1018.8     0.2       S   173   0.8       S   177   9.81    419       -0.7
   03/03/2019 06:20      51.8      51.2       92     49.2      0.00     17.17      57.7     0.52      1018.7     0.4       S   174   1.0       S   176   9.81    421       -8.1
   03/03/2019 06:10      52.5      51.4       92     49.6      0.00     17.17      57.7     0.52      1018.7     0.1      SE   136   1.2      SE   137   9.81    423      -22.5
   03/03/2019 06:00      53.0      52.2       92     50.2      0.00     17.17      57.7     0.52      1018.7     0.6     ESE   117   1.7      SE   138   9.81    418      -25.9
   03/03/2019 05:50      53.0      52.5       92     50.4      0.00     17.17      57.7     0.52      1018.7     0.4       E    83   1.6       E    92   9.81    404      -15.5
   03/03/2019 05:40      53.1      52.6       92     50.4      0.00     17.17      57.7     0.52      1018.7     0.5     ESE   111   1.4      SE   125   9.81    396      -10.4
   03/03/2019 05:30      53.0      52.7       92     50.4      0.00     17.17      57.7     0.52      1018.7     0.3      SE   139   1.6      SE   137   9.81    367       -6.6
   03/03/2019 05:20      53.0      52.6       91     50.3      0.00     17.17      57.7     0.52      1018.6     0.2       S   176   1.1       S   178   9.81    354       -5.2
   03/03/2019 05:10      53.0      52.6       91     50.1      0.00     17.17      57.7     0.52      1018.6     0.0     SSE   161   1.0       S   171   9.81    356       -6.2
   03/03/2019 05:00      53.5      52.7       90     50.1      0.00     17.17      57.8     0.52      1018.6     0.9     SSE   155   2.1     SSE   157   9.81    361      -11.4
   03/03/2019 04:50      53.7      53.0       89     50.0      0.00     17.17      57.8     0.52      1018.6     1.9     SSW   191   4.0      SW   216   9.81    311       -7.5
   03/03/2019 04:40      53.9      53.4       88     50.0      0.00     17.17      57.8     0.52      1018.6     0.6       S   175   1.7       S   173   9.81    286       -9.7
   03/03/2019 04:30      54.4      53.5       87     50.0      0.00     17.17      57.8     0.52      1018.6     1.2     SSE   164   2.8      SE   144   9.81    285       -9.5
   03/03/2019 04:20      54.5      54.0       86     50.1      0.00     17.17      57.8     0.52      1018.5     0.3      SW   224   1.2     WSW   247   9.81    273       -8.2
   03/03/2019 04:10      54.5      54.0       86     50.0      0.00     17.17      57.8     0.52      1018.5     0.0      NW   306   1.1     WSW   245   9.81    272       -8.0
   03/03/2019 04:00      54.3      54.0       86     50.0      0.00     17.17      57.8     0.52      1018.3     0.0     SSW   196   0.8       S   184   9.81    272       -8.3
   03/03/2019 03:50      54.3      53.9       86     50.0      0.00     17.17      57.8     0.52      1018.2     0.3       S   175   1.9       S   178   9.81    272      -11.6
   03/03/2019 03:40      54.6      54.0       86     50.0      0.00     17.17      57.9     0.52      1018.3     1.2       S   180   2.4       S   171   9.81    272      -18.7
   03/03/2019 03:30      54.9      54.3       85     50.1      0.00     17.17      57.9     0.52      1018.3     0.5       S   172   1.5       S   179   9.81    273      -35.9
   03/03/2019 03:20      54.9      54.5       86     50.4      0.00     17.17      57.9     0.52      1018.4     1.1       S   185   1.9     SSW   192   9.81    272      -18.8
   03/03/2019 03:10      54.8      54.4       86     50.5      0.00     17.17      57.9     0.52      1018.4     1.9     SSW   194   2.6       S   186   9.81    272      -10.7
   03/03/2019 03:00      54.6      54.3       86     50.5      0.00     17.17      57.9     0.52      1018.4     1.5       S   186   2.8     SSW   197   9.81    272      -12.5
   03/03/2019 02:50      54.6      54.1       87     50.5      0.00     17.17      57.9     0.52      1018.3     1.9       S   190   3.8     SSW   206   9.81    272      -14.7
   03/03/2019 02:40      54.5      54.0       88     50.7      0.00     17.17      57.9     0.52      1018.5     1.7     SSW   206   2.5     SSW   204   9.81    273      -13.5
   03/03/2019 02:30      54.2      53.8       90     51.0      0.00     17.17      57.9     0.52      1018.6     1.2     SSW   201   2.8     SSW   193   9.81    273      -19.7
   03/03/2019 02:20      54.1      53.6       90     51.0      0.00     17.17      57.9     0.52      1018.8     0.8       S   171   1.9       S   185   9.81    277      -20.1
   03/03/2019 02:10      54.1      53.7       91     51.3      0.00     17.17      57.9     0.52      1018.9     0.8     SSW   193   2.0       S   179   9.81    280      -28.4
   03/03/2019 02:00      54.1      53.6       92     51.4      0.00     17.17      57.9     0.52      1019.0     1.0     SSW   210   2.3     WSW   242   9.81    280      -25.0
   03/03/2019 01:50      54.2      53.7       92     51.5      0.00     17.17      58.0     0.52      1019.0     0.3     SSW   202   1.1     SSW   198   9.81    283      -22.6
   03/03/2019 01:40      54.1      53.7       92     51.5      0.00     17.17      57.9     0.52      1018.9     0.6     SSW   200   1.3     SSW   194   9.81    282      -22.4
   03/03/2019 01:30      54.2      53.8       91     51.5      0.00     17.17      57.9     0.52      1018.8     0.1      SW   218   1.1     SSW   207   9.81    282      -15.7
   03/03/2019 01:20      54.4      53.7       91     51.3      0.00     17.17      58.0     0.52      1018.7     0.9       S   188   2.1       S   184   9.81    282      -14.3
   03/03/2019 01:10      54.4      54.1       91     51.5      0.00     17.17      58.0     0.52      1018.6     0.0      SW   222   0.3      SW   222   9.81    281      -23.7
   03/03/2019 01:00      54.3      53.9       90     51.3      0.00     17.17      58.0     0.52      1018.3     0.3     SSW   195   1.1     SSW   193   9.81    280      -23.0
   03/03/2019 00:50      54.9      54.0       89     51.1      0.00     17.17      58.0     0.52      1018.2     0.5     SSE   152   1.0       S   188   9.81    279      -33.7
   03/03/2019 00:40      55.6      54.7       88     51.5      0.00     17.17      58.0     0.52      1018.2     0.0      SE   140   0.8      SE   139   9.81    277      -42.5
   03/03/2019 00:30      56.0      55.2       87     51.8      0.00     17.17      58.0     0.52      1018.3     0.5     SSW   195   1.1       S   186   9.81    273      -36.9
   03/03/2019 00:20      56.1      55.6       87     52.3      0.00     17.17      58.0     0.52      1018.5     1.2      SW   218   2.8      SW   229   9.81    272      -30.3
   03/03/2019 00:10      56.1      55.6       88     52.4      0.00     17.17      58.0     0.52      1018.6     1.2     WSW   257   2.9     WSW   240   9.81    272      -17.8
   03/03/2019 00:00      55.8      55.4       89     52.3      0.00     17.17      58.0     0.52      1018.6     1.2     SSW   204   2.2     SSW   209   9.81    272      -10.4
   03/02/2019 23:50      55.8      55.4       89     52.4      0.00     17.17      58.0     0.52      1018.6     0.2      SW   226   0.9     SSW   205   9.81    272      -12.1
   03/02/2019 23:40      55.8      55.5       89     52.4      0.00     17.17      58.0     0.52      1018.7     0.0       S   182   0.7       S   187   9.81    272      -13.5
   03/02/2019 23:30      55.9      55.5       89     52.5      0.00     17.17      58.0     0.52      1018.9     0.3      SW   215   1.1      SW   219   9.81    273      -14.1
   03/02/2019 23:20      55.9      55.5       89     52.5      0.00     17.17      58.0     0.52      1018.9     0.7     SSE   154   1.6      SE   140   9.81    272      -15.5
   03/02/2019 23:10      55.9      55.5       89     52.5      0.00     17.17      58.0     0.52      1019.0     1.7       S   177   2.6       S   188   9.81    272      -13.7
   03/02/2019 23:00      56.0      55.5       89     52.4      0.00     17.17      58.1     0.52      1019.1     1.1       S   170   2.5       S   188   9.81    272      -14.3
   03/02/2019 22:50      56.3      55.7       88     52.3      0.00     17.17      58.0     0.52      1019.0     0.0     SSE   151   0.8     SSE   150   9.81    273      -14.4
   03/02/2019 22:40      56.3      55.9       87     52.3      0.00     17.17      58.0     0.52      1019.1     1.0     SSW   203   1.6     SSW   214   9.81    272      -12.1
   03/02/2019 22:30      56.7      56.0       86     52.0      0.00     17.17      58.0     0.52      1019.2     0.4       S   170   1.5       S   180   9.81    272      -16.8
   03/02/2019 22:20      56.8      56.4       85     52.2      0.00     17.17      58.0     0.52      1019.2     0.2       S   176   1.1       S   181   9.81    272      -19.8
   03/02/2019 22:10      56.9      56.5       86     52.5      0.00     17.17      58.0     0.52      1019.2     0.9     SSW   197   2.1      SW   231   9.81    272      -19.0
   03/02/2019 22:00      56.8      56.4       88     52.9      0.00     17.17      58.0     0.52      1019.3     1.0     SSW   207   2.2     SSW   206   9.81    272      -11.5
   03/02/2019 21:50      56.8      56.4       89     53.3      0.00     17.17      58.1     0.52      1019.3     1.3       S   190   2.1      SW   219   9.81    272      -11.2
   03/02/2019 21:40      56.9      56.5       89     53.5      0.00     17.17      58.1     0.52      1019.1     1.1      SE   146   2.4      SE   144   9.82    275      -11.6
   03/02/2019 21:30      57.1      56.6       90     53.7      0.00     17.17      58.0     0.52      1019.1     1.2     SSE   162   2.9     SSW   193   9.82    281      -11.7
   03/02/2019 21:20      57.2      56.8       90     54.1      0.00     17.17      58.0     0.52      1019.1     0.8     ESE   107   3.2     SSE   166   9.82    289       -8.7
   03/02/2019 21:10      57.0      56.4       91     54.0      0.00     17.17      58.0     0.52      1019.0     1.2     WSW   246   1.9     WSW   238   9.82    294       -5.0
   03/02/2019 21:00      56.8      56.4       91     53.8      0.00     17.17      58.0     0.52      1018.8     1.1     SSW   200   2.2       S   191   9.82    289       -4.5
   03/02/2019 20:50      56.6      56.1       90     53.6      0.00     17.17      58.0     0.52      1018.8     0.3     SSE   158   1.1     SSE   158   9.82    294       -4.7
   03/02/2019 20:40      56.6      56.1       90     53.4      0.00     17.17      58.1     0.52      1018.8     1.2     SSW   210   2.5      SW   220   9.82    300       -4.6
   03/02/2019 20:30      56.7      56.0       90     53.2      0.00     17.17      58.0     0.52      1018.8     0.3      SW   232   1.5     NNW   334   9.82    306       -6.7
   03/02/2019 20:20      56.7      56.3       89     53.3      0.00     17.17      58.0     0.52      1018.7     0.7      NE    53   1.8      NE    48   9.82    309       -9.4
   03/02/2019 20:10      56.7      56.2       88     53.0      0.00     17.17      58.0     0.52      1018.6     0.3      NE    52   1.4      NE    54   9.82    311      -11.2
   03/02/2019 20:00      56.8      56.4       88     52.9      0.00     17.17      58.0     0.52      1018.5     0.5     ENE    70   1.1     ENE    58   9.82    290      -14.5
   03/02/2019 19:50      56.7      56.0       88     52.7      0.00     17.17      58.0     0.52      1018.5     1.3     SSW   205   3.9     WSW   244   9.82    282      -26.6
   03/02/2019 19:40      56.9      56.1       88     52.8      0.00     17.17      58.0     0.52      1018.2     0.6     SSW   201   1.7       S   184   9.82    281      -36.1
   03/02/2019 19:30      56.8      56.4       88     53.0      0.00     17.17      58.0     0.53      1018.1     1.6     SSW   203   3.2       S   190   9.82    278      -39.9
   03/02/2019 19:20      57.0      56.4       88     53.0      0.00     17.17      58.0     0.53      1017.9     1.3       S   179   2.9       S   183   9.82    277      -44.3
   03/02/2019 19:10      57.1      56.6       88     53.1      0.00     17.17      58.0     0.53      1017.8     1.7       S   180   3.3       S   184   9.82    276      -34.6
   03/02/2019 19:00      57.2      56.8       87     53.2      0.00     17.17      57.9     0.53      1017.7     2.0       S   184   3.7     SSW   195   9.82    277      -38.8
   03/02/2019 18:50      57.6      56.9       87     53.4      0.00     17.17      57.9     0.53      1017.5     2.3       S   178   3.9       S   186   9.82    279      -46.1
   03/02/2019 18:40      57.9      57.2       87     53.6      0.00     17.17      57.9     0.53      1017.4     2.1       S   173   3.8       S   184   9.82    283      -39.6
   03/02/2019 18:30      58.2      57.6       86     53.6      0.00     17.17      57.9     0.53      1017.3     2.6     SSE   165   5.9       S   178   9.82    285      -18.8
   03/02/2019 18:20      58.6      57.9       84     53.4      0.00     17.17      57.9     0.53      1017.0     2.1     SSE   152   4.8     SSE   152   9.82    272      -21.6
   03/02/2019 18:10      58.6      58.2       83     53.4      0.00     17.17      57.9     0.53      1017.1     1.2     ESE   119   3.7      SE   129   9.83    271      -21.1
   03/02/2019 18:00      58.8      58.2       83     53.2      0.00     17.17      57.8     0.53      1017.0     0.9     SSE   162   3.8     SSE   155   9.83    271      -25.3
   03/02/2019 17:50      59.2      58.5       82     53.1      0.00     17.17      57.8     0.53      1016.9     3.0       S   171   5.7     SSW   191   9.83    270      -36.6
   03/02/2019 17:40      59.3      58.8       81     53.2      0.00     17.17      57.8     0.53      1016.7     1.6     SSE   167   3.9     SSW   211   9.83    270      -17.3
   03/02/2019 17:30      59.4      58.9       81     53.1      0.00     17.17      57.8     0.53      1016.6     2.4       S   170   5.5       S   182   9.83    270       -7.6
   03/02/2019 17:20      59.9      59.2       79     53.1      0.00     17.17      57.8     0.53      1016.5     3.1     SSE   168   5.5       S   188   9.83    270       12.4
   03/02/2019 17:10      60.4      59.7       78     53.1      0.00     17.17      57.7     0.53      1016.2     2.7       S   177   7.1      SW   214   9.83    270       46.4
   03/02/2019 17:00      60.4      59.7       78     53.2      0.00     17.17      57.7     0.53      1016.1     2.2     SSE   169   5.1     SSE   148   9.83    270       93.5
   03/02/2019 16:50      60.1      59.6       78     53.0      0.00     17.17      57.7     0.53      1015.9     2.9       S   179   6.2       S   186   9.83    270       81.9
   03/02/2019 16:40      60.3      59.7       77     53.0      0.00     17.17      57.6     0.53      1015.8     4.2       S   171   6.8     SSW   203   9.83    270      107.8
   03/02/2019 16:30      61.0      59.9       77     53.2      0.00     17.17      57.7     0.53      1015.6     5.3       S   173   9.9     SSE   156   9.83    270      121.0
   03/02/2019 16:20      61.7      60.8       76     53.6      0.00     17.17      57.6     0.53      1015.6     4.9       S   177   9.1      SW   218   9.84    270      186.8
   03/02/2019 16:10      61.7      61.3       76     53.6      0.00     17.17      57.6     0.53      1015.5     5.8       S   183  10.6       S   184   9.84    270      287.6
   03/02/2019 16:00      61.5      61.1       75     53.2      0.00     17.17      57.6     0.53      1015.6     6.1     SSW   206   9.8     SSW   209   9.84    270      280.1
   03/02/2019 15:50      61.3      60.8       75     53.2      0.00     17.17      57.6     0.53      1015.6     5.8     SSW   202   9.9       S   175   9.84    270      217.5
   03/02/2019 15:40      62.0      60.8       74     53.0      0.00     17.17      57.5     0.53      1015.6     6.3     SSW   198  10.8       S   179   9.84    270      162.7
   03/02/2019 15:30      62.5      61.4       73     52.9      0.00     17.17      57.5     0.53      1015.5     7.7     SSW   206  11.9      SW   220   9.84    270      205.6
   03/02/2019 15:20      62.7      62.2       72     53.4      0.00     17.17      57.5     0.53      1015.5     6.7       S   191  10.8     SSW   198   9.84    269      303.3
   03/02/2019 15:10      63.3      62.5       71     53.3      0.00     17.17      57.5     0.53      1015.4     6.1       S   175  13.1      SE   141   9.84    269      368.6
   03/02/2019 15:00      63.3      62.2       72     54.0      0.00     17.17      57.5     0.53      1015.4     5.5       S   174   9.9      SE   131   9.84    270      476.6
   03/02/2019 14:50      63.5      62.2       73     54.1      0.01     17.17      57.5     0.53      1015.4     5.7       S   185  10.8      SW   222   9.85    270      325.4
   03/02/2019 14:40      63.4      62.4       74     54.6      0.00     17.16      57.4     0.53      1015.3     5.7       S   189  11.7       S   176   9.85    270      316.4
   03/02/2019 14:30      63.6      62.4       74     54.4      0.00     17.16      57.4     0.53      1015.2     5.6       S   189  10.8     SSW   198   9.85    270      400.9
   03/02/2019 14:20      63.5      62.1       75     54.7      0.00     17.16      57.4     0.53      1015.1     4.8       S   185   9.2       S   184   9.85    270      398.7
   03/02/2019 14:10      63.2      62.2       75     54.9      0.00     17.16      57.4     0.53      1015.1     5.6       S   171   9.6      SE   131   9.85    270      394.1
   03/02/2019 14:00      62.5      61.1       79     55.2      0.00     17.16      57.4     0.53      1015.1     5.4     SSW   198  10.8      SW   228   9.85    270      624.0
   03/02/2019 13:50      62.1      60.9       79     54.6      0.00     17.16      57.4     0.53      1015.1     6.1       S   185  13.2       S   169   9.85    288      261.1
   03/02/2019 13:40      62.1      61.3       80     55.6      0.00     17.16      57.4     0.53      1015.0     5.6       S   180   8.5      SE   128   9.85    270      355.7
   03/02/2019 13:30      61.5      60.7       84     56.3      0.00     17.16      57.4     0.53      1015.0     4.8     SSE   150   9.0     SSE   151   9.85    273      346.0
   03/02/2019 13:20      61.0      60.2       84     55.5      0.00     17.16      57.3     0.53      1015.1     3.4      SE   145   6.6       S   188   9.85    298      316.7
   03/02/2019 13:10      61.2      60.3       82     55.0      0.00     17.16      57.3     0.53      1015.1     3.4      SE   132   6.8     SSE   146   9.86    291      198.8
   03/02/2019 13:00      61.1      60.3       83     55.6      0.00     17.16      57.3     0.53      1015.1     2.5     ESE   111   5.4     ENE    66   9.86    278      265.3
   03/02/2019 12:50      60.5      59.4       85     55.2      0.00     17.16      57.3     0.53      1015.2     3.0       E    94   6.3      SE   129   9.86    278      308.3
   03/02/2019 12:40      59.8      58.6       86     54.8      0.00     17.16      57.3     0.53      1015.3     2.8       E    81   5.9     ESE   110   9.86    284      243.0
   03/02/2019 12:30      58.8      58.4       86     54.5      0.00     17.16      57.4     0.53      1015.5     2.9       E    94   6.5      NE    54   9.87    289      164.6
   03/02/2019 12:20      58.7      57.9       87     54.3      0.00     17.16      57.3     0.53      1015.7     2.9       E    89   5.5      NE    47   9.87    292      250.3
   03/02/2019 12:10      58.2      57.8       88     54.4      0.00     17.16      57.3     0.53      1015.8     3.2     ENE    75   7.0       E    90   9.87    291      217.7
   03/02/2019 12:00      58.1      57.5       89     54.4      0.00     17.16      57.3     0.53      1015.8     2.4     ENE    73   4.4       E    83   9.88    304      226.3
   03/02/2019 11:50      58.0      57.5       89     54.5      0.00     17.16      57.3     0.53      1015.9     2.4     ENE    61   6.2      NE    48   9.88    326      228.7
   03/02/2019 11:40      57.7      56.9       89     54.2      0.00     17.16      57.3     0.53      1015.9     2.3       E    85   6.0     ESE   109   9.88    339      348.3
   03/02/2019 11:30      57.2      56.4       90     53.9      0.00     17.16      57.3     0.53      1016.1     2.5     ENE    75   6.5     SSE   160   9.89    411      278.6
   03/02/2019 11:20      56.8      56.4       91     53.9      0.00     17.16      57.3     0.53      1016.1     1.1     ENE    57   3.7     ENE    71   9.89    339      123.2
   03/02/2019 11:10      56.7      56.0       91     53.5      0.00     17.16      57.4     0.53      1016.1     2.0     ESE   109   4.8     SSW   193   9.89    306      169.1
   03/02/2019 11:00      56.4      55.5       92     53.5      0.00     17.16      57.3     0.53      1016.0     0.7       E    92   2.3      SE   141   9.89    328      156.8
   03/02/2019 10:50      55.9      55.5       92     53.2      0.00     17.16      57.4     0.54      1015.9     1.5       E    95   4.0      SE   134   9.90    355      111.3
   03/02/2019 10:40      55.8      55.3       92     53.2      0.00     17.16      57.4     0.54      1015.9     1.5     ENE    73   3.2      SE   126   9.90    344      114.6
   03/02/2019 10:30      55.5      55.0       92     53.0      0.00     17.16      57.4     0.54      1016.1     1.6     ENE    72   5.2      SE   137   9.90    359      126.0
   03/02/2019 10:20      55.3      54.7       92     52.7      0.00     17.16      57.4     0.54      1016.1     1.7       E    87   5.0     ESE   116   9.90    367       91.1
   03/02/2019 10:10      55.0      54.8       92     52.6      0.00     17.16      57.4     0.54      1016.1     1.7     ENE    67   4.0     ESE   102   9.91    384       76.9
   03/02/2019 10:00      55.0      54.6       92     52.6      0.01     17.16      57.3     0.54      1016.2     1.6     ENE    77   4.3     ENE    70   9.91    371      109.4
   03/02/2019 09:50      55.0      54.5       92     52.5      0.00     17.15      57.4     0.54      1016.3     1.7     ENE    76   4.4       E    90   9.91    453       97.9
   03/02/2019 09:40      55.0      54.7       93     52.8      0.00     17.15      57.4     0.54      1016.4     2.4     ENE    76   6.3     ENE    68   9.91    359      108.7
   03/02/2019 09:30      54.9      54.4       93     52.6      0.00     17.15      57.4     0.54      1016.4     2.3       E    84   5.9     ENE    59   9.92    377      198.6
   03/02/2019 09:20      54.7      54.0       94     52.5      0.01     17.15      57.5     0.54      1016.4     2.8       E    81   5.4       E    89   9.92    399      159.2
   03/02/2019 09:10      54.4      53.7       94     52.2      0.00     17.14      57.5     0.54      1016.6     2.2       E    85   5.5     ESE   109   9.92    400      148.0
   03/02/2019 09:00      54.0      53.3       94     52.0      0.00     17.14      57.5     0.54      1016.6     1.6     ENE    65   4.1     ENE    62   9.92    427       82.0
   03/02/2019 08:50      53.8      53.2       94     51.9      0.02     17.14      57.5     0.54      1016.5     1.9       E    80   5.4     ESE   109   9.92    453       50.1
   03/02/2019 08:40      53.7      53.3       94     51.9      0.00     17.12      57.5     0.53      1016.4     2.0     ENE    59   4.3     ENE    76   9.92    457       46.5
   03/02/2019 08:30      53.7      53.3       94     51.9      0.02     17.12      57.5     0.53      1016.5     1.4     ENE    63   4.1     ENE    61   9.92    450       31.6
   03/02/2019 08:20      53.5      53.0       94     51.7      0.00     17.10      57.5     0.53      1016.4     1.7      NE    47   3.2      NE    40   9.92    423       33.1
   03/02/2019 08:10      53.5      53.0       94     51.6      0.00     17.10      57.5     0.53      1016.3     1.9      NE    53   4.3     NNE    20   9.92    454       27.9
   03/02/2019 08:00      53.3      52.9       94     51.6      0.01     17.10      57.6     0.53      1016.3     1.5     ENE    73   3.8       E    84   9.92    431       30.6
   03/02/2019 07:50      53.4      52.9       94     51.6      0.00     17.09      57.5     0.53      1016.3     1.9      NE    55   4.5       E    97   9.92    430       13.5
   03/02/2019 07:40      53.4      53.0       94     51.5      0.00     17.09      57.6     0.53      1016.2     1.2      NE    51   3.5     ENE    66   9.92    403       12.3
   03/02/2019 07:30      53.3      53.0       94     51.5      0.02     17.09      57.6     0.52      1016.2     1.3     ENE    72   3.5     ENE    67   9.93    428        9.8
   03/02/2019 07:20      53.3      53.0       94     51.5      0.01     17.07      57.6     0.52      1016.2     0.6      NE    44   2.0     NNE    33   9.92    498        0.5
   03/02/2019 07:10      53.3      53.0       94     51.4      0.01     17.06      57.6     0.52      1016.0     0.9      NE    44   2.7      NE    49   9.92    435        7.5
   03/02/2019 07:00      53.2      52.9       94     51.3      0.00     17.05      57.6     0.52      1016.0     0.6     NNE    33   1.6      NE    54   9.92    457        2.1
   03/02/2019 06:50      53.1      52.7       94     51.1      0.01     17.05      57.6     0.52      1015.9     0.0     NNE    29   0.1     NNE    29   9.93    439        5.7
   03/02/2019 06:40      53.0      52.5       94     51.0      0.01     17.04      57.6     0.51      1015.8     0.0     ESE   124   1.1     ESE   115   9.93    474       -0.3
   03/02/2019 06:30      53.0      52.6       94     51.0      0.03     17.03      57.7     0.51      1015.8     0.3     ESE   118   1.6      SE   129   9.92    464       -1.9
   03/02/2019 06:20      53.0      52.6       94     51.0      0.00     17.00      57.7     0.51      1015.5     0.5     ENE    66   2.3     SSE   150   9.92    448       -2.7
   03/02/2019 06:10      53.0      52.5       94     51.0      0.01     17.00      57.7     0.51      1015.4     1.6     ENE    74   3.9       E    98   9.92    452       -2.5
   03/02/2019 06:00      53.0      52.6       94     51.0      0.01     16.99      57.7     0.50      1015.4     1.8       E   101   4.5      SE   126   9.92    486       -2.6
   03/02/2019 05:50      53.0      52.5       94     51.1      0.03     16.98      57.7     0.50      1015.3     2.1       E    92   5.7       E    80   9.92    487       -2.6
   03/02/2019 05:40      53.0      52.6       94     51.1      0.01     16.95      57.7     0.50      1015.1     2.0       E    85   5.1     ESE   104   9.92    502       -2.7
   03/02/2019 05:30      53.0      52.5       94     51.0      0.01     16.94      57.8     0.50      1015.1     0.9       E    89   2.8     ESE   109   9.93    447       -2.7
   03/02/2019 05:20      53.0      52.6       94     50.9      0.01     16.93      57.8     0.50      1015.4     0.2       E    81   2.2     ENE    77   9.94    450       -2.8
   03/02/2019 05:10      52.9      52.5       94     50.9      0.02     16.92      57.8     0.50      1015.8     0.4     NNW   337   1.6      NW   321   9.94    462       -2.8
   03/02/2019 05:00      52.9      52.4       94     50.8      0.06     16.90      57.8     0.49      1015.9     0.8      NW   315   2.3       W   267   9.94    470       -3.2
   03/02/2019 04:50      52.7      52.3       93     50.6      0.00     16.84      57.8     0.49      1015.4     1.0      SW   233   2.7     WSW   239   9.90    420       -3.4
   03/02/2019 04:40      52.7      52.3       93     50.6      0.01     16.84      57.8     0.49      1014.8     0.2     ENE    60   2.0       E    89   9.91    399       -3.3
   03/02/2019 04:30      52.6      52.3       93     50.5      0.02     16.83      57.8     0.49      1014.9     1.3      NE    52   2.3      NE    48   9.91    465       -3.2
   03/02/2019 04:20      52.7      52.1       93     50.4      0.03     16.81      57.9     0.49      1015.3     0.3       E    85   1.5      SE   124   9.88    476       -3.3
   03/02/2019 04:10      52.4      52.1       93     50.3      0.00     16.78      57.9     0.49      1014.9     0.9     ESE   106   2.8      SE   139   9.87    506       -3.5
   03/02/2019 04:00      52.5      52.0       93     50.2      0.00     16.78      57.9     0.49      1014.8     1.4     ESE   105   3.5       E    81   9.87    401       -3.7
   03/02/2019 03:50      52.5      52.0       93     50.1      0.01     16.78      57.9     0.49      1014.7     1.2       E    98   3.2     ENE    59   9.87    423       -3.7
   03/02/2019 03:40      52.5      52.1       92     50.1      0.00     16.77      57.9     0.49      1015.0     1.1       E    81   3.0       E    87   9.86    456       -3.8
   03/02/2019 03:30      52.5      52.1       92     50.0      0.01     16.77      57.9     0.49      1015.4     0.8       E    83   2.7       E    90   9.86    459       -3.7
   03/02/2019 03:20      52.6      52.1       92     49.9      0.00     16.76      57.9     0.49      1015.6     1.4       E    97   3.5       E    79   9.86    432       -3.9
   03/02/2019 03:10      52.7      52.2       91     49.8      0.01     16.76      57.9     0.49      1016.0     1.0       E    80   3.1     ENE    72   9.86    424       -4.3
   03/02/2019 03:00      52.7      52.3       91     49.8      0.02     16.75      57.9     0.48      1016.4     1.4       E    94   4.5      NE    47   9.85    441       -4.4
   03/02/2019 02:50      53.0      52.5       90     49.8      0.03     16.73      57.9     0.48      1017.5     3.4     SSW   211   6.7     WSW   241   9.83    469       -4.6
   03/02/2019 02:40      53.7      52.7       90     50.1      0.03     16.70      58.0     0.48      1017.4     3.0     SSW   205   4.9      SW   233   9.80    432       -4.2
   03/02/2019 02:30      54.1      53.5       89     50.5      0.04     16.67      58.0     0.48      1017.1     1.9      SW   222   4.1      SW   223   9.78    443       -3.8
   03/02/2019 02:20      54.3      53.9       88     50.5      0.07     16.63      58.0     0.48      1017.1     2.3       W   272   5.2       W   278   9.74    447       -4.1
   03/02/2019 02:10      54.6      53.7       85     49.5      0.04     16.56      58.0     0.48      1016.8     3.4     WSW   257   5.2       W   269   9.68    348       -5.6
   03/02/2019 02:00      55.0      54.3       81     48.8      0.01     16.52      58.0     0.48      1015.8     1.5      NE    54   3.6     NNW   340   9.64    477       -6.4
   03/02/2019 01:50      54.9      54.4       79     48.2      0.00     16.51      58.0     0.48      1016.0     0.9     NNE    23   2.0     NNW   347   9.63    388       -7.7
   03/02/2019 01:40      54.9      54.5       84     49.9      0.00     16.51      58.0     0.48      1015.4     1.8      SW   229   3.9     WSW   242   9.63    365       -7.2
   03/02/2019 01:30      55.0      54.6       84     50.1      0.00     16.51      58.0     0.48      1014.9     0.9     SSE   168   1.9       S   177   9.63    296      -11.1
   03/02/2019 01:20      55.0      54.6       84     50.2      0.00     16.51      58.0     0.48      1014.8     0.5       E    94   1.5       E    80   9.63    290      -10.6
   03/02/2019 01:10      55.0      54.6       86     50.6      0.00     16.51      58.0     0.48      1015.2     0.8      NE    41   1.7      NE    51   9.63    271      -10.5
   03/02/2019 01:00      55.2      54.8       86     50.8      0.00     16.51      58.0     0.48      1015.2     0.8      NE    52   1.9      NE    50   9.63    271      -11.2
   03/02/2019 00:50      55.3      54.8       85     50.7      0.00     16.51      58.0     0.48      1015.2     1.2     ENE    60   3.1      NE    45   9.63    271      -12.1
   03/02/2019 00:40      55.5      54.9       85     50.6      0.00     16.51      58.0     0.48      1015.5     1.3      NE    54   2.5      NE    46   9.63    273      -11.7
   03/02/2019 00:30      55.4      55.0       84     50.5      0.00     16.51      58.1     0.48      1015.7     0.8     ENE    66   2.4      NE    52   9.63    273      -12.1
   03/02/2019 00:20      55.3      54.9       85     50.5      0.00     16.51      58.0     0.48      1015.7     0.6      NE    53   2.4     ENE    66   9.64    271      -14.1
   03/02/2019 00:10      55.1      54.6       85     50.3      0.00     16.51      58.1     0.48      1015.8     0.2     ENE    68   1.1     ENE    64   9.64    271      -13.1
   03/02/2019 00:00      54.8      54.4       84     49.9      0.00     16.51      58.1     0.48      1016.0     0.1     ESE   110   1.2     ESE   105   9.64    271      -14.6
   03/01/2019 23:50      54.6      54.0       84     49.4      0.00     16.51      58.1     0.48      1016.1     0.0      SE   134   0.6      SE   132   9.64    271      -12.4
   03/01/2019 23:40      54.3      53.8       84     49.3      0.00     16.51      58.1     0.48      1016.3     0.2      SW   226   0.7      SW   226   9.64    271      -12.7
   03/01/2019 23:30      54.5      53.9       83     49.2      0.00     16.51      58.1     0.48      1016.4     0.1     SSE   159   0.6     SSE   150   9.64    271      -32.5
   03/01/2019 23:20      54.5      54.1       83     49.2      0.00     16.51      58.1     0.48      1016.6     0.0     SSE   154   0.6     SSE   147   9.64    271      -31.6
   03/01/2019 23:10      54.7      54.3       82     49.0      0.00     16.51      58.1     0.48      1016.8     0.0     SSW   192   1.1     SSW   192   9.64    271      -21.2
   03/01/2019 23:00      54.9      54.4       82     49.1      0.00     16.51      58.1     0.48      1016.9     1.3     SSW   208   2.0     SSW   193   9.64    271      -23.6
   03/01/2019 22:50      55.0      54.4       82     49.1      0.00     16.51      58.1     0.48      1016.9     0.6     SSW   203   1.2     SSW   208   9.64    271      -28.6
   03/01/2019 22:40      55.2      54.5       81     49.0      0.00     16.51      58.1     0.48      1016.9     0.0      SE   139   0.5      SE   139   9.64    270      -29.9
   03/01/2019 22:30      55.3      54.9       80     49.1      0.00     16.51      58.1     0.48      1017.1     0.8      SW   217   1.1      SW   231   9.64    270      -20.3
   03/01/2019 22:20      55.6      54.9       79     48.8      0.00     16.51      58.1     0.48      1017.0     0.2     SSW   211   1.0     SSW   212   9.64    270      -24.5
   03/01/2019 22:10      55.8      55.3       78     48.9      0.00     16.51      58.1     0.48      1017.1     0.1     SSW   193   0.8     SSW   193   9.64    270      -32.2
   03/01/2019 22:00      56.1      55.5       78     49.0      0.00     16.51      58.1     0.48      1017.2     0.4     SSW   194   1.1     SSW   196   9.64    270      -32.3
   03/01/2019 21:50      56.1      55.7       78     49.2      0.00     16.51      58.1     0.48      1017.3     0.0       N     0   0.0      NE    48   9.64    270      -26.2
   03/01/2019 21:40      55.9      55.5       79     49.2      0.00     16.51      58.1     0.48      1017.4     0.3     SSE   155   1.4      SE   139   9.64    270      -15.4
   03/01/2019 21:30      56.0      55.5       78     49.0      0.00     16.51      58.1     0.48      1017.3     0.1     SSE   160   0.7       S   187   9.64    270      -13.7
   03/01/2019 21:20      56.1      55.6       77     48.9      0.00     16.51      58.1     0.48      1017.3     0.0       S   175   0.7       S   170   9.64    270      -20.8
   03/01/2019 21:10      56.1      55.7       77     48.9      0.00     16.51      58.1     0.48      1017.4     0.0       N     0   0.0       S   189   9.64    270      -19.2
   03/01/2019 21:00      56.3      55.6       77     48.8      0.00     16.51      58.1     0.48      1017.4     0.3       S   191   1.5     SSW   195   9.64    270      -26.5
   03/01/2019 20:50      56.3      55.9       76     48.6      0.00     16.51      58.0     0.48      1017.2     1.9     SSW   196   2.6     SSW   200   9.64    270      -29.6
   03/01/2019 20:40      56.4      55.9       75     48.4      0.00     16.51      58.1     0.48      1017.2     1.2      SW   219   1.8     SSW   208   9.64    270      -35.0
   03/01/2019 20:30      56.9      56.1       74     48.3      0.00     16.51      58.0     0.48      1017.3     0.9     SSW   204   2.0     SSW   205   9.64    270      -37.1
   03/01/2019 20:20      57.2      56.5       73     48.3      0.00     16.51      58.0     0.48      1017.3     1.2      SW   216   1.8      SW   214   9.64    270      -42.6
   03/01/2019 20:10      57.6      57.0       72     48.3      0.00     16.51      58.0     0.48      1017.3     1.4      SW   227   3.0      SW   229   9.64    269      -39.5
   03/01/2019 20:00      57.9      57.3       70     47.9      0.00     16.51      58.0     0.48      1017.4     1.7      SW   230   3.3     WSW   242   9.64    269      -23.0
   03/01/2019 19:50      57.7      57.4       69     47.7      0.00     16.51      58.0     0.48      1017.4     1.3     WSW   249   2.8     WSW   239   9.65    269      -17.9
   03/01/2019 19:40      57.9      57.4       70     47.7      0.00     16.51      58.0     0.48      1017.5     1.6     WSW   246   3.6     WSW   252   9.65    269      -17.3
   03/01/2019 19:30      58.2      57.5       68     47.2      0.00     16.51      58.0     0.48      1017.3     2.4      SW   234   3.7       W   260   9.65    269      -27.9
   03/01/2019 19:20      58.6      58.0       66     46.8      0.00     16.51      58.0     0.48      1017.2     1.2     WSW   257   2.2     WNW   290   9.65    269      -36.9
   03/01/2019 19:10      59.1      58.2       64     46.3      0.00     16.51      57.9     0.48      1017.2     0.8      SW   231   2.3       W   266   9.65    269      -25.1
   03/01/2019 19:00      59.0      58.6       62     45.7      0.00     16.51      57.9     0.48      1017.0     0.9       W   267   2.7       W   279   9.65    268      -23.4
   03/01/2019 18:50      58.8      58.5       62     45.6      0.00     16.51      57.9     0.48      1017.2     1.5     WSW   245   3.1       W   280   9.65    268      -20.1
   03/01/2019 18:40      59.2      58.7       61     45.4      0.00     16.51      57.8     0.48      1017.2     2.3     WSW   239   4.8     WSW   244   9.65    268      -21.1
   03/01/2019 18:30      59.3      58.8       61     45.6      0.00     16.51      57.8     0.48      1017.0     2.6     WSW   245   4.2      SW   227   9.65    268      -25.3
   03/01/2019 18:20      59.6      59.1       61     45.8      0.00     16.51      57.8     0.48      1016.9     2.0      SW   236   4.1       W   259   9.65    268      -29.1
   03/01/2019 18:10      59.9      59.3       59     45.2      0.00     16.51      57.8     0.48      1017.2     2.5      SW   233   5.2     WSW   241   9.65    268      -33.7
   03/01/2019 18:00      60.2      59.5       59     45.3      0.00     16.51      57.7     0.48      1017.1     2.6     WSW   247   4.0     WSW   254   9.66    268      -27.9
   03/01/2019 17:50      60.2      59.8       58     45.3      0.00     16.51      57.7     0.48      1017.1     2.0      SW   230   4.4      SW   228   9.66    268      -27.8
   03/01/2019 17:40      60.6      59.9       59     46.0      0.00     16.51      57.6     0.48      1017.0     1.5      SW   222   2.9     WSW   244   9.66    268      -30.2
   03/01/2019 17:30      60.9      60.3       59     46.0      0.00     16.51      57.7     0.48      1016.8     1.3     SSW   210   2.9     WSW   256   9.66    268      -22.4
   03/01/2019 17:20      61.3      60.5       59     46.5      0.00     16.51      57.6     0.48      1016.7     2.1     WSW   245   3.7     WSW   251   9.66    268       -8.6
   03/01/2019 17:10      61.4      60.9       57     46.0      0.00     16.51      57.6     0.48      1016.9     2.3      SW   228   4.2      SW   231   9.66    268        2.9
   03/01/2019 17:00      61.8      61.2       56     45.4      0.00     16.51      57.5     0.48      1017.0     3.4      SW   231   5.9      SW   230   9.66    268        5.4
   03/01/2019 16:50      62.2      61.6       55     45.4      0.00     16.51      57.5     0.48      1017.1     3.3     WSW   239   5.1     SSW   194   9.66    268       12.0
   03/01/2019 16:40      62.4      62.0       54     45.6      0.00     16.51      57.5     0.48      1017.1     2.8     WSW   239   5.0     SSW   213   9.66    268       35.3
   03/01/2019 16:30      62.2      61.7       56     46.0      0.00     16.51      57.4     0.48      1017.3     2.7      SW   232   5.3     WSW   243   9.66    268       50.5
   03/01/2019 16:20      62.7      62.0       53     45.0      0.00     16.51      57.4     0.48      1017.3     3.8     WSW   242   6.3      SW   222   9.66    268       31.5
   03/01/2019 16:10      62.8      62.4       54     45.5      0.00     16.51      57.3     0.48      1017.3     2.9      SW   234   4.1     WSW   241   9.67    268       28.2
   03/01/2019 16:00      63.0      62.5       57     47.4      0.00     16.51      57.3     0.48      1017.3     3.2      SW   224   6.3     SSW   198   9.67    268       61.5
   03/01/2019 15:50      63.3      62.7       58     47.9      0.00     16.51      57.3     0.48      1017.3     3.2      SW   227   5.9      SW   214   9.67    268       71.3
   03/01/2019 15:40      63.5      62.8       58     48.3      0.00     16.51      57.2     0.48      1017.4     2.5     WSW   250   6.1      SW   226   9.67    268       60.9
   03/01/2019 15:30      64.0      62.9       58     48.4      0.00     16.51      57.2     0.48      1017.3     3.4      SW   226   7.1     SSW   194   9.67    268       79.2
   03/01/2019 15:20      64.1      63.5       57     48.1      0.00     16.51      57.1     0.48      1017.3     2.8      SW   225   6.2       W   259   9.67    268      130.1
   03/01/2019 15:10      64.8      63.6       56     48.3      0.00     16.51      57.1     0.48      1017.3     2.4       S   190   6.6      SW   220   9.67    268      145.7
   03/01/2019 15:00      64.4      63.0       58     48.5      0.00     16.51      57.1     0.48      1017.4     1.8     SSW   213   4.4     WNW   284   9.67    268      192.0
   03/01/2019 14:50      63.8      63.0       58     48.2      0.00     16.51      57.0     0.48      1017.4     3.9     SSW   204   7.1     SSW   208   9.67    268      213.7
   03/01/2019 14:40      63.7      63.1       57     47.8      0.00     16.51      57.0     0.48      1017.4     2.5     WSW   239   5.6       W   266   9.67    268      165.0
   03/01/2019 14:30      64.0      63.2       56     47.9      0.00     16.51      56.9     0.48      1017.6     3.5       W   263   6.7     WSW   246   9.68    268      141.1
   03/01/2019 14:20      64.0      63.1       57     47.8      0.00     16.51      56.9     0.48      1017.6     2.6     WSW   252   5.4     WSW   252   9.68    268      177.8
   03/01/2019 14:10      64.4      63.0       57     48.1      0.00     16.51      56.9     0.48      1017.6     2.4     SSW   193   6.2     SSW   211   9.68    268      153.3
   03/01/2019 14:00      64.3      63.1       59     48.8      0.00     16.51      56.8     0.48      1017.6     2.8      SW   233   5.4       S   181   9.68    267      373.9
   03/01/2019 13:50      63.6      63.1       58     48.4      0.00     16.51      56.8     0.48      1017.7     2.8      SW   234   5.8       W   259   9.68    268      308.7
   03/01/2019 13:40      63.2      62.5       58     48.0      0.00     16.51      56.8     0.48      1017.8     3.3       W   267   7.4     WSW   257   9.68    268      287.9
   03/01/2019 13:30      63.0      62.5       57     47.5      0.00     16.51      56.7     0.48      1017.9     2.8       W   281   5.5     WNW   297   9.68    268      224.4
   03/01/2019 13:20      62.9      62.3       58     47.8      0.00     16.51      56.7     0.48      1017.8     2.3       S   185   5.1     WSW   254   9.68    268      269.8
   03/01/2019 13:10      63.0      62.3       59     47.9      0.00     16.51      56.7     0.48      1018.0     2.5      SW   236   5.6       W   264   9.68    268      245.4
   03/01/2019 13:00      62.6      62.0       60     48.4      0.00     16.51      56.6     0.48      1018.3     2.5      SW   219   6.2       W   268   9.68    268      207.0
   03/01/2019 12:50      62.8      62.2       59     48.1      0.00     16.51      56.6     0.48      1018.4     2.8     SSW   212   6.4     WSW   250   9.68    268      234.6
   03/01/2019 12:40      62.7      61.7       59     47.6      0.00     16.51      56.5     0.48      1018.4     2.4      SW   219   5.2     WSW   247   9.68    268      255.8
   03/01/2019 12:30      62.0      61.4       61     47.9      0.00     16.51      56.6     0.48      1018.5     2.2     WSW   238   4.3       W   274   9.68    268      214.0
   03/01/2019 12:20      61.7      61.3       60     47.4      0.00     16.51      56.5     0.48      1018.7     2.2     SSW   203   4.7      SW   216   9.68    268      242.4
   03/01/2019 12:10      62.4      61.5       59     47.4      0.00     16.51      56.5     0.48      1019.0     2.8       S   183   7.1     SSW   203   9.69    268      314.3
   03/01/2019 12:00      62.0      60.9       61     47.9      0.00     16.51      56.5     0.48      1019.1     3.3     WSW   244   5.6      SW   224   9.69    268      415.0
   03/01/2019 11:50      61.7      60.9       61     47.7      0.00     16.51      56.5     0.48      1019.4     4.3       W   274   8.6       W   260   9.69    268      379.1
   03/01/2019 11:40      61.6      61.2       63     48.5      0.00     16.51      56.5     0.48      1019.5     4.6       W   262  10.2       W   260   9.69    268      364.2
   03/01/2019 11:30      61.4      59.7       67     49.8      0.00     16.51      56.5     0.48      1019.5     4.2       W   273   9.1     WSW   253   9.69    268      540.6
   03/01/2019 11:20      60.7      59.5       68     49.3      0.00     16.51      56.5     0.48      1019.7     4.3       W   274   8.6      SW   221   9.69    269      223.6
   03/01/2019 11:10      60.8      60.3       68     49.9      0.00     16.51      56.5     0.48      1019.6     2.8     WNW   282   5.1     WSW   250   9.69    268      209.2
   03/01/2019 11:00      60.6      59.5       69     49.9      0.00     16.51      56.5     0.48      1019.7     2.9       W   273   6.3     WNW   282   9.69    268      287.4
   03/01/2019 10:50      60.1      59.5       70     49.7      0.00     16.51      56.5     0.48      1019.5     2.1      SW   232   5.1      SW   229   9.69    268      213.5
   03/01/2019 10:40      60.8      59.4       69     49.9      0.00     16.51      56.5     0.47      1019.7     2.4       W   262   5.0       W   280   9.69    269      142.3
   03/01/2019 10:30      60.8      60.0       69     50.5      0.00     16.51      56.5     0.47      1019.8     1.9       W   274   5.1     WSW   254   9.69    268      317.5
   03/01/2019 10:20      60.0      58.8       73     50.7      0.00     16.51      56.5     0.48      1019.9     2.6     WSW   252   5.4     WSW   248   9.69    268      482.9
   03/01/2019 10:10      61.6      59.3       70     50.2      0.00     16.51      56.5     0.48      1019.8     2.5       W   272   6.6     WSW   239   9.69    269      193.2
   03/01/2019 10:00      61.6      60.1       69     50.5      0.00     16.51      56.5     0.47      1019.8     0.9     NNE    25   2.3       N     6   9.69    268      369.3
   03/01/2019 09:50      60.1      57.7       75     50.8      0.00     16.51      56.5     0.48      1019.8     0.3       N   359   2.5       N     8   9.69    268      349.2
   03/01/2019 09:40      57.9      56.7       79     50.8      0.00     16.51      56.5     0.48      1019.8     0.9       W   277   2.7     WNW   282   9.69    270      202.0
   03/01/2019 09:30      56.9      56.0       80     50.4      0.00     16.51      56.5     0.48      1019.7     1.1     WSW   244   2.5     SSW   213   9.69    270      159.4
   03/01/2019 09:20      56.4      56.0       80     50.3      0.00     16.51      56.5     0.48      1019.6     1.7       W   259   3.9       W   262   9.69    270      108.7
   03/01/2019 09:10      56.3      55.9       82     50.5      0.00     16.51      56.5     0.48      1019.7     1.1      SW   228   2.7     WSW   249   9.69    272      164.9
   03/01/2019 09:00      56.1      55.5       84     50.8      0.00     16.51      56.5     0.48      1019.9     1.1     NNW   334   2.3     NNE    12   9.69    275      165.0
   03/01/2019 08:50      55.7      55.0       85     51.0      0.00     16.51      56.6     0.48      1019.7     0.4      NW   308   1.9     WNW   296   9.69    279       84.2
   03/01/2019 08:40      55.4      54.8       87     51.3      0.00     16.51      56.5     0.48      1019.6     1.0       N   355   2.7     NNW   331   9.69    281      102.8
   03/01/2019 08:30      54.9      54.0       89     51.3      0.00     16.51      56.5     0.48      1019.7     0.1     WSW   244   0.8      SW   227   9.69    283       78.9
   03/01/2019 08:20      54.2      53.6       91     51.2      0.00     16.51      56.5     0.48      1019.8     0.2     WSW   257   1.1      SW   218   9.69    284       76.6
   03/01/2019 08:10      53.8      53.4       92     51.3      0.00     16.51      56.5     0.48      1019.8     0.9      SW   222   2.0      SW   225   9.69    286       48.5
   03/01/2019 08:00      53.6      53.0       93     51.3      0.00     16.51      56.5     0.48      1019.7     0.3      SW   234   2.0      SW   228   9.69    287       38.6
   03/01/2019 07:50      53.3      52.9       94     51.3      0.00     16.51      56.6     0.48      1019.6     0.6     WSW   243   2.4     WSW   242   9.69    291       52.6
   03/01/2019 07:40      53.0      52.6       94     51.0      0.00     16.51      56.6     0.48      1019.4     1.6     SSW   211   2.6     SSW   207   9.69    300       50.9
   03/01/2019 07:30      53.0      52.5       94     51.1      0.00     16.51      56.6     0.48      1019.4     0.3       N   349   1.4     NNE    29   9.69    310       39.3
   03/01/2019 07:20      52.9      52.3       95     51.0      0.00     16.51      56.6     0.48      1019.4     0.7       N   349   1.8     NNW   333   9.69    321       35.1
   03/01/2019 07:10      52.7      52.2       95     51.0      0.00     16.51      56.6     0.48      1019.3     0.0       E   100   0.7       E    99   9.69    329       30.7
   03/01/2019 07:00      52.5      52.0       95     50.9      0.00     16.51      56.6     0.48      1019.3     0.0       E   101   0.9       E   101   9.69    335       31.1
   03/01/2019 06:50      52.4      51.8       95     50.6      0.00     16.51      56.6     0.48      1019.6     0.4     SSW   199   1.8       S   190   9.69    338       16.6
   03/01/2019 06:40      52.1      51.8       95     50.5      0.00     16.51      56.6     0.48      1019.5     1.4     SSW   207   2.3     SSW   211   9.69    341        5.2
   03/01/2019 06:30      52.1      51.7       95     50.5      0.00     16.51      56.7     0.48      1019.3     1.3       S   186   2.0     SSE   169   9.69    342        0.7
   03/01/2019 06:20      52.0      51.8       95     50.5      0.00     16.51      56.7     0.48      1019.0     1.0     SSW   192   1.7     SSW   193   9.69    343       -1.8
   03/01/2019 06:10      52.0      51.7       95     50.4      0.00     16.51      56.7     0.48      1018.9     0.5       S   178   1.1     SSW   196   9.69    342       -2.1
   03/01/2019 06:00      52.0      51.7       95     50.5      0.00     16.51      56.7     0.48      1019.1     0.0       S   177   0.5       S   177   9.69    343       -2.2
   03/01/2019 05:50      51.9      51.5       95     50.4      0.00     16.51      56.7     0.48      1019.1     0.2     SSW   199   1.2     SSW   208   9.69    342       -2.0
   03/01/2019 05:40      51.9      51.4       95     50.3      0.00     16.51      56.8     0.48      1019.1     0.9     SSW   200   1.6     SSW   205   9.69    342       -1.9
   03/01/2019 05:30      51.9      51.4       95     50.3      0.00     16.51      56.8     0.48      1018.9     0.2      SE   132   1.0      SE   134   9.69    343       -2.1
   03/01/2019 05:20      51.8      51.3       95     50.1      0.00     16.51      56.8     0.48      1018.7     0.4      SE   133   1.1      SE   128   9.69    344       -2.1
   03/01/2019 05:10      51.7      51.3       95     50.1      0.00     16.51      56.8     0.48      1018.8     0.6      SW   236   1.4     WSW   239   9.69    346       -2.3
   03/01/2019 05:00      51.6      51.1       95     50.0      0.00     16.51      56.8     0.48      1018.5     0.0     WSW   239   1.0      SW   227   9.69    348       -2.7
   03/01/2019 04:50      51.4      51.0       95     49.9      0.00     16.51      56.8     0.48      1018.3     0.2     NNW   343   1.3       N     5   9.69    348       -3.3
   03/01/2019 04:40      51.2      50.8       95     49.6      0.00     16.51      56.8     0.48      1018.3     0.0     NNW   339   0.9      NW   317   9.69    350       -6.0
   03/01/2019 04:30      51.1      50.8       95     49.6      0.00     16.51      56.9     0.48      1018.2     0.0       N     0   0.0       S   170   9.69    350       -7.6
   03/01/2019 04:20      51.2      50.7       95     49.6      0.00     16.51      56.9     0.48      1018.2     0.2     SSW   194   1.4      SW   219   9.69    348       -3.6
   03/01/2019 04:10      51.1      50.7       95     49.4      0.00     16.51      56.9     0.48      1018.3     1.2      SW   233   2.3     SSW   202   9.69    348       -2.1
   03/01/2019 04:00      51.4      50.7       95     49.4      0.00     16.51      56.9     0.48      1018.0     1.7       S   190   2.9     SSW   205   9.69    348       -1.8
   03/01/2019 03:50      51.5      51.0       94     49.7      0.00     16.51      56.9     0.48      1017.7     1.2     SSW   194   2.4     SSW   194   9.69    345       -2.4
   03/01/2019 03:40      51.6      51.2       94     49.7      0.00     16.51      56.9     0.48      1017.6     0.8       S   176   1.8       S   178   9.69    344       -2.3
   03/01/2019 03:30      51.8      51.2       94     49.8      0.00     16.51      56.9     0.48      1017.9     1.4     SSW   208   2.0       S   185   9.69    343       -2.2
   03/01/2019 03:20      51.6      51.2       94     49.8      0.00     16.51      57.0     0.48      1017.8     1.3     SSE   160   2.7     SSE   157   9.69    343       -2.1
   03/01/2019 03:10      51.6      51.2       94     49.7      0.00     16.51      57.0     0.48      1018.1     1.1       S   172   2.1     SSE   162   9.69    344       -2.3
   03/01/2019 03:00      51.6      50.6       94     49.5      0.00     16.51      57.0     0.48      1018.2     1.0     WSW   238   2.6       S   175   9.69    345       -2.9
   03/01/2019 02:50      50.9      49.7       94     48.6      0.00     16.51      57.0     0.48      1018.2     0.9      SW   225   2.1      SW   218   9.69    345       -2.3
   03/01/2019 02:40      50.0      48.9       94     47.8      0.00     16.51      57.0     0.48      1018.1     1.6     WSW   245   2.1     WSW   249   9.69    345       -6.2
   03/01/2019 02:30      49.5      48.7       93     47.1      0.00     16.51      57.0     0.48      1018.2     0.2     SSE   163   1.2     SSW   193   9.69    342      -15.0
   03/01/2019 02:20      49.7      48.8       93     47.1      0.00     16.51      57.1     0.48      1018.5     0.9     SSE   166   2.0     SSW   192   9.69    337      -15.2
   03/01/2019 02:10      50.0      49.3       93     47.7      0.00     16.51      57.1     0.48      1018.6     1.1       S   182   2.1       S   181   9.69    333      -18.9
   03/01/2019 02:00      50.1      49.5       92     47.6      0.00     16.51      57.1     0.48      1018.9     0.9      SW   222   1.6      SW   215   9.70    327      -23.9
   03/01/2019 01:50      50.6      49.7       92     47.9      0.00     16.51      57.1     0.48      1019.0     0.5     SSE   152   1.4      SE   144   9.70    321      -25.6
   03/01/2019 01:40      51.0      50.3       92     48.3      0.00     16.51      57.1     0.48      1019.3     0.0       N     0   0.0      SE   140   9.70    315      -27.5
   03/01/2019 01:30      52.0      50.7       91     48.7      0.00     16.51      57.1     0.48      1019.4     0.3      SE   129   1.1       S   171   9.70    309      -28.3
   03/01/2019 01:20      52.0      51.7       91     49.3      0.00     16.51      57.1     0.48      1019.6     1.3      SW   229   2.3       S   189   9.70    302      -28.8
   03/01/2019 01:10      52.6      51.8       90     49.3      0.00     16.51      57.1     0.48      1019.6     0.2      SE   142   1.4     SSE   151   9.70    297      -33.9
   03/01/2019 01:00      53.0      52.2       90     49.7      0.00     16.51      57.1     0.48      1019.8     0.2      NE    42   1.1     NNE    18   9.70    292      -35.5
   03/01/2019 00:50      53.4      52.8       90     50.3      0.00     16.51      57.2     0.48      1020.0     0.5      SW   231   2.8     WSW   252   9.70    285      -36.5
   03/01/2019 00:40      53.3      52.7       90     50.1      0.00     16.51      57.2     0.48      1020.0     1.2      SW   215   2.9      SW   221   9.70    282      -33.3
   03/01/2019 00:30      53.5      52.8       89     50.0      0.00     16.51      57.2     0.48      1020.0     0.7       S   173   1.8       S   181   9.70    280      -30.0
   03/01/2019 00:20      53.8      53.0       89     50.2      0.00     16.51      57.2     0.48      1020.2     1.0      SW   228   2.8       W   261   9.70    278      -34.0
   03/01/2019 00:10      54.0      53.5       89     50.5      0.00     16.51      57.2     0.48      1020.1     1.7      SW   228   3.6     WSW   257   9.70    275      -36.7
   03/01/2019 00:00      53.7      53.3       89     50.5      0.00     16.51      57.2     0.48      1020.2     2.3      SW   236   6.6     SSW   211   9.70    277      -15.5


Back to data home page